ECMWFFLT1_850_spd_000.txt.gz
Wind_Speed
25 28 32 33 33 33 35 34 32 32 33 35 38 38 36 36 37 35 32 33 35 34 32 32 31 30 30 31 31 31 30 29 28 27 27 26 24 23 22 19 18 15 13 11 10 11 10 10 10 11 11 10 9 8 8 9 8 7 7 7 6 6 6
24 27 31 33 34 35 35 35 34 35 35 37 40 40 38 37 40 39 35 36 38 37 34 33 32 31 31 31 31 31 31 31 30 29 28 28 26 24 22 20 17 15 13 11 10 10 9 9 10 10 10 9 8 8 8 8 8 7 7 7 7 7 7
24 26 28 31 33 35 36 37 39 41 39 38 39 40 40 39 41 42 40 39 40 38 36 35 34 32 31 32 32 31 32 32 31 31 30 29 27 24 22 20 17 14 12 11 10 10 9 10 11 10 10 9 8 8 8 8 8 7 7 8 7 8 8
25 26 27 30 31 34 39 43 45 45 42 38 38 40 42 43 43 43 42 41 40 39 38 37 36 34 33 34 34 32 33 33 32 32 31 28 26 25 23 21 18 14 12 11 11 11 10 10 10 10 10 9 8 8 9 9 8 8 8 8 8 9 9
24 26 27 29 31 32 38 45 47 46 42 38 37 39 41 43 43 42 41 41 39 38 39 39 36 36 37 37 37 36 36 34 32 31 30 28 26 25 24 22 18 14 13 13 11 11 10 10 10 10 10 9 8 8 9 9 9 9 9 9 9 9 9
22 25 27 29 31 32 36 43 46 44 42 39 37 38 41 41 41 41 39 39 39 38 38 38 37 37 39 39 39 39 38 35 31 30 29 28 27 25 23 22 19 15 15 14 12 11 10 10 10 9 8 8 8 8 9 10 10 10 10 10 10 10 10
20 23 27 29 31 33 35 39 43 43 42 39 36 36 39 39 38 38 37 37 39 38 37 37 38 39 41 40 40 40 39 37 34 31 30 29 28 27 25 23 21 18 16 14 12 12 11 10 10 9 7 8 9 10 11 11 11 11 11 11 12 11 11
19 22 27 30 32 34 34 36 39 41 40 39 37 36 38 38 36 36 36 35 35 36 37 35 35 40 43 41 41 42 41 40 39 35 32 30 28 27 25 24 23 19 17 15 12 11 10 9 9 8 8 9 10 11 12 12 12 12 12 13 13 13 12
17 21 25 28 30 32 33 33 34 37 38 39 39 38 38 39 37 35 35 33 32 34 36 35 33 37 43 43 43 43 42 42 42 37 32 32 31 28 24 22 21 19 19 16 11 7 8 9 8 8 9 11 12 13 13 14 14 14 15 15 15 15 14
15 18 20 24 26 28 30 30 31 34 36 39 42 43 42 41 38 35 33 32 32 31 33 34 33 34 41 47 46 44 44 45 43 39 35 34 31 26 24 21 19 20 20 16 8 5 9 11 11 12 14 17 18 17 17 17 16 16 17 17 18 18 17
13 16 18 21 23 25 27 28 31 35 37 40 44 47 47 45 41 37 33 32 31 30 30 33 34 33 37 43 44 43 44 43 41 37 35 34 31 28 26 25 23 22 21 19 15 13 17 21 21 22 22 23 22 22 23 21 19 18 18 18 19 19 18
13 15 16 19 21 24 25 27 31 36 40 42 45 47 48 48 46 41 37 35 32 30 30 31 33 33 32 35 38 39 37 34 33 32 30 30 31 31 30 30 29 28 27 27 26 27 30 31 30 29 27 24 23 24 25 24 21 20 19 19 19 20 18
15 13 14 17 20 22 25 27 31 36 41 43 44 44 45 47 47 44 42 41 37 33 33 33 31 30 33 38 39 37 36 35 37 38 34 32 33 34 34 33 32 32 36 38 35 37 42 41 37 36 34 31 30 29 27 25 22 21 21 19 19 20 19
17 14 13 16 20 24 26 28 31 36 39 40 41 42 42 42 42 43 44 45 42 38 38 37 32 32 38 41 35 32 37 39 39 38 37 35 35 34 33 33 31 31 36 41 40 41 46 45 41 40 40 39 39 38 33 28 25 23 22 20 20 20 19
16 16 16 18 23 27 29 29 32 35 37 38 39 40 40 39 39 40 41 42 42 41 39 37 35 36 36 34 30 29 32 32 31 31 32 32 33 32 33 36 36 35 39 42 42 41 43 42 40 41 43 43 42 40 34 29 26 25 23 22 20 20 19
15 16 18 21 24 29 33 34 35 35 36 37 38 39 40 40 40 39 39 38 38 39 37 33 32 30 26 24 30 32 30 29 29 29 28 26 27 36 43 45 45 46 48 47 44 41 41 42 42 42 45 45 39 34 30 27 26 25 23 22 20 19 19
15 16 19 23 26 29 32 34 35 35 37 38 39 39 40 39 38 36 35 34 33 33 32 28 27 24 19 19 26 30 30 31 33 32 31 28 26 34 43 48 50 52 53 52 49 44 41 42 44 43 46 46 36 29 29 29 27 25 24 24 21 19 19
13 15 16 19 23 26 30 34 36 38 39 37 37 38 38 36 34 33 31 28 26 25 24 23 22 19 18 21 25 28 28 29 30 31 32 30 28 29 35 43 50 53 53 52 49 46 42 44 46 45 47 46 37 30 29 29 27 24 24 24 23 20 20
11 11 11 13 17 22 27 28 30 33 33 30 30 32 32 29 28 28 27 24 22 20 18 18 18 17 20 24 26 26 26 25 25 26 26 26 25 25 29 37 44 49 49 45 43 44 45 48 49 46 46 45 38 32 30 27 25 23 22 23 23 22 22
10 9 10 11 14 19 24 24 23 26 28 25 25 25 23 22 21 22 22 21 21 19 17 16 16 17 21 24 21 21 22 21 21 21 21 21 20 22 27 32 37 42 44 43 43 45 47 49 49 47 47 45 39 33 29 26 24 23 23 24 25 24 23
11 11 11 12 14 18 23 25 25 27 27 24 23 22 20 19 18 17 18 17 17 17 16 16 16 17 18 19 16 17 19 20 20 19 18 17 17 20 23 25 28 33 39 42 43 45 46 48 49 47 43 40 37 33 29 26 26 26 25 26 28 28 26
11 13 15 16 17 19 21 23 26 29 29 26 24 22 21 20 19 18 19 18 18 18 17 15 15 15 13 13 13 16 19 20 19 17 15 16 17 19 20 20 23 27 33 38 40 42 44 45 47 45 39 35 34 33 30 28 28 27 25 26 28 29 27
10 12 14 16 17 19 21 22 25 27 27 27 27 27 27 26 24 24 24 23 22 21 19 17 16 14 13 13 13 15 18 18 15 14 15 16 17 18 18 19 20 22 26 31 33 36 38 40 43 41 35 33 33 32 30 31 30 27 25 25 27 28 28
12 12 14 16 18 19 21 23 24 26 27 29 31 33 33 32 31 29 28 26 23 22 20 18 16 14 13 13 12 12 14 14 13 14 17 17 17 17 18 18 19 19 21 24 27 30 32 34 33 30 27 28 30 29 28 28 27 24 24 26 29 30 30
13 13 15 17 19 21 23 25 29 31 30 31 34 37 36 35 33 31 28 25 23 21 20 19 16 15 14 12 12 12 12 13 14 15 17 17 17 17 17 17 17 18 21 24 27 28 27 26 24 21 20 22 25 28 27 25 23 23 24 27 31 32 30
15 16 17 19 22 27 31 34 34 33 32 34 37 37 35 33 31 28 25 24 22 20 19 18 16 15 15 15 15 15 15 15 17 17 18 18 18 17 17 17 17 18 21 23 22 21 20 20 19 19 18 17 20 26 27 23 22 24 24 25 27 27 25
16 17 19 24 30 35 37 38 37 34 34 36 36 33 32 30 28 26 24 23 21 20 19 17 16 15 15 16 17 18 18 17 18 19 19 19 18 17 18 19 18 18 19 18 16 16 17 17 17 18 17 15 17 20 21 20 20 21 20 20 20 20 18
20 22 27 33 37 36 35 36 37 35 34 34 31 30 29 27 26 24 22 21 19 18 18 16 14 15 16 16 18 19 19 19 20 21 20 19 19 20 21 22 21 20 18 16 14 15 16 16 16 17 17 17 18 18 17 18 18 18 18 18 18 16 14
28 31 34 36 34 31 30 32 34 33 31 30 28 27 25 23 22 21 18 16 14 13 14 14 15 16 17 18 19 19 19 19 21 22 21 21 21 23 24 24 23 21 20 17 15 15 16 15 16 17 16 17 19 18 16 17 19 19 18 17 15 13 12
32 31 30 29 27 25 27 30 30 29 28 26 25 23 20 16 14 14 13 13 11 11 13 15 16 18 18 18 19 19 19 19 20 20 21 21 23 24 25 25 24 22 20 17 16 16 15 15 15 15 15 16 17 16 16 17 18 16 14 13 12 11 11
27 26 25 25 24 22 22 24 24 23 21 20 19 18 16 12 10 11 12 12 11 11 14 16 17 19 19 19 19 19 19 20 20 20 20 21 24 26 26 25 23 20 17 16 16 16 14 14 15 15 15 16 17 19 19 17 15 13 11 10 10 11 12
25 23 23 24 25 22 19 19 20 19 17 16 14 13 12 11 10 8 9 10 9 11 15 17 18 18 18 18 18 19 19 19 20 21 21 23 26 28 27 24 20 16 14 13 15 16 15 15 15 15 16 17 18 21 20 17 13 12 11 10 10 11 11
25 23 22 23 24 23 19 18 18 16 14 13 11 9 8 9 9 9 9 10 12 16 19 19 17 18 17 16 16 17 17 17 18 18 19 22 26 25 22 19 15 14 13 14 15 15 16 16 16 16 17 17 17 18 17 14 11 10 9 9 10 11 10
23 23 22 21 21 21 19 17 15 12 11 10 9 8 8 8 10 11 12 13 16 19 21 20 18 17 16 15 14 14 15 15 17 17 17 21 23 21 18 15 13 13 13 13 13 14 15 16 16 15 15 15 15 14 14 12 10 10 10 10 11 11 10
22 21 21 20 18 18 17 15 13 10 9 9 9 9 10 11 12 13 14 15 16 17 19 20 17 15 15 14 14 14 14 15 15 16 18 21 22 20 17 15 12 13 13 13 12 13 14 15 14 12 12 12 12 12 12 12 12 12 12 13 13 12 12
21 20 19 19 18 16 14 13 11 10 9 9 9 10 11 12 13 14 14 14 14 15 16 17 15 15 15 14 13 14 14 14 16 17 18 18 17 16 15 14 12 13 14 14 14 13 13 14 15 14 12 10 10 12 12 12 13 13 13 13 13 13 13
19 18 17 17 16 15 13 11 10 8 8 8 9 9 10 12 13 14 13 12 13 14 15 15 16 16 16 14 14 14 15 15 16 16 15 14 12 12 13 13 13 13 14 14 13 11 12 15 17 15 13 11 10 12 13 13 13 12 13 14 14 14 13
16 15 14 14 14 14 12 10 8 6 5 6 7 8 9 10 11 13 12 12 13 13 14 15 18 18 17 16 16 16 16 16 15 13 12 13 12 11 11 11 10 11 11 11 12 12 14 15 15 13 13 13 13 13 13 12 12 13 14 15 15 14 13

ECMWFFLT1_850_spd_003.txt.gz
Wind_Speed
31 28 27 30 33 35 38 39 39 39 39 39 40 39 39 38 37 35 34 34 34 33 34 34 32 30 29 29 29 29 29 28 26 24 23 22 19 18 16 15 14 12 10 8 7 7 7 7 8 8 7 7 8 8 8 9 9 8 7 7 7 6 6
25 26 26 29 33 37 40 40 39 39 39 40 40 40 40 39 39 37 35 35 35 34 34 34 34 32 30 30 29 29 29 28 27 26 25 23 21 20 17 15 14 13 11 8 7 6 6 7 7 7 8 9 9 9 9 8 8 8 8 7 7 7 6
20 25 26 31 35 38 39 39 40 40 40 40 40 41 41 41 41 40 37 36 36 36 34 33 34 34 32 31 30 29 29 29 29 29 28 26 24 21 17 16 15 13 11 8 7 6 6 7 7 8 9 10 10 10 9 9 9 8 9 9 9 8 7
18 23 25 29 34 36 37 39 40 40 40 40 41 41 42 42 41 40 39 36 36 37 36 34 34 34 33 32 32 30 29 30 31 31 29 27 24 22 19 17 16 13 10 9 8 7 6 6 7 8 9 9 10 10 10 10 10 10 10 11 11 11 10
22 23 23 25 31 34 36 39 41 40 40 39 40 40 40 40 40 39 39 37 35 36 36 34 33 32 32 32 32 31 30 32 32 32 31 28 24 22 20 18 16 14 11 11 10 7 4 4 6 7 7 8 9 11 11 11 12 12 12 12 12 12 12
22 22 22 25 30 35 37 39 41 41 41 39 39 38 38 39 39 38 38 38 36 34 34 34 33 31 31 32 32 31 31 32 33 33 32 29 25 22 20 19 18 15 13 13 11 8 7 8 9 9 9 10 11 12 13 15 14 13 13 14 14 14 13
18 19 20 24 29 34 37 38 39 40 40 38 37 38 38 38 39 38 37 37 38 35 34 34 34 32 30 31 32 32 32 31 33 34 32 29 27 24 23 22 21 19 18 17 15 13 14 17 19 19 17 15 14 15 16 18 16 13 13 15 15 15 15
20 22 24 26 28 33 35 36 37 37 37 37 37 38 38 38 38 38 37 37 37 37 35 33 33 32 31 31 32 33 33 31 32 34 32 29 28 27 27 26 26 25 23 21 20 20 23 27 29 29 26 22 20 19 19 20 18 15 14 15 16 16 16
23 29 26 24 28 33 32 34 35 36 37 38 38 38 38 38 38 39 38 37 36 37 36 33 31 31 31 31 32 33 34 33 33 34 33 31 31 31 31 30 30 29 27 26 27 29 31 34 36 35 32 28 26 23 22 22 20 17 16 16 16 17 16
19 26 22 22 28 32 29 30 32 34 38 41 41 39 38 38 38 38 38 37 35 36 36 33 31 31 32 32 31 31 34 35 34 35 35 35 35 35 35 35 34 33 32 33 34 36 36 37 39 41 38 33 30 28 25 23 22 21 20 18 16 17 17
14 15 15 18 25 29 27 28 31 35 40 44 44 41 39 39 38 37 37 37 36 34 33 33 33 32 32 32 32 31 33 35 35 36 37 36 36 37 38 38 36 36 38 40 40 39 39 37 39 43 41 37 33 31 29 26 24 23 23 20 17 17 17
3 9 13 16 20 24 26 28 31 35 39 44 46 42 40 40 38 37 37 36 36 33 32 33 34 34 33 32 33 34 35 35 37 38 39 36 37 40 42 40 38 39 42 43 41 41 40 38 39 42 42 39 35 31 30 28 25 25 24 21 18 18 17
7 11 14 17 19 22 26 27 30 34 38 42 44 43 41 40 38 38 37 37 35 33 32 33 35 36 35 35 37 38 36 36 38 40 40 39 42 44 44 42 42 43 45 45 42 42 41 36 33 37 40 40 38 34 32 31 27 26 25 22 21 20 17
12 14 15 16 19 22 26 28 30 33 36 38 40 41 41 39 38 39 38 37 36 34 33 34 36 37 36 37 40 40 38 38 39 40 42 42 45 46 46 45 46 46 46 45 43 43 43 35 28 30 34 37 39 37 34 32 30 27 25 21 21 21 18
19 19 18 18 20 23 24 27 30 32 35 36 38 39 39 38 39 39 39 38 37 35 35 35 36 37 38 41 42 39 38 39 39 40 44 46 46 48 49 48 48 47 46 45 44 46 48 41 31 28 29 30 35 38 35 33 32 30 25 21 21 21 20
21 21 21 19 18 20 22 25 29 32 34 35 37 38 39 39 39 39 38 38 37 36 35 34 36 37 39 42 42 38 37 39 41 43 47 48 47 48 50 48 47 47 46 45 45 46 50 47 37 31 28 27 32 39 38 35 33 32 29 24 21 21 21
22 18 18 18 16 16 19 23 26 30 33 36 39 40 40 39 39 38 37 36 37 37 35 34 35 36 37 38 38 37 40 44 46 46 46 46 44 45 47 45 44 46 46 46 47 47 50 49 41 35 32 31 33 37 39 37 34 33 33 27 21 20 21
20 21 19 15 13 16 20 23 27 30 34 37 39 40 40 40 39 38 37 35 35 36 35 33 34 35 37 40 40 42 45 48 49 47 44 42 40 40 41 41 41 43 43 45 47 47 49 49 44 39 37 38 38 37 38 37 35 34 33 27 22 19 21
20 24 21 13 13 17 21 24 28 31 34 35 37 38 39 39 39 38 36 34 34 34 34 33 32 33 36 41 44 46 47 48 47 45 42 39 37 37 38 38 39 39 41 44 47 48 49 49 46 42 40 41 40 38 36 33 33 33 32 27 23 21 22
25 24 19 13 13 17 21 25 27 29 30 31 33 35 35 35 35 36 34 33 32 33 34 33 32 34 38 41 42 43 43 43 42 39 38 36 34 35 36 37 37 37 39 43 46 49 50 49 46 44 43 43 41 38 34 28 28 30 30 28 26 23 23
25 20 17 15 18 21 23 26 27 28 29 30 31 32 32 32 33 34 33 32 31 33 34 34 34 36 39 38 36 37 37 36 35 32 30 29 28 30 32 34 34 35 37 42 46 50 50 49 46 44 43 42 39 36 31 25 25 28 29 29 27 24 23
25 20 17 17 20 23 24 26 27 28 30 31 31 32 33 33 32 32 32 31 31 33 35 35 34 34 36 34 34 35 34 32 30 28 26 24 24 26 27 28 30 31 34 39 44 46 47 47 45 43 42 40 37 34 28 24 26 29 29 29 26 23 24
27 24 21 19 19 21 23 23 25 27 29 31 32 33 33 32 32 32 32 32 32 33 34 34 34 34 34 33 33 32 31 31 30 27 24 23 23 24 23 23 25 27 29 34 39 38 37 38 38 37 38 36 33 32 27 23 26 28 27 27 25 24 25
23 24 21 18 18 19 21 22 24 26 28 30 31 32 32 31 32 34 34 34 33 34 34 33 32 31 28 27 29 29 28 28 26 24 23 24 24 23 22 23 24 23 24 28 32 29 25 23 26 30 32 29 26 26 24 22 25 27 26 26 25 24 24
19 21 19 17 18 19 21 23 24 26 28 29 29 29 29 30 32 35 35 35 35 35 34 32 31 29 26 26 27 25 22 22 22 23 25 25 25 23 23 23 22 21 22 24 25 24 20 19 22 26 25 21 19 21 20 19 22 25 25 23 22 22 22
17 18 17 17 18 19 21 23 25 27 28 31 31 29 29 30 31 32 33 34 34 33 32 31 30 29 27 25 22 20 20 20 22 25 26 26 25 23 22 21 18 17 19 19 17 17 18 18 19 18 16 16 17 17 15 15 19 23 21 19 18 18 19
15 15 16 16 17 19 21 23 24 24 25 28 30 30 31 32 31 31 32 34 33 31 31 30 27 24 24 23 21 22 22 21 21 25 28 27 24 21 19 18 18 17 17 16 14 15 15 15 13 12 13 15 15 13 12 11 14 18 18 16 16 17 18
14 14 15 16 18 21 21 22 23 23 23 26 29 30 31 31 31 31 31 30 31 31 30 28 26 24 25 25 26 26 23 21 24 28 29 26 23 21 20 20 20 19 17 14 15 16 15 13 12 12 14 14 12 12 11 10 11 15 16 15 15 16 17
14 15 15 17 20 21 22 23 24 25 25 27 29 29 29 31 33 32 29 28 29 31 30 29 28 28 27 28 28 24 20 22 29 31 29 26 25 24 22 20 20 20 18 16 16 16 15 14 14 14 14 13 12 10 10 12 14 15 14 13 13 15 18
13 15 17 19 21 21 24 27 28 27 27 27 27 27 30 34 35 32 28 28 29 30 30 29 29 28 27 27 26 21 19 24 30 29 26 25 23 21 21 21 21 21 19 18 16 14 13 14 14 14 14 13 13 12 12 15 16 13 13 13 14 16 17
16 18 19 21 23 24 26 28 28 27 27 26 27 28 30 33 33 30 27 27 29 31 31 29 27 27 27 26 25 22 22 27 28 25 23 22 21 22 24 25 24 22 21 19 16 13 13 14 13 13 13 13 13 13 14 16 14 12 13 15 15 17 17
20 20 21 22 24 26 26 27 28 28 27 27 27 29 29 29 30 30 29 30 31 31 29 26 25 25 24 21 21 22 24 26 25 23 22 22 22 25 27 25 22 21 20 18 14 13 14 14 13 14 13 13 13 13 13 13 13 12 13 15 16 17 17
23 22 21 23 24 25 25 26 26 26 24 22 22 25 27 26 25 27 29 30 29 27 24 22 23 23 20 17 18 20 21 23 22 21 20 20 19 21 22 21 18 18 17 15 14 14 15 14 14 14 13 13 13 12 12 12 13 13 13 14 15 16 14
22 22 22 23 23 23 23 23 23 23 22 21 19 20 23 24 24 24 25 27 27 27 26 25 23 21 20 19 20 20 20 20 20 19 18 18 18 19 20 19 17 15 15 15 14 14 15 14 14 14 13 13 13 12 12 13 13 13 13 14 14 14 14
22 22 21 21 22 23 22 22 21 21 21 20 18 18 18 19 21 22 23 23 23 24 25 24 22 21 21 21 21 21 20 18 18 19 19 20 22 23 22 21 20 17 16 17 17 16 15 14 13 13 13 12 12 13 14 14 13 13 13 13 13 13 14
20 20 20 19 20 20 20 19 19 18 18 18 16 16 16 16 17 18 19 18 17 17 19 21 21 21 20 20 21 21 20 18 19 20 22 23 25 26 25 23 23 21 18 18 18 17 15 13 13 14 13 11 12 14 14 12 12 13 13 13 13 13 13
18 18 18 18 18 18 17 17 16 15 16 15 15 16 18 18 18 17 17 17 17 18 19 20 21 21 20 19 20 20 19 20 21 21 22 23 24 26 26 24 22 20 17 15 14 14 13 12 13 15 15 13 12 13 12 11 12 13 13 12 12 12 13
17 17 16 16 16 16 15 15 13 13 14 13 14 15 17 17 17 16 14 15 18 20 20 20 21 21 20 21 22 22 22 23 22 21 22 22 21 23 26 24 21 18 15 12 11 11 11 10 12 16 18 16 14 12 11 12 13 12 11 11 12 13 13

ECMWFFLT1_850_spd_006.txt.gz
Wind_Speed
33 33 32 30 31 36 40 42 43 44 43 42 44 45 43 42 41 40 40 40 40 40 39 38 38 37 35 33 32 31 31 30 28 26 25 23 21 23 23 20 20 19 18 18 18 18 17 15 16 17 19 19 15 12 11 10 12 13 11 13 16 13 10
33 34 34 32 32 37 41 44 44 44 45 43 44 46 45 43 43 42 41 41 41 40 40 40 39 38 36 34 33 32 31 30 29 28 26 24 24 24 22 21 21 20 19 19 20 20 19 20 22 23 23 21 15 11 11 10 10 12 12 11 13 14 13
35 36 35 35 36 39 42 42 41 42 44 43 44 47 47 46 45 44 42 42 41 40 40 40 40 38 36 35 35 34 32 30 30 30 28 27 27 26 23 22 22 23 23 22 22 23 22 23 25 24 23 20 16 15 13 12 10 11 13 12 11 11 11
39 39 35 36 37 40 42 41 42 43 44 43 42 45 47 47 45 45 43 42 41 41 41 40 39 39 38 37 36 35 34 32 31 30 29 29 29 28 26 25 24 26 27 26 25 25 25 26 25 23 21 19 18 17 15 13 12 12 13 14 12 11 10
42 40 37 38 39 40 41 40 42 43 43 42 41 43 46 46 46 45 43 42 41 41 41 40 39 39 38 38 37 36 35 34 32 31 30 31 31 31 30 28 28 29 29 28 28 28 28 27 25 22 22 21 21 19 16 15 14 13 13 15 15 13 11
46 44 39 41 40 40 41 39 39 40 40 40 41 41 43 43 44 43 42 42 41 40 40 40 39 39 39 38 37 36 35 35 34 33 32 33 33 34 34 32 31 32 31 30 31 31 30 28 25 25 24 23 22 20 18 17 16 15 14 14 14 13 12
42 46 41 40 36 35 36 36 36 36 36 36 36 37 39 40 41 42 41 41 40 39 40 40 39 39 40 38 37 36 35 35 35 34 34 34 35 36 36 35 35 34 32 33 33 33 31 28 27 28 26 24 22 21 19 19 18 18 16 15 14 12 12
35 43 43 40 34 31 31 32 32 31 33 35 35 36 38 39 40 41 41 40 39 39 40 40 39 40 40 39 37 36 36 36 36 36 36 36 37 38 38 38 38 36 34 34 36 34 31 30 30 30 28 26 23 22 20 20 20 19 18 17 15 14 12
30 41 42 37 32 30 31 33 32 31 32 35 37 38 39 40 40 41 41 40 40 40 40 40 40 39 40 40 38 37 37 37 37 38 37 38 39 40 40 40 40 38 36 37 37 35 31 31 32 31 30 28 25 23 22 21 21 21 19 17 17 16 14
26 40 41 35 33 31 32 34 34 34 35 38 41 42 41 42 42 41 42 41 40 41 40 40 39 39 40 40 39 39 39 39 39 39 39 40 41 41 42 42 41 40 40 40 39 36 33 33 34 33 32 30 28 25 24 23 23 23 21 19 18 17 15
26 35 34 33 33 30 31 34 36 38 40 41 43 44 44 43 42 41 42 42 41 40 40 40 40 39 40 41 40 40 42 42 41 41 41 41 41 42 44 44 44 43 42 41 40 38 36 36 36 36 36 34 30 27 26 25 24 24 23 21 19 18 15
32 34 32 32 31 28 29 33 35 37 39 41 42 43 45 45 43 41 42 42 41 41 41 41 40 40 40 41 41 42 43 44 44 43 43 42 41 43 44 45 45 45 44 43 42 40 38 38 38 38 39 37 32 30 29 27 26 26 25 23 21 19 17
30 31 33 33 30 28 28 32 34 33 33 37 40 43 45 46 44 42 42 43 41 41 42 41 41 41 41 42 43 44 44 45 46 46 45 44 43 44 44 44 44 45 46 46 43 41 41 40 40 41 40 39 35 32 31 29 28 27 26 24 22 20 18
28 28 30 30 31 31 31 32 34 32 31 36 40 44 45 45 44 43 42 43 42 41 43 43 42 43 43 43 44 45 46 46 46 46 46 45 45 44 44 45 45 46 48 48 45 44 45 43 42 42 42 40 37 34 33 31 30 29 27 26 24 21 20
25 27 28 28 31 32 32 33 34 32 32 36 40 44 45 43 44 43 42 44 43 41 42 44 44 44 45 45 45 45 46 45 45 46 46 46 46 46 46 46 48 48 50 49 46 46 47 46 44 44 43 41 39 36 35 34 32 31 29 27 25 22 20
18 22 22 22 25 28 29 30 31 30 33 37 40 44 45 44 45 45 43 44 45 43 42 44 46 46 47 48 46 45 45 45 46 46 46 47 47 47 48 47 48 49 50 50 47 47 48 47 45 44 42 41 40 38 38 37 34 31 29 26 26 24 21
17 19 19 20 23 26 27 26 26 28 32 37 41 45 47 46 47 46 44 42 44 44 42 43 47 48 49 49 47 45 45 45 47 47 47 47 47 46 47 47 48 49 49 49 47 48 48 45 44 43 40 41 42 39 40 41 36 31 29 26 26 24 22
19 19 17 21 22 24 27 26 26 27 30 35 39 43 46 47 47 46 44 42 43 44 43 43 47 49 50 50 47 46 47 47 47 47 47 47 47 46 46 46 47 48 48 48 47 48 47 44 44 43 41 43 46 43 42 43 38 33 31 28 25 23 22
25 26 21 23 24 25 25 26 27 28 30 34 37 41 45 47 47 47 46 45 43 43 43 42 46 50 51 50 49 48 48 48 47 47 46 46 45 45 46 47 48 48 47 47 46 46 45 45 45 43 40 43 46 43 42 43 39 35 33 28 23 21 21
27 30 27 25 27 29 29 27 27 29 30 32 34 38 41 44 46 47 46 44 42 43 44 42 44 49 51 50 51 51 50 49 48 47 45 44 44 46 48 49 48 47 45 45 45 44 44 43 42 40 38 40 41 39 39 39 37 34 31 26 20 18 19
26 29 27 22 23 28 30 28 27 28 29 29 30 32 34 38 42 44 44 43 42 44 46 44 43 46 50 50 51 52 52 50 49 46 45 45 46 47 47 46 45 44 43 42 43 44 43 41 40 38 36 36 36 35 34 33 32 30 27 22 17 15 17
34 32 28 24 19 23 28 28 27 28 28 28 27 28 31 35 39 40 41 42 42 44 47 46 43 44 48 51 52 52 51 49 47 46 47 47 46 45 45 44 44 43 41 40 40 41 42 41 39 38 36 35 35 34 31 28 27 26 24 20 17 16 16
37 35 30 29 28 25 27 27 25 25 27 27 26 26 29 34 37 39 40 41 41 43 46 46 43 43 47 51 52 51 49 47 47 47 46 45 43 43 43 43 42 40 38 37 36 35 35 34 34 34 35 36 35 34 32 29 27 25 23 20 18 17 16
35 35 30 28 31 30 30 28 24 24 27 28 27 27 29 34 37 39 41 42 42 43 44 45 44 45 46 49 50 48 47 47 47 45 43 41 40 40 41 40 39 38 37 36 36 34 30 28 27 29 31 31 32 32 31 29 26 24 21 19 17 16 15
34 33 32 32 31 28 27 27 26 27 29 30 29 29 31 35 37 39 42 43 43 43 44 45 46 46 45 46 46 45 45 46 44 41 39 38 37 35 31 28 28 30 32 33 33 33 31 26 22 21 21 21 22 23 22 21 19 17 15 15 16 15 15
27 27 33 35 35 30 24 23 25 27 29 30 31 31 33 36 38 39 41 42 43 44 43 44 47 46 43 42 41 40 41 41 39 38 37 36 32 27 22 21 22 23 24 24 22 22 24 23 19 18 18 15 14 14 13 14 15 15 14 15 16 16 16
12 12 19 25 28 29 23 22 25 27 28 30 33 33 34 38 39 38 39 40 40 42 40 38 41 43 42 40 37 35 35 36 36 36 34 31 27 24 23 24 23 21 20 19 16 16 19 22 22 21 19 15 14 14 12 13 15 15 15 17 16 15 15
4 4 7 11 17 23 22 23 25 28 28 30 33 33 35 38 38 36 38 38 37 37 36 35 36 37 36 35 35 33 34 36 35 31 29 28 27 27 27 26 25 24 23 21 19 20 23 26 25 22 17 16 16 15 11 9 10 11 13 14 14 13 13
8 7 9 8 9 13 18 24 26 28 28 27 30 32 34 36 36 35 36 36 35 35 36 36 36 34 31 31 32 33 34 35 33 31 30 30 31 31 29 27 25 25 24 22 21 22 24 24 22 18 16 16 15 12 9 8 8 9 9 10 11 12 13
3 5 10 12 11 13 18 22 24 26 26 26 28 30 32 35 36 36 36 35 35 38 39 38 36 33 32 32 32 32 32 32 33 34 33 33 33 32 29 26 24 24 22 21 21 22 21 19 18 16 16 15 12 9 9 9 10 10 9 9 10 11 13
3 5 10 13 15 17 19 19 22 25 24 26 30 31 33 36 37 37 36 35 37 39 38 37 37 35 35 33 32 32 32 32 33 33 31 32 33 31 29 26 24 23 23 22 22 22 20 19 19 18 16 14 11 10 9 10 10 10 9 10 12 14 14
2 5 6 9 14 21 21 19 23 25 24 27 32 33 33 35 37 38 37 36 36 36 34 37 38 37 35 34 34 33 32 32 32 30 28 31 33 32 30 28 24 23 23 22 21 20 18 17 17 18 16 13 12 12 12 12 12 11 11 13 16 17 16
5 7 6 5 10 18 21 21 22 21 21 25 30 32 34 35 37 38 38 37 36 35 35 38 39 37 35 36 35 33 31 31 31 28 27 30 32 31 30 27 22 21 23 22 19 18 17 15 15 15 15 15 14 14 16 17 15 12 14 17 18 17 17
12 14 12 8 8 14 21 25 24 23 22 23 25 29 31 32 34 36 36 36 35 35 35 36 35 35 35 35 34 32 30 29 28 28 29 30 29 27 26 23 19 19 23 22 19 16 16 16 15 14 15 15 15 15 18 19 18 14 14 16 16 15 15
16 17 18 16 16 19 23 25 25 25 23 22 24 27 29 31 32 33 34 35 35 34 33 33 33 33 31 29 28 28 29 29 28 29 29 28 26 25 25 23 21 21 23 22 19 17 16 15 15 15 15 15 16 17 18 18 17 14 11 11 12 11 12
16 17 19 20 20 23 25 24 23 22 21 19 21 25 28 29 29 29 31 33 33 32 31 32 30 27 23 20 21 25 29 30 28 27 27 26 25 25 27 28 25 23 21 20 19 17 17 16 17 17 16 16 17 19 18 16 16 15 11 9 9 9 9
17 17 20 21 22 24 25 24 21 20 19 17 17 21 23 24 23 23 25 29 30 29 29 29 26 22 19 17 19 25 29 26 24 25 25 25 26 27 29 30 27 22 19 19 19 19 19 18 19 18 17 17 17 16 17 17 16 14 10 9 9 9 9
19 19 20 21 23 24 24 23 21 20 19 17 17 19 20 20 19 18 17 20 24 25 26 25 24 23 22 20 20 24 25 23 23 25 25 24 26 28 28 29 27 24 21 20 20 21 20 19 20 19 18 19 17 15 16 18 16 12 10 10 11 11 11

ECMWFFLT1_850_spd_009.txt.gz
Wind_Speed
37 38 39 42 45 46 47 49 49 50 50 50 50 50 49 48 46 45 45 45 44 43 42 40 39 40 42 41 39 37 35 34 33 33 32 30 30 30 29 28 26 25 26 27 27 24 22 22 21 20 23 22 22 22 19 15 14 15 16 16 15 13 9
36 37 39 40 43 45 46 48 49 50 51 50 51 50 49 49 48 47 46 46 45 44 42 41 40 40 42 42 40 38 36 34 34 34 33 32 32 33 33 31 28 26 26 26 26 24 22 22 21 21 24 24 23 22 17 13 14 14 16 17 17 15 13
37 39 40 41 43 44 45 48 49 50 51 51 51 50 50 50 49 48 47 46 45 44 43 42 41 41 42 42 41 39 37 36 34 34 34 34 34 35 34 33 29 27 26 26 25 25 23 23 22 22 24 24 23 21 17 14 14 14 16 19 19 18 15
40 42 44 44 44 45 46 47 49 50 51 51 51 51 51 50 49 48 47 46 46 45 44 43 41 41 42 43 43 41 39 37 36 35 35 35 34 35 35 34 31 29 28 27 26 26 26 25 24 24 24 24 24 22 18 16 16 14 15 18 20 19 17
43 45 45 45 46 48 48 48 49 50 51 51 51 50 50 49 49 48 47 46 45 45 44 43 42 42 43 43 44 43 41 38 37 36 36 36 35 35 35 35 33 31 30 29 28 28 28 28 27 26 26 26 25 23 20 18 16 15 15 17 18 19 18
44 45 44 46 49 51 51 52 52 52 52 52 51 50 48 48 48 48 47 46 45 44 43 43 43 43 44 44 44 44 43 40 38 37 38 38 37 37 37 36 34 33 32 32 31 30 29 29 29 28 28 27 26 24 22 19 17 16 16 16 17 18 18
45 47 47 49 50 51 52 53 53 53 52 51 49 47 46 47 48 48 48 47 46 45 44 45 45 44 44 45 45 46 45 43 40 38 38 39 40 39 38 38 36 34 33 33 33 32 30 29 30 30 29 28 28 27 24 21 18 17 17 18 17 17 17
45 47 48 49 51 51 52 53 53 52 50 48 47 46 46 47 48 49 49 48 47 45 45 46 46 46 45 45 46 47 46 45 42 39 38 39 40 41 41 40 37 35 35 35 34 33 32 31 31 31 31 31 30 28 26 23 20 18 18 19 18 17 17
43 47 49 50 51 51 51 53 53 50 48 48 48 48 48 48 49 50 50 48 47 46 46 46 46 46 46 45 46 47 47 46 44 41 40 39 39 41 42 42 39 37 36 36 35 34 34 33 32 32 32 32 31 30 27 25 23 21 20 20 19 18 18
40 45 49 50 51 51 51 50 48 46 46 47 48 48 49 50 50 50 49 48 47 47 47 46 46 46 46 47 47 47 48 47 46 43 42 41 41 41 42 42 41 40 39 38 37 36 35 34 34 33 33 33 33 31 30 28 26 24 22 21 19 19 18
43 47 49 51 50 49 47 44 42 43 45 46 47 48 49 50 50 50 49 48 47 47 47 46 46 46 47 48 48 48 49 49 47 46 44 44 43 43 42 43 42 42 42 42 41 39 37 36 35 35 35 35 35 34 32 30 28 26 24 21 20 19 19
43 47 49 49 47 44 43 40 41 44 45 46 47 48 49 49 49 49 48 48 47 46 46 46 46 46 48 49 49 49 50 50 49 48 46 46 45 44 43 44 44 44 44 44 43 42 40 38 38 37 37 37 36 35 33 31 29 27 25 23 20 19 20
44 48 48 46 44 43 42 41 42 44 46 47 49 49 49 49 49 48 47 47 47 46 46 45 46 47 48 49 50 50 51 51 51 49 47 47 47 45 45 45 45 46 46 45 44 43 42 41 40 39 38 38 37 36 34 32 30 28 26 24 22 21 21
43 45 44 43 43 45 44 43 44 46 48 49 49 49 49 48 48 47 47 47 46 46 45 45 46 47 48 49 51 52 52 52 51 49 48 48 48 47 47 47 47 47 47 46 45 44 44 43 42 40 39 39 38 36 34 33 32 30 29 27 25 23 22
34 36 36 37 40 43 44 45 47 47 48 49 49 48 47 46 46 46 46 47 47 46 46 45 46 47 48 49 51 53 53 53 52 50 49 49 49 49 49 49 48 48 47 46 45 45 44 43 42 41 40 39 38 37 36 35 34 33 32 30 27 25 24
30 33 35 37 41 45 47 47 47 48 48 47 47 48 47 47 47 48 48 48 48 48 47 46 47 48 49 50 51 53 54 54 53 52 51 50 50 50 51 49 48 47 47 46 45 44 44 43 43 42 41 40 39 38 37 36 36 35 34 32 29 27 25
28 30 32 35 39 43 44 42 41 43 46 46 46 47 47 47 48 49 49 49 49 49 48 47 48 49 51 52 52 52 53 54 54 54 53 52 52 51 50 49 48 47 46 45 44 43 43 43 43 42 41 41 39 39 39 38 37 37 36 34 32 28 26
29 32 35 38 40 40 39 39 40 42 43 45 46 47 47 47 48 49 50 50 50 50 49 49 49 51 52 53 53 53 53 54 55 55 55 54 53 52 50 49 48 47 46 45 44 42 41 41 41 41 41 41 40 39 39 39 38 38 37 34 31 28 28
31 33 35 40 42 42 42 41 41 41 40 41 43 44 45 47 49 51 52 52 52 51 50 50 51 52 54 54 54 54 54 55 55 56 56 55 53 52 50 49 48 47 46 45 44 42 41 40 39 38 39 40 39 39 39 38 38 38 36 32 26 25 28
23 27 34 40 41 42 44 43 40 36 33 35 38 39 42 47 49 51 52 53 53 52 51 52 52 53 55 55 56 57 56 56 56 56 56 54 52 51 49 49 49 47 46 45 43 42 40 38 37 36 37 38 37 37 37 37 38 38 36 32 25 22 26
22 23 32 43 44 43 44 43 40 37 33 33 36 36 39 45 47 49 51 53 53 53 53 54 54 55 56 57 58 59 58 58 57 57 56 54 51 50 50 49 48 47 46 44 43 42 41 39 38 37 37 37 37 36 36 37 38 38 36 32 26 21 23
30 26 26 35 43 46 49 47 42 38 35 35 37 37 39 42 44 47 50 52 53 54 55 56 56 56 57 58 59 60 60 60 59 57 56 54 51 50 49 49 48 47 45 43 42 42 41 40 39 38 37 36 36 36 36 36 37 37 34 30 26 21 18
23 21 20 24 31 37 43 45 42 37 36 38 39 38 39 39 42 47 50 51 53 55 56 58 59 58 58 59 61 62 62 61 60 58 55 53 52 50 49 49 48 46 44 42 41 41 40 39 38 35 33 33 35 35 35 35 35 33 30 26 23 18 17
21 24 25 25 25 28 31 34 35 34 36 39 41 41 40 40 43 48 50 51 53 56 57 59 60 61 61 61 61 62 62 62 59 57 55 53 51 50 49 48 47 45 43 42 42 41 39 38 37 33 31 33 34 34 32 31 30 27 24 22 20 17 17
23 24 28 28 27 27 29 34 37 35 36 39 40 40 41 41 44 48 52 53 54 56 58 60 62 63 63 63 62 61 62 61 58 56 54 53 51 49 48 47 45 44 43 43 42 40 38 37 35 32 31 31 30 27 26 26 24 22 21 21 19 18 18
21 20 20 25 27 24 24 33 43 43 42 42 40 39 42 43 45 48 51 53 56 58 60 62 64 65 65 64 62 60 60 59 57 56 55 53 51 49 47 45 43 42 42 42 40 38 36 35 33 30 28 27 24 21 19 19 19 19 20 21 20 18 18
12 12 12 13 21 24 20 27 41 46 44 41 37 37 41 43 46 49 51 53 55 58 61 64 64 63 63 62 60 58 58 57 55 54 54 52 50 48 45 43 41 40 40 39 36 34 32 31 30 27 25 22 19 16 14 13 13 15 17 18 18 18 18
8 4 4 8 4 9 11 22 38 45 42 37 35 37 41 44 47 49 50 54 56 57 59 61 62 60 59 60 58 55 54 54 53 52 52 51 49 46 43 41 39 38 37 34 33 31 30 29 27 24 22 19 16 13 12 10 10 13 16 16 16 18 19
9 5 5 7 7 5 5 15 29 35 32 29 30 34 38 42 48 51 51 51 53 55 56 55 56 56 56 55 54 52 51 52 52 51 51 49 46 43 41 40 37 34 32 30 30 29 29 29 28 26 23 19 16 13 12 9 9 11 13 15 17 19 19
5 6 6 7 7 3 3 9 17 20 21 21 23 27 27 25 30 40 49 51 50 51 52 52 51 52 52 51 50 50 49 49 50 50 48 46 43 41 39 37 34 31 29 28 28 28 28 28 29 28 25 20 17 14 13 12 11 10 11 13 16 18 18
6 6 6 6 7 8 9 7 9 13 15 16 19 24 27 25 22 25 32 42 47 47 43 42 43 44 44 45 46 46 46 46 47 47 45 43 41 39 36 34 31 30 29 28 27 28 28 28 29 28 24 21 18 16 16 14 12 12 12 12 14 16 18
4 5 6 6 6 8 11 13 15 16 16 16 17 19 23 27 26 22 19 25 39 45 43 40 40 38 37 39 40 39 40 41 41 40 39 38 36 34 33 32 31 31 30 28 28 28 28 28 28 27 23 20 19 18 17 15 13 13 13 13 13 16 18
4 4 5 6 6 6 7 12 16 18 17 16 16 17 18 19 19 16 14 20 31 41 47 47 43 39 34 31 31 32 33 34 34 33 33 33 32 31 31 31 31 31 29 29 28 27 27 27 27 25 23 21 20 19 16 14 13 14 13 13 14 16 18
10 5 3 3 6 7 6 6 9 12 14 12 9 9 12 14 13 13 16 20 24 32 40 43 42 37 32 28 28 30 31 31 32 33 33 32 31 31 31 30 30 30 28 27 27 26 27 26 24 22 21 20 20 19 17 14 15 14 12 11 14 17 20
15 10 8 6 3 4 5 4 5 8 10 8 7 8 9 11 17 20 20 18 17 20 27 30 31 31 31 31 32 33 34 34 35 35 34 32 31 31 30 29 29 29 28 27 25 24 24 23 19 18 20 21 20 19 18 18 16 13 10 9 12 16 18
17 14 12 10 10 9 7 5 3 3 5 7 9 13 15 13 15 22 24 20 15 13 16 20 24 29 34 36 36 36 37 36 35 34 33 33 33 32 30 29 27 25 26 26 23 20 19 17 15 15 20 23 21 19 19 18 15 13 12 10 11 13 15
19 18 15 11 10 13 14 15 12 8 9 12 13 14 16 14 13 18 20 18 16 15 17 23 29 34 37 38 37 36 36 35 34 33 33 33 33 32 31 29 26 23 23 23 21 19 16 14 14 15 17 19 20 19 19 16 14 14 14 11 10 13 14
20 19 18 16 13 12 11 13 14 14 14 17 20 21 21 19 17 18 18 17 20 24 29 33 37 37 37 36 35 34 33 32 33 33 33 33 33 33 32 31 29 26 24 23 22 19 17 16 17 18 17 17 18 18 18 17 16 16 13 10 10 12 12

ECMWFFLT1_850_spd_012.txt.gz
Wind_Speed
45 47 50 51 52 53 54 57 58 58 58 59 59 59 58 57 56 55 55 54 53 52 50 49 48 47 45 42 41 41 43 44 43 41 39 37 35 33 32 32 31 30 29 29 28 26 24 23 23 25 25 24 23 22 20 18 17 16 15 14 15 15 14
43 47 50 51 53 54 55 57 58 59 59 59 60 59 59 58 57 57 56 55 54 52 51 50 49 48 46 43 41 41 42 44 45 43 41 39 38 35 33 33 33 30 29 28 27 26 25 24 25 25 25 25 25 23 22 20 18 17 16 16 17 17 16
40 45 49 52 54 55 56 58 59 60 60 59 60 59 60 60 59 59 57 56 54 53 51 51 49 48 47 44 41 41 42 45 45 44 43 41 39 37 35 35 33 32 30 28 27 26 26 26 26 26 26 27 27 25 23 21 19 18 17 18 19 19 18
39 44 49 52 55 57 58 59 59 60 60 60 60 60 61 61 60 59 58 56 55 53 52 51 50 49 47 45 42 40 42 44 46 45 43 41 39 37 37 37 35 33 32 30 28 27 27 28 29 28 27 28 29 27 25 23 21 20 19 20 21 21 20
39 41 45 49 53 56 57 58 59 60 59 59 60 60 60 60 59 58 57 56 55 53 51 49 48 49 48 45 43 40 41 43 45 45 44 42 40 38 38 39 37 35 34 32 29 28 29 30 30 30 29 30 30 28 26 24 23 22 21 21 22 22 20
39 40 43 48 52 53 55 58 59 60 60 60 59 59 58 57 57 56 56 56 55 53 50 49 48 48 48 46 44 41 40 42 44 45 44 42 40 40 40 40 39 37 35 34 32 31 31 31 32 31 30 30 31 29 28 26 25 23 22 22 22 22 21
42 43 45 48 51 53 56 58 59 59 59 58 57 56 56 55 56 56 55 55 54 53 52 51 49 48 47 46 44 42 41 41 43 45 45 43 41 41 40 41 40 38 37 35 34 33 33 32 33 33 32 31 31 30 29 27 26 25 24 23 23 23 22
46 46 48 50 51 54 56 57 57 58 57 55 55 55 55 55 55 55 55 55 54 53 53 52 51 49 47 45 45 44 42 40 41 44 45 44 42 41 41 41 42 40 39 38 37 35 34 34 34 34 33 32 32 31 30 29 28 27 26 25 24 24 23
47 48 50 52 53 54 56 57 58 57 56 55 54 54 54 54 54 55 55 55 55 54 54 53 52 49 47 46 45 44 42 41 41 43 45 45 43 42 41 42 43 42 41 40 39 37 36 36 35 35 34 34 33 33 32 31 30 29 27 26 25 25 24
45 47 51 54 53 53 54 55 55 54 54 54 54 54 54 54 54 55 55 55 55 55 55 53 52 50 49 47 46 45 44 42 41 42 45 46 45 44 42 43 43 44 43 41 40 39 38 37 37 36 35 35 35 35 34 33 32 31 29 26 25 24 24
45 49 52 53 51 49 50 50 50 52 53 54 55 54 53 54 54 54 55 55 56 55 54 53 52 52 51 49 48 47 46 44 42 42 44 46 46 46 44 44 45 45 44 44 42 41 40 39 38 38 37 37 37 36 36 35 34 32 30 27 26 24 23
46 49 50 50 49 49 48 48 49 51 54 54 55 55 54 53 53 54 54 55 55 54 53 53 52 52 52 51 50 49 48 46 44 43 44 45 46 47 46 45 46 47 47 46 45 43 42 41 40 40 39 39 38 37 37 36 35 33 30 28 27 24 23
44 48 49 49 49 48 47 46 48 51 53 54 54 55 54 53 53 54 54 54 53 52 52 52 52 52 53 52 52 51 50 47 45 43 43 44 46 47 48 47 47 48 48 48 47 46 44 42 42 41 40 39 38 38 38 37 36 34 32 30 28 26 25
36 42 47 49 48 47 46 46 48 50 52 53 53 54 54 53 53 54 53 53 52 51 51 52 52 53 53 53 53 53 51 49 45 43 43 44 46 48 49 49 49 49 49 49 49 48 46 44 43 42 41 40 38 38 38 38 38 36 34 32 30 28 26
31 35 40 44 45 46 47 47 49 50 52 53 53 53 53 52 52 52 52 52 52 52 52 52 53 54 54 54 54 54 52 50 47 44 44 44 46 48 50 51 50 50 50 50 49 48 47 45 44 43 42 41 40 40 40 40 40 39 37 34 32 30 28
32 37 41 42 44 47 48 49 51 52 52 52 52 52 52 52 52 52 52 52 52 53 53 53 54 54 55 56 56 54 53 51 49 47 45 46 47 48 50 51 51 50 50 49 49 48 47 46 45 44 43 42 42 42 42 42 42 40 38 35 33 31 30
27 33 37 38 40 43 47 49 50 49 50 51 51 51 51 52 52 52 52 52 52 53 54 54 55 55 56 57 56 55 53 52 50 49 48 47 48 49 50 51 50 50 49 48 48 47 47 47 46 45 45 44 43 43 43 43 42 41 39 36 35 33 31
25 28 31 34 35 37 41 44 44 45 48 50 50 50 50 50 50 51 52 52 52 53 54 55 56 56 57 57 56 55 53 52 51 50 49 48 48 49 49 49 49 48 47 47 47 47 47 47 47 46 45 44 44 44 44 44 42 41 40 38 37 36 33
24 24 25 29 34 37 41 42 42 43 45 47 49 48 47 47 48 48 50 51 53 53 54 55 56 57 58 58 56 54 52 51 51 50 49 49 48 48 48 47 47 47 46 46 47 47 47 47 47 46 45 45 44 44 43 43 42 41 40 39 38 37 35
26 26 26 29 33 39 43 43 43 44 45 46 48 46 44 44 45 46 47 50 53 53 55 56 56 57 58 57 56 54 52 50 50 49 49 48 47 47 47 47 46 45 45 46 47 47 47 47 46 46 45 45 44 43 43 42 42 41 40 39 38 38 37
22 27 31 34 34 37 41 42 43 44 46 47 46 44 44 45 45 47 49 51 52 53 55 57 57 57 57 56 56 54 52 50 50 49 48 47 46 46 46 46 45 45 45 47 48 48 47 47 46 45 45 44 43 42 41 41 41 40 39 38 38 39 38
11 18 28 33 34 34 35 38 42 44 45 46 45 44 45 46 46 48 50 51 52 54 55 56 57 57 57 56 55 54 53 51 49 49 48 46 46 45 45 46 46 46 46 47 48 48 47 47 46 45 44 43 41 41 40 40 40 39 38 37 37 38 38
2 10 21 31 34 33 30 33 40 42 40 42 46 46 45 46 47 49 51 52 53 54 55 56 57 57 56 56 55 55 54 52 50 49 48 47 46 46 46 46 46 46 47 48 49 49 48 47 46 44 44 42 41 40 39 39 39 37 36 35 35 37 38
9 3 10 23 32 34 32 35 41 43 42 45 49 49 47 48 50 51 52 54 54 54 55 56 56 56 56 56 55 55 54 53 51 50 49 48 48 47 47 47 46 47 48 49 50 50 49 47 46 44 44 42 41 40 39 39 38 35 33 32 33 35 35
12 10 4 10 23 31 35 39 44 47 48 49 50 49 48 50 52 52 53 54 54 54 55 56 57 56 55 55 55 54 54 54 53 52 51 50 49 49 48 47 46 47 48 49 50 50 48 47 45 45 44 42 41 40 38 38 35 31 30 29 30 30 30
10 10 8 5 9 18 26 34 40 45 48 48 48 49 50 50 50 51 52 53 53 55 56 56 56 54 53 54 55 55 55 54 54 53 53 52 51 50 49 47 46 47 48 49 49 49 48 47 46 45 44 42 41 39 37 35 32 27 25 25 25 24 25
7 7 8 7 3 5 11 20 30 39 43 43 43 45 47 48 50 52 55 56 55 56 56 55 54 52 51 53 55 56 56 55 55 55 54 54 53 51 49 48 48 48 48 48 49 48 47 47 46 44 43 42 40 38 35 32 27 22 21 20 20 20 22
4 4 4 5 6 3 1 8 20 32 38 39 39 39 40 42 46 49 52 54 55 54 53 53 54 53 53 55 56 56 56 56 56 55 55 55 53 51 50 49 49 50 50 50 49 48 47 46 45 43 41 40 38 36 33 28 21 18 17 17 17 19 21
5 5 4 4 6 6 5 1 10 23 32 35 37 37 36 36 38 42 44 46 48 49 48 48 50 51 52 54 55 55 56 56 55 55 55 55 54 52 51 51 51 51 50 49 48 46 45 44 43 41 40 38 36 32 27 22 18 16 15 15 16 18 20
4 5 6 7 7 5 4 4 1 9 17 23 27 30 31 29 30 33 37 39 41 43 43 44 46 47 48 49 50 51 51 50 49 50 51 51 51 49 49 49 49 47 46 46 45 41 38 38 39 38 39 37 34 29 23 19 17 16 14 14 16 18 20
3 3 5 8 9 7 6 4 3 4 7 11 15 19 23 24 25 24 23 24 29 33 36 39 41 43 45 46 48 49 48 46 45 46 47 47 47 47 47 48 47 46 45 44 40 36 36 38 39 38 38 35 31 27 23 20 17 16 15 16 18 19 21
5 5 4 5 8 9 9 9 8 8 8 8 10 11 14 18 22 21 18 16 16 19 24 30 34 37 39 42 44 47 48 46 44 44 46 47 46 46 48 50 48 46 42 36 32 33 36 38 38 37 35 33 30 27 23 21 18 16 16 18 20 22 23
8 8 8 6 5 6 8 9 10 10 10 11 12 13 13 15 18 20 22 22 20 22 27 31 34 35 37 39 43 47 49 50 49 47 46 47 48 49 49 48 45 40 35 32 32 33 33 34 36 37 34 31 28 25 22 20 19 17 17 19 21 23 25
9 9 9 8 7 5 5 6 7 9 9 9 11 13 15 18 19 21 24 26 26 29 33 33 31 30 33 37 43 48 51 51 51 51 50 49 50 51 49 45 40 35 33 34 35 32 32 36 38 36 32 29 27 23 22 21 19 18 19 20 20 22 25
10 10 9 8 6 5 3 3 5 6 7 7 8 10 12 15 17 20 22 24 25 27 29 29 29 30 33 35 38 43 50 55 54 53 53 53 50 48 45 41 37 35 34 35 34 32 33 36 37 33 29 27 24 22 24 24 21 19 18 17 17 19 21
11 10 10 9 7 5 2 0 1 2 3 3 4 6 9 12 14 17 21 24 26 28 29 29 31 33 35 38 38 35 40 51 59 57 55 54 51 47 43 38 35 35 35 34 31 27 28 30 29 27 25 23 22 22 23 21 19 18 17 16 15 15 16
14 11 10 8 6 5 4 3 4 5 4 4 3 4 7 11 15 18 21 23 25 28 29 30 33 35 37 40 38 26 18 28 44 45 41 41 41 40 41 39 35 32 31 29 27 25 25 25 23 21 20 20 22 23 20 16 16 18 17 15 14 14 15
16 14 12 10 7 5 3 4 7 8 8 6 5 3 6 11 14 16 18 20 21 23 25 28 33 38 38 35 32 24 15 16 25 26 29 31 31 32 35 37 36 33 30 28 27 26 26 25 22 20 20 20 22 23 21 18 18 18 16 15 15 15 16

ECMWFFLT1_850_spd_015.txt.gz
Wind_Speed
43 44 47 49 50 51 53 55 57 57 58 59 60 60 60 59 58 57 57 57 57 57 56 55 54 53 52 51 50 49 49 48 46 45 44 43 41 38 36 35 35 34 32 30 29 28 27 26 25 25 25 24 23 23 23 21 20 19 18 17 16 15 13
39 43 45 47 49 52 54 56 57 57 58 59 60 60 60 60 60 59 59 58 58 57 56 56 56 55 54 52 51 50 49 48 46 45 45 44 43 40 37 36 35 34 32 30 29 28 27 26 25 25 25 24 23 23 23 22 21 21 20 18 16 15 14
40 43 46 48 51 54 55 55 56 57 58 59 59 59 60 61 61 61 60 58 58 57 57 57 57 56 55 53 52 51 49 48 46 45 45 44 43 43 40 37 36 35 33 31 30 29 28 26 25 26 25 24 23 23 24 23 22 22 21 18 16 15 15
41 44 48 50 52 53 54 55 56 57 58 59 60 60 61 62 62 61 60 59 58 57 57 57 57 56 55 54 53 52 50 48 46 45 44 43 42 42 42 40 38 36 35 33 32 30 28 26 26 27 26 24 23 23 24 24 23 22 22 19 17 17 16
39 44 46 47 49 50 52 55 57 58 59 59 59 60 61 61 60 60 59 59 58 57 56 56 55 55 55 55 54 53 51 48 46 45 44 43 42 42 43 43 41 38 37 35 33 32 30 27 27 28 28 26 24 24 25 25 24 23 22 21 18 18 18
37 42 45 46 48 50 53 56 58 59 60 60 60 60 60 59 58 58 59 59 58 57 56 55 55 55 55 54 54 53 51 48 46 44 43 43 42 42 42 42 41 41 39 36 35 33 31 29 28 28 28 27 26 25 26 26 25 24 23 22 21 20 19
38 43 46 48 49 51 54 56 58 59 59 60 60 59 58 56 56 58 58 58 58 58 57 56 56 56 55 54 53 52 51 49 46 44 44 43 42 42 42 41 41 41 40 38 37 35 33 31 29 29 28 27 27 27 27 27 26 25 24 24 23 22 21
41 43 46 48 51 53 55 57 58 58 58 58 57 56 55 55 56 57 57 57 58 57 57 57 56 56 56 54 53 52 50 48 46 44 44 44 42 41 41 42 41 40 40 40 39 37 35 33 31 30 29 28 28 29 29 28 27 26 26 26 25 24 22
43 44 46 49 51 53 55 56 58 57 56 56 55 55 55 55 55 56 57 57 57 57 58 57 56 56 55 54 53 51 49 47 46 44 44 44 42 41 41 42 41 40 39 39 39 39 37 35 32 31 30 29 29 30 30 30 29 28 27 27 26 25 24
39 41 45 47 48 52 53 53 53 53 53 54 55 56 55 55 56 56 56 56 57 58 58 57 56 56 55 54 53 51 49 47 46 45 45 44 42 40 41 41 41 40 39 38 38 39 39 37 35 33 32 31 30 31 32 32 31 29 29 29 28 26 25
36 38 42 43 45 48 50 49 48 49 51 53 55 55 55 55 56 56 56 57 58 58 58 57 56 56 55 55 53 52 50 48 47 46 45 44 42 40 40 41 41 40 39 38 38 39 39 39 37 35 34 33 33 32 33 34 33 32 31 30 29 27 26
36 38 40 43 45 48 49 48 48 49 51 53 54 55 55 55 55 56 57 57 58 58 57 57 56 56 55 55 54 53 51 49 48 47 45 44 42 40 40 41 42 40 38 38 38 38 40 40 39 37 36 35 35 34 34 35 35 35 33 32 30 29 28
37 39 42 44 46 48 47 46 47 48 50 53 54 55 56 55 55 56 56 57 57 57 56 56 56 56 55 55 54 54 52 50 48 47 45 44 42 40 40 41 41 41 39 38 37 38 39 40 40 39 37 37 37 37 37 36 37 37 35 34 32 31 30
33 35 39 41 42 44 44 45 47 48 50 52 53 54 55 55 55 56 56 56 56 56 56 56 56 56 55 55 55 55 53 51 49 47 46 44 42 41 41 41 41 40 40 39 38 38 38 39 39 39 39 39 39 39 39 38 38 38 38 36 35 33 32
31 33 37 39 41 43 45 47 48 49 50 52 52 53 54 54 54 54 54 55 55 55 56 56 55 55 55 55 55 55 54 51 49 48 47 45 44 42 42 41 41 40 40 40 39 39 38 38 39 40 40 40 40 40 40 40 40 40 39 38 36 34 33
31 34 38 40 42 44 47 48 48 49 51 51 51 53 54 54 54 55 55 55 55 55 55 55 54 55 55 55 55 54 53 52 50 49 48 48 46 44 43 43 42 41 40 41 41 40 39 38 40 41 42 41 41 42 42 42 41 41 40 40 38 35 34
29 33 37 39 41 43 46 48 48 48 48 50 52 53 55 55 56 56 55 55 55 55 55 54 54 54 55 54 54 53 53 52 51 50 49 49 48 46 45 44 43 42 41 41 41 41 40 40 40 41 42 42 43 43 43 44 43 42 42 41 40 38 36
28 32 35 36 38 42 45 47 48 48 49 51 52 53 55 56 55 55 55 55 56 55 54 53 53 54 54 54 53 53 52 51 51 50 50 49 48 48 47 46 45 44 44 43 42 41 41 42 41 41 41 42 44 44 44 44 44 43 43 42 41 40 38
26 30 32 34 36 39 44 46 49 51 52 53 54 54 55 56 55 55 55 56 56 54 52 52 53 54 54 53 52 52 52 51 50 50 50 49 49 48 47 47 46 46 46 46 44 42 42 42 42 41 41 42 43 44 44 44 44 44 43 43 43 42 41
23 25 27 31 34 37 42 46 48 50 52 53 54 55 55 55 55 56 55 55 54 52 52 52 52 53 53 52 52 52 51 51 50 49 49 49 49 48 48 48 48 48 47 47 46 45 43 43 43 42 42 42 42 43 44 44 44 44 43 43 43 42 45
17 19 21 25 29 33 38 42 44 47 49 51 52 52 52 52 53 53 53 52 51 51 52 52 52 53 53 52 52 51 51 50 50 49 49 49 49 49 49 49 49 49 49 49 48 47 44 43 43 43 42 42 41 42 43 43 43 43 42 42 43 42 44
9 13 16 19 24 27 32 36 38 40 44 47 49 50 50 50 51 52 52 51 50 51 52 52 53 53 52 52 52 51 51 50 50 49 49 49 50 50 50 50 50 50 50 50 50 48 45 44 44 43 42 41 41 42 42 41 41 42 41 41 42 42 42
2 4 9 15 19 22 25 28 31 33 38 43 45 47 47 47 48 50 50 50 50 51 51 52 53 53 53 53 52 51 51 51 50 50 50 50 51 51 51 51 51 51 51 51 51 49 47 46 46 44 42 40 41 41 40 40 40 40 39 40 42 41 41
10 5 1 6 12 17 20 23 25 28 32 37 41 43 43 43 45 47 48 49 50 51 51 52 53 53 53 53 52 51 51 51 51 50 50 51 52 52 52 51 51 51 51 52 51 49 48 47 46 44 42 41 41 39 37 38 37 36 36 38 41 42 40
11 10 7 3 2 8 14 19 22 24 27 31 35 38 39 40 42 44 47 49 49 50 51 52 53 53 52 51 50 50 51 52 52 51 51 51 52 52 52 51 51 51 51 51 51 49 48 48 46 44 43 41 40 37 36 37 36 34 34 36 39 41 40
11 10 10 8 6 3 5 11 18 23 26 28 31 34 37 39 40 43 45 46 48 49 50 50 50 49 48 48 48 50 51 52 52 52 51 51 52 52 52 52 51 51 51 50 49 48 48 47 46 44 43 42 39 37 37 37 35 33 33 34 37 39 39
10 10 10 10 10 9 7 4 8 15 21 24 26 30 35 38 40 43 44 45 47 49 48 47 46 44 45 46 48 50 51 52 52 53 52 52 52 52 52 52 52 52 51 49 48 48 48 47 45 44 43 41 39 38 38 37 34 32 31 32 33 36 36
8 8 8 9 9 9 9 8 6 6 11 17 22 27 32 34 36 39 42 44 47 48 47 45 44 44 44 47 49 50 51 52 52 53 52 52 53 53 53 53 52 52 50 48 47 47 47 46 44 43 42 40 39 39 37 37 34 31 30 31 31 31 29
8 7 7 7 8 8 9 9 9 9 8 9 13 20 26 29 30 32 36 41 45 46 45 45 45 45 46 47 49 50 51 52 52 52 52 52 52 53 53 52 51 50 49 47 47 46 46 45 44 43 42 41 39 37 36 37 34 30 29 30 27 23 21
7 6 6 7 7 7 7 7 8 9 9 10 9 10 15 21 25 27 31 36 39 41 43 44 45 45 45 45 46 48 49 49 49 50 51 51 50 51 51 50 50 50 49 48 47 47 47 46 45 44 43 40 37 36 37 37 32 26 24 23 18 17 18
6 5 6 7 8 8 7 5 6 6 7 8 10 10 10 13 18 23 28 32 35 38 41 43 44 44 44 44 45 45 45 45 45 45 45 45 46 48 50 51 51 50 50 49 48 49 49 48 47 46 43 38 36 37 38 35 29 23 21 18 15 16 19
5 5 5 7 9 10 9 8 6 5 5 6 7 9 10 11 13 17 21 25 29 33 37 40 42 43 44 45 45 45 45 45 44 43 42 42 44 46 49 51 52 52 51 50 50 51 52 51 50 48 43 38 37 37 36 32 26 22 21 20 19 19 20
6 5 5 5 7 9 10 10 9 7 5 4 5 7 9 11 13 15 17 20 24 28 31 35 39 41 42 44 44 44 45 45 45 43 42 41 43 46 49 52 53 53 53 53 54 55 54 54 54 50 45 41 39 37 33 30 26 23 22 21 19 20 23
8 7 6 6 6 7 8 9 10 9 7 6 5 6 8 10 12 14 16 18 22 25 28 31 35 37 40 42 43 43 45 45 45 45 45 44 45 47 49 52 54 56 58 59 59 59 59 59 55 50 46 44 41 36 32 30 28 26 23 19 19 23 26
8 7 7 7 6 6 6 7 8 9 10 9 8 7 8 9 12 13 14 16 20 23 26 29 32 34 36 38 40 42 44 46 47 48 47 46 46 47 51 53 56 59 62 62 62 62 61 58 52 46 42 41 38 33 31 30 29 26 20 16 19 24 25
8 7 8 8 8 9 8 8 7 7 7 8 9 9 9 10 12 14 15 17 19 22 25 28 31 34 36 38 40 42 44 46 48 49 47 45 45 48 52 55 57 60 61 61 61 62 61 56 48 42 39 36 32 28 25 23 24 23 19 17 20 21 21
9 8 8 8 8 9 10 10 10 9 7 7 8 10 10 11 12 13 15 16 18 20 22 24 28 32 36 38 41 43 46 47 48 47 46 45 45 48 54 57 59 60 60 60 60 60 59 53 44 37 33 30 27 24 21 17 17 20 20 19 18 19 21
10 9 8 7 7 8 9 10 11 11 10 10 10 11 12 12 11 12 13 15 16 17 18 20 23 27 32 36 38 40 43 46 47 48 48 48 48 50 54 57 59 59 56 54 53 53 52 46 38 31 28 26 24 23 22 19 18 19 19 19 19 19 20

ECMWFFLT1_850_spd_018.txt.gz
Wind_Speed
40 41 45 47 48 49 51 53 53 53 54 54 54 54 53 53 52 53 53 53 52 51 50 50 50 50 49 49 47 45 43 40 40 40 39 38 37 36 34 32 31 30 29 27 26 26 27 27 27 26 25 24 23 21 20 19 18 18 18 18 17 16 15
33 39 44 46 47 50 52 53 53 53 54 55 55 54 54 54 54 54 54 54 53 52 51 51 51 51 50 49 48 47 46 44 42 41 40 40 38 37 36 34 32 31 29 28 26 26 27 28 28 27 25 25 24 21 20 19 19 19 19 19 18 16 15
33 38 43 46 49 53 54 53 53 53 54 55 55 54 54 55 55 55 55 54 54 52 52 52 52 51 50 49 49 48 47 46 44 43 42 41 40 39 37 36 34 32 30 28 27 27 27 28 28 27 26 25 24 22 21 20 20 20 20 20 19 18 17
34 39 43 46 49 52 51 51 53 54 55 56 56 57 56 55 55 55 55 55 54 54 53 53 53 52 51 50 50 49 48 48 47 45 44 42 41 40 39 37 36 35 32 30 29 28 28 28 28 27 27 26 25 23 21 21 22 21 21 21 21 19 18
35 38 40 43 46 49 49 51 54 55 56 57 57 57 57 56 55 55 55 55 54 54 54 53 53 52 52 51 51 50 49 48 47 46 45 44 42 41 40 38 37 36 34 32 31 30 29 28 28 28 28 27 27 24 23 23 23 22 22 22 22 21 20
36 36 38 43 47 49 51 53 55 56 57 58 57 57 57 56 55 55 55 55 55 55 54 53 53 53 53 52 51 51 49 48 47 46 45 44 43 43 41 39 37 36 34 33 33 32 30 29 29 28 28 28 27 26 25 24 24 23 23 23 23 23 21
39 37 39 44 46 48 51 54 54 55 57 57 57 56 56 55 55 55 56 56 56 55 54 54 54 54 53 53 52 52 51 49 48 46 46 45 45 44 42 39 37 36 34 34 35 35 33 31 30 29 28 28 28 27 26 26 25 24 24 24 24 24 23
39 37 39 44 45 47 49 52 54 54 55 55 54 53 53 54 54 55 56 57 57 56 56 55 54 54 54 53 52 52 51 50 49 47 46 46 46 45 43 41 38 37 36 34 35 36 36 34 32 30 29 29 29 28 28 28 27 26 26 25 25 25 25
39 38 41 43 44 45 46 49 52 52 51 52 53 54 54 54 55 56 57 57 57 57 57 56 55 54 53 53 53 52 51 50 49 48 47 47 47 46 45 42 40 39 38 36 34 35 36 36 34 32 31 31 31 30 29 29 28 28 28 27 26 26 25
36 37 40 41 40 41 43 45 46 47 48 50 52 54 54 54 55 56 56 56 56 58 58 57 56 55 54 54 53 52 51 50 49 49 48 48 47 46 45 42 40 40 39 37 36 35 36 36 36 35 34 33 32 32 31 30 29 29 30 28 27 26 26
29 33 37 38 38 37 38 40 43 45 48 50 52 53 54 55 56 56 56 56 57 58 58 57 56 55 55 54 53 52 52 51 50 50 49 48 47 46 44 41 40 41 40 39 37 36 36 36 37 37 36 35 35 34 32 31 30 30 31 30 29 27 27
24 28 32 35 36 37 38 40 43 46 48 50 52 53 54 56 56 55 56 56 57 57 56 56 56 55 55 54 53 53 53 52 51 51 50 48 47 45 42 40 40 41 41 39 38 37 37 37 38 39 38 37 36 35 34 32 32 31 31 30 30 28 28
22 24 28 31 34 36 38 40 43 46 47 49 51 52 54 55 55 55 55 56 56 55 55 55 55 55 55 54 54 54 54 54 52 51 50 48 46 44 41 40 40 41 41 39 37 38 38 38 39 40 39 38 37 36 35 34 34 33 31 30 30 29 28
20 22 25 27 30 34 36 39 42 45 47 49 49 51 52 53 54 55 55 56 55 54 54 54 54 54 54 54 54 55 55 54 52 51 49 47 46 44 41 40 40 41 41 39 37 38 39 40 40 40 40 39 38 38 37 36 36 35 33 32 30 29 29
21 23 25 27 29 32 34 38 40 43 46 48 49 50 51 52 53 53 54 55 54 54 54 54 54 54 55 55 56 56 55 53 52 50 49 48 47 45 42 40 40 41 41 39 38 38 40 41 41 41 41 41 40 39 39 39 39 37 35 33 31 30 29
22 24 26 28 30 32 34 37 39 42 45 47 48 49 50 51 52 53 54 54 54 55 54 53 54 54 55 56 57 56 55 53 51 51 50 49 48 46 43 42 41 41 41 39 38 38 40 41 42 42 42 41 41 41 41 41 40 38 36 34 33 31 29
20 22 23 24 27 31 33 35 38 40 43 46 47 49 50 51 52 52 53 54 54 54 54 53 54 54 55 56 56 54 53 52 52 51 50 49 48 46 45 43 42 42 41 40 39 39 40 41 43 43 43 43 43 43 42 42 41 38 36 36 34 32 30
20 21 23 23 25 27 30 33 37 39 42 45 47 49 50 50 51 52 52 53 54 54 53 53 54 55 55 55 54 53 53 53 52 51 51 50 48 47 46 44 43 43 42 42 41 40 40 42 44 45 45 44 44 44 43 42 40 38 37 37 35 33 31
21 23 25 24 24 24 25 28 31 36 40 43 46 48 50 50 51 52 53 53 53 53 53 53 54 55 55 54 53 53 53 53 52 52 51 50 49 48 47 46 45 45 44 43 42 42 42 42 44 45 46 46 46 45 44 42 40 39 38 38 37 35 32
22 24 25 23 22 22 23 23 25 30 35 40 44 47 48 49 51 51 51 51 51 52 53 53 54 54 54 54 54 53 53 53 53 52 51 50 49 49 49 48 47 45 45 44 44 45 44 44 44 45 46 47 48 47 46 44 41 40 39 39 38 36 33
19 21 22 21 20 21 21 20 20 24 30 35 40 43 44 46 48 49 49 49 50 51 52 52 53 53 53 53 53 53 53 53 53 52 51 50 50 51 51 50 49 47 46 46 46 47 46 45 45 45 46 47 48 48 48 45 43 42 41 40 38 36 34
14 17 18 18 20 20 19 17 17 18 23 30 35 38 40 42 44 46 46 47 48 50 51 51 51 52 52 52 52 52 52 53 53 52 51 50 51 51 52 52 50 49 48 47 47 47 47 47 46 46 47 47 47 48 48 46 46 45 43 41 38 36 35
9 11 12 14 16 17 17 16 15 14 16 22 28 33 36 38 41 43 44 45 47 48 49 50 51 51 52 52 52 52 52 53 53 52 52 51 51 52 52 52 51 49 49 49 49 49 49 49 48 47 47 48 48 48 48 47 47 46 44 42 39 37 36
4 3 5 8 11 14 14 14 14 12 12 14 19 25 29 34 38 40 42 44 45 46 47 49 50 51 51 50 51 51 52 52 52 52 51 51 51 52 52 52 51 50 50 50 50 50 50 50 48 47 48 48 49 48 47 46 46 46 45 43 40 38 36
8 7 4 2 2 6 9 11 11 10 9 10 13 17 22 28 33 37 40 42 43 44 46 48 50 50 49 48 49 50 50 51 50 50 50 50 50 50 51 50 50 50 51 50 50 50 50 50 49 48 48 49 49 48 46 45 45 46 46 43 40 38 35
13 13 11 10 8 5 1 4 6 5 5 6 8 10 15 21 28 33 37 39 41 43 44 45 47 47 46 46 48 49 49 49 49 50 49 50 50 50 49 49 50 50 50 50 50 50 50 50 49 49 49 49 50 48 46 44 45 47 46 43 40 38 35
12 13 14 14 14 13 11 7 3 3 5 5 5 7 10 15 22 29 33 36 40 41 41 40 42 44 45 46 47 48 48 48 48 49 49 49 50 49 49 50 50 50 50 49 49 49 49 49 49 49 49 50 50 49 46 45 45 47 46 42 39 37 35
13 12 12 13 14 15 16 15 11 6 3 4 6 7 9 12 18 23 28 33 36 37 38 39 41 43 44 45 46 46 47 47 47 48 49 49 49 49 50 50 50 49 49 48 48 48 48 48 49 50 50 50 50 49 47 45 46 47 45 42 40 37 36
12 11 10 11 12 14 15 16 16 14 9 5 3 5 8 11 15 19 25 28 29 31 35 38 40 41 41 43 44 44 46 47 47 48 49 49 49 49 49 49 49 49 49 49 48 48 48 49 50 50 51 51 50 49 47 47 48 47 45 42 40 38 37
11 10 10 10 11 12 13 13 14 14 13 11 7 4 5 8 11 15 20 24 25 28 32 34 35 37 39 41 42 42 44 46 47 48 49 49 50 50 50 50 50 50 50 50 49 49 48 49 50 51 51 50 49 49 49 49 49 46 44 42 39 38 38
11 11 10 10 10 10 11 12 13 12 11 11 9 6 3 4 7 10 15 18 21 24 27 29 32 34 36 38 40 41 42 43 46 48 49 50 50 50 51 51 51 51 51 51 52 52 51 50 51 52 53 51 50 51 51 51 49 46 43 41 39 38 37
11 11 10 9 9 9 9 10 11 10 10 9 8 6 4 1 3 6 10 13 15 17 20 23 27 30 33 35 37 38 39 41 45 47 48 49 50 51 51 52 52 53 52 52 53 54 54 53 53 54 54 53 53 53 53 51 48 46 44 42 40 39 36
12 11 11 10 10 9 7 7 7 7 8 8 6 5 4 2 1 2 5 8 10 12 14 18 22 25 28 31 34 36 37 40 43 45 47 48 49 50 51 51 52 53 53 54 55 55 55 56 56 56 56 55 54 54 53 50 49 47 45 43 42 40 35
13 12 12 11 10 9 8 7 7 6 6 6 5 5 5 5 5 5 5 6 8 9 11 14 18 22 25 28 30 32 34 37 40 42 45 47 48 49 50 51 52 54 56 57 56 56 57 57 58 58 58 57 55 53 51 48 47 47 46 45 44 41 37
13 12 12 11 10 9 8 8 8 7 6 6 5 5 5 5 7 8 8 8 9 9 9 11 15 18 22 25 27 29 30 33 35 38 41 44 47 49 51 52 53 55 57 59 58 57 57 58 58 59 59 57 55 54 53 52 48 43 42 42 40 38 36
13 13 12 12 11 10 9 9 9 9 9 9 8 7 6 6 7 8 9 10 11 11 11 11 12 14 17 20 22 24 26 28 30 34 37 41 44 47 50 52 53 55 57 58 59 59 58 58 59 58 56 56 57 56 56 56 47 37 35 37 35 33 34
13 13 12 12 12 11 12 11 11 12 13 12 11 10 9 9 8 9 9 10 11 12 13 13 13 13 14 16 17 19 21 22 24 27 31 35 40 45 48 50 53 56 58 59 59 60 59 59 59 58 55 55 57 56 53 47 37 30 32 35 34 34 34
14 13 13 14 14 14 14 13 14 15 15 14 14 14 13 12 11 11 11 11 11 12 13 15 16 16 16 17 17 18 20 21 22 24 27 30 34 38 44 48 51 54 57 59 59 59 58 57 57 56 54 54 56 55 51 42 34 31 34 36 36 36 36

ECMWFFLT1_850_spd_021.txt.gz
Wind_Speed
30 32 34 37 42 49 52 54 54 52 51 50 48 47 48 49 51 53 53 51 51 50 49 48 48 47 45 43 42 41 40 39 38 38 37 37 36 34 33 32 31 30 29 28 27 27 25 24 22 22 21 21 21 21 21 20 21 20 18 17 17 16 15
26 31 34 35 41 49 53 54 54 54 53 51 49 48 49 50 51 52 52 51 51 50 50 50 49 49 47 45 43 43 42 41 40 39 38 37 36 35 33 32 31 30 28 27 26 26 26 25 23 23 22 21 20 20 21 21 22 21 19 18 17 17 16
25 29 33 37 42 49 53 54 54 55 55 53 52 50 50 51 51 51 51 50 50 50 51 51 50 50 49 47 46 45 43 43 42 41 39 38 37 35 35 33 32 30 29 28 26 26 25 25 24 23 23 22 21 21 21 22 23 22 20 19 18 18 17
27 30 33 39 45 49 51 53 54 55 56 56 54 52 51 50 50 50 50 50 50 49 50 51 51 50 50 49 48 46 45 44 43 42 41 40 38 37 36 34 32 32 31 30 28 26 26 26 25 25 24 23 23 22 22 23 23 22 21 20 20 19 18
26 29 30 36 42 45 49 52 53 55 56 57 57 55 53 51 50 50 50 51 51 50 49 49 49 50 50 49 48 47 46 45 44 43 42 41 40 39 37 35 34 34 33 31 30 28 28 27 27 27 26 25 24 24 23 23 23 22 22 21 21 21 20
26 29 32 37 40 43 48 51 53 54 56 57 57 57 55 54 53 52 51 51 52 52 51 51 51 50 50 49 48 48 47 46 45 44 43 43 42 41 39 38 36 35 34 33 31 30 30 29 29 29 28 27 26 25 25 25 23 23 22 22 22 22 21
29 31 35 38 39 42 46 49 50 52 54 55 56 56 55 55 55 54 53 52 52 52 53 53 53 52 50 49 49 49 48 47 46 45 44 44 43 42 41 40 38 36 35 34 32 31 31 32 32 31 30 29 28 27 27 26 24 24 23 23 23 23 23
32 30 33 36 39 41 43 45 48 49 50 53 54 55 55 55 55 55 56 55 53 53 53 53 53 53 51 49 49 49 47 46 46 45 45 45 44 43 42 41 39 37 36 35 33 32 32 32 33 34 33 32 30 29 28 27 26 25 25 25 25 24 25
30 27 28 30 33 36 38 42 45 45 47 51 53 54 55 54 55 56 57 57 56 55 54 54 53 52 51 49 49 48 47 47 47 46 46 45 45 44 43 42 40 38 37 36 35 33 33 33 34 35 35 34 33 31 30 29 27 27 26 26 26 25 26
29 27 25 23 24 29 33 37 40 42 45 48 51 52 54 55 56 57 57 57 57 57 56 55 54 54 52 50 49 47 47 47 47 47 46 46 47 46 45 43 41 40 39 37 36 35 34 33 34 35 37 37 36 34 32 31 29 29 28 27 27 27 27
25 26 26 24 24 26 29 33 37 40 43 45 47 50 52 54 56 56 57 57 57 57 56 56 55 55 54 52 50 49 48 47 47 47 47 47 47 46 45 44 43 41 40 39 38 37 35 34 34 35 37 39 39 37 34 33 31 30 30 29 28 28 28
21 20 21 22 25 27 28 30 33 36 40 43 46 48 50 52 54 55 56 56 56 56 55 55 56 56 55 54 52 51 50 49 48 48 47 47 46 45 44 43 43 42 40 39 39 39 37 35 35 36 37 39 40 40 38 35 33 32 31 30 30 29 30
21 20 20 18 21 25 26 28 32 34 38 41 44 46 48 50 51 53 54 55 55 55 55 55 55 56 56 55 54 53 53 51 50 49 48 47 46 44 42 42 42 41 40 38 39 40 38 37 37 37 38 38 39 41 40 38 36 34 33 32 31 31 31
19 20 21 20 20 23 25 28 31 33 35 38 42 44 46 48 50 51 51 52 53 53 53 54 55 55 56 55 55 54 54 53 52 50 49 48 46 44 43 42 42 41 40 38 39 40 39 37 37 38 38 39 39 40 41 41 39 37 35 34 33 32 32
15 16 18 19 20 21 23 26 28 30 32 35 39 41 43 46 48 49 50 50 51 52 52 53 54 54 54 55 55 55 54 53 53 51 51 50 48 46 45 44 43 42 41 40 40 40 39 37 38 38 39 39 39 40 41 42 42 41 39 37 36 35 34
12 14 16 16 16 18 20 22 25 27 29 32 36 39 42 44 47 48 49 50 51 51 52 52 52 52 53 54 55 55 54 53 52 52 52 51 50 49 46 45 45 43 42 41 40 40 39 38 38 39 40 40 40 41 42 43 44 43 41 39 37 36 36
14 14 15 15 15 16 17 18 21 24 27 30 34 37 40 42 44 46 48 50 51 50 51 52 51 50 51 53 54 54 53 52 51 51 52 52 51 50 48 47 46 45 43 42 42 41 40 39 40 40 40 41 41 42 43 45 45 43 42 41 38 37 37
18 18 18 19 20 20 20 19 19 20 23 27 31 35 38 40 42 45 47 49 50 49 50 51 50 50 50 52 53 52 52 52 51 51 51 51 51 50 49 47 47 46 45 44 44 43 42 41 40 41 41 42 42 43 45 46 46 44 43 42 39 38 39
22 24 24 24 26 27 26 24 22 19 19 21 26 31 34 38 41 43 45 47 49 49 51 51 50 49 50 51 52 52 51 51 51 51 51 51 50 50 49 48 48 47 47 46 45 44 44 43 42 41 42 43 44 45 45 46 46 45 44 43 40 39 40
25 26 27 27 28 30 28 26 24 22 19 18 21 26 31 36 40 40 41 45 47 47 49 50 50 50 50 51 51 51 51 51 51 51 51 51 50 50 50 49 48 48 48 47 46 46 47 46 43 42 43 44 45 46 46 46 47 46 45 44 41 40 40
26 26 27 27 28 29 28 26 26 25 22 17 17 22 29 33 37 39 40 42 44 45 46 47 48 49 50 50 50 50 50 51 51 51 51 50 50 51 50 49 48 49 49 49 49 49 49 48 46 44 44 45 45 45 45 46 47 47 46 44 42 41 41
24 26 26 25 26 28 28 27 27 25 21 16 14 19 25 29 33 37 40 41 43 43 44 45 46 47 48 49 50 50 51 51 51 51 51 50 51 51 51 50 50 50 49 49 49 49 49 49 48 47 46 45 45 45 45 46 47 48 47 45 43 42 41
22 23 22 23 24 26 27 26 25 22 17 14 13 16 19 24 29 33 37 40 42 42 43 44 45 46 47 48 48 50 51 51 51 51 51 50 51 51 51 51 50 49 49 49 49 50 50 50 49 48 48 48 46 46 46 46 47 47 45 44 43 42 43
19 18 19 20 22 24 25 23 20 17 13 10 10 11 14 19 24 28 33 37 39 41 42 44 44 45 46 47 47 48 49 49 49 49 50 50 50 51 51 50 49 49 49 49 49 49 50 50 47 41 43 49 49 47 47 46 45 45 43 42 42 43 43
14 13 15 16 17 19 19 17 15 13 9 7 6 8 10 14 18 24 29 33 36 38 40 42 43 43 45 46 47 47 46 46 47 47 49 49 49 50 50 49 49 50 49 49 50 50 49 49 43 36 39 46 46 45 47 47 45 45 44 42 41 42 43
10 10 10 10 11 12 11 10 11 11 9 8 7 8 8 10 14 19 24 28 32 34 37 38 39 40 41 43 44 44 44 45 46 46 47 47 48 48 49 49 49 49 49 50 50 50 47 44 41 40 43 43 39 40 47 48 47 47 47 44 42 41 41
9 9 8 7 7 7 6 8 9 9 8 8 9 9 9 9 11 15 19 23 27 29 31 33 34 35 38 40 41 42 44 45 46 46 45 45 46 46 47 48 48 48 49 49 48 48 45 41 39 40 40 36 32 35 43 48 49 49 48 46 43 41 41
9 10 11 11 10 9 9 8 8 8 9 9 9 9 9 9 9 11 15 19 22 25 26 27 28 31 33 35 38 40 42 43 44 45 44 44 44 45 46 47 47 47 48 48 48 48 44 42 42 38 34 32 31 32 39 46 49 49 49 47 44 43 43
8 9 11 13 14 13 12 11 10 10 10 10 9 9 9 10 10 11 14 17 20 23 24 25 26 28 30 32 34 36 38 39 41 42 42 42 43 43 44 46 46 47 47 48 49 49 46 47 46 39 34 36 36 35 39 42 44 49 51 48 47 46 44
7 7 9 12 14 15 14 13 13 13 12 11 10 9 10 10 10 12 13 16 18 20 21 22 24 27 29 30 32 33 35 36 37 38 39 39 40 41 43 45 46 46 47 47 49 50 49 47 43 37 39 43 42 41 40 37 41 51 52 48 49 49 45
6 7 8 10 13 15 15 15 15 14 14 13 11 10 10 9 10 11 12 14 16 17 18 19 21 23 25 27 28 29 31 32 34 35 35 37 38 39 42 44 45 46 48 47 48 50 49 45 41 41 46 49 48 48 45 39 41 49 49 47 48 47 45
6 7 8 9 11 13 15 16 15 15 15 14 12 11 10 9 8 9 10 10 11 13 14 16 17 19 22 24 25 25 27 28 30 32 33 35 37 38 40 42 44 46 47 47 48 49 49 49 47 46 47 46 46 47 46 45 46 48 47 47 47 45 44
8 9 9 9 9 10 12 15 15 15 15 15 14 13 11 10 9 8 7 6 6 7 9 10 12 14 17 21 23 24 25 26 27 29 31 33 35 37 39 41 43 45 46 47 48 48 48 50 49 49 48 48 48 45 43 45 49 50 50 50 50 49 47
10 10 10 9 9 8 9 12 13 14 14 14 13 12 11 10 9 8 6 5 4 4 4 6 7 9 11 15 19 21 23 24 25 26 29 31 33 36 38 40 42 44 46 47 47 47 47 49 50 51 52 53 53 50 47 48 52 54 55 54 52 50 46
12 12 11 10 10 10 9 11 13 13 13 13 12 10 10 9 8 7 6 5 4 2 1 2 3 4 6 8 12 15 17 19 21 23 25 28 30 33 36 38 40 43 45 46 47 48 50 51 52 54 53 54 55 55 54 55 55 56 56 56 53 50 46
12 14 14 13 12 11 11 12 14 15 16 15 13 11 11 10 9 8 6 5 5 4 3 2 1 0 2 4 6 8 10 12 15 17 19 21 24 27 31 34 37 41 44 45 46 49 51 52 53 53 52 51 55 58 58 57 56 56 56 57 55 53 50
13 16 17 16 14 13 12 13 15 16 17 17 16 15 15 14 13 11 10 9 8 7 7 6 5 4 3 2 1 3 5 8 10 13 15 17 20 22 25 28 31 35 40 43 46 49 51 53 55 55 52 52 54 57 56 55 55 57 57 56 56 55 50
14 15 17 17 17 15 14 13 14 15 16 16 17 18 18 17 17 16 15 15 15 14 13 13 12 12 11 10 9 8 6 5 5 6 9 13 16 19 22 25 27 30 34 38 41 45 49 52 54 55 55 54 54 55 54 54 56 57 57 56 56 53 48

ECMWFFLT1_850_spd_024.txt.gz
Wind_Speed
23 25 28 29 30 32 33 35 37 38 38 40 43 45 45 46 47 48 48 49 48 47 46 46 45 44 44 43 42 41 40 40 40 39 39 39 38 37 36 35 33 31 30 29 28 26 26 26 25 25 23 21 19 19 19 18 17 16 15 15 15 15 14
23 24 27 28 30 31 33 34 36 39 40 41 44 45 45 46 47 49 49 49 48 48 47 47 46 46 45 44 44 42 41 41 41 40 39 40 39 38 37 36 34 32 31 30 28 27 27 26 26 26 25 23 20 19 19 18 18 17 16 16 17 17 16
22 24 26 28 31 32 33 34 35 38 41 43 45 46 47 47 47 48 48 48 48 47 47 47 47 47 46 46 45 44 43 42 41 41 41 41 40 39 38 37 35 33 31 30 29 28 27 27 27 27 27 25 23 21 20 19 19 18 18 18 18 18 18
21 23 25 28 30 30 31 33 35 37 39 43 47 49 49 49 48 46 46 47 47 47 48 48 47 47 46 46 46 45 45 44 42 42 43 42 41 40 39 38 36 34 32 30 29 29 28 28 27 27 28 27 25 24 22 21 20 19 19 19 19 20 20
21 22 22 24 26 27 29 33 35 37 38 42 46 49 50 49 48 46 45 45 45 47 48 47 47 47 47 46 46 46 46 45 44 43 43 41 41 40 40 39 37 35 33 32 30 29 29 29 28 28 28 27 26 25 24 23 22 21 21 20 20 22 21
21 22 23 24 25 27 30 33 35 36 37 38 40 44 46 45 46 47 46 45 45 46 47 47 47 47 48 47 47 47 46 46 45 44 43 42 42 42 41 40 38 36 34 33 32 31 30 30 30 29 29 28 27 27 26 25 23 23 23 22 22 23 23
20 22 25 26 26 28 30 32 33 33 34 34 34 36 38 40 43 44 44 45 46 46 46 47 48 48 48 48 48 48 48 47 46 45 45 44 43 43 42 41 40 38 36 35 34 33 32 32 32 31 30 29 28 28 28 27 25 25 25 24 24 25 25
18 20 23 24 24 25 26 28 28 29 30 30 31 33 36 38 39 41 43 45 46 46 46 46 47 48 48 48 48 48 48 48 47 46 46 45 45 44 44 43 42 40 38 37 36 35 34 34 33 33 32 31 30 30 29 29 27 26 27 27 26 26 25
13 13 16 17 18 19 20 21 22 24 27 30 32 34 35 36 38 41 45 45 43 45 47 47 46 47 47 48 48 48 48 48 47 47 46 46 46 45 44 44 43 41 40 38 38 38 37 36 35 34 34 34 33 32 31 30 29 29 29 29 29 28 27
7 9 11 12 15 16 17 18 20 24 27 31 33 34 34 34 36 40 44 46 45 47 47 46 46 46 46 47 47 47 48 48 47 47 47 46 46 46 45 44 43 43 41 39 39 40 39 37 36 36 35 35 35 35 34 33 32 31 31 31 31 30 28
4 7 9 11 13 15 17 19 21 25 28 31 34 34 34 35 35 36 39 43 46 47 46 45 45 46 47 46 46 46 47 47 47 48 48 47 47 47 46 46 45 44 43 41 39 40 40 39 38 37 37 38 38 38 37 36 35 34 33 33 33 32 30
2 5 8 10 12 14 17 20 23 25 27 31 33 33 34 35 35 34 35 37 39 39 40 42 44 45 47 47 46 47 47 47 48 48 48 48 47 47 47 47 46 46 45 42 40 40 40 40 40 39 39 39 39 39 39 38 38 37 36 35 35 34 32
4 5 6 8 10 13 16 18 21 24 26 28 30 30 32 34 35 34 34 34 34 34 35 38 42 45 47 48 48 48 48 47 47 47 47 47 47 47 47 46 46 46 45 43 41 40 40 41 41 40 39 39 39 39 39 39 40 40 39 37 37 36 35
8 8 6 8 10 13 15 17 19 21 23 25 27 29 30 32 33 34 35 34 33 33 34 36 40 44 46 48 49 50 50 49 48 47 47 46 46 46 46 46 45 45 44 44 42 41 40 41 42 41 40 39 40 40 39 40 41 42 42 40 39 39 38
13 11 7 6 9 10 12 13 15 16 19 21 24 28 30 31 33 34 36 36 35 35 35 36 39 43 46 48 50 51 51 50 49 48 47 47 47 47 47 46 45 45 44 44 43 41 39 39 40 40 40 40 40 40 40 40 42 44 44 43 42 42 40
18 16 13 9 7 8 7 7 10 11 13 16 20 26 30 31 33 34 35 35 35 36 36 36 39 43 46 48 50 50 50 50 49 49 48 48 48 49 48 47 46 46 46 45 44 42 40 39 40 40 40 40 40 41 41 42 43 44 46 45 44 44 42
21 18 18 14 10 10 8 7 9 11 11 13 16 22 27 31 33 34 33 33 35 37 37 37 39 43 46 47 48 48 48 49 49 48 48 48 48 49 49 48 48 47 47 46 46 44 42 41 41 41 40 39 40 41 42 43 44 45 46 47 46 45 45
21 20 20 18 14 15 16 15 15 16 16 15 15 18 23 28 32 34 34 34 35 35 35 36 39 43 46 46 46 47 48 48 47 47 47 47 48 49 49 48 48 48 48 47 47 46 45 43 43 42 42 41 40 40 42 43 44 46 47 47 46 46 46
23 22 22 20 16 16 19 20 19 19 19 19 17 17 19 23 28 32 34 34 33 31 32 36 39 42 45 45 45 47 47 46 45 46 46 47 48 48 48 48 48 48 48 48 47 46 45 44 43 39 40 43 39 38 43 44 44 46 47 46 46 45 46
22 22 22 21 20 19 21 23 24 23 23 22 19 17 17 20 24 28 31 32 32 33 35 37 38 40 43 45 46 46 46 45 45 45 45 46 47 47 47 47 46 46 48 48 48 46 40 40 40 33 32 38 34 31 37 43 45 46 47 46 46 45 45
21 21 21 21 22 23 26 28 29 28 27 24 20 17 18 20 22 25 28 30 33 36 38 39 39 40 42 45 46 46 45 44 44 45 45 46 47 47 47 47 45 46 47 47 49 47 37 34 36 31 28 32 30 26 30 37 43 47 46 46 46 44 44
20 19 18 18 21 25 28 30 30 28 26 23 21 18 18 19 20 22 25 27 31 36 38 40 41 42 43 44 44 44 44 44 44 45 45 45 46 47 47 47 46 46 47 47 48 46 38 34 33 30 27 29 30 30 29 31 38 45 47 46 46 44 45
19 18 19 21 24 27 28 29 29 26 24 22 21 18 17 17 18 21 24 25 28 32 36 40 42 43 44 43 42 42 42 43 44 44 44 45 46 47 47 46 46 46 47 48 47 44 43 40 34 30 29 30 32 33 32 30 35 43 46 46 46 45 46
14 16 19 23 25 25 25 26 27 25 23 21 19 17 17 17 18 21 24 25 26 29 33 38 41 42 43 42 41 42 42 42 43 44 44 45 45 46 45 45 46 45 45 46 45 44 44 42 38 35 32 31 32 32 31 31 34 39 44 46 47 46 46
9 12 17 20 21 23 24 24 24 22 20 19 17 16 17 17 17 20 23 25 25 26 30 36 39 40 41 42 41 41 41 41 41 41 41 42 43 44 44 44 44 44 43 43 43 44 41 37 37 38 33 30 33 33 31 32 34 37 41 45 45 44 44
11 14 17 17 19 21 21 20 19 15 13 15 17 16 17 17 17 19 21 22 24 26 28 32 33 34 36 38 39 40 39 38 37 37 38 40 42 42 42 42 42 42 43 42 40 41 40 37 36 36 32 32 33 32 32 33 33 35 40 42 42 42 43
12 14 14 15 17 18 15 14 14 12 12 16 17 16 17 17 17 18 18 20 22 24 24 25 27 29 30 32 35 36 36 35 35 36 37 38 39 40 40 41 41 41 41 41 37 36 38 38 37 34 32 33 32 30 33 36 33 34 38 41 42 43 43
11 10 10 11 12 10 9 10 11 12 13 14 14 16 18 18 17 17 17 17 19 20 20 20 22 25 27 28 31 32 33 34 34 35 36 36 37 39 39 39 39 40 40 39 36 36 37 39 39 35 32 33 32 32 36 37 35 35 39 42 44 45 46
8 8 8 7 6 5 5 8 9 11 12 12 13 14 15 17 17 17 16 17 18 19 18 18 19 22 24 26 28 30 31 31 32 32 33 34 35 35 36 37 38 39 40 39 38 37 35 34 35 35 34 33 34 35 36 35 35 37 41 43 43 45 47
6 6 6 5 5 4 3 3 5 7 9 11 13 13 13 15 18 19 19 20 22 21 20 19 20 21 22 22 24 26 28 28 29 30 30 31 32 32 34 36 36 37 38 36 33 32 30 28 29 33 33 33 33 35 35 33 34 38 42 43 43 44 45
5 4 3 3 3 2 1 1 1 1 3 7 11 13 15 15 17 19 20 19 19 18 18 19 20 20 20 19 20 22 23 25 27 28 28 28 29 31 33 34 35 36 35 30 25 25 25 26 28 31 32 32 33 35 34 33 34 38 42 44 44 44 44
3 2 2 2 1 1 2 1 3 4 4 4 5 8 11 13 14 16 16 16 15 16 16 16 17 17 16 16 17 18 20 21 22 23 24 25 25 27 29 30 32 33 32 27 24 24 24 24 26 30 32 33 33 33 33 34 35 38 41 44 45 46 47
2 1 1 1 1 2 2 2 3 4 5 6 6 5 5 6 7 8 10 10 11 12 13 13 14 14 14 15 16 17 17 18 19 19 19 20 22 23 23 23 24 25 26 25 25 26 27 26 26 28 32 33 33 31 32 34 36 39 43 46 46 47 49
2 3 2 2 2 2 3 3 3 4 5 7 7 6 6 6 6 5 4 4 5 6 7 8 10 11 12 13 13 14 15 16 18 18 17 17 19 20 20 20 20 21 23 24 25 27 29 30 30 30 31 32 32 33 34 35 35 37 42 47 48 47 48
4 5 4 3 3 4 4 5 5 5 6 6 6 7 7 8 7 6 6 5 4 4 5 5 7 8 8 9 9 10 12 12 14 15 15 15 17 18 20 21 21 21 22 23 24 26 27 29 31 31 30 31 32 34 36 37 36 34 38 44 45 44 45
7 6 5 4 5 6 7 7 6 6 6 6 6 7 7 9 9 8 7 6 5 5 5 5 6 6 6 6 6 6 6 7 8 9 11 13 14 15 18 19 19 21 23 25 26 28 29 30 32 33 32 34 36 36 37 38 37 34 36 41 43 43 44
7 7 7 7 8 8 10 10 9 8 7 7 7 8 8 9 10 10 8 7 6 5 5 6 7 7 6 6 5 4 4 5 5 6 7 9 10 11 13 14 15 18 21 24 27 29 31 33 35 36 37 39 41 43 42 42 41 40 41 45 47 46 45
8 9 9 10 10 10 11 11 10 10 9 9 8 9 9 10 10 10 9 9 8 8 8 10 11 10 9 8 7 5 5 4 3 4 5 6 8 10 12 13 14 15 18 20 23 27 30 33 36 39 41 43 46 48 48 48 49 49 50 52 53 54 51

ECMWFFLT1_850_spd_027.txt.gz
Wind_Speed
23 24 25 26 28 30 32 34 35 35 37 38 40 41 41 41 40 40 41 44 44 44 44 43 43 44 44 44 43 41 40 40 39 39 38 38 37 35 34 32 31 31 29 27 27 27 27 25 23 23 23 22 20 20 20 20 18 17 16 15 15 15 15
26 24 23 23 25 30 32 33 35 36 37 38 38 39 41 42 43 42 43 45 46 45 45 45 44 44 44 44 43 42 41 40 40 40 39 38 38 37 36 35 33 33 33 29 26 25 26 27 26 25 26 24 21 20 20 21 19 19 17 17 17 17 17
27 24 22 22 26 30 32 33 35 37 37 38 38 39 41 44 46 47 46 47 47 46 46 46 45 45 45 44 44 43 43 41 41 41 40 40 39 39 38 37 36 35 34 33 29 26 25 27 28 27 26 26 24 21 21 21 20 20 19 18 18 18 19
28 27 25 26 29 31 31 33 35 36 37 38 40 42 43 44 45 47 48 48 47 47 47 46 46 46 46 45 45 44 43 43 42 42 41 41 40 39 39 38 38 37 36 35 34 30 27 26 27 28 27 27 26 24 23 23 22 21 21 20 20 19 20
30 29 26 25 26 26 29 33 35 36 37 38 40 41 41 42 42 43 46 48 47 47 46 46 47 47 47 47 46 46 45 44 43 43 42 41 40 40 40 40 39 39 38 36 35 33 31 29 28 29 29 28 27 27 26 25 24 24 23 22 22 21 21
28 28 26 25 23 24 29 33 35 36 37 36 37 38 38 39 41 41 43 46 46 46 46 46 47 48 48 48 48 47 46 45 45 44 43 43 42 41 41 41 40 39 38 37 36 35 34 33 31 30 30 29 28 27 27 27 27 26 25 24 24 23 22
24 25 23 22 24 28 31 32 33 34 34 33 33 35 36 38 41 41 41 44 46 46 46 47 47 48 48 49 49 49 48 47 46 45 44 44 43 43 43 41 40 40 38 37 37 36 35 35 34 32 31 30 29 28 28 28 28 28 27 27 26 25 24
23 25 24 24 24 25 26 27 29 30 30 30 32 34 36 37 39 40 41 42 44 44 45 46 47 48 48 49 49 50 49 48 47 46 45 45 44 45 44 42 42 41 40 39 38 37 37 36 35 34 32 31 30 29 29 29 30 29 29 29 28 27 26
23 26 27 26 26 24 22 23 25 27 29 30 31 33 35 36 37 40 41 40 41 42 45 45 46 47 49 49 49 50 49 49 48 47 46 46 46 46 46 44 43 42 41 41 40 38 38 38 36 35 34 33 32 31 31 31 31 30 30 30 30 29 28
20 24 23 21 21 20 21 22 22 25 28 30 31 32 34 35 36 37 39 39 40 42 43 43 42 44 47 49 49 49 50 49 49 49 48 48 48 47 47 45 43 43 43 42 41 40 39 38 38 37 36 35 34 34 34 34 34 33 32 32 31 31 30
11 13 15 14 15 15 18 21 23 27 30 32 33 32 33 35 34 35 37 38 39 39 40 40 39 40 44 48 49 49 50 50 50 51 50 50 49 48 47 46 44 44 45 44 43 41 40 40 40 39 39 38 37 37 37 37 36 36 35 34 33 32 32
12 8 8 11 14 14 17 20 22 27 30 31 31 30 31 33 33 33 34 36 37 36 36 38 38 38 40 45 47 49 50 51 51 52 51 51 50 49 47 46 45 43 44 45 44 42 42 42 42 41 41 41 40 39 39 39 39 38 37 36 35 35 33
8 7 7 9 12 13 15 18 20 24 26 26 27 28 29 31 31 32 33 34 35 34 35 37 38 38 39 41 44 47 49 50 50 51 51 51 50 49 48 47 44 41 40 42 44 43 42 42 43 43 43 43 42 41 41 41 41 41 40 39 37 37 37
6 10 11 10 11 12 14 16 18 20 21 22 24 26 27 28 30 31 32 33 33 33 34 35 37 38 39 39 42 45 48 48 48 49 49 49 49 48 48 48 44 40 38 39 41 43 41 40 42 43 43 43 43 43 43 42 42 42 42 42 40 40 39
2 7 13 12 10 10 12 15 17 18 20 21 23 24 25 26 28 29 30 31 32 33 33 34 36 38 38 39 42 46 47 46 46 47 47 47 47 47 48 47 45 41 39 39 40 41 40 38 37 38 41 42 42 42 43 43 44 45 45 44 43 42 41
4 4 6 10 10 9 9 12 15 16 18 19 21 23 25 25 26 28 29 29 31 33 33 33 36 38 38 39 42 46 45 43 44 46 47 47 46 47 47 46 45 44 42 40 38 38 39 37 34 33 35 39 41 42 43 44 45 45 46 46 45 45 44
4 5 2 3 6 7 8 10 11 11 12 14 16 20 23 25 26 26 27 29 30 32 32 33 35 37 39 40 41 42 44 44 45 45 46 46 46 46 47 46 46 45 44 43 40 38 38 38 36 34 32 34 38 39 41 44 45 45 46 46 45 45 45
6 5 5 3 2 3 7 10 10 9 9 10 11 14 18 22 25 26 27 28 29 29 31 33 34 36 39 39 38 40 43 46 47 46 46 47 45 46 46 46 47 46 46 46 45 43 41 41 41 39 36 34 35 36 37 39 43 44 45 46 46 45 45
7 6 5 4 5 6 6 7 8 8 8 8 10 12 14 17 22 26 27 26 27 28 30 33 34 35 37 38 38 40 43 45 46 46 47 47 46 45 45 45 46 46 47 47 46 45 45 45 45 44 41 39 38 37 36 37 40 42 43 44 45 45 45
9 8 7 6 6 8 6 4 4 5 7 8 9 10 12 15 20 23 23 24 27 29 31 33 33 34 37 39 39 40 42 44 45 45 45 45 45 45 45 45 45 45 45 45 45 45 46 46 46 45 44 43 41 39 40 39 39 41 42 43 44 44 45
11 10 9 8 6 5 4 3 4 6 8 8 9 9 10 12 16 19 21 23 27 30 32 33 34 34 36 39 40 41 42 44 44 43 43 43 44 44 44 44 44 44 44 43 42 43 44 45 45 44 44 45 42 41 41 39 38 40 42 42 42 43 43
15 13 11 8 7 6 7 10 12 12 12 11 10 10 10 11 13 16 19 22 25 29 32 33 35 36 36 39 42 43 43 44 44 43 43 42 42 43 43 43 43 43 43 41 38 37 39 40 40 39 40 42 42 40 39 37 37 39 41 42 42 41 42
15 12 8 7 7 8 11 14 14 13 14 14 13 11 11 12 12 15 19 21 24 27 30 33 36 38 38 39 40 41 41 42 43 43 43 42 42 43 43 43 43 42 42 41 37 34 35 36 34 32 33 37 40 40 39 37 36 38 40 41 41 41 42
9 6 7 8 9 11 11 10 11 12 14 15 15 14 13 13 13 15 19 22 24 26 29 33 36 39 40 38 37 37 38 40 42 42 42 42 42 42 41 41 41 40 40 41 38 35 33 33 33 33 34 36 39 40 40 38 37 38 41 41 41 43 43
11 10 9 9 10 10 11 14 17 17 16 15 14 13 13 14 15 16 19 22 24 25 29 33 34 35 37 37 35 36 37 38 39 40 41 41 41 40 39 39 39 39 38 39 38 37 34 32 33 35 36 36 37 38 40 39 37 38 40 41 42 44 44
11 11 11 11 10 12 15 17 17 14 10 9 10 9 9 11 14 16 19 21 23 25 27 30 30 29 30 32 32 33 36 36 36 37 38 39 38 38 37 37 37 37 37 36 35 35 34 33 33 33 34 34 35 36 39 40 38 38 39 39 41 43 44
11 11 11 11 12 15 14 12 10 9 8 9 13 12 10 10 11 14 17 19 22 23 23 23 25 26 26 29 30 30 32 34 34 35 35 35 35 35 35 35 35 35 35 33 31 31 31 32 32 31 31 32 32 33 36 38 39 40 41 40 39 41 44
11 11 11 11 12 12 10 8 7 8 7 8 9 9 9 9 10 11 14 17 18 19 17 17 20 24 25 27 28 27 27 29 31 33 33 33 32 32 32 32 30 30 31 29 28 28 29 30 30 29 29 30 31 32 34 36 37 39 41 41 40 40 43
11 10 10 9 10 9 8 8 8 8 7 7 6 4 3 6 10 11 11 13 13 13 14 15 17 20 23 25 26 26 25 26 27 30 30 30 30 30 30 29 28 27 28 28 27 27 28 28 29 29 28 29 30 31 32 33 35 36 38 40 40 41 44
10 9 8 8 8 9 8 8 7 6 6 7 8 8 5 3 7 9 8 10 13 13 13 14 15 17 19 21 23 23 23 22 23 25 26 26 27 27 27 27 27 26 27 28 27 26 27 28 29 28 28 29 29 29 30 32 33 35 37 39 40 41 43
10 9 9 8 8 8 7 5 6 5 5 6 6 7 8 7 5 6 9 13 15 14 13 12 13 14 15 16 18 19 20 19 19 20 20 20 21 23 23 24 24 25 25 25 24 24 25 26 28 28 27 28 29 29 29 30 31 33 36 38 40 41 43
11 9 8 7 7 6 5 4 4 4 3 4 5 2 7 8 6 5 8 10 9 11 14 13 11 12 13 13 13 15 17 17 17 17 18 17 18 19 20 20 21 22 22 22 22 23 23 23 25 27 28 28 29 28 27 28 30 32 34 38 40 42 44
9 8 7 7 6 5 3 3 3 3 2 2 4 3 1 3 3 2 3 4 4 8 14 14 11 11 11 11 11 12 14 15 15 15 16 16 16 17 17 17 18 19 20 21 21 22 23 23 24 25 26 28 28 27 27 28 30 30 31 34 39 41 43
8 7 6 5 4 3 2 1 1 1 1 2 2 4 4 3 3 2 1 2 2 4 8 10 9 9 9 9 9 9 10 12 13 14 14 14 15 15 15 16 17 17 19 19 20 20 21 22 23 23 24 26 26 26 27 28 29 29 29 31 36 39 40
7 6 4 3 2 2 1 2 2 2 2 3 4 5 5 5 4 4 3 2 2 3 3 5 7 7 7 7 7 7 8 9 10 12 12 12 13 14 15 16 16 16 16 16 17 19 20 21 22 23 24 24 25 25 26 27 28 29 29 30 34 38 40
4 4 3 1 1 1 1 2 3 3 3 4 6 7 7 6 6 6 5 5 5 5 4 5 6 7 7 7 7 7 7 7 7 9 9 9 11 12 13 15 16 17 18 16 15 17 20 22 23 24 25 26 26 27 27 28 29 30 30 31 34 37 40
1 2 2 3 2 2 3 4 4 4 4 6 7 7 7 7 8 7 6 6 6 6 6 7 7 6 6 8 10 10 9 8 8 8 9 8 9 10 11 11 11 12 16 19 19 20 22 23 26 27 28 29 31 32 32 32 32 32 32 32 34 35 37
3 4 4 5 5 6 7 7 6 5 6 7 8 8 8 8 8 8 7 7 7 7 7 7 6 6 5 6 10 12 11 10 10 10 9 8 7 8 9 8 6 6 9 14 17 19 21 23 25 27 29 32 35 37 38 39 39 40 40 41 41 42 42

ECMWFFLT1_850_spd_030.txt.gz
Wind_Speed
30 34 36 32 32 34 34 35 38 40 41 44 46 45 43 44 44 45 47 48 48 47 46 45 44 43 43 42 41 39 39 39 38 38 37 36 35 35 33 31 29 28 28 28 28 28 28 25 23 23 22 21 20 20 20 20 18 16 15 16 16 16 16
31 33 38 37 35 35 35 34 35 38 41 43 45 44 42 43 45 46 47 48 48 47 46 45 45 44 44 43 43 41 40 39 38 39 39 38 37 36 35 34 32 31 29 28 27 27 27 27 25 23 23 22 20 20 20 20 19 18 17 17 17 17 18
32 31 38 43 40 36 37 37 39 43 45 44 44 44 45 46 47 47 47 47 48 47 46 45 45 45 45 44 44 43 42 41 40 40 40 39 38 37 36 35 34 33 31 29 28 26 25 26 26 25 24 24 22 21 20 20 20 19 19 19 18 18 19
34 31 34 41 42 40 40 40 42 46 47 46 46 46 46 46 46 46 46 47 48 48 48 46 45 45 45 45 44 44 43 43 42 42 41 40 39 38 37 37 35 34 32 31 30 28 25 24 25 26 26 27 26 24 22 21 20 20 20 21 21 20 20
36 33 31 37 44 43 42 40 40 43 44 43 44 44 44 43 44 44 45 46 47 48 47 46 46 46 46 45 45 44 44 43 43 42 42 41 40 39 39 38 37 36 34 32 31 30 28 26 25 25 27 28 28 26 24 23 22 21 21 22 22 22 22
36 33 30 34 40 39 37 38 39 40 40 39 39 40 41 41 42 43 43 45 46 47 46 46 47 47 47 47 46 45 44 44 44 43 43 42 41 40 40 39 38 37 36 34 32 31 30 29 27 26 27 28 28 28 27 25 24 23 23 23 23 23 23
36 33 31 33 34 33 35 35 35 35 34 32 33 36 38 40 41 41 41 43 45 47 47 47 48 48 48 47 47 46 46 45 45 44 43 43 42 41 41 40 39 38 37 35 34 33 32 31 31 29 28 28 28 28 28 27 26 26 26 26 25 24 24
37 37 34 34 34 33 34 33 30 28 28 29 32 35 38 39 40 41 41 42 44 45 46 47 48 48 48 48 47 47 47 46 45 45 44 44 43 43 42 41 40 39 37 36 35 35 34 33 32 32 31 29 29 29 28 28 27 27 28 28 28 26 26
38 44 38 34 35 34 33 33 31 29 28 30 35 37 38 39 39 41 42 41 42 44 45 45 46 47 47 47 47 47 47 47 46 46 46 45 44 44 43 42 41 40 38 37 36 36 35 34 33 33 33 32 31 30 30 29 29 29 29 30 29 28 27
34 43 39 34 34 32 32 32 31 30 29 31 37 40 39 40 40 40 41 40 41 42 43 44 44 44 46 47 47 47 47 47 47 47 47 46 46 45 44 44 43 41 40 39 38 36 36 35 34 33 34 34 33 33 32 31 31 31 31 32 32 30 29
30 41 37 31 29 30 33 33 31 31 31 33 38 39 38 40 39 38 40 40 40 39 40 42 42 42 44 45 47 48 48 48 48 48 48 47 47 46 45 45 44 43 41 40 40 38 36 36 36 35 35 35 35 35 34 33 33 33 33 33 33 33 31
25 37 37 31 28 29 32 32 31 31 31 34 37 36 37 39 37 36 38 39 38 37 38 40 40 40 41 43 45 47 48 49 49 48 48 47 47 46 46 46 45 44 43 41 41 39 37 37 37 37 37 36 36 36 36 35 35 35 35 35 35 34 33
20 28 31 27 26 30 32 30 29 29 29 33 37 36 35 37 37 36 36 37 36 35 36 38 39 39 40 41 43 44 46 48 48 48 48 48 47 46 45 45 45 44 42 41 41 39 38 39 38 38 38 38 38 37 37 37 37 37 37 37 36 36 36
21 21 21 20 21 25 28 28 27 27 29 34 36 35 33 33 35 36 35 35 36 35 35 37 39 40 40 40 41 42 44 46 46 46 47 47 47 46 44 44 43 42 40 39 39 39 38 39 39 39 39 39 39 39 39 39 39 39 39 39 38 38 37
21 18 15 14 17 18 20 22 22 23 29 32 32 32 31 31 32 34 34 34 35 35 35 36 39 41 41 42 42 42 43 43 44 44 46 46 46 46 45 45 43 42 41 40 39 38 37 37 38 38 39 40 40 40 40 41 41 41 41 41 40 40 39
17 19 19 16 15 16 17 17 16 18 26 29 28 29 30 30 31 32 33 32 33 35 34 35 38 41 42 43 44 43 42 42 42 43 44 45 46 46 46 45 44 43 42 41 40 39 38 37 36 37 38 39 40 41 42 42 43 43 43 43 42 42 41
9 14 22 22 17 17 18 17 17 18 23 26 27 28 29 29 29 29 30 31 31 33 34 34 36 40 42 43 43 43 42 42 42 42 43 45 45 46 46 46 45 45 43 42 42 41 40 38 37 37 37 38 39 41 42 43 43 43 43 43 43 43 43
10 7 13 16 16 17 18 19 20 21 23 25 26 27 27 28 28 28 29 30 30 30 32 34 35 38 42 42 41 42 43 43 43 43 43 44 45 45 46 45 46 46 45 44 43 42 42 41 40 39 38 38 38 40 42 43 43 43 43 43 43 42 42
6 3 4 7 10 15 17 18 21 22 22 22 22 23 24 25 26 27 27 28 29 30 31 33 34 35 39 42 42 42 43 44 44 44 44 44 44 44 45 46 47 47 47 46 44 44 43 44 43 42 41 41 41 41 42 42 42 42 42 42 42 41 41
2 2 2 3 4 7 8 12 18 17 14 15 16 18 21 22 23 25 26 26 28 30 31 33 34 34 36 41 43 43 43 43 44 44 45 44 44 44 45 46 47 47 47 46 44 45 46 45 45 45 44 44 44 44 43 43 42 42 42 41 40 40 40
1 1 4 5 6 6 9 8 10 8 5 8 9 10 14 18 20 22 23 25 27 30 32 33 35 35 35 38 42 44 43 43 43 44 44 44 44 44 45 46 46 46 46 45 45 46 47 47 47 47 46 46 46 45 45 45 43 43 42 42 40 39 38
4 5 2 5 10 10 7 5 4 1 1 5 7 7 8 12 16 19 21 23 25 28 31 33 35 37 37 37 39 43 43 43 43 43 43 43 44 45 45 45 45 45 45 44 44 44 46 47 47 47 47 46 46 46 47 47 45 44 44 43 41 40 39
13 16 15 14 14 10 5 2 1 3 4 3 6 8 7 9 12 15 19 22 24 26 30 33 36 38 38 37 37 40 43 43 42 42 42 43 44 45 45 44 43 43 43 43 42 42 44 46 47 47 47 47 47 47 49 48 47 46 46 45 43 42 42
16 16 14 14 13 10 4 2 3 5 5 5 5 6 8 10 12 13 15 20 24 26 28 32 36 37 38 38 36 38 41 42 42 42 42 42 42 43 43 42 42 41 41 41 41 41 41 40 41 44 46 47 47 48 49 49 47 47 47 45 45 44 44
14 12 11 11 10 6 3 5 5 5 5 5 5 5 5 8 12 14 15 16 20 24 27 31 34 35 36 37 35 35 38 39 40 41 41 41 41 41 41 41 40 40 40 40 41 41 38 36 35 38 41 43 44 45 46 47 46 46 46 46 45 44 44
12 12 10 10 9 7 7 8 6 5 4 5 7 6 4 5 9 13 16 16 17 22 25 28 30 31 32 34 34 33 34 37 38 39 39 39 39 39 39 37 37 37 37 38 39 39 38 36 35 35 36 37 39 40 42 43 43 43 43 44 43 44 44
11 10 9 10 11 9 7 6 6 4 5 6 7 4 5 6 7 10 15 16 17 20 21 22 25 28 29 31 32 31 31 34 36 37 36 36 35 36 35 34 35 35 34 35 35 35 35 35 35 34 33 33 34 36 38 39 39 40 41 41 41 41 42
11 10 9 10 9 8 7 6 6 6 6 7 6 3 3 5 6 9 12 14 15 17 18 16 18 23 27 28 30 30 29 30 33 34 34 33 32 32 32 32 31 31 31 31 31 30 31 32 32 33 32 32 32 33 34 34 35 36 38 40 40 40 41
12 11 10 10 8 7 8 7 6 7 6 6 8 8 6 3 4 7 8 8 10 13 15 14 14 18 24 26 27 28 27 26 28 30 30 31 30 30 30 30 29 28 28 29 29 28 28 29 30 31 31 31 31 31 31 31 32 33 35 36 37 38 39
12 12 11 10 9 9 9 7 5 7 6 6 10 10 5 4 2 3 4 7 9 11 14 15 12 14 20 23 24 26 26 24 24 26 27 28 28 28 28 28 28 27 27 28 28 28 28 28 28 29 30 30 30 29 28 29 29 30 32 34 35 35 36
12 11 10 10 9 8 7 6 5 6 6 6 10 9 1 6 5 5 8 10 11 13 14 14 12 11 17 21 21 23 25 23 22 22 23 24 24 25 26 26 26 26 27 27 27 27 27 27 26 27 28 29 28 27 26 26 26 27 28 30 32 33 34
12 11 10 10 10 8 7 6 5 6 6 5 7 8 1 6 6 6 9 9 10 13 15 14 12 10 14 17 18 19 21 21 20 20 21 21 21 22 24 24 24 25 25 25 25 26 26 25 25 25 25 26 26 26 25 25 25 25 25 26 27 29 31
11 11 10 9 9 8 7 6 5 6 6 4 2 4 3 2 2 2 4 5 7 11 15 15 12 10 12 14 15 16 18 19 19 18 19 20 20 20 21 21 21 22 23 23 23 23 23 23 24 24 24 24 24 25 25 25 24 23 24 26 27 28 29
10 10 10 8 7 6 5 5 5 3 5 5 2 2 3 1 2 2 1 1 2 5 10 12 11 9 10 11 11 12 15 17 17 17 18 19 18 18 18 18 18 19 19 19 20 20 21 21 21 22 22 22 21 22 22 22 21 22 23 26 28 29 30
9 9 9 6 5 5 4 3 3 3 3 3 3 4 4 3 3 4 3 2 3 4 5 8 10 9 9 9 10 11 12 14 16 17 17 17 16 15 16 17 16 16 17 17 18 19 20 20 19 19 20 20 20 20 19 19 20 22 23 24 25 26 28
8 8 7 5 4 4 3 2 1 2 2 2 4 5 5 6 5 4 3 4 5 5 5 6 9 10 10 9 10 11 12 12 14 15 16 15 14 14 15 16 15 15 16 17 18 19 21 22 21 20 19 19 19 20 21 21 22 23 24 24 25 25 26
6 6 6 5 4 3 2 2 1 1 0 2 3 3 4 5 5 4 4 5 6 6 6 8 9 11 12 12 11 13 14 12 12 16 17 15 14 15 16 16 16 15 15 14 13 14 18 21 22 22 22 21 21 22 23 24 25 25 26 27 28 29 29
5 5 5 4 1 2 3 3 3 3 3 3 4 6 5 4 5 5 4 4 6 7 9 10 9 9 11 12 12 14 15 12 12 16 18 16 13 13 14 14 14 14 14 14 12 12 14 17 20 22 24 25 26 28 29 30 30 31 31 32 34 35 36

ECMWFFLT1_850_spd_033.txt.gz
Wind_Speed
43 44 45 45 46 46 48 49 48 48 47 48 49 47 46 45 46 47 48 49 50 50 51 50 50 49 47 46 44 42 41 40 40 40 39 38 37 36 36 34 32 30 31 30 29 27 25 23 21 20 20 19 19 19 19 18 17 17 16 16 16 16 16
43 44 44 45 46 46 48 50 49 49 48 47 47 47 46 46 46 47 48 48 49 50 51 51 51 51 49 47 45 44 42 41 40 40 40 39 38 37 36 35 33 32 32 32 31 29 27 25 23 21 20 20 20 20 19 19 19 18 18 18 18 17 17
44 44 45 46 46 46 47 49 49 50 50 48 48 49 49 47 47 47 47 47 48 48 49 51 51 52 50 48 46 45 44 43 42 41 41 40 39 38 37 36 35 32 31 32 32 31 30 28 26 24 22 21 20 20 20 20 20 20 19 19 20 19 18
44 44 45 46 46 46 46 47 49 51 52 52 52 52 51 47 45 46 46 46 47 47 49 51 51 52 52 50 47 46 45 44 43 42 41 40 39 39 38 38 36 34 32 31 30 30 29 29 28 27 25 24 22 21 21 21 21 21 21 21 21 21 20
42 42 44 44 45 45 45 46 49 50 52 53 52 51 50 47 45 45 46 46 46 47 48 50 51 51 52 51 49 47 45 44 43 42 41 41 40 40 40 39 38 37 35 33 31 30 29 28 28 27 27 25 25 24 23 22 21 21 21 22 22 22 21
41 41 42 43 44 46 46 46 48 50 51 50 49 48 47 46 46 47 47 46 45 46 47 49 51 51 51 51 51 49 47 45 44 43 42 41 41 41 41 40 39 38 37 35 34 33 31 30 29 28 27 26 26 25 25 24 23 22 22 23 23 22 22
43 44 44 45 46 47 47 47 47 48 48 47 47 46 46 46 47 47 48 47 46 46 47 49 50 51 52 51 51 50 49 47 46 44 43 42 42 42 42 41 41 39 38 37 36 35 33 32 30 29 28 27 26 26 26 26 25 25 24 24 24 23 23
43 45 46 47 48 48 47 47 47 47 47 46 45 46 47 47 48 48 48 47 47 47 48 49 51 52 52 52 52 52 50 49 47 46 45 44 43 43 42 42 41 39 39 38 37 36 35 34 32 31 30 28 27 27 27 27 27 26 26 26 26 25 25
42 45 47 47 47 48 47 48 48 47 46 46 45 46 46 47 48 48 48 47 46 48 49 49 50 51 52 52 52 52 51 50 49 48 47 46 45 44 43 42 41 39 39 38 38 37 36 35 34 32 32 31 30 29 28 28 28 28 28 27 27 27 27
40 43 48 49 46 46 47 46 47 47 46 46 47 48 47 47 46 45 45 45 46 48 49 49 50 50 51 52 52 52 52 51 50 49 48 48 47 45 43 42 41 40 40 39 38 38 38 37 35 34 33 33 33 32 31 31 30 30 29 29 29 28 28
42 42 47 49 45 44 44 42 43 44 44 44 45 47 48 47 45 43 42 43 44 46 47 48 49 50 50 51 51 51 52 51 51 50 49 48 47 46 44 43 42 41 40 40 39 39 38 38 37 35 35 35 35 34 34 34 32 32 31 30 30 30 29
47 45 46 48 46 44 43 41 41 41 41 41 42 43 45 45 44 42 41 42 42 43 44 46 48 49 50 51 51 51 52 52 51 50 49 49 47 46 45 44 43 42 42 41 40 40 40 39 38 37 37 36 36 35 35 35 35 34 33 32 32 31 31
44 45 47 48 47 46 45 44 45 44 42 43 43 43 43 42 43 43 42 42 42 41 41 43 45 47 49 50 51 52 52 52 51 51 49 48 47 46 45 44 44 43 42 42 41 41 41 40 39 39 38 37 36 36 36 36 36 36 35 34 34 33 33
40 39 44 47 48 48 48 47 47 48 47 47 47 46 44 42 43 43 43 43 42 42 41 41 43 45 46 48 49 51 52 51 50 49 48 47 47 46 45 45 44 44 43 42 42 42 41 41 40 40 39 39 38 37 37 37 38 38 37 36 36 36 36
35 32 37 43 46 48 48 48 47 47 48 48 46 46 45 44 43 44 44 44 43 42 42 41 41 43 44 46 48 50 51 50 49 48 47 47 47 46 45 45 45 44 44 43 43 42 42 41 41 41 41 40 39 39 39 40 40 40 39 39 38 38 38
29 29 33 38 43 46 47 48 48 47 47 46 44 44 44 43 44 44 44 43 42 42 41 41 42 43 44 46 48 48 49 49 49 48 47 47 47 46 45 45 44 44 44 44 43 43 42 42 42 42 42 42 41 41 41 42 42 42 41 40 40 40 40
27 30 33 34 37 41 43 44 45 45 45 42 40 41 41 40 42 43 43 42 41 41 41 41 42 43 45 46 46 47 47 47 48 48 48 47 47 46 45 45 44 44 44 44 43 43 42 42 42 42 43 42 42 42 42 43 43 43 42 42 42 42 42
24 26 28 30 30 33 36 38 39 39 37 35 36 37 38 38 38 40 41 41 40 40 41 42 42 43 45 46 46 46 46 46 46 47 47 47 46 46 45 45 45 45 44 44 44 43 43 42 42 42 42 42 42 42 43 43 43 43 43 43 43 43 43
20 20 22 23 23 25 28 28 27 27 26 28 32 35 36 37 36 36 37 38 38 38 39 41 42 43 44 45 46 47 46 45 45 45 46 45 45 45 45 45 46 46 45 45 44 44 44 43 43 43 43 43 43 43 44 44 43 43 42 42 42 42 43
19 18 18 18 18 19 21 20 20 20 21 25 29 31 32 33 33 32 32 33 35 37 38 40 41 43 43 44 46 48 47 46 45 45 44 44 43 44 44 46 46 46 45 45 45 45 45 44 44 44 44 44 45 44 44 44 44 43 42 42 41 41 42
25 24 23 22 19 18 17 16 16 16 16 18 20 22 25 27 28 28 28 29 32 34 36 38 40 42 42 42 44 47 48 48 47 45 44 43 43 43 44 45 46 46 46 46 46 46 46 46 45 45 45 45 45 46 46 46 45 44 43 43 41 40 41
29 28 26 25 23 20 18 16 14 12 11 12 12 13 17 21 23 25 26 28 30 32 34 36 38 40 42 42 41 44 48 49 48 46 45 44 43 43 43 44 44 45 45 46 46 47 46 47 47 46 46 46 46 47 48 48 47 46 45 44 42 40 40
27 24 21 21 21 19 16 15 13 11 11 13 12 12 13 14 17 22 25 27 29 30 31 34 37 38 40 42 41 41 44 47 48 47 46 45 44 44 44 43 43 43 44 45 46 47 47 48 48 48 47 47 47 48 49 49 48 47 46 44 42 41 40
24 22 18 16 15 14 12 10 10 8 7 9 11 12 13 13 13 16 20 23 27 29 30 32 36 37 38 40 41 40 40 43 46 47 46 46 46 45 44 43 43 42 42 44 45 46 46 46 47 47 48 48 49 49 50 49 48 47 46 44 42 41 40
21 19 17 15 14 14 12 9 10 9 5 4 6 10 13 15 16 15 16 17 22 27 30 31 33 35 37 38 39 39 38 39 42 45 46 46 45 44 43 42 42 41 41 42 43 44 44 44 45 46 47 48 48 49 49 49 47 46 46 45 43 41 39
20 16 16 17 14 12 10 7 7 6 2 1 2 5 9 15 18 18 16 15 16 21 27 31 31 30 31 34 37 38 38 37 39 42 44 45 44 43 42 41 41 41 40 40 41 41 42 43 44 45 45 45 46 47 47 47 46 45 45 44 43 41 40
19 15 16 17 14 11 9 7 6 5 4 4 3 6 9 12 16 20 20 18 16 16 18 23 29 29 28 28 31 36 37 36 36 38 40 42 41 41 41 40 40 40 39 38 39 39 40 41 42 43 43 43 43 44 44 44 44 44 43 42 42 42 41
19 15 14 14 14 12 10 10 11 9 6 6 7 7 9 11 12 16 18 17 18 18 15 14 19 25 28 28 27 30 34 35 35 34 36 38 39 39 39 39 38 38 37 37 37 37 38 39 40 40 41 42 41 41 40 40 39 39 39 38 38 37 38
18 16 12 11 12 11 8 9 11 8 5 8 10 8 7 10 10 10 12 14 17 20 19 16 14 16 22 27 27 27 30 32 33 32 33 35 37 37 37 37 36 36 35 35 35 35 37 38 38 39 39 40 41 40 38 36 35 34 32 32 31 30 31
15 13 12 12 12 7 4 6 8 7 7 9 10 7 4 6 7 6 9 13 15 17 19 19 18 15 16 21 26 26 27 29 30 29 30 31 33 34 35 35 34 33 33 32 32 33 35 35 35 35 36 36 37 37 35 32 30 28 26 26 26 27 28
14 11 11 12 12 7 2 4 6 7 7 7 6 3 2 2 4 6 9 12 13 14 15 17 18 17 14 16 23 25 26 27 27 26 26 27 29 30 31 31 31 30 30 30 30 31 32 33 33 32 32 31 31 31 31 30 28 25 24 24 26 27 28
14 10 9 12 12 9 4 2 5 7 6 5 3 1 1 2 3 5 8 10 10 10 12 14 16 15 12 14 20 24 25 25 24 23 22 23 24 25 26 26 27 27 28 28 29 30 30 30 30 31 30 29 29 28 27 26 26 26 27 27 28 27 25
17 11 8 10 11 9 6 4 5 6 6 7 5 3 3 3 4 4 5 7 8 9 11 12 13 12 12 14 18 21 23 23 21 19 19 20 20 21 21 21 23 24 25 27 28 29 29 29 29 29 29 27 26 25 24 23 24 26 28 29 29 29 27
17 12 8 9 9 9 8 6 5 5 7 8 5 3 3 3 3 3 4 5 7 9 11 12 11 12 13 15 17 19 20 20 18 17 17 18 19 19 18 19 20 21 23 24 26 27 27 27 27 27 27 26 24 23 21 22 23 25 27 28 28 29 30
15 12 9 8 8 8 9 7 5 5 6 4 3 3 3 4 4 4 4 3 3 6 9 12 13 13 14 15 16 17 18 19 18 16 15 18 19 18 17 18 19 20 21 22 23 24 24 24 24 24 25 25 25 23 22 22 22 23 24 25 26 27 28
13 10 9 10 9 8 9 7 5 5 3 2 4 6 4 4 4 4 3 2 4 4 6 9 12 13 14 14 15 15 16 18 18 15 14 17 18 18 18 18 18 19 21 22 23 22 21 21 21 22 23 24 24 23 23 22 21 21 21 21 22 22 23
13 10 10 11 9 7 6 4 4 3 2 2 6 7 7 6 4 2 2 3 4 4 5 7 9 11 13 14 14 15 15 16 17 17 16 17 17 19 20 20 20 20 20 19 20 21 21 21 20 19 20 21 21 22 22 21 21 20 19 19 20 21 22
12 11 10 9 8 6 4 2 1 1 1 2 2 4 7 6 6 5 3 2 3 3 5 7 8 9 12 12 13 15 16 17 18 19 18 18 19 21 21 21 22 22 18 15 15 16 17 19 18 17 18 18 18 18 18 19 19 19 19 20 21 23 24

ECMWFFLT1_850_spd_036.txt.gz
Wind_Speed
44 45 47 48 49 51 53 55 53 52 53 54 54 53 53 53 53 53 53 53 53 52 51 49 49 50 50 49 47 47 45 44 43 43 43 42 41 39 38 36 34 32 29 27 25 24 24 23 22 22 22 21 20 21 21 20 19 18 18 18 18 17 16
43 45 47 49 50 52 54 55 55 53 53 54 55 54 53 53 53 53 54 54 54 53 52 51 49 49 49 48 47 47 46 45 43 42 41 42 42 41 40 37 35 32 29 28 26 24 23 23 23 23 22 21 21 21 22 22 20 19 19 18 18 18 17
44 45 48 51 52 53 54 55 56 55 55 55 55 54 54 54 54 54 54 54 53 52 51 51 50 50 49 48 48 47 46 46 45 43 41 41 42 42 40 39 36 33 31 29 27 25 24 24 23 23 22 21 21 20 21 21 21 21 20 19 19 19 18
45 46 49 52 53 55 54 55 56 57 56 56 56 56 56 56 55 55 54 53 53 52 52 51 50 50 50 49 49 48 47 47 46 44 42 41 41 42 42 41 38 36 33 31 30 28 27 25 24 23 23 22 21 20 20 21 21 22 21 21 21 21 20
46 47 48 50 51 52 52 54 56 57 57 57 57 57 57 56 54 53 53 53 52 52 51 51 50 50 50 50 50 49 48 48 47 45 43 41 41 42 43 42 39 37 35 33 32 31 29 28 27 26 25 24 23 22 21 21 21 22 22 23 23 23 22
44 46 48 49 49 50 52 54 56 57 58 58 58 57 55 53 53 52 53 52 51 51 50 50 50 49 50 50 50 50 49 48 47 46 44 42 42 42 42 41 39 38 36 34 34 33 31 30 29 28 27 26 25 24 23 23 23 23 23 24 25 25 24
44 45 48 50 50 51 52 54 55 56 57 57 56 54 52 52 52 52 52 52 52 51 50 50 50 49 49 50 50 50 49 48 47 46 45 44 43 43 42 40 39 38 36 35 35 34 33 31 30 29 28 27 26 25 25 25 25 25 24 24 26 26 26
46 46 48 49 49 51 52 52 54 54 53 52 51 51 51 52 52 52 52 52 52 51 51 51 49 48 49 49 50 49 48 47 46 46 46 45 45 45 43 42 41 39 38 37 36 35 34 33 32 30 29 28 28 27 26 26 26 26 26 26 26 27 27
47 48 50 50 50 51 52 53 54 53 52 51 50 51 52 52 52 52 53 52 51 51 51 51 49 47 47 48 49 49 47 46 45 46 46 46 46 46 45 44 42 41 40 38 37 36 35 35 34 32 32 31 30 29 29 28 28 27 27 28 28 28 28
46 49 51 50 50 50 50 51 51 51 52 50 49 50 51 52 52 52 51 51 51 51 51 50 49 47 46 48 49 48 47 46 45 46 47 47 47 47 46 45 44 43 42 40 39 38 36 36 35 34 34 33 32 32 31 31 30 29 29 29 29 29 29
47 48 48 46 45 46 46 47 49 51 52 52 51 51 51 52 51 50 49 50 50 50 50 49 49 47 47 47 48 48 47 45 44 45 46 47 47 47 46 45 45 44 43 43 42 40 39 38 37 36 36 35 35 34 33 33 32 31 31 30 30 30 30
46 46 45 44 44 45 45 47 50 51 52 52 52 51 51 51 51 49 48 48 48 48 48 48 48 47 47 47 48 49 47 44 43 44 45 46 46 46 45 45 45 45 44 44 43 43 42 41 40 39 38 37 36 35 35 34 34 33 32 32 32 32 31
45 44 45 46 46 46 46 47 49 50 52 52 52 51 51 51 50 49 48 48 48 48 47 48 47 47 47 47 48 49 48 45 43 42 43 45 46 46 45 45 45 45 44 43 43 44 43 43 42 40 39 38 37 37 37 36 36 36 35 34 34 34 34
44 44 44 45 46 47 47 47 48 49 50 51 50 50 49 49 49 49 48 48 48 48 48 47 47 47 46 47 48 48 48 45 42 41 42 43 45 46 46 46 46 45 44 44 44 44 43 43 42 41 40 40 39 38 38 38 38 38 37 37 36 36 36
42 42 44 46 48 49 49 48 48 48 49 49 49 48 47 47 47 47 47 47 47 48 48 47 47 47 47 47 47 47 46 44 43 42 42 43 45 46 47 47 46 46 45 45 44 44 43 42 42 41 41 41 41 40 40 40 40 40 39 39 38 37 37
41 42 43 45 48 50 50 49 48 49 49 48 48 47 46 46 47 47 47 46 46 47 47 46 47 47 47 47 46 44 44 44 44 43 43 44 45 46 47 47 47 47 46 46 45 44 43 42 42 42 42 42 42 42 42 42 42 41 40 39 39 39 39
39 41 41 42 45 46 45 46 46 47 48 48 48 47 47 47 47 47 46 45 45 45 45 45 46 46 46 46 44 42 42 43 43 44 45 45 46 46 47 47 47 48 47 47 46 45 44 43 43 43 43 43 43 43 44 44 43 42 41 40 39 40 40
38 40 41 42 42 42 42 43 44 45 46 47 46 46 46 46 47 47 46 45 45 44 44 44 45 45 45 43 42 41 40 41 41 42 44 45 46 46 46 46 47 47 48 47 47 46 46 45 44 44 43 43 44 44 44 44 43 42 42 41 40 40 41
33 35 38 40 41 41 42 42 42 44 44 43 44 44 44 44 44 45 45 45 44 43 43 43 43 44 43 42 41 40 39 39 39 40 41 41 43 44 45 46 47 47 48 47 47 46 47 46 45 44 44 44 44 45 45 44 43 42 41 41 40 40 40
23 24 26 30 34 35 37 37 38 40 40 41 42 42 41 40 40 39 39 40 41 42 43 43 43 43 43 41 40 39 38 38 38 39 38 38 38 40 42 44 46 47 47 47 47 47 47 47 46 45 45 45 45 45 44 44 42 41 41 41 40 40 40
26 25 23 23 24 24 26 27 29 31 33 35 36 37 39 39 38 37 36 37 39 41 42 42 42 43 43 42 41 40 39 39 39 38 38 37 37 38 39 41 42 44 45 46 47 48 48 47 47 47 46 46 46 46 46 45 43 42 42 41 40 40 40
33 32 29 25 23 20 18 18 19 21 23 25 27 29 32 34 35 36 36 36 37 39 41 42 42 43 43 43 42 41 40 40 40 39 38 37 38 39 39 39 40 40 42 44 46 47 47 48 48 48 48 47 47 47 47 46 45 44 44 42 41 40 40
36 36 35 32 30 28 24 23 21 20 19 19 20 21 23 26 30 33 34 34 36 37 39 41 42 43 44 43 42 42 41 40 40 40 39 39 39 40 39 39 38 38 39 41 43 45 47 47 48 48 48 48 48 48 48 47 46 45 44 43 41 40 40
35 34 33 32 30 28 27 26 25 23 22 21 21 19 18 19 22 24 27 30 34 37 38 40 41 41 42 43 42 41 41 41 40 40 40 40 41 40 39 39 38 38 38 39 41 42 43 44 45 46 46 47 47 48 48 48 46 46 45 44 42 41 40
32 30 28 27 26 24 22 21 21 21 20 20 19 17 16 17 18 18 19 22 26 31 35 38 40 39 39 40 40 40 40 40 40 40 40 40 40 40 39 39 38 38 38 39 40 40 40 41 42 43 44 45 46 46 47 47 46 46 45 44 42 41 41
31 28 25 23 21 20 18 16 15 15 15 13 12 12 13 15 16 17 18 18 20 23 26 30 33 35 36 36 37 38 40 40 40 40 40 40 39 38 38 39 39 39 40 40 40 40 40 40 41 42 42 43 44 44 45 46 46 45 44 43 42 41 41
29 28 26 22 19 17 15 14 13 11 10 8 5 5 7 10 12 14 15 17 18 20 21 23 26 30 33 34 35 36 37 39 40 40 40 39 38 37 37 38 39 40 41 41 40 40 40 40 41 41 42 42 42 43 44 44 44 44 43 42 41 41 40
25 25 24 21 18 16 14 13 12 10 8 7 5 2 2 6 8 10 12 14 16 18 19 20 21 24 28 32 34 35 35 36 37 38 39 39 38 38 38 38 38 40 41 41 41 41 40 40 40 40 41 41 41 42 42 42 41 41 40 40 39 39 39
24 23 22 21 19 16 14 12 10 8 8 8 8 6 4 4 6 8 9 12 14 16 18 19 19 19 21 25 30 33 34 33 33 34 35 36 36 37 37 37 38 40 40 41 41 41 41 40 39 39 40 40 40 40 40 39 39 38 37 37 36 35 35
21 22 21 20 19 16 14 12 10 9 9 10 9 8 6 5 5 6 8 9 12 14 16 18 20 20 19 19 23 28 31 32 31 31 31 32 33 34 36 37 38 39 40 40 41 41 41 40 39 38 38 38 37 37 37 37 36 36 35 35 34 33 32
20 20 19 19 18 15 13 11 10 10 10 11 10 8 6 6 5 5 6 8 10 12 13 14 16 18 18 18 19 22 26 28 29 29 28 28 29 31 33 35 36 38 39 39 39 40 40 39 38 36 36 35 34 34 33 33 33 33 34 34 33 31 29
20 19 18 18 18 16 13 11 9 10 12 12 11 8 6 6 6 5 6 8 9 10 11 12 13 15 15 16 18 19 21 23 27 28 27 25 25 27 28 31 32 34 36 36 37 38 37 36 35 34 32 32 31 30 28 27 27 28 29 30 30 28 25
20 18 18 17 16 16 15 13 12 12 12 12 10 7 7 6 6 6 7 8 10 10 10 10 11 12 13 14 16 18 19 19 22 25 25 23 23 23 25 26 28 30 31 32 33 33 33 33 32 30 29 28 27 25 23 22 23 24 25 26 26 26 25
19 16 15 15 13 14 15 15 14 13 11 10 9 7 5 3 3 5 6 8 10 11 11 10 10 10 11 12 15 16 18 18 19 21 22 21 21 22 23 24 25 25 25 25 27 28 28 28 27 26 25 25 23 22 22 22 23 24 24 24 25 26 26
16 13 12 12 12 12 13 13 13 10 8 8 8 8 5 1 2 4 6 7 9 10 11 12 11 8 7 9 12 14 16 17 18 19 19 19 21 23 23 24 24 23 21 21 22 23 23 24 24 24 23 23 22 23 24 24 23 22 22 23 24 25 25
13 12 11 11 10 9 9 9 9 7 5 5 7 8 6 5 6 6 6 7 8 7 8 11 12 10 8 8 11 13 15 17 17 17 17 19 21 22 23 24 24 23 22 22 22 22 22 23 23 23 22 23 24 24 23 21 19 19 19 20 21 21 22
12 12 11 10 10 9 8 6 5 5 3 3 5 7 6 6 6 7 8 8 8 7 7 7 10 12 11 11 12 14 15 16 16 16 17 19 21 22 23 24 24 24 24 24 23 22 22 21 20 19 19 20 21 21 20 20 19 19 19 19 20 20 21
13 12 10 8 7 9 8 4 2 3 3 3 5 6 6 6 6 7 7 8 8 8 7 6 7 11 13 13 14 15 16 16 17 17 18 20 22 23 24 24 24 24 23 22 20 19 19 18 18 17 16 16 17 18 19 20 20 20 20 19 19 19 20

ECMWFFLT1_850_spd_039.txt.gz
Wind_Speed
44 45 46 46 47 48 50 53 53 54 54 54 54 54 53 53 53 52 53 52 52 51 50 50 49 47 46 45 45 44 44 42 41 41 40 40 39 37 35 34 34 33 32 31 28 26 23 22 21 20 21 22 21 20 20 20 19 18 18 19 19 18 18
40 43 45 45 46 47 50 51 52 53 54 54 55 55 54 55 55 55 55 54 53 51 51 50 49 48 46 45 45 46 45 44 43 41 40 40 40 39 37 35 34 34 33 32 30 27 25 23 22 21 21 22 22 21 20 20 20 20 19 20 20 20 19
39 42 44 47 47 49 50 50 51 53 54 54 55 55 56 57 57 57 57 55 54 52 51 50 49 48 46 46 46 47 46 46 44 43 42 40 40 39 38 37 36 35 34 33 31 29 26 23 21 21 21 22 23 22 21 21 21 21 21 21 21 21 20
41 43 46 48 51 52 51 51 52 53 54 55 56 57 58 58 58 58 57 56 55 54 53 51 50 48 46 46 47 47 48 47 46 44 43 41 40 39 39 38 37 36 35 34 33 31 28 25 22 21 20 22 22 22 22 22 22 22 22 23 23 22 22
42 44 45 47 50 50 49 50 52 53 54 54 55 56 56 57 56 56 57 57 55 54 52 51 50 49 47 47 47 47 47 47 46 45 43 42 41 40 39 39 37 37 36 35 35 33 30 27 24 22 21 21 22 22 22 22 22 23 23 23 24 24 23
42 43 44 46 48 49 49 51 53 53 54 54 55 55 54 55 55 55 56 56 55 54 52 51 50 49 48 47 46 46 46 46 46 45 44 42 42 41 40 38 37 37 36 36 36 34 32 29 26 24 23 22 23 23 22 22 22 23 23 24 24 24 24
43 44 46 48 49 50 52 53 53 53 53 53 52 51 51 52 53 54 55 54 55 54 53 53 51 49 48 46 45 45 45 45 45 44 43 42 42 41 40 39 37 36 36 36 36 35 34 31 29 26 25 24 25 24 24 23 23 23 23 24 25 25 25
45 46 49 50 51 53 53 53 53 52 51 49 48 49 50 51 52 53 53 54 54 54 53 53 51 49 48 46 46 45 44 44 43 43 43 42 42 41 40 40 38 37 36 36 36 36 34 33 30 29 28 27 27 27 26 25 24 24 25 25 26 26 26
47 48 51 53 53 53 52 52 53 52 50 49 48 49 50 51 51 52 53 53 53 53 53 52 50 48 47 47 46 44 43 43 43 43 43 43 42 41 40 39 38 38 37 36 36 36 35 34 32 31 30 29 29 28 28 27 26 26 26 27 27 27 27
46 48 51 52 51 51 49 49 49 49 49 49 49 49 49 50 51 51 52 52 52 53 53 52 50 49 48 47 46 44 43 43 42 43 43 43 43 42 40 39 38 38 37 37 37 37 36 35 35 34 33 32 31 30 30 29 28 27 27 27 28 28 28
45 47 49 48 47 46 45 45 47 48 49 51 51 49 50 50 50 51 51 52 52 53 52 51 50 49 48 47 46 45 44 42 42 43 44 44 44 42 40 39 39 38 37 37 37 37 37 37 36 36 35 34 33 32 32 31 30 29 28 28 28 28 28
42 44 46 45 43 43 44 45 49 51 51 52 52 51 50 50 50 50 50 51 52 52 51 51 49 49 48 47 46 46 44 43 43 43 43 43 43 42 41 41 39 38 37 37 37 37 37 37 37 37 36 35 34 34 34 33 33 32 31 30 30 30 30
40 43 45 44 44 44 45 46 50 51 51 52 52 52 51 50 50 50 50 50 51 50 50 50 49 48 48 47 47 46 45 44 42 41 41 41 41 41 41 41 40 39 37 37 37 37 37 37 37 37 37 36 36 35 35 35 35 34 33 33 32 31 31
39 40 41 41 42 44 44 47 50 50 50 51 51 51 50 49 49 49 49 49 49 49 49 49 49 48 48 47 47 46 45 43 41 40 38 38 39 40 41 42 42 40 38 37 37 37 36 36 36 36 37 37 37 37 37 37 37 37 36 35 34 33 33
35 36 37 38 41 43 46 48 49 49 50 50 50 50 49 48 48 48 48 48 48 48 49 49 49 48 48 48 47 46 44 42 41 40 38 37 38 40 41 42 42 41 40 39 38 36 36 35 36 36 37 38 38 39 39 40 40 39 38 37 36 35 35
33 35 37 40 42 44 46 49 50 50 50 49 49 49 48 48 48 49 48 48 48 48 49 48 48 48 48 48 47 45 43 42 42 41 39 38 38 39 40 41 42 42 42 41 40 37 36 36 36 37 38 38 39 40 40 41 40 39 38 38 37 36 36
34 36 39 42 44 46 47 49 49 48 48 50 50 49 49 49 49 49 49 48 48 48 48 48 47 47 48 47 46 44 43 43 42 41 40 39 38 38 39 40 41 42 42 42 41 39 37 37 37 38 38 38 39 40 41 41 40 39 38 38 38 38 38
34 36 40 43 43 44 46 46 47 47 48 50 50 50 50 49 48 49 48 48 48 47 46 46 46 46 46 45 44 43 43 42 42 41 41 39 38 37 37 38 39 41 41 42 41 39 39 39 38 38 38 39 40 41 42 42 40 39 39 39 38 38 39
36 39 42 44 43 43 45 46 47 49 50 50 50 50 50 49 48 48 48 48 46 44 44 44 43 44 43 42 42 42 42 41 41 41 40 39 38 36 36 37 39 40 40 41 40 39 39 39 39 38 38 39 41 41 42 41 40 40 39 39 38 38 39
31 36 37 38 40 41 43 45 45 47 47 48 48 48 47 47 47 46 45 44 43 43 43 42 42 42 42 41 41 40 40 40 40 39 38 37 36 36 36 37 38 38 39 39 40 40 40 40 39 39 39 40 40 41 42 41 40 39 39 39 39 39 40
20 26 28 31 34 36 38 40 41 42 42 44 44 44 44 44 44 42 41 41 41 41 41 41 41 42 40 40 39 39 38 39 38 38 37 36 35 35 36 35 36 36 37 38 38 39 39 39 39 39 39 39 40 41 42 41 39 39 39 39 39 39 40
17 22 25 27 31 32 33 36 37 38 38 38 39 39 41 41 41 40 39 39 39 39 39 40 41 40 39 39 38 37 37 37 37 37 36 35 35 36 35 34 34 34 34 34 35 36 37 38 38 38 38 38 39 41 42 40 38 38 39 38 38 39 40
20 22 23 25 27 28 28 29 29 30 32 32 33 35 36 37 37 37 37 37 37 37 37 38 39 39 39 38 37 36 36 36 36 36 35 35 36 36 35 33 32 31 31 32 33 33 34 35 35 35 36 36 37 39 40 39 37 38 38 38 38 39 40
27 28 27 26 27 26 24 24 24 24 26 27 28 30 31 32 33 34 35 35 35 36 37 38 38 38 38 37 36 35 35 35 35 35 34 35 35 34 33 32 31 30 30 31 31 30 30 30 31 32 32 33 34 36 38 38 36 36 37 37 37 38 39
32 33 33 32 31 30 28 27 26 26 26 26 25 24 25 27 28 28 29 30 31 33 35 37 38 38 38 37 35 35 35 35 35 35 34 34 34 33 32 31 30 29 29 30 31 30 30 30 31 31 31 31 32 32 34 35 34 34 35 35 35 36 37
32 33 35 36 35 35 34 33 32 31 29 27 24 22 21 22 23 25 26 27 28 30 32 33 34 35 36 37 36 36 37 36 36 36 35 34 33 32 31 30 30 30 31 31 31 31 32 32 33 33 31 31 30 30 32 32 32 31 32 32 33 33 34
31 31 32 32 32 33 34 34 33 31 29 26 24 23 22 21 21 22 23 24 25 27 29 31 32 34 35 37 37 38 38 37 37 37 36 35 33 33 33 32 31 31 31 31 31 32 33 33 34 34 33 32 31 31 31 31 31 30 30 30 31 31 32
30 29 29 27 27 28 30 30 29 28 26 23 22 22 21 21 21 21 20 20 20 21 21 23 25 27 30 33 35 37 38 38 38 37 37 36 36 36 36 35 34 33 32 32 32 33 33 34 34 35 35 34 33 32 31 31 31 31 31 30 31 31 32
28 27 27 25 24 24 25 26 25 24 22 20 19 18 17 18 19 18 18 17 17 17 16 16 17 18 20 22 25 28 30 32 34 35 35 36 36 37 37 36 36 36 35 35 35 34 34 34 34 35 36 35 34 33 32 31 30 30 30 30 30 30 31
26 26 25 24 23 21 20 22 21 20 19 17 16 15 13 13 14 14 15 15 14 15 15 15 16 16 16 17 17 18 20 22 25 28 30 31 32 34 35 36 37 37 37 36 36 36 36 35 35 35 36 35 34 33 32 31 29 29 29 29 29 29 30
25 24 23 23 23 20 18 18 17 16 16 14 12 11 9 9 9 9 9 10 11 12 13 14 15 16 17 17 17 17 17 18 19 21 24 26 27 28 29 31 34 36 37 37 37 37 37 36 35 35 35 35 34 32 31 29 28 28 27 28 28 28 28
24 23 22 22 22 20 17 15 14 14 13 12 10 8 6 5 5 5 5 6 7 8 9 10 11 12 14 15 17 18 18 17 17 18 20 22 23 24 24 25 27 30 32 34 35 36 36 36 35 35 34 34 33 32 30 28 26 26 26 26 26 26 26
22 22 22 21 21 20 18 16 16 15 14 12 10 8 6 4 3 2 2 4 5 6 7 7 8 9 10 11 13 16 17 17 18 18 20 21 22 22 22 22 23 25 27 29 31 33 34 34 34 33 33 32 31 30 28 25 23 23 23 23 22 22 21
21 20 20 19 18 18 18 17 17 17 17 16 14 11 8 6 4 3 2 2 4 5 6 7 7 8 9 9 9 12 15 16 17 18 19 20 21 22 22 22 22 23 24 25 26 28 29 29 29 29 28 28 28 26 25 23 21 21 21 19 19 18 17
19 17 17 17 16 16 16 15 15 15 17 17 16 12 11 9 8 7 7 7 7 7 6 6 6 7 8 8 7 8 12 14 15 16 18 19 20 21 22 22 22 21 21 20 21 22 23 23 23 22 21 21 21 21 21 20 19 19 18 17 17 17 18
19 16 14 15 14 14 14 14 13 13 14 14 13 12 11 11 10 10 10 11 11 10 7 6 5 6 7 7 6 6 10 12 14 16 16 17 18 20 21 21 20 19 19 18 18 17 17 17 17 17 16 17 18 19 19 19 18 18 18 19 19 19 18
18 16 14 14 13 13 13 13 13 12 12 11 10 10 10 10 11 11 12 12 13 12 9 7 5 4 5 5 5 5 8 10 12 13 14 15 17 18 19 19 19 18 18 18 16 15 15 15 15 15 15 17 18 19 19 20 20 19 18 17 17 17 16
15 14 13 12 12 11 10 10 10 10 10 9 8 7 8 9 9 10 11 11 12 13 12 10 8 4 3 5 4 4 7 9 10 11 13 14 16 16 16 17 17 18 19 19 18 17 17 17 17 17 17 18 16 14 14 17 20 19 16 14 14 14 15

ECMWFFLT1_850_spd_042.txt.gz
Wind_Speed
41 42 44 44 45 45 48 50 50 50 51 51 52 52 52 52 52 52 52 51 50 49 48 46 45 43 41 39 37 35 35 35 35 35 35 36 35 34 33 32 31 30 28 26 24 22 20 19 19 18 18 17 16 16 17 17 17 17 16 16 16 16 16
37 40 43 43 43 46 48 49 49 49 50 51 52 52 52 53 53 53 53 52 51 50 49 47 46 45 43 40 38 36 35 34 35 35 36 36 36 34 34 33 32 31 29 27 25 23 21 20 20 20 19 19 18 17 17 18 18 18 18 17 17 17 17
37 40 42 43 45 47 48 48 48 50 51 51 52 53 54 55 55 55 54 52 51 50 49 48 47 45 43 42 40 38 37 35 35 35 36 36 36 34 33 32 32 32 30 28 26 25 23 22 21 21 21 20 20 18 18 19 19 19 19 18 18 18 18
38 42 45 46 48 49 48 48 49 50 52 53 54 55 55 55 54 54 53 52 51 51 50 49 48 46 44 43 42 40 39 37 36 35 36 36 36 34 33 32 32 32 31 29 28 26 25 24 23 22 22 21 20 20 19 20 20 20 20 19 19 19 19
37 42 44 45 47 47 46 47 49 50 52 53 53 54 54 54 53 53 53 52 51 50 49 48 48 47 46 44 43 41 40 38 37 36 36 36 37 36 34 33 31 31 31 30 29 28 27 26 24 23 23 22 21 20 20 21 22 21 21 21 21 20 20
35 38 41 44 46 46 46 48 50 51 52 52 52 52 52 52 52 52 52 52 52 50 48 48 48 47 46 45 44 43 41 40 38 37 36 36 37 37 36 34 32 31 31 30 30 30 29 28 26 25 24 22 22 20 20 21 21 22 22 22 22 21 21
35 38 42 46 47 47 48 49 51 52 51 50 49 48 49 50 52 52 52 51 52 51 49 49 48 47 47 46 44 44 42 41 39 37 36 36 36 37 36 35 34 33 32 31 30 30 30 30 28 27 26 24 23 22 20 20 20 21 22 22 22 21 21
36 39 44 47 49 50 50 51 51 51 49 47 46 47 49 51 52 52 52 52 51 51 50 49 48 48 47 45 44 43 42 41 39 38 36 36 36 36 36 36 35 34 33 33 32 31 31 31 30 29 28 27 26 24 22 21 20 21 21 22 22 21 21
37 39 44 47 49 50 51 52 51 49 48 47 48 50 50 51 51 52 52 52 51 51 51 49 48 47 46 45 44 42 41 41 39 38 36 36 35 35 35 35 34 34 34 34 33 31 31 30 30 30 29 29 28 27 25 23 22 22 22 22 22 22 21
36 39 43 45 46 47 49 49 46 45 46 48 49 50 50 50 51 52 52 52 52 52 51 50 48 47 46 46 44 43 42 41 40 38 37 36 35 34 33 33 33 33 34 34 33 32 31 30 30 30 30 29 29 28 27 26 25 24 24 23 24 23 23
37 39 42 43 44 45 44 42 41 43 46 48 50 50 50 51 51 51 52 52 52 52 51 50 48 48 47 46 45 45 44 42 41 40 38 36 35 33 31 31 32 32 33 33 33 32 32 31 31 30 30 29 29 29 28 27 26 25 25 24 24 24 23
37 39 41 43 43 43 42 42 43 45 47 48 50 51 50 51 51 51 51 52 52 51 51 50 49 48 48 47 47 46 45 44 42 40 38 37 35 33 32 31 31 32 32 32 32 32 32 32 32 31 30 29 28 28 28 27 27 27 26 25 25 24 24
36 40 43 44 43 42 42 43 45 47 48 49 51 51 51 51 51 51 51 51 51 51 50 49 49 48 48 48 47 47 46 44 43 41 39 37 34 32 31 31 31 31 31 31 32 32 32 32 32 32 31 30 29 28 28 28 28 28 27 27 26 26 26
35 40 43 42 41 41 42 44 46 47 48 50 50 50 50 50 50 50 50 50 50 49 49 48 48 48 48 48 48 47 46 44 42 41 38 36 34 32 31 30 30 30 30 31 32 32 32 32 32 32 31 31 30 30 29 30 30 29 29 28 28 27 27
34 38 40 39 39 41 44 46 47 48 49 50 50 50 49 48 48 48 48 49 48 48 48 48 47 47 47 48 48 47 45 44 42 41 39 36 34 32 31 30 29 29 30 31 32 32 32 32 32 32 32 33 32 32 32 32 31 31 30 29 29 28 28
34 36 38 39 40 43 46 47 48 49 49 49 50 49 49 48 48 48 48 48 48 47 47 47 46 46 47 47 47 45 44 44 43 41 39 37 35 33 32 30 29 29 30 30 31 32 32 32 32 33 33 33 33 33 34 33 32 31 31 30 29 29 28
31 35 37 39 42 44 46 46 47 47 47 49 50 50 50 49 49 49 48 47 47 47 46 46 45 45 46 46 45 44 44 43 43 41 40 38 36 34 33 32 30 30 29 30 31 31 32 32 33 33 34 34 34 34 35 34 32 31 31 30 30 29 29
29 34 38 40 43 44 45 44 45 46 47 49 50 50 50 49 48 47 47 47 47 46 45 44 44 44 44 44 44 43 43 43 43 42 40 38 36 35 33 33 32 31 30 30 30 31 32 33 33 33 34 34 34 35 35 34 32 31 31 31 30 30 30
27 33 39 42 43 44 44 44 45 48 49 49 50 51 50 50 49 48 48 47 45 44 43 43 43 43 43 43 43 43 43 42 42 41 40 38 36 34 33 34 34 33 32 30 30 30 32 33 33 33 34 34 35 35 35 34 33 32 32 31 30 30 30
23 28 33 37 41 43 44 44 45 47 47 48 49 49 49 48 47 47 45 44 43 42 42 42 42 42 42 42 42 42 41 41 41 40 39 37 35 34 34 34 34 33 32 31 30 31 32 32 33 33 34 34 34 35 35 34 33 32 32 31 31 31 31
19 24 28 31 36 40 41 42 43 44 45 46 46 45 45 45 44 43 42 41 41 41 41 41 40 41 40 40 41 41 41 41 40 39 38 37 36 35 35 35 34 33 32 32 32 32 31 31 32 32 32 33 33 34 35 34 33 32 32 32 31 31 32
13 20 25 29 33 37 39 42 43 43 43 44 44 43 43 43 43 42 41 40 40 39 39 40 39 39 39 39 40 40 40 39 39 38 37 36 36 36 36 35 34 33 32 32 32 32 31 31 32 31 31 31 32 33 34 34 32 32 32 31 31 31 32
8 16 20 25 29 32 35 37 39 40 41 41 42 41 41 42 41 40 39 38 39 38 38 38 38 38 38 38 37 37 37 36 36 35 35 35 36 36 35 33 32 31 31 32 32 31 31 31 31 30 30 31 31 32 32 32 30 30 30 29 29 30 31
9 14 17 21 24 27 29 31 33 35 36 37 38 38 38 39 39 38 37 37 37 37 37 37 36 36 36 35 34 34 33 33 32 32 32 33 33 32 31 30 30 29 29 30 30 29 29 28 28 28 28 28 29 29 30 29 27 27 27 27 27 28 29
15 15 19 20 22 23 25 27 29 30 32 33 34 35 35 36 36 35 35 35 35 36 36 36 34 33 32 31 30 30 31 30 30 30 30 30 30 28 28 27 27 27 28 29 29 27 27 27 27 27 26 26 26 26 27 26 23 22 23 23 23 24 25
21 18 19 21 23 23 23 25 27 28 29 31 31 32 32 32 33 33 33 33 33 34 34 33 31 28 27 27 28 29 30 30 30 30 30 29 28 27 26 26 26 27 29 29 28 27 28 28 29 28 26 25 25 24 25 24 20 18 19 19 19 20 21
25 22 22 22 24 25 25 26 26 27 27 27 27 28 28 28 29 30 31 31 31 32 31 29 27 26 25 26 27 29 30 30 30 29 29 28 27 27 27 27 28 28 29 28 28 28 28 29 29 28 27 26 25 25 24 24 21 18 18 18 18 18 19
27 26 25 24 25 26 27 28 27 26 26 25 25 26 26 26 27 28 28 29 29 28 27 25 25 25 25 25 27 29 30 30 30 29 29 28 29 29 29 29 29 29 29 30 30 30 29 29 29 29 28 27 26 26 24 24 22 20 19 18 18 18 18
27 27 26 26 26 26 27 28 27 26 24 23 24 25 25 26 27 27 27 28 27 27 26 25 26 26 26 27 28 28 29 30 29 29 29 29 30 30 29 29 29 30 31 31 32 32 31 31 30 31 30 28 27 26 24 23 22 21 20 19 18 18 18
25 26 25 24 24 25 27 29 29 27 25 23 23 24 26 27 28 28 28 28 26 26 25 25 25 26 26 27 28 28 29 29 28 29 29 29 30 30 30 30 31 31 31 32 33 33 33 32 32 32 32 30 28 25 23 22 21 20 20 19 18 18 17
24 23 24 22 20 20 23 26 28 28 28 27 26 26 27 28 29 29 28 27 25 23 23 22 22 22 23 23 24 24 24 25 25 26 26 27 29 30 30 30 30 31 31 31 32 33 33 32 32 32 32 30 29 26 23 21 20 20 20 19 18 17 16
23 22 23 23 21 18 18 20 23 25 27 27 26 26 27 27 27 27 27 26 25 23 22 22 22 22 22 22 21 21 21 21 21 21 22 24 27 29 28 28 29 29 29 30 31 31 31 30 31 32 32 31 29 26 23 21 20 19 18 18 17 16 14
24 22 22 23 23 21 19 19 21 22 23 23 22 22 23 24 25 25 24 24 24 23 23 22 22 23 23 22 22 22 22 22 22 21 21 22 25 27 28 28 29 29 29 29 29 28 27 27 27 28 29 29 27 25 23 21 20 19 17 16 14 13 13
23 21 20 21 22 22 22 22 22 22 22 21 20 19 19 19 19 18 18 18 19 19 19 19 20 20 20 21 21 21 22 22 23 23 22 23 24 26 27 28 29 30 29 27 26 25 24 23 22 22 22 21 21 20 20 20 19 17 15 12 12 12 12
22 20 19 19 19 20 20 21 20 21 21 21 20 20 20 20 18 16 13 12 11 11 12 13 14 15 15 16 16 17 18 20 21 22 23 24 24 25 26 27 28 29 27 25 24 23 21 20 18 16 15 15 15 15 15 15 13 12 11 10 11 12 13
21 18 16 16 17 17 17 18 17 17 18 19 19 19 19 20 19 18 16 13 11 8 7 8 9 11 11 11 12 13 15 17 18 19 20 21 21 22 23 24 25 25 25 23 22 20 19 17 14 12 10 11 12 11 11 11 10 10 11 12 13 13 14
21 18 15 14 13 14 15 15 14 14 15 15 16 16 17 17 17 16 15 14 12 10 7 7 8 9 10 9 10 11 12 13 15 16 16 16 16 16 17 19 21 21 21 20 19 18 16 14 12 10 9 10 10 10 11 12 13 14 14 14 14 14 14
21 17 14 11 10 11 12 13 12 12 12 12 13 14 14 14 15 14 13 12 11 10 9 8 8 9 10 9 9 9 8 9 10 11 11 11 11 11 12 13 15 17 18 18 17 15 14 13 12 11 11 11 11 12 12 12 13 15 16 17 16 14 13

ECMWFFLT1_850_spd_045.txt.gz
Wind_Speed
30 30 31 32 33 37 42 47 49 49 49 51 51 50 50 49 49 49 48 47 46 45 44 43 42 41 40 39 36 34 33 32 32 32 31 31 30 30 30 30 29 28 26 25 23 22 19 18 18 18 17 16 15 14 13 13 12 11 11 11 12 12 11
27 30 32 32 34 39 44 48 48 49 49 50 51 50 51 51 50 49 48 48 47 46 45 44 43 42 40 39 37 35 34 32 32 32 31 31 31 30 29 29 28 28 27 26 25 22 19 18 18 19 18 17 16 15 14 13 12 12 12 12 13 13 13
27 30 32 33 36 41 46 47 49 50 50 50 51 51 53 53 51 49 48 48 47 46 46 45 44 43 41 39 38 36 35 33 32 32 32 32 31 30 30 29 28 28 27 27 25 23 21 19 19 19 18 18 17 16 15 14 13 13 13 13 14 14 13
29 33 35 36 40 45 47 48 50 51 50 51 53 53 54 53 51 48 47 47 47 47 47 46 45 43 42 40 39 37 36 35 33 32 31 31 31 30 30 29 28 28 28 27 26 25 23 21 20 20 19 19 18 17 16 16 15 15 14 15 15 15 14
31 35 33 34 39 43 45 48 50 50 50 51 51 53 53 52 50 48 48 47 47 47 46 45 45 44 43 41 40 38 37 35 34 32 31 31 31 30 29 29 28 28 28 27 27 26 24 23 22 21 20 19 18 18 17 17 17 16 16 16 17 17 16
28 32 33 35 38 40 44 48 50 50 52 51 50 52 52 51 50 49 49 48 48 47 47 46 45 45 44 42 40 39 37 36 34 33 32 31 31 30 29 28 28 28 27 27 27 26 26 24 23 22 21 20 19 19 18 18 18 17 17 17 18 19 18
27 32 38 40 39 40 44 49 50 50 52 50 46 47 50 50 50 50 49 49 49 48 48 48 47 46 44 42 41 40 38 37 35 34 33 33 32 30 29 28 28 27 27 27 26 26 26 25 24 23 22 21 21 20 19 19 18 18 18 18 19 20 19
30 36 41 42 42 42 44 48 49 48 48 46 42 45 49 49 49 50 51 51 50 50 49 48 48 47 45 43 42 40 38 37 36 35 34 34 33 32 30 29 28 27 27 27 26 26 25 25 25 24 24 23 23 22 21 20 19 19 19 18 19 19 20
31 37 41 42 42 42 43 48 50 46 46 48 48 50 51 50 50 52 52 51 51 51 50 48 48 47 46 45 43 40 38 37 36 35 35 34 34 33 31 30 29 29 28 28 27 27 26 25 25 25 25 25 25 24 23 22 21 20 20 19 18 18 19
29 36 40 41 40 40 41 44 45 44 46 49 52 52 50 50 51 51 51 51 51 51 50 48 48 48 46 45 43 41 40 38 37 36 35 35 34 33 32 31 30 30 29 28 28 28 27 26 26 26 26 27 27 27 25 24 24 23 22 20 19 18 18
22 32 38 39 40 40 38 39 42 45 47 49 50 50 50 51 52 52 52 52 51 51 50 49 48 48 46 45 44 43 42 40 38 37 36 35 35 34 32 31 31 30 29 28 29 29 28 28 28 28 28 28 28 28 27 27 26 25 24 22 21 20 19
16 24 31 36 39 41 39 39 44 47 47 47 48 49 50 52 53 52 52 52 51 50 50 49 49 48 46 45 44 44 43 41 40 38 37 35 35 34 33 31 31 29 28 28 28 29 29 30 30 30 29 29 28 28 28 28 28 27 26 25 23 22 21
14 20 28 32 35 38 38 39 42 45 46 47 48 50 52 52 53 52 52 52 51 50 49 49 49 48 47 46 45 45 44 42 41 38 37 35 34 34 33 32 31 30 28 27 28 28 29 30 31 31 30 29 28 28 28 27 28 28 27 26 25 24 23
13 15 23 29 32 34 36 38 41 43 46 47 49 51 52 52 52 52 53 53 51 50 49 49 49 48 47 46 46 45 43 42 40 38 37 35 34 33 32 32 31 30 29 28 28 28 28 28 29 29 29 29 29 29 28 28 28 28 28 27 26 26 25
17 14 18 25 31 35 38 40 42 44 47 48 49 51 52 52 52 51 51 51 50 49 49 48 48 47 46 46 46 44 42 41 39 38 36 35 34 33 32 32 31 30 30 29 28 27 27 27 27 27 28 29 29 29 29 28 28 28 28 27 27 26 26
21 22 19 22 29 35 39 42 44 46 48 49 50 51 52 52 53 52 52 51 50 49 49 48 47 46 46 46 45 43 41 40 39 37 36 36 35 33 32 32 32 31 31 30 28 28 27 27 27 27 27 28 29 29 29 29 29 28 28 27 27 26 26
19 25 26 25 28 33 38 42 45 47 47 49 51 52 53 53 53 53 52 50 50 50 49 48 47 46 46 46 44 42 40 39 38 37 36 36 35 34 33 32 32 32 31 31 30 29 29 28 28 28 28 29 29 30 30 30 29 28 28 28 27 27 26
18 22 27 29 28 32 38 41 44 47 48 49 50 51 52 53 53 52 51 51 51 50 49 48 47 45 46 46 44 42 40 39 39 38 37 37 35 34 33 32 32 33 32 32 32 31 30 30 29 28 29 29 30 30 31 31 30 29 28 28 28 28 27
20 21 25 29 28 29 36 41 44 48 49 50 51 52 52 52 52 52 52 51 51 50 49 48 46 46 46 46 44 42 40 39 39 38 37 36 35 34 33 33 34 34 33 32 32 32 32 30 29 29 29 29 30 31 31 31 30 29 29 29 28 28 28
21 22 23 25 25 26 33 41 44 47 49 50 51 51 51 50 50 50 50 50 50 49 48 47 46 46 46 45 43 41 40 39 38 38 37 35 34 34 34 34 34 34 33 32 32 33 32 31 30 30 29 29 30 30 31 31 31 29 29 29 29 28 28
22 22 21 20 23 27 33 39 43 46 48 49 48 48 49 49 48 48 49 49 49 48 47 46 45 45 44 43 42 40 39 39 38 37 36 35 34 34 34 34 34 33 32 32 32 32 31 30 30 30 29 29 29 30 30 31 31 30 29 29 28 28 28
21 23 20 18 22 27 32 36 40 44 46 46 45 46 48 48 48 48 48 48 47 46 45 45 44 43 42 41 40 39 38 38 37 36 35 34 34 34 34 34 34 33 32 32 32 31 30 30 31 30 29 29 28 29 30 30 30 29 29 28 28 27 28
19 21 17 15 20 25 29 33 37 39 40 41 43 45 46 47 47 46 45 45 44 44 44 43 42 41 40 40 39 38 37 36 35 35 34 33 34 34 34 33 32 32 31 32 32 32 31 30 30 30 29 29 29 29 30 30 30 29 28 28 27 27 28
17 18 13 10 16 22 27 31 33 34 35 37 40 42 44 46 46 45 44 44 43 43 42 42 41 40 39 39 38 37 36 34 33 33 32 33 33 32 32 32 31 31 31 31 31 31 31 29 29 29 29 29 29 30 29 29 29 29 28 27 27 27 28
17 17 10 5 13 19 24 28 30 30 32 35 38 41 43 45 45 45 44 43 42 41 41 40 39 38 36 36 36 35 33 31 30 30 30 31 30 30 29 29 29 29 30 30 30 30 30 29 29 29 29 28 28 28 28 28 28 28 27 26 26 27 27
17 16 10 1 11 18 21 24 27 29 31 34 36 39 42 43 44 43 43 42 41 40 39 37 35 33 32 32 32 31 29 29 29 29 29 28 27 26 27 26 27 28 29 29 29 29 29 30 30 29 28 27 27 27 26 26 25 25 24 23 24 25 25
14 13 11 5 8 18 21 23 26 26 29 31 33 37 40 41 42 41 41 41 40 38 35 32 30 28 28 29 29 29 28 28 27 26 26 25 24 25 26 26 27 28 29 28 28 29 29 29 29 28 27 26 26 26 25 24 22 21 20 20 21 22 22
17 14 12 8 5 17 23 25 26 26 28 29 31 35 37 38 39 39 39 39 36 33 30 28 27 27 26 27 27 27 26 26 25 24 24 23 24 25 26 26 27 27 27 27 28 28 28 28 28 27 27 27 27 26 25 23 21 20 20 19 19 20 21
22 20 17 12 4 10 18 24 27 28 29 29 30 32 34 35 37 37 38 36 32 28 27 26 25 25 25 25 25 25 24 23 23 23 23 23 24 25 25 25 26 26 27 27 28 28 28 27 27 27 27 27 27 26 25 23 21 20 20 20 19 20 21
26 23 20 17 11 5 9 17 24 28 30 31 32 32 32 34 35 36 36 34 29 27 25 24 23 23 23 23 23 23 22 22 22 22 23 23 23 24 24 25 26 27 27 27 28 29 29 28 28 28 28 28 27 25 24 22 20 19 19 19 19 19 20
28 24 21 20 16 11 7 8 16 23 28 30 32 32 32 33 34 35 35 32 28 26 25 24 24 24 24 24 24 23 23 22 22 22 22 22 23 24 24 25 27 27 28 28 29 30 30 29 29 29 28 27 26 25 24 22 20 19 18 18 18 18 19
29 25 22 21 19 18 14 10 12 17 23 27 30 31 32 32 31 32 32 30 27 26 25 26 26 26 26 25 24 23 22 22 22 22 22 23 24 24 24 25 27 27 28 28 29 30 29 29 29 29 28 27 26 24 23 22 21 20 19 18 17 18 18
30 27 23 21 20 20 21 19 16 16 18 21 24 27 29 29 29 28 28 27 26 25 25 25 26 26 26 25 24 23 23 23 23 23 23 24 24 24 25 26 28 29 29 30 31 31 30 30 29 29 27 25 23 22 21 21 21 20 19 18 17 17 17
30 27 24 22 20 21 22 23 22 21 20 19 19 21 23 24 25 26 25 25 25 24 24 25 24 24 23 22 22 23 23 23 23 23 24 25 26 27 27 29 30 30 30 30 30 30 30 28 28 27 24 22 21 20 21 21 20 18 16 15 15 16 17
30 27 24 22 22 21 21 22 22 22 22 21 20 20 21 22 23 23 24 23 23 24 24 24 23 22 21 21 22 22 22 23 23 23 24 26 27 28 30 30 31 30 30 29 29 29 28 27 25 24 21 20 19 19 19 19 17 13 11 11 13 14 16
30 28 25 21 20 20 21 21 20 20 21 20 19 19 19 19 19 19 20 21 22 23 24 24 24 24 23 23 23 23 24 24 25 25 26 27 28 29 29 30 31 30 29 28 27 26 25 24 23 20 18 18 18 16 15 14 12 11 11 13 14 16 17
28 27 25 22 19 18 19 19 19 18 18 18 18 18 18 18 17 16 16 17 18 21 23 24 25 26 25 25 25 25 25 26 26 27 27 28 28 28 28 28 29 28 27 26 25 24 23 22 20 17 16 15 14 13 13 12 12 12 13 15 16 18 19
25 24 23 22 20 18 17 16 16 16 15 15 14 15 16 16 16 15 15 15 14 15 18 21 23 24 24 24 24 24 25 25 26 26 26 27 27 26 25 25 25 25 25 24 23 22 22 20 18 17 16 14 14 13 13 13 13 13 14 15 17 18 19

ECMWFFLT1_850_spd_048.txt.gz
Wind_Speed
24 25 26 26 27 29 32 35 36 36 37 38 38 38 38 38 38 39 42 45 46 44 43 42 41 41 40 40 39 39 39 38 37 36 36 35 34 34 33 30 28 27 26 26 26 25 25 23 20 19 17 16 17 17 16 15 14 13 12 11 10 9 9
23 24 25 26 27 29 32 34 35 35 36 37 37 38 39 39 40 42 43 46 46 44 43 42 42 41 40 39 38 38 37 36 36 35 35 34 34 34 33 31 29 27 26 26 26 26 26 23 21 19 18 17 17 17 16 15 15 14 13 12 11 11 11
23 24 25 26 28 30 32 33 34 35 36 36 37 39 41 42 44 45 46 46 46 44 43 43 43 42 40 39 38 38 37 36 35 35 34 33 33 32 32 31 29 27 26 26 27 27 26 23 21 20 19 18 18 17 17 16 15 15 14 13 12 12 12
23 24 25 26 28 30 32 33 35 36 36 37 40 42 44 45 45 45 46 47 46 45 44 44 43 42 41 40 39 38 37 36 35 35 34 32 32 31 31 31 29 28 27 26 27 27 26 24 22 21 20 19 19 18 18 17 16 15 14 13 13 13 13
25 24 24 25 27 29 30 33 35 36 36 37 39 41 42 43 43 43 45 46 45 44 43 43 43 42 41 41 40 39 38 37 36 35 34 33 32 31 31 31 30 29 28 27 27 27 26 25 24 23 21 20 20 20 19 18 17 16 15 14 14 14 14
28 27 26 25 25 27 29 32 35 36 37 37 38 39 39 40 41 42 43 44 44 43 43 43 43 42 42 41 40 39 38 37 36 35 34 33 32 32 31 31 31 30 29 28 28 27 27 26 25 25 23 21 20 20 20 20 19 18 17 16 16 16 15
27 28 29 27 26 27 29 32 34 36 37 36 36 36 36 38 39 40 40 42 43 43 43 43 43 43 43 42 41 40 39 38 36 35 34 33 32 32 32 32 32 31 29 28 28 28 27 27 26 26 25 23 22 21 21 21 21 20 19 18 17 17 17
25 26 27 28 29 29 29 32 34 35 35 34 34 35 36 37 38 38 39 40 41 41 42 43 43 45 44 43 42 41 40 38 37 35 34 33 33 33 32 32 32 31 30 29 28 27 27 27 27 27 26 24 24 23 23 23 22 20 20 19 19 19 19
24 25 26 27 28 29 29 31 33 33 33 34 35 37 38 38 38 39 40 40 39 41 43 42 42 44 45 44 43 42 40 39 38 36 35 34 33 33 32 32 31 31 30 29 28 27 27 27 27 28 27 26 26 25 25 24 22 21 21 21 20 20 20
24 25 26 26 26 27 28 28 29 30 32 35 37 37 37 38 38 39 39 38 39 40 42 41 40 41 44 44 43 41 41 40 38 37 35 34 34 33 32 31 30 31 30 29 27 27 27 27 28 28 29 28 28 28 27 26 24 23 22 22 21 21 20
21 24 25 25 25 25 26 26 27 30 33 36 37 36 37 38 38 37 38 39 40 39 39 39 38 39 41 43 42 41 41 40 39 38 36 34 34 33 32 30 29 30 31 29 28 27 28 28 29 29 30 30 30 29 29 28 26 25 24 23 23 22 22
9 13 16 17 19 21 22 24 27 31 35 38 38 37 37 39 38 37 38 39 39 37 38 39 38 38 39 41 41 41 41 41 40 39 37 35 34 32 31 30 29 29 31 31 29 28 28 29 30 30 31 31 31 30 30 29 28 27 26 25 24 24 24
2 6 9 12 14 17 19 22 25 29 34 37 37 37 38 39 38 37 38 38 37 36 37 38 38 38 39 40 40 41 41 40 40 39 38 36 35 33 31 30 30 29 30 31 30 29 29 30 31 32 32 32 31 30 30 30 29 29 28 27 26 26 26
1 5 7 10 14 17 20 23 25 28 33 34 34 34 35 36 37 37 37 38 37 36 37 38 38 39 39 39 40 41 41 40 40 39 39 37 36 35 32 31 30 29 30 31 31 29 29 30 32 33 33 32 32 31 30 30 30 30 30 29 28 28 28
3 2 4 8 14 19 22 25 27 30 34 34 33 33 33 33 35 35 35 36 36 36 36 37 38 38 39 40 41 41 41 40 39 39 39 39 38 37 35 34 33 32 31 32 32 30 29 29 30 32 33 32 32 31 31 31 31 31 31 31 30 30 30
9 7 5 3 8 16 22 25 28 31 35 35 34 35 34 33 34 35 35 36 37 37 37 37 38 39 40 41 43 43 41 40 40 39 39 39 39 38 36 36 35 34 34 34 32 30 30 30 30 30 31 32 31 31 31 32 32 33 32 31 30 30 30
14 13 12 10 8 9 16 22 27 30 34 37 38 37 36 35 35 36 36 36 38 38 38 38 40 41 42 42 42 43 41 40 40 39 39 39 39 38 37 36 36 35 35 34 33 31 31 31 31 30 29 29 30 30 31 33 33 33 32 30 30 29 30
18 18 17 15 14 12 13 17 24 28 33 38 39 38 38 37 36 36 36 36 38 38 38 38 39 42 43 42 41 42 42 41 40 39 39 39 39 38 36 36 36 36 35 35 33 33 32 32 32 32 30 29 29 29 30 32 33 33 32 31 30 29 29
20 20 20 19 18 17 17 17 20 27 32 36 38 39 40 40 39 39 39 38 38 37 37 37 38 40 42 41 41 43 42 41 40 39 39 39 38 37 36 36 36 36 35 35 34 33 34 33 33 33 32 31 30 30 30 31 32 32 32 31 30 30 29
21 22 22 21 20 20 20 19 20 25 30 33 36 38 39 39 39 38 37 35 35 36 37 36 36 38 42 43 42 43 42 40 40 40 39 39 38 37 37 37 36 36 35 35 34 34 34 34 33 33 33 33 33 32 31 31 32 32 32 31 31 30 30
22 23 23 23 22 22 22 22 21 24 28 31 33 34 35 35 35 34 33 34 35 36 37 37 36 37 41 43 42 42 41 40 40 40 39 39 39 38 38 37 36 36 36 35 35 35 34 33 33 33 33 33 33 33 33 33 33 33 32 32 31 31 31
24 24 24 24 24 24 25 24 22 23 27 29 30 31 34 35 34 33 33 34 34 35 36 37 37 37 40 43 42 41 40 39 39 40 40 39 39 38 38 37 37 37 36 35 34 34 34 33 32 32 33 33 33 33 34 34 34 34 33 32 31 31 31
24 24 24 24 25 24 24 22 21 21 24 26 28 31 33 34 33 33 33 32 33 34 36 36 38 40 42 42 41 39 38 38 39 39 39 39 39 39 38 38 37 36 36 35 34 33 33 32 31 31 32 32 33 34 34 34 34 34 33 32 31 31 32
21 22 24 25 24 23 21 17 17 19 21 25 28 31 31 32 32 32 32 33 33 34 35 37 40 43 43 41 39 38 38 38 38 38 39 39 39 39 38 37 37 36 35 34 34 33 32 31 31 31 31 32 33 33 33 33 33 34 33 32 32 31 32
22 23 24 23 21 21 18 14 14 17 20 24 28 30 31 32 33 33 33 34 33 34 35 38 41 43 41 39 38 38 37 37 37 38 38 39 39 38 37 37 35 34 34 33 33 33 32 31 31 31 31 32 32 32 32 32 32 33 33 33 32 32 32
24 24 23 21 20 19 14 11 12 17 20 24 28 29 31 32 33 34 35 34 33 34 36 39 40 40 39 38 37 37 37 36 36 37 37 38 37 37 36 35 34 34 34 33 33 33 33 32 32 31 30 30 30 31 31 31 31 33 33 33 32 32 32
23 20 18 18 17 16 11 8 12 17 19 24 28 29 31 33 33 34 35 36 35 35 36 37 38 38 38 38 37 36 35 35 34 35 35 36 35 35 35 34 34 34 34 33 32 32 32 32 30 29 28 27 27 28 30 30 30 31 32 32 32 32 32
25 20 16 13 12 11 8 6 10 15 18 22 28 30 31 33 34 35 37 38 38 37 35 33 34 37 37 36 35 35 34 33 33 33 33 33 33 33 33 33 33 32 32 31 30 30 32 32 30 28 26 25 26 26 28 29 30 30 31 31 30 31 32
28 24 17 12 11 9 6 3 6 11 17 21 24 27 28 31 34 37 38 39 38 34 31 32 34 35 35 34 34 34 33 32 32 32 31 31 31 31 32 32 32 32 32 31 30 28 29 29 28 27 26 25 25 25 25 25 26 28 29 28 27 29 30
29 26 21 16 11 6 2 2 3 5 12 19 22 23 25 29 34 38 38 36 35 32 30 32 34 33 34 33 32 32 32 30 30 29 28 29 29 30 31 32 32 31 29 29 29 28 25 23 22 22 23 23 23 23 22 21 21 24 27 26 25 26 28
30 28 25 20 13 8 5 1 4 4 8 14 19 21 22 25 30 35 35 32 32 32 30 31 33 33 33 32 31 31 30 28 27 26 27 27 28 29 29 30 31 30 27 25 25 24 23 21 19 18 19 20 21 22 22 20 18 20 24 25 24 25 26
30 28 26 23 18 14 9 3 3 6 7 10 13 15 17 19 23 29 31 29 30 31 30 30 32 31 30 29 29 28 28 27 26 25 25 26 26 27 27 28 29 29 27 24 22 20 20 21 20 20 20 20 20 21 21 20 18 17 20 24 24 23 24
31 28 26 24 22 18 14 9 5 6 8 9 10 10 12 14 16 21 27 28 28 29 30 31 31 29 28 28 27 27 27 28 27 25 25 26 26 25 25 26 27 27 27 27 24 22 21 20 20 22 22 21 21 21 21 21 20 18 18 22 24 24 24
30 28 26 24 23 22 18 14 10 8 8 9 10 10 11 12 14 16 22 27 27 27 29 31 30 28 27 27 27 28 28 28 27 26 25 24 25 25 24 25 26 26 27 28 26 24 23 22 22 23 22 21 21 21 21 21 21 19 18 19 21 23 23
29 28 27 23 22 23 22 19 16 13 10 9 8 8 9 11 13 14 19 24 26 26 27 29 28 26 25 25 25 25 25 26 25 25 24 22 23 26 26 26 26 26 25 25 25 25 24 24 24 23 22 21 21 21 21 21 20 19 18 18 18 19 19
29 29 27 21 19 23 25 23 22 19 17 14 10 9 8 8 10 11 14 17 20 22 24 24 25 24 22 22 21 20 22 23 22 22 23 21 22 26 29 29 27 27 25 24 25 25 26 25 23 22 21 20 22 22 20 19 19 19 19 19 17 16 17
29 30 28 22 19 20 23 24 24 23 21 18 15 13 11 10 9 8 8 11 12 15 17 18 20 22 19 17 18 19 21 22 22 23 24 23 22 26 29 29 28 28 27 26 25 24 24 25 25 24 21 19 20 21 18 17 18 18 18 19 18 18 20
26 28 27 25 21 19 20 22 21 20 20 19 17 17 15 14 13 10 8 9 10 11 13 14 16 17 15 14 17 19 18 18 20 21 20 22 26 27 27 26 28 29 29 29 28 26 25 24 24 24 23 22 20 19 17 17 19 20 19 20 20 21 23

ECMWFFLT1_850_spd_051.txt.gz
Wind_Speed
31 31 34 36 35 33 34 36 36 36 37 38 39 38 38 38 38 37 37 40 43 44 44 45 45 46 45 45 44 43 42 41 40 39 38 37 34 30 28 27 27 26 24 21 21 21 21 21 19 19 18 16 15 16 15 14 14 13 12 12 11 10 9
30 30 32 35 34 33 34 35 35 36 37 37 38 39 38 38 39 38 38 40 43 44 45 45 44 45 45 45 45 44 43 43 42 41 39 38 36 33 30 28 27 28 27 24 20 20 21 22 22 21 20 17 16 17 17 16 15 15 14 13 12 12 11
29 30 30 33 36 34 34 35 35 35 36 36 37 38 39 39 40 41 40 40 42 42 43 44 44 44 44 44 44 44 43 43 43 42 41 39 37 35 31 31 30 29 29 27 23 20 21 22 23 23 21 19 18 18 18 18 17 16 16 15 14 13 13
27 29 29 31 34 33 33 36 36 35 36 36 38 39 40 41 41 41 41 40 41 42 43 44 44 43 44 43 43 43 43 43 43 42 41 38 37 36 32 31 32 30 28 28 26 22 21 22 24 24 23 22 21 20 20 19 18 17 17 16 15 15 14
25 27 28 29 31 31 31 33 34 35 35 36 37 39 41 42 41 40 40 39 40 42 43 44 43 43 43 43 43 43 43 43 43 42 41 38 35 34 32 31 32 31 28 27 27 25 23 24 25 25 24 24 23 22 22 21 20 19 18 17 17 16 15
25 26 26 27 30 31 29 29 30 32 34 35 37 38 39 40 40 39 39 39 39 39 39 40 42 43 44 44 43 44 43 43 43 41 41 39 35 33 32 31 31 30 28 26 26 25 25 26 26 25 25 25 24 23 22 23 22 20 20 19 18 17 16
28 27 26 26 28 31 31 30 30 31 31 33 35 36 37 38 39 39 39 38 38 38 38 39 41 43 44 44 43 44 44 43 42 41 40 38 35 34 34 33 31 29 27 27 26 25 25 27 26 26 25 25 25 24 23 23 23 22 22 21 19 18 17
30 28 28 28 28 30 32 31 30 30 31 31 33 34 35 36 38 38 38 38 38 38 39 39 39 41 44 44 44 45 44 43 42 41 40 38 35 34 35 34 32 30 27 26 26 26 26 27 28 27 27 27 26 25 24 24 24 23 22 22 21 19 19
30 30 29 28 28 30 32 32 30 32 33 32 32 35 36 36 37 38 39 38 38 39 39 39 38 40 42 44 45 45 44 43 42 41 41 38 35 34 34 33 33 32 30 28 27 27 27 27 27 28 28 28 27 28 26 25 25 24 23 23 22 21 20
25 30 31 30 29 28 31 32 31 33 35 34 33 34 36 36 37 38 38 38 38 39 40 39 37 37 40 43 44 44 43 43 42 41 41 38 35 34 33 31 31 31 32 31 28 27 28 28 28 28 29 29 29 30 28 27 27 26 25 25 24 23 22
24 26 28 30 30 28 29 32 32 33 36 36 35 34 36 36 36 37 37 38 38 39 38 38 37 37 38 40 41 41 42 43 41 40 40 38 35 34 33 32 30 30 31 31 29 28 28 29 29 29 30 31 31 31 30 29 29 28 27 26 25 25 24
18 24 27 27 28 29 30 32 36 38 38 38 37 35 36 37 36 36 37 38 38 37 38 38 37 37 38 37 38 40 41 42 41 39 39 39 36 34 34 33 31 30 30 30 30 29 28 29 30 31 31 32 32 32 32 31 30 30 29 27 26 25 25
5 17 25 24 24 27 28 29 36 39 37 37 36 35 35 37 36 36 37 38 37 36 37 38 38 38 38 37 37 39 40 41 41 40 38 38 37 34 33 33 32 31 30 30 30 30 29 29 30 32 32 33 32 32 32 32 31 31 31 29 27 26 26
2 9 17 16 14 16 18 20 28 33 34 35 35 34 34 35 36 35 36 37 37 36 37 38 38 39 38 37 37 39 41 41 42 41 39 37 37 35 33 33 33 31 30 30 30 30 30 29 29 31 32 33 33 33 32 33 33 32 32 31 30 28 27
3 5 9 10 7 9 11 15 21 27 31 32 32 32 32 33 34 34 33 34 35 35 36 38 39 40 39 38 39 41 41 41 40 42 41 38 38 37 35 33 33 32 31 30 30 30 30 30 29 29 31 31 33 33 33 33 34 34 34 33 32 30 29
10 10 6 4 2 3 8 13 17 21 26 28 29 31 31 31 33 33 33 34 35 35 35 37 39 40 39 40 40 40 40 40 40 41 42 41 40 39 37 34 33 33 33 32 31 30 31 30 29 29 29 30 31 33 33 33 34 35 35 34 33 32 30
13 13 11 10 11 9 5 6 13 17 21 25 27 29 30 30 32 34 33 33 35 35 35 37 39 41 41 40 40 39 40 41 41 41 42 42 42 42 40 37 34 34 35 33 32 32 32 31 31 30 29 29 30 32 33 34 33 34 36 35 33 32 31
11 11 11 11 12 13 11 5 7 12 18 23 25 27 29 30 31 33 33 33 35 35 35 36 38 40 40 39 39 40 41 42 42 42 43 44 44 44 42 40 36 35 35 34 32 33 33 32 32 32 30 28 29 30 32 32 33 34 36 35 33 32 31
10 10 11 12 12 12 12 9 7 8 13 19 23 25 28 29 31 32 33 34 35 35 35 35 36 38 38 37 38 41 43 43 43 44 45 45 45 45 44 43 40 37 36 35 33 34 35 34 34 34 32 29 28 29 30 29 30 34 36 35 33 31 30
12 12 13 13 13 13 13 13 12 12 12 15 20 25 27 29 31 31 31 32 33 34 35 35 35 36 38 37 38 41 44 44 44 45 45 45 45 45 45 45 44 41 37 35 34 35 37 36 34 34 35 33 29 28 28 27 28 32 35 35 33 31 29
14 16 16 15 15 15 16 16 16 16 15 15 17 23 27 28 29 30 30 30 32 34 35 36 35 36 38 38 37 40 43 44 44 45 45 45 45 45 45 45 45 43 40 36 34 36 38 37 34 34 36 36 33 30 29 28 28 30 33 34 32 31 30
17 18 18 18 19 19 19 19 19 18 18 18 18 20 26 29 30 30 30 30 32 34 35 36 35 35 37 38 38 40 43 44 44 45 45 45 44 44 45 44 44 44 42 37 32 33 36 37 35 34 35 36 36 33 31 29 29 30 33 34 32 30 29
17 19 19 20 20 19 19 20 20 20 19 18 19 20 25 29 30 30 31 31 32 33 34 36 37 36 38 40 39 40 42 43 44 44 44 44 44 44 44 44 43 43 43 39 33 30 31 34 35 34 33 35 37 36 34 32 31 33 35 35 34 31 30
19 19 19 21 20 19 20 22 22 22 21 19 19 21 25 29 31 31 32 32 32 34 35 37 38 38 40 41 39 40 42 43 44 44 44 44 44 43 43 43 42 42 43 41 36 30 29 30 31 32 32 33 35 38 37 34 33 35 37 37 36 33 32
22 20 19 19 20 21 22 22 21 21 21 19 19 21 24 28 31 32 33 33 34 35 36 38 39 39 41 41 39 39 41 42 43 44 44 43 43 42 42 42 41 41 42 42 38 33 29 28 28 29 30 30 32 35 37 35 34 35 38 38 37 35 34
23 22 21 21 20 19 18 18 20 21 20 19 19 21 24 28 31 33 35 35 34 36 37 39 40 39 39 38 37 37 38 40 41 43 43 42 42 42 41 40 39 39 40 40 38 34 30 28 27 27 28 28 28 30 34 35 34 35 37 38 37 36 34
23 22 21 21 19 16 16 17 21 22 20 18 17 20 24 28 31 34 35 35 35 37 38 38 38 37 36 36 36 36 37 37 39 41 41 41 41 41 40 40 38 38 39 38 34 32 31 30 28 27 27 27 27 27 30 33 34 34 36 37 36 35 34
24 21 19 18 15 14 16 16 17 19 18 16 16 19 23 27 31 34 35 36 36 36 36 35 35 35 35 37 36 35 35 36 37 38 37 37 39 40 39 39 37 37 38 36 31 30 31 30 29 27 26 26 26 26 27 29 31 32 33 35 35 34 33
26 24 23 22 16 13 15 15 15 18 18 15 15 19 23 27 31 33 34 36 36 33 31 31 33 34 35 36 36 34 33 34 35 36 35 36 38 39 39 39 36 34 36 35 31 28 29 29 29 27 25 25 25 25 25 26 27 29 31 32 33 33 32
26 25 26 24 17 11 13 14 15 17 17 15 15 19 23 26 30 33 33 34 32 29 28 30 32 33 34 34 34 33 32 32 33 34 34 34 37 37 36 37 36 33 33 34 31 28 27 27 28 28 26 25 24 24 24 24 25 28 30 31 31 32 31
25 26 26 24 18 13 12 12 12 12 14 14 14 20 22 23 29 32 31 30 30 28 28 29 30 32 32 32 33 32 31 31 31 32 32 31 33 35 35 35 34 32 32 32 31 29 27 26 27 28 27 25 24 24 23 23 24 26 28 29 29 29 30
25 26 26 25 22 17 11 8 8 9 11 10 11 20 23 22 26 29 27 27 28 28 28 28 29 31 30 30 31 31 30 29 29 29 29 29 30 32 33 33 32 31 31 31 30 29 27 26 26 26 25 25 24 24 23 23 24 25 26 27 26 26 27
27 26 25 25 25 21 14 10 9 7 9 8 8 17 21 21 23 25 25 26 27 27 27 27 29 29 28 28 29 29 29 29 28 27 27 28 28 28 29 30 30 29 30 30 29 28 28 27 26 25 25 24 23 23 23 23 24 24 26 26 25 24 25
27 26 25 25 24 23 18 13 10 6 7 7 7 12 16 18 21 23 24 26 26 27 27 27 28 28 26 26 27 27 27 27 27 26 26 26 25 24 25 27 27 28 30 30 29 27 27 27 27 27 26 24 23 23 23 24 25 26 26 26 25 24 24
27 25 26 26 24 23 19 15 13 7 5 7 6 9 14 17 19 22 24 25 26 27 26 26 27 26 25 24 25 25 25 25 25 25 24 24 25 25 26 27 28 27 27 27 27 27 27 27 27 26 26 24 24 24 25 26 27 27 24 24 24 23 23
27 25 26 25 22 22 21 18 17 10 2 8 7 8 12 15 17 21 23 24 25 26 26 26 25 25 24 23 23 23 24 23 23 24 24 23 26 29 29 29 30 29 27 27 29 30 29 28 27 27 26 26 26 27 27 27 27 26 24 25 25 24 22
27 26 26 25 23 24 23 20 19 14 6 8 8 8 10 11 14 17 20 22 24 25 25 25 24 24 23 22 21 22 24 23 23 24 24 24 26 29 30 29 29 30 29 28 29 30 30 29 28 28 27 27 28 29 28 27 27 26 25 26 26 25 23
26 25 25 25 25 24 24 23 20 16 13 12 13 13 11 10 12 13 14 18 21 22 23 24 23 22 21 21 21 21 22 22 23 24 24 24 24 27 28 29 29 30 30 30 29 29 29 29 29 28 27 26 28 28 27 27 27 26 25 25 25 24 23

ECMWFFLT1_850_spd_054.txt.gz
Wind_Speed
40 39 37 37 37 36 36 38 42 43 41 40 41 42 40 39 40 40 41 43 46 46 46 46 47 47 45 44 43 42 42 41 39 38 35 33 31 28 27 25 24 23 22 22 20 18 17 16 14 14 13 13 13 14 13 12 11 11 10 10 10 10 10
40 39 37 36 36 37 36 38 43 45 44 43 43 44 42 40 41 42 43 44 46 46 47 48 48 48 46 44 43 42 42 42 41 40 38 36 34 31 29 27 26 25 24 23 21 19 18 18 18 17 16 14 13 14 15 14 13 13 12 12 11 11 10
38 38 38 37 36 38 37 38 42 44 45 45 44 42 42 42 42 44 45 46 47 46 47 48 49 48 47 45 44 43 42 42 41 41 40 38 36 34 32 30 28 27 25 24 22 19 18 19 19 19 19 17 15 14 15 15 15 14 14 13 13 12 11
40 39 40 40 39 39 39 39 41 41 41 43 43 44 45 45 44 45 46 47 48 49 48 48 49 49 47 46 45 45 44 43 42 41 40 39 38 36 34 32 31 29 27 26 25 22 19 19 20 21 20 20 18 17 16 16 16 16 16 15 14 13 13
43 38 39 42 40 38 40 41 41 41 41 42 44 47 47 45 43 43 44 45 47 50 50 49 48 48 47 46 46 46 45 44 43 41 40 39 38 36 35 34 32 31 29 27 27 25 23 21 21 22 22 22 21 20 19 18 17 17 17 17 16 15 15
39 36 38 45 41 38 41 42 42 43 43 43 46 48 47 44 42 41 41 42 45 46 46 46 47 48 47 47 47 46 45 45 44 42 41 40 38 36 36 35 34 33 32 29 28 27 25 24 24 24 24 23 22 22 22 21 20 19 19 18 17 16 16
30 35 39 42 40 38 39 39 40 42 42 43 44 45 46 45 42 41 40 41 43 44 43 44 46 47 47 47 46 46 46 45 44 44 42 41 39 37 36 36 35 34 33 31 29 28 26 27 27 27 26 25 24 23 24 24 23 21 21 20 18 18 18
22 30 39 43 40 38 38 36 36 39 40 40 40 42 46 46 44 43 42 41 41 43 43 43 44 45 46 46 46 46 46 45 44 44 43 42 40 39 38 36 36 35 33 32 30 29 28 28 29 30 28 27 25 24 25 26 25 23 23 22 20 19 19
22 23 33 43 43 39 38 38 37 37 39 40 39 42 46 47 46 45 44 42 40 42 44 44 43 44 45 45 45 45 45 45 44 44 44 43 42 41 40 38 37 36 34 33 31 30 30 29 30 32 31 29 27 26 26 26 25 24 24 23 22 21 20
25 23 25 34 42 43 41 42 42 39 40 41 40 44 47 46 46 45 44 43 41 42 44 44 43 42 44 45 46 46 45 44 44 44 44 44 43 42 41 38 37 37 36 34 32 30 31 30 30 31 31 30 29 27 27 27 26 25 24 24 24 23 22
27 30 30 29 33 44 46 44 44 42 42 43 41 42 45 46 45 45 45 43 41 41 42 42 42 42 43 45 45 46 46 46 45 44 44 44 43 42 39 37 36 36 37 36 33 31 31 32 32 32 31 31 30 29 28 29 28 27 26 25 25 25 24
16 27 37 33 29 44 51 46 45 43 42 44 43 40 42 45 45 44 44 44 42 42 41 41 41 41 42 43 43 45 46 47 46 45 45 44 43 40 38 36 35 34 35 36 34 32 31 32 33 33 32 32 31 31 30 30 30 29 28 26 26 26 26
8 14 33 36 31 40 47 45 44 43 43 44 43 40 42 45 46 44 44 45 44 42 41 40 41 41 41 42 41 43 45 47 47 45 45 44 42 39 37 36 35 34 34 35 34 34 32 32 33 33 33 32 32 32 32 31 31 31 29 28 28 27 27
19 3 26 34 26 29 40 45 44 42 44 46 44 41 42 43 45 45 44 44 44 42 40 40 41 41 42 41 41 43 45 46 46 45 44 43 41 40 38 37 36 34 34 34 34 34 33 32 32 33 33 33 33 33 33 32 32 32 31 30 29 29 28
27 18 8 13 8 7 19 35 44 43 44 45 43 41 40 40 41 41 41 42 42 40 39 40 41 42 42 43 42 43 44 44 44 43 43 42 41 41 39 38 37 36 34 34 34 34 34 32 32 32 33 33 33 33 33 33 33 33 32 32 31 30 29
25 26 22 25 26 24 19 10 26 38 43 45 45 42 39 38 39 39 39 39 40 40 38 39 41 42 42 44 44 44 44 43 43 43 43 42 42 42 42 39 38 37 36 36 35 34 34 33 32 32 33 33 33 33 33 33 33 33 32 32 33 32 31
22 23 25 27 26 23 25 21 7 10 21 28 35 39 36 35 37 37 36 37 38 39 38 38 42 43 44 44 44 44 44 44 44 43 43 44 43 43 43 41 39 39 38 37 36 35 34 34 34 33 33 33 33 34 34 34 34 33 32 31 32 32 31
22 23 24 25 25 23 21 19 16 9 3 6 15 26 28 28 31 33 34 35 36 38 37 37 40 43 44 43 42 43 44 44 44 44 44 44 44 43 44 43 41 40 39 38 38 37 35 35 35 35 33 32 32 33 33 34 33 33 32 31 31 31 31
20 21 22 22 22 22 19 14 11 9 9 9 8 19 22 22 26 29 31 33 34 35 36 36 38 41 43 42 42 43 44 45 45 45 45 45 45 44 44 44 43 41 41 40 39 38 37 37 37 37 35 33 32 32 32 32 32 32 32 31 30 30 30
18 18 19 19 19 19 18 15 12 8 7 11 8 14 21 22 25 26 28 30 31 32 35 35 36 39 42 42 42 43 44 45 45 46 46 45 45 45 44 45 45 43 42 41 39 39 38 38 37 38 38 36 33 32 32 31 31 31 32 31 30 28 28
18 18 17 17 17 17 18 16 13 12 10 11 12 9 14 18 23 24 24 27 29 30 33 35 35 38 42 42 42 42 43 45 46 46 46 45 45 46 45 45 46 45 42 40 39 39 39 38 38 37 39 39 36 33 32 31 30 31 31 31 30 28 28
17 18 17 18 17 17 18 16 13 12 11 9 11 12 13 15 21 23 23 27 30 30 32 35 35 37 41 42 42 42 43 45 46 46 46 46 46 46 46 46 46 46 44 40 38 37 38 38 38 37 37 39 38 35 33 31 30 30 31 31 30 29 28
17 17 17 18 17 16 17 16 14 14 14 12 10 11 13 16 21 24 25 29 33 32 33 35 36 37 41 42 43 43 44 45 46 46 46 46 47 47 47 47 46 46 45 42 37 35 36 37 37 36 35 37 38 38 35 33 31 31 30 30 31 30 29
19 19 19 19 19 19 18 17 18 18 17 16 15 14 15 17 21 27 30 31 34 35 36 38 39 40 42 44 45 44 44 45 45 46 46 46 47 47 47 47 47 46 45 44 39 35 34 36 36 35 34 35 37 38 38 36 34 33 32 31 31 31 31
21 21 20 19 19 21 22 21 20 19 16 15 15 14 17 20 22 29 36 37 37 37 39 42 43 44 46 47 46 45 44 44 44 46 46 46 47 47 46 46 46 46 45 45 42 36 33 34 34 34 33 33 34 36 37 37 36 35 35 34 34 33 33
22 23 22 22 20 21 23 23 22 20 17 17 16 14 16 20 24 29 37 41 40 39 40 43 44 45 46 46 45 44 43 44 44 45 46 46 46 45 45 44 44 44 44 45 43 39 35 33 32 32 31 31 32 34 35 35 36 36 36 36 36 35 34
23 22 21 22 21 21 23 24 24 23 20 20 19 16 14 17 22 27 33 40 42 41 41 43 44 43 43 43 44 43 43 43 44 44 44 45 44 43 41 41 42 42 43 44 44 41 37 34 32 31 30 29 30 31 32 33 34 35 35 36 36 35 35
24 23 21 20 20 20 23 25 26 25 23 21 20 18 14 14 21 27 30 37 43 42 40 40 41 41 41 42 42 42 42 43 43 42 42 41 42 42 38 36 37 40 41 43 42 41 39 36 33 31 30 29 29 29 30 31 31 32 33 33 34 34 35
25 25 24 22 21 21 23 25 26 25 24 21 21 20 16 14 19 27 29 35 44 44 38 36 38 40 41 41 41 40 40 41 41 41 41 39 39 41 39 34 34 36 40 41 40 39 39 38 36 33 30 29 29 29 29 29 29 30 29 29 30 31 33
26 26 25 24 23 23 23 24 25 25 23 21 21 21 18 15 18 26 29 34 42 43 37 35 37 40 41 41 42 41 39 39 39 40 40 38 35 37 39 37 35 36 38 40 39 38 39 39 39 37 33 30 29 29 28 28 29 30 29 28 27 28 29
26 26 26 26 24 23 23 23 24 24 23 21 19 19 17 16 20 25 29 33 39 41 37 35 38 40 41 42 42 41 40 39 38 38 39 38 36 36 38 39 38 37 37 38 39 38 38 39 39 39 38 34 31 29 28 28 29 31 31 30 29 29 28
26 26 28 28 25 24 24 23 22 22 22 22 19 16 16 16 19 24 29 32 38 41 38 36 38 41 42 42 42 41 40 39 37 37 37 36 36 36 39 39 38 37 37 38 39 38 38 38 39 39 39 38 35 32 30 29 30 31 31 31 30 30 29
27 26 29 29 27 27 26 25 24 22 22 22 19 15 15 15 15 21 29 33 37 40 39 38 39 42 42 42 42 41 41 40 39 37 36 36 37 37 37 37 37 37 38 39 39 38 38 38 38 38 39 39 38 35 32 31 31 31 31 31 32 31 30
27 27 29 30 28 27 27 28 27 24 22 21 18 14 14 13 12 17 28 34 36 39 40 38 40 43 43 42 42 41 41 41 40 39 38 38 37 35 34 35 36 37 38 40 41 40 40 39 39 39 39 39 39 37 35 33 33 33 34 34 34 33 32
26 25 29 31 28 26 29 31 28 24 21 18 15 12 12 13 11 14 26 32 34 37 39 38 40 42 43 42 41 40 41 41 41 40 38 37 36 34 34 35 35 34 36 38 39 39 40 40 39 39 38 37 37 37 37 37 36 36 35 35 35 34 32
24 24 28 31 28 28 30 30 28 25 20 14 11 11 13 16 14 15 23 29 32 35 35 35 39 41 41 40 40 40 41 42 41 41 39 36 38 39 38 37 35 34 34 36 37 36 36 37 37 37 35 33 32 34 35 36 36 35 34 34 33 31 30
21 22 26 29 30 32 32 30 28 26 21 14 11 11 13 16 16 16 21 26 30 33 32 30 34 38 40 40 39 39 42 42 41 41 40 38 40 42 41 39 38 36 33 34 34 34 33 33 33 33 33 32 31 31 32 32 32 31 30 31 31 29 28
18 19 23 27 31 34 33 32 33 31 24 17 13 10 11 13 15 17 21 24 26 31 33 31 29 31 36 39 39 38 41 41 41 41 40 39 41 43 42 40 39 37 35 34 33 33 33 33 31 31 31 32 31 30 30 30 30 29 28 28 28 27 25

ECMWFFLT1_850_spd_057.txt.gz
Wind_Speed
40 40 42 42 44 45 44 44 45 46 46 46 46 45 45 45 45 45 46 47 48 48 48 47 44 42 42 42 42 41 40 40 40 38 35 32 31 29 28 27 25 23 21 19 16 15 14 13 13 12 11 12 12 12 12 11 11 10 11 11 12 12 10
40 40 43 44 44 46 47 45 45 46 47 46 46 46 46 46 46 46 47 47 48 48 49 48 47 45 43 43 43 43 42 41 41 40 37 35 33 31 29 28 27 25 23 21 19 17 16 15 14 13 11 11 12 13 13 12 12 11 11 11 12 12 11
43 43 44 46 46 47 48 48 47 47 47 47 48 48 47 47 47 47 47 48 48 48 49 49 48 47 45 44 44 44 43 43 42 41 40 38 35 33 31 29 28 27 25 23 22 20 19 18 16 15 14 12 12 13 13 13 13 13 13 12 12 12 11
45 46 47 46 46 47 48 49 49 48 48 48 49 51 50 49 48 48 48 48 48 48 50 50 49 48 47 46 46 45 45 45 44 43 42 40 38 36 34 32 31 29 27 26 24 22 21 20 19 17 16 15 14 14 14 14 13 13 14 14 13 13 12
45 46 45 44 44 45 46 48 50 50 50 49 49 51 52 50 48 48 48 48 48 48 48 49 48 48 48 48 47 46 45 45 45 44 43 42 40 39 37 35 33 32 30 28 26 25 23 23 21 20 19 18 17 16 16 15 15 14 15 15 15 14 13
42 42 42 42 44 45 47 48 50 52 52 52 51 50 50 50 49 48 49 48 48 48 47 48 48 47 48 49 49 48 47 46 45 45 44 44 43 41 40 38 36 35 33 31 29 27 25 25 23 22 20 20 19 18 18 18 17 16 16 16 16 15 14
41 41 42 44 44 46 48 49 50 52 53 52 51 50 50 50 50 49 49 49 48 47 47 48 48 47 47 49 50 50 49 48 46 46 45 45 44 43 42 40 39 37 35 33 31 29 28 27 26 24 23 21 21 20 20 20 20 19 18 17 17 16 16
44 43 43 45 46 48 49 49 49 50 51 50 49 49 50 50 50 48 48 48 48 47 48 48 48 47 46 48 50 51 51 50 48 47 46 46 45 45 43 42 40 39 37 36 34 32 30 29 28 27 26 25 24 23 21 21 21 21 20 19 18 18 17
48 47 46 46 45 47 49 49 49 49 49 49 49 49 50 50 51 49 47 46 47 47 48 48 49 48 46 46 48 51 51 51 50 48 47 47 47 46 44 43 41 40 39 38 36 34 33 31 30 29 28 28 27 26 24 23 22 22 22 22 21 20 19
48 48 48 48 45 46 47 46 47 48 48 49 48 48 49 49 50 50 47 46 47 48 48 48 48 48 47 46 47 49 51 51 51 50 49 49 49 48 46 44 42 41 40 39 38 37 35 33 31 30 30 30 30 29 27 26 24 23 23 22 21 21 21
42 49 47 46 44 43 45 45 45 46 47 49 49 49 50 50 51 51 49 47 47 48 48 47 48 48 47 47 47 48 50 51 52 51 50 50 50 49 47 46 44 43 42 41 40 38 37 35 33 32 32 32 32 31 30 28 26 25 24 23 22 21 22
28 45 44 47 48 44 42 43 45 46 47 49 48 48 49 50 51 52 52 51 49 48 47 47 46 46 46 45 46 48 50 51 52 53 52 51 50 49 48 47 46 45 43 42 41 40 39 37 35 34 33 33 33 33 31 29 28 27 26 25 24 22 22
22 17 17 27 38 46 47 45 45 46 47 49 49 49 50 50 51 52 52 53 52 50 48 47 46 45 44 43 43 46 49 51 53 53 53 51 50 49 49 48 46 45 44 43 42 41 40 39 37 36 35 34 34 34 33 31 30 29 27 26 26 25 24
37 34 24 15 8 21 40 45 47 49 48 48 48 48 49 48 48 51 53 54 54 52 50 49 47 45 44 43 43 44 47 50 52 53 53 52 50 49 49 49 47 46 45 44 43 42 42 40 39 37 36 35 35 35 34 33 32 31 29 28 27 26 26
37 36 30 30 31 15 11 21 32 42 46 48 48 48 48 48 47 48 51 53 53 52 52 49 47 47 45 44 44 45 46 48 50 52 52 51 51 50 49 49 48 46 45 44 43 42 42 41 40 39 38 36 36 35 35 35 34 33 31 29 28 27 27
33 33 32 32 32 26 19 13 6 17 25 32 37 39 41 44 46 47 49 52 51 50 50 48 47 47 47 46 46 46 45 47 49 50 51 52 51 50 50 49 48 47 46 45 44 42 42 41 41 40 39 38 37 36 36 36 36 34 32 30 29 28 28
31 30 30 31 30 27 26 23 16 8 8 12 19 26 29 32 37 42 44 47 48 46 46 46 47 47 47 48 48 46 44 45 47 49 50 52 52 51 50 49 48 47 46 46 44 42 41 41 41 41 41 40 39 37 37 37 36 35 33 31 30 29 28
30 30 30 30 30 28 25 24 20 15 11 6 5 15 23 26 29 35 38 39 39 37 36 38 42 45 47 47 47 46 45 45 46 49 50 51 52 51 50 49 48 48 47 46 45 43 41 40 40 41 41 40 39 38 37 37 36 35 33 31 30 29 28
28 29 29 29 29 29 26 21 17 15 14 12 10 3 12 22 27 32 36 37 37 36 33 30 32 37 42 47 46 46 46 46 46 48 50 51 52 51 50 50 49 49 48 47 46 43 42 40 40 41 42 41 40 39 38 37 36 35 34 32 31 29 28
28 29 29 28 27 27 25 20 15 13 11 7 9 10 3 13 23 30 36 38 38 39 38 34 32 33 36 44 48 47 47 47 48 49 50 51 51 51 51 51 50 50 49 48 46 45 44 42 40 40 41 41 40 39 38 36 35 34 33 32 31 29 28
29 29 29 29 28 26 24 22 18 14 11 9 5 6 7 5 10 19 30 35 35 35 37 37 39 40 39 43 48 49 48 49 49 49 50 50 50 51 51 51 51 51 50 48 48 47 46 44 42 41 41 41 41 39 38 37 35 33 32 31 29 28 28
28 28 28 28 28 27 26 25 22 18 14 11 8 4 2 5 4 4 13 23 28 30 34 37 41 45 44 44 48 51 51 51 50 50 50 50 50 50 52 52 52 51 50 49 48 48 47 46 44 43 41 41 41 40 39 38 36 34 32 29 27 26 27
25 26 27 27 26 26 27 25 23 21 17 13 10 9 7 7 10 7 6 12 21 29 34 36 40 45 46 43 48 53 53 51 51 51 50 50 51 51 52 52 52 52 51 49 48 48 48 47 45 44 42 41 41 42 40 39 37 35 33 30 28 26 27
26 27 29 29 28 28 29 26 24 23 20 18 14 11 11 10 16 17 12 10 16 26 34 37 38 44 46 45 47 52 54 53 52 51 50 51 52 52 52 52 51 52 51 50 49 48 48 47 46 45 44 42 42 42 42 40 38 36 34 32 30 29 29
26 27 30 31 30 31 31 29 27 25 23 22 19 15 14 11 15 21 21 18 17 21 29 37 40 42 46 47 47 50 54 54 52 52 51 51 52 52 52 51 51 51 51 51 49 47 46 45 45 45 44 44 43 42 43 42 40 38 36 34 33 32 31
26 28 31 32 32 32 32 31 29 28 26 25 23 19 17 15 15 21 25 25 24 22 24 33 41 43 44 46 47 48 52 54 53 52 52 51 51 51 51 50 50 49 50 51 49 47 45 44 44 44 44 44 43 43 43 43 43 41 39 36 34 33 33
26 27 29 32 32 32 34 33 31 30 28 26 25 23 20 18 18 21 24 26 29 30 28 29 35 42 44 44 44 46 50 53 53 53 52 51 50 50 49 49 49 49 49 50 49 47 45 44 43 44 44 44 43 43 43 43 43 43 42 41 38 36 35
27 27 29 31 30 32 35 35 33 32 30 28 27 25 23 22 22 23 25 26 30 34 33 30 30 36 42 45 44 43 47 52 53 52 51 50 49 49 49 49 49 48 48 48 49 48 46 44 43 43 43 43 43 43 43 42 42 41 41 42 42 41 39
27 29 30 31 30 31 34 36 35 34 33 32 30 27 25 24 25 25 27 29 30 31 32 32 31 34 40 45 45 43 45 49 51 51 50 49 49 49 49 49 48 48 47 47 48 48 48 46 44 43 43 42 42 42 42 41 40 39 38 38 40 42 42
24 28 30 29 29 30 33 35 35 34 34 33 31 29 26 25 27 28 30 31 30 28 29 31 31 34 41 47 48 47 46 47 49 50 49 49 48 48 48 48 48 48 47 47 48 48 48 48 46 44 43 42 42 41 41 40 38 37 35 34 34 35 37
20 25 28 27 28 29 31 34 35 35 34 33 31 29 27 26 27 30 32 32 29 28 29 29 29 33 43 50 50 49 49 48 49 49 48 48 48 48 48 48 48 48 48 47 48 49 49 49 48 46 44 43 42 42 40 39 37 36 34 32 30 30 30
19 22 25 25 27 29 31 33 34 34 34 33 31 30 28 27 27 29 32 32 30 28 29 29 28 32 43 53 52 50 50 49 49 49 48 47 47 47 47 47 48 48 48 47 48 49 50 50 50 48 46 45 44 43 42 40 38 36 34 32 30 29 28
20 21 22 23 25 28 30 32 33 34 35 34 32 30 30 28 27 27 28 29 29 28 28 30 30 32 42 52 52 50 52 51 50 49 47 46 46 45 45 46 47 48 48 48 49 50 50 50 50 50 49 47 45 44 43 41 40 38 36 34 32 31 29
21 21 22 21 23 26 29 30 32 34 34 33 31 29 29 29 26 25 25 26 27 26 26 29 29 32 42 52 51 50 52 51 50 49 46 45 45 44 45 46 48 49 51 52 52 52 51 51 51 51 52 51 49 46 44 43 42 40 39 37 35 32 31
21 21 22 21 21 24 27 29 30 32 33 31 29 25 24 26 24 23 24 25 23 23 24 26 28 33 43 52 51 49 50 49 48 47 45 44 45 45 46 47 48 50 52 52 52 52 52 52 53 53 53 53 52 50 47 46 45 44 42 39 36 33 32
21 21 22 22 20 22 25 26 26 30 31 30 28 23 21 21 21 21 23 24 24 22 22 22 28 36 45 50 48 48 48 47 46 46 45 45 46 46 46 47 48 49 50 50 51 51 50 50 51 51 51 51 52 51 50 48 47 45 43 40 36 34 33
21 22 22 22 21 22 24 24 24 27 30 31 30 25 20 19 19 18 20 23 25 24 20 19 26 37 44 46 45 45 46 45 45 45 45 46 46 46 47 47 48 49 50 49 49 50 49 48 48 48 48 49 49 49 48 47 46 44 42 40 37 35 34
21 21 22 22 20 22 24 22 23 26 29 32 32 28 23 20 17 15 17 20 23 24 21 19 22 31 40 44 45 46 47 48 46 44 42 41 42 44 47 48 49 49 49 48 47 47 47 47 46 46 46 46 45 45 45 44 44 43 42 40 38 35 33

ECMWFFLT1_850_spd_060.txt.gz
Wind_Speed
38 39 42 44 45 46 47 48 48 48 50 51 51 52 52 52 51 50 49 46 45 46 46 46 44 43 42 43 42 40 38 37 36 35 34 33 31 31 31 28 26 25 24 23 22 20 18 18 17 16 14 14 14 14 14 13 13 13 12 13 12 12 11
37 39 41 43 46 48 49 49 48 48 50 52 52 52 52 53 53 52 50 48 46 46 47 47 47 45 43 44 44 43 40 39 38 37 36 35 33 32 31 29 27 25 23 22 21 20 18 17 17 16 15 15 15 15 15 14 14 14 14 14 13 12 12
39 40 43 45 47 51 52 52 50 49 50 52 52 52 53 53 54 53 51 49 47 46 47 48 48 47 45 44 45 45 43 41 40 40 39 37 35 33 32 30 28 25 24 22 21 20 19 18 17 16 16 15 15 16 16 15 15 15 14 14 14 13 12
42 43 45 47 49 50 51 52 52 50 50 52 53 53 54 54 53 53 51 49 48 48 48 49 49 49 47 46 46 46 45 44 43 42 41 39 36 34 33 32 30 28 26 24 22 21 20 20 19 18 17 17 17 17 17 16 16 15 15 15 15 15 14
42 43 42 42 44 45 46 50 52 51 50 51 53 53 54 53 53 52 51 50 48 47 47 48 48 49 49 48 47 47 46 45 44 44 43 41 38 36 36 34 33 31 29 26 24 23 22 21 21 20 19 18 18 18 18 17 17 17 17 17 16 16 16
40 41 40 41 41 43 46 49 51 52 51 51 53 53 53 53 52 51 51 50 49 47 46 47 48 49 50 50 49 48 47 47 46 45 45 44 41 40 38 37 36 34 32 30 28 26 24 24 23 22 22 21 20 19 19 19 18 18 18 18 18 17 17
41 41 42 42 42 44 46 48 50 51 51 50 51 52 52 52 51 51 51 50 50 49 48 48 48 49 50 50 50 50 49 48 47 46 46 45 44 42 41 40 39 37 35 33 31 29 28 26 25 24 24 24 23 21 20 20 20 20 20 19 19 19 18
42 43 43 44 44 46 46 47 49 50 50 49 49 50 50 50 51 51 51 51 50 50 50 49 49 49 50 50 51 51 51 50 48 47 46 46 46 44 43 42 41 40 38 36 35 33 31 30 28 27 26 26 25 24 22 21 21 22 22 22 21 20 19
41 43 45 46 46 47 48 47 48 48 49 49 48 49 50 50 51 51 51 51 50 50 50 50 49 48 49 49 50 51 51 51 50 49 48 47 47 46 45 44 42 41 40 39 37 36 34 33 31 29 28 28 27 26 24 22 21 22 23 24 23 22 20
32 40 43 44 46 47 46 45 45 45 46 46 47 48 49 50 51 51 51 50 50 51 50 50 49 49 49 49 48 49 50 51 52 51 50 49 48 47 46 45 44 43 42 41 40 39 37 35 34 32 31 30 30 29 27 25 24 23 23 24 25 24 23
8 24 30 35 41 44 42 41 42 44 46 47 47 47 49 50 50 50 50 50 50 50 50 50 50 49 50 49 48 48 49 50 52 52 53 51 50 48 47 47 46 45 44 43 42 41 39 38 36 35 34 33 32 31 30 28 26 25 24 24 24 25 25
22 8 5 13 21 28 33 37 41 44 47 48 48 48 48 50 51 50 50 50 50 49 49 49 50 50 50 50 50 49 48 49 51 52 53 53 51 50 48 48 48 48 46 45 44 43 41 40 39 38 36 35 34 33 32 30 29 28 27 26 25 25 25
34 30 23 15 9 7 15 23 31 38 44 48 49 50 49 50 51 51 51 51 49 49 48 48 49 49 49 49 50 50 49 49 49 50 52 53 53 51 50 49 50 50 49 47 46 45 43 42 41 39 38 37 36 35 34 33 32 31 30 29 28 27 26
36 37 35 30 24 17 11 6 9 20 31 38 42 46 49 49 51 52 52 51 50 48 48 48 48 48 49 49 50 50 50 50 48 47 49 51 52 52 51 51 51 51 51 50 49 47 46 44 42 41 40 39 38 37 36 36 35 34 32 32 31 30 28
35 36 36 35 32 28 23 18 12 6 10 20 27 33 38 41 45 47 49 49 49 48 47 47 47 48 48 49 50 51 50 49 48 47 47 48 50 51 52 52 52 51 52 52 51 50 48 46 44 43 42 41 40 39 39 38 37 36 34 33 32 32 31
32 33 34 34 32 30 28 24 20 17 11 9 13 19 24 28 33 38 42 44 44 45 45 45 46 47 48 49 50 50 49 49 48 47 47 47 48 50 51 51 51 52 52 52 52 51 50 49 47 46 45 44 42 41 40 40 39 37 35 34 33 33 32
29 30 32 33 33 31 30 27 23 20 17 12 9 9 15 21 25 30 35 38 40 40 40 41 43 45 46 48 48 48 48 48 48 47 46 46 47 48 50 50 51 51 52 52 52 52 51 50 49 48 47 45 44 43 41 41 40 38 36 34 33 33 33
27 28 30 32 34 34 33 31 27 23 19 14 12 9 7 13 19 24 30 35 38 38 38 39 42 44 45 47 47 47 47 47 47 46 46 45 45 46 47 49 50 51 51 52 52 51 51 51 50 49 48 46 45 44 43 41 40 38 36 34 34 34 34
25 25 27 30 33 35 35 33 30 26 21 16 12 11 8 4 10 17 24 30 34 38 41 43 44 45 46 46 46 46 46 46 46 45 45 44 43 43 44 47 49 50 51 51 51 51 51 51 51 49 48 47 46 45 44 42 40 39 37 35 34 34 35
24 24 26 28 31 34 34 33 30 27 23 18 14 10 8 6 6 11 19 26 30 35 41 45 46 47 46 45 44 44 43 44 44 45 45 44 43 42 42 44 46 48 49 50 50 50 51 51 51 50 49 48 47 46 44 43 41 39 37 36 34 34 34
25 24 26 28 30 31 31 31 30 28 25 21 19 14 7 4 7 9 16 23 28 32 38 43 45 47 48 47 46 46 45 45 45 45 45 44 44 43 43 42 44 46 48 49 50 51 51 51 51 51 50 49 47 46 45 43 41 40 38 36 34 34 34
25 26 26 27 28 29 30 30 29 29 28 25 24 20 10 2 5 8 13 20 25 27 31 37 42 45 46 48 49 49 48 48 48 47 46 45 45 45 45 44 43 44 46 47 48 49 50 51 51 51 50 49 48 47 45 43 41 40 38 36 35 34 34
25 27 28 27 27 28 29 29 28 28 28 27 26 24 15 4 2 5 10 17 22 23 23 29 37 42 45 46 47 48 49 49 49 48 47 47 46 47 47 46 44 43 44 46 47 48 49 50 50 50 50 50 49 48 46 44 41 40 38 37 36 35 35
26 28 27 26 27 28 28 28 28 28 28 26 25 24 20 10 5 8 9 13 19 21 20 22 29 35 41 45 48 48 48 48 48 47 47 47 47 48 48 47 45 44 43 44 46 48 49 49 49 49 49 50 50 49 47 44 42 40 39 37 36 36 35
26 28 27 25 24 26 27 28 28 27 27 26 24 24 23 17 11 11 13 13 16 20 21 22 24 26 30 36 43 47 47 46 46 46 47 48 48 48 48 47 46 44 43 43 45 47 48 48 48 48 49 49 49 49 47 46 43 41 40 38 37 37 36
25 27 27 25 23 23 25 27 27 27 27 28 27 25 25 22 19 16 16 16 18 21 22 23 24 24 24 25 30 37 42 44 45 45 47 49 49 48 48 47 46 45 44 43 44 45 46 47 48 48 48 48 49 48 48 47 45 43 41 39 38 38 37
24 24 25 25 24 22 23 24 25 26 26 26 27 27 26 25 24 23 21 19 21 23 24 25 26 26 25 24 24 28 34 38 42 45 47 48 48 47 47 48 48 47 46 45 44 45 46 47 47 47 47 48 48 48 49 48 47 45 43 41 39 39 38
25 24 24 25 24 22 22 23 23 25 24 24 26 28 28 28 27 27 26 23 21 23 25 27 28 28 27 26 26 27 29 32 37 43 46 47 47 46 47 48 49 48 47 45 45 45 46 47 47 47 47 47 47 49 49 49 48 47 46 44 42 40 40
26 24 25 27 26 24 22 22 23 23 23 24 25 26 28 29 29 29 29 27 24 23 25 28 29 29 29 29 29 29 29 30 32 38 44 46 46 46 47 48 49 50 48 47 46 45 46 47 47 47 47 47 48 49 49 49 49 48 47 46 44 42 42
27 25 25 27 28 27 24 23 23 23 22 22 23 24 26 29 31 32 31 29 27 25 25 27 29 30 31 31 31 31 31 31 30 33 40 45 46 46 47 49 50 50 49 48 47 46 46 47 48 48 49 48 48 48 49 49 49 48 48 47 45 44 43
28 26 25 26 28 28 26 24 23 23 22 21 21 22 25 27 30 33 33 32 30 28 26 26 27 29 31 32 33 32 32 33 32 32 36 42 47 48 48 49 50 50 49 49 48 47 47 48 48 49 50 49 49 48 48 48 48 48 48 47 46 45 45
30 28 27 27 27 28 27 26 24 23 23 21 21 22 24 26 28 31 32 32 30 28 26 25 25 27 30 32 33 34 33 33 33 33 34 39 45 48 48 49 50 49 49 49 49 48 49 49 48 49 49 50 50 49 48 47 47 48 48 48 47 46 45
31 31 29 27 26 27 28 28 26 25 24 22 22 22 23 25 27 28 29 29 27 25 24 23 24 26 29 30 32 34 35 34 34 34 35 38 43 46 47 48 49 49 50 50 50 50 50 49 48 49 50 51 51 49 48 47 47 48 48 48 48 46 44
32 33 31 28 26 26 28 28 27 26 25 23 22 22 23 25 26 27 27 28 26 24 22 21 23 26 28 28 30 32 35 36 35 34 36 39 42 45 47 47 48 49 50 51 51 51 50 49 49 49 50 51 50 49 48 48 48 49 50 49 48 46 44
32 32 31 29 26 25 27 28 27 25 25 23 22 22 23 24 26 26 26 27 27 25 22 21 23 25 26 27 28 30 33 36 37 36 36 39 43 45 47 47 48 49 50 51 51 50 49 49 49 49 50 50 50 49 50 50 51 51 49 47 45 44 42
31 31 30 27 25 24 26 27 26 25 25 22 20 21 22 23 25 26 26 26 27 26 24 23 24 25 25 25 26 27 30 33 36 36 36 39 43 45 47 47 48 48 49 49 49 49 49 49 48 47 47 48 49 50 51 53 52 50 49 47 46 44 43
29 30 29 26 23 23 25 26 26 25 24 22 20 21 22 23 24 25 25 26 26 26 26 25 25 25 24 22 22 25 27 28 30 32 36 40 44 46 48 49 49 49 49 49 49 49 49 48 47 46 45 46 47 48 50 51 51 51 50 49 48 47 45
28 27 27 24 22 23 26 27 27 26 24 22 20 21 22 22 23 24 24 24 26 27 27 27 26 26 25 22 20 22 23 24 26 30 36 40 44 47 50 52 52 51 50 50 49 48 47 47 46 45 45 44 44 45 47 49 50 50 51 50 49 47 45

ECMWFFLT1_850_spd_063.txt.gz
Wind_Speed
34 36 38 40 42 44 45 45 48 48 47 48 49 50 50 50 50 49 48 46 44 42 40 40 40 39 37 35 34 33 33 33 33 34 35 34 32 30 28 27 26 25 23 23 23 22 20 19 19 18 16 15 15 14 14 14 14 13 13 14 13 12 11
35 37 38 41 43 45 47 46 47 49 49 49 49 50 51 51 51 51 50 48 46 44 42 41 41 41 39 37 35 34 34 34 34 35 35 35 33 31 30 28 27 26 25 24 24 22 20 20 20 19 17 16 15 15 14 14 14 14 13 13 14 13 12
35 40 41 42 45 46 47 47 47 48 50 50 50 51 52 52 52 52 51 49 47 45 44 42 42 42 41 38 37 36 36 36 36 36 36 36 35 33 31 29 27 26 25 25 24 23 21 20 20 19 18 17 16 16 16 15 14 14 14 14 14 13 13
34 39 43 44 45 46 45 45 47 47 49 50 51 52 53 53 53 52 51 50 48 47 46 44 43 42 42 41 39 37 37 38 38 37 37 36 35 34 32 31 28 27 26 26 25 24 22 20 20 20 19 19 18 17 17 16 16 15 15 15 15 14 13
35 36 39 42 42 43 44 44 47 49 49 50 50 51 52 52 52 52 52 51 49 48 47 45 44 43 43 43 41 38 38 39 39 39 38 37 36 35 35 32 30 28 27 26 26 24 23 22 21 21 20 19 19 18 18 18 17 16 16 17 16 15 14
31 36 37 41 42 43 45 47 47 49 50 50 50 50 50 50 51 52 52 51 51 49 48 47 45 44 43 43 42 40 39 40 41 41 40 39 38 37 36 34 31 29 27 27 26 25 24 23 22 22 21 20 19 18 18 18 18 18 18 18 18 17 16
18 36 39 41 44 44 46 47 47 48 49 48 48 48 48 49 50 51 51 51 52 51 50 49 47 46 45 43 43 42 40 40 41 42 42 41 40 39 38 35 33 30 28 28 27 26 25 24 23 23 22 20 19 18 17 17 17 18 18 19 19 18 18
15 23 36 39 42 44 44 46 47 47 47 46 46 46 47 48 49 50 51 51 52 51 51 51 49 47 46 44 43 42 41 40 41 42 43 43 42 41 40 38 36 33 31 30 29 27 26 25 25 24 23 22 21 20 19 19 18 18 19 19 19 19 19
34 9 15 25 30 32 36 41 43 44 45 45 45 46 47 48 49 50 51 51 51 51 52 51 50 48 46 45 44 42 42 41 41 42 43 45 45 44 42 41 39 37 35 33 31 30 29 28 27 26 25 25 24 23 22 21 20 20 20 20 21 20 20
42 34 17 4 10 16 22 28 33 37 41 44 45 45 46 48 49 50 51 51 51 52 52 51 50 49 48 46 44 43 42 42 42 42 43 45 46 46 45 44 43 41 39 36 34 33 32 31 30 29 28 27 26 25 24 23 23 23 22 22 22 22 22
41 41 36 26 14 6 8 12 19 27 34 40 44 45 46 47 48 49 50 50 51 51 51 50 50 49 49 47 45 43 42 42 42 43 44 45 46 47 47 46 46 45 43 41 39 37 35 34 33 32 31 31 30 29 28 26 25 25 25 24 22 22 22
39 41 41 37 30 20 12 7 8 15 22 29 35 39 42 45 46 47 48 49 50 50 50 50 50 49 49 48 46 45 43 42 41 43 44 45 46 46 46 47 47 47 46 45 43 41 39 38 36 36 35 34 33 32 31 29 29 28 27 26 25 24 22
35 39 41 40 38 32 24 17 10 5 11 18 23 28 32 37 42 44 45 46 47 48 48 48 48 49 49 48 48 46 44 42 41 41 42 43 45 45 46 46 47 48 48 47 46 45 43 42 40 39 38 37 36 35 33 32 32 31 29 28 28 26 25
35 37 41 43 42 39 34 28 21 13 6 7 13 19 24 28 34 38 41 43 44 44 45 46 46 48 48 48 48 47 45 43 41 40 39 40 41 43 45 46 47 48 48 48 48 48 46 45 43 41 40 39 38 37 36 35 34 33 32 31 30 29 28
33 34 37 40 41 41 39 35 30 23 15 7 5 12 17 21 25 30 35 40 41 41 42 43 44 46 47 48 48 48 46 43 42 41 39 39 39 40 42 44 46 47 47 48 49 49 48 47 45 44 43 41 40 39 38 38 37 35 34 33 32 31 30
30 33 35 37 38 38 38 38 35 30 23 15 8 3 9 13 18 23 29 34 38 39 40 41 42 44 45 47 48 47 46 45 44 42 41 40 40 39 40 41 43 45 46 48 48 49 48 48 47 46 45 44 42 41 41 40 39 37 35 34 33 32 32
29 33 35 35 36 35 35 35 36 34 30 25 18 10 1 6 12 17 23 28 32 36 38 39 41 43 44 46 47 46 46 46 45 44 43 42 41 40 40 40 40 42 44 45 47 47 48 49 49 48 47 46 45 44 43 42 41 39 38 36 35 35 34
29 33 34 33 33 33 32 32 34 35 33 31 26 19 11 3 5 12 19 24 28 31 35 39 41 42 44 45 45 46 46 46 46 45 45 44 43 42 41 40 41 41 42 43 44 45 46 48 49 49 48 48 47 46 45 44 42 41 40 39 38 37 36
28 31 32 31 30 31 30 29 29 31 32 32 31 26 20 12 5 5 13 21 26 28 32 37 40 41 42 43 43 44 45 45 46 46 45 45 44 43 42 42 42 42 41 42 42 43 45 46 47 48 48 48 48 47 46 45 43 42 42 41 39 38 37
26 29 30 29 28 29 28 27 26 27 28 29 30 28 25 19 12 5 6 15 23 27 29 34 38 39 40 41 41 42 43 44 45 45 45 45 44 44 44 44 43 41 40 40 40 41 43 44 45 46 46 47 47 46 46 44 43 42 41 41 39 38 38
25 26 28 27 27 27 27 26 25 26 26 26 28 28 27 24 18 11 6 9 18 23 27 30 34 36 37 39 40 41 41 43 44 45 45 44 44 45 44 44 43 41 40 39 39 39 39 41 43 44 45 45 45 45 45 43 41 40 40 40 38 38 37
24 24 24 25 25 25 26 25 24 24 24 24 25 26 27 25 22 18 14 6 11 17 23 28 31 33 34 35 37 39 41 42 43 44 45 44 44 45 44 44 43 41 40 39 39 38 37 37 38 40 42 43 44 44 44 42 40 39 39 38 38 37 38
21 21 23 23 22 22 24 24 22 21 21 21 21 23 25 25 23 22 20 12 7 12 18 23 28 31 32 32 33 36 38 41 42 43 44 44 44 45 44 44 43 42 41 40 40 39 38 37 35 36 39 41 42 43 43 41 39 38 38 37 37 38 38
19 20 22 22 22 22 21 22 22 21 20 19 19 18 21 24 24 23 23 18 9 8 12 16 20 25 30 32 33 33 34 37 39 42 43 43 44 44 44 43 43 42 42 41 41 41 39 38 36 35 36 38 40 41 42 41 39 38 37 37 37 38 38
20 20 21 21 21 21 21 22 22 20 19 19 19 18 19 22 24 24 24 22 15 9 10 12 15 19 23 28 31 33 33 34 35 38 40 42 43 44 44 44 43 42 42 42 42 41 40 39 38 37 36 36 38 39 41 40 39 38 37 36 36 37 37
22 21 22 21 19 19 21 22 21 21 20 20 19 18 18 20 23 24 24 23 19 12 11 13 14 16 19 22 25 28 31 33 34 36 38 40 42 43 43 43 43 42 42 42 42 41 40 40 40 39 38 37 37 38 39 39 38 38 37 36 36 36 37
23 22 22 21 19 19 21 22 21 20 20 19 19 18 17 19 22 24 24 24 21 18 15 14 15 17 19 21 22 24 26 28 31 33 36 38 40 41 42 43 43 43 42 42 42 42 41 40 40 40 39 38 38 38 39 39 38 37 37 36 36 36 36
25 25 23 21 19 19 21 23 22 20 19 18 19 18 17 18 19 22 24 23 22 21 19 16 16 18 21 22 23 23 23 23 24 27 30 34 36 37 40 41 42 43 43 43 43 42 42 41 41 41 40 39 38 39 39 39 38 38 37 36 36 36 36
27 28 26 23 21 21 22 23 23 22 20 19 18 18 18 18 19 20 22 23 22 21 21 19 18 17 20 23 25 25 24 23 22 22 23 26 29 32 35 37 39 41 41 42 43 43 43 42 41 41 41 40 40 39 39 39 39 39 38 37 36 36 36
30 30 29 26 23 22 22 23 24 24 22 20 18 18 18 19 20 20 21 22 22 22 22 21 20 19 19 20 23 26 26 24 23 23 22 22 24 27 30 32 34 36 38 41 43 43 43 42 42 42 42 42 41 41 40 40 39 39 39 38 37 37 37
33 32 32 29 26 24 23 24 25 25 25 22 19 18 18 18 20 21 21 21 22 22 22 22 23 23 21 19 20 23 25 25 25 25 24 23 23 25 28 29 31 33 36 39 42 43 44 43 43 42 43 43 43 42 41 40 40 39 39 39 39 38 38
34 34 34 32 30 27 25 25 25 25 26 23 19 18 18 17 18 21 22 21 21 22 22 22 23 25 25 22 20 20 22 25 27 27 27 26 25 25 27 28 30 33 35 37 40 42 43 44 43 43 43 43 43 43 42 41 40 40 40 39 39 40 40
34 36 36 34 33 30 27 25 25 25 26 25 20 18 19 17 17 20 22 21 21 21 22 23 23 26 27 25 22 20 20 23 25 26 27 28 28 28 27 27 28 32 35 37 39 40 42 44 45 45 44 44 44 43 42 41 41 41 40 40 40 41 41
35 37 38 37 35 32 28 25 24 23 24 24 21 19 20 20 18 19 21 22 21 21 24 24 25 27 28 27 25 22 20 20 21 23 25 28 30 31 31 29 29 31 34 36 37 38 39 41 43 45 45 43 43 43 42 43 43 42 41 40 40 40 40
35 38 39 38 36 32 28 25 23 22 23 23 21 20 21 21 20 20 21 21 21 21 24 26 26 28 29 27 24 22 20 19 19 21 23 26 28 31 33 33 32 33 34 35 35 36 36 37 39 41 41 41 41 41 42 43 41 38 37 37 37 38 39
35 37 38 37 35 31 28 24 22 21 21 21 20 20 21 21 21 21 20 20 21 21 22 25 27 29 30 28 25 21 19 19 20 20 23 25 27 29 32 34 34 35 35 35 36 38 38 38 37 36 36 38 40 40 40 39 36 33 34 35 36 37 38
35 36 36 35 32 30 27 23 21 20 20 20 20 21 21 21 21 22 21 19 20 20 21 23 26 28 29 29 27 23 19 18 20 20 22 24 26 28 30 33 35 35 35 35 37 40 41 40 38 35 36 39 40 40 40 39 36 36 37 37 37 37 38
34 33 33 32 30 29 26 22 21 20 20 19 19 21 21 21 21 22 21 19 18 18 20 22 26 28 28 28 27 24 20 19 19 19 21 23 24 27 30 33 35 36 37 37 39 41 42 41 39 38 38 40 41 41 41 40 38 38 39 38 38 38 37

ECMWFFLT1_850_spd_066.txt.gz
Wind_Speed
28 29 31 34 37 40 42 42 42 42 42 43 44 45 45 45 44 44 43 42 41 39 38 36 33 32 31 31 30 30 30 30 29 28 27 27 26 26 25 24 22 22 21 20 18 16 15 15 15 15 14 14 12 12 12 12 11 10 9 10 10 10 9
20 29 33 35 37 40 41 42 42 42 43 43 44 44 45 46 46 45 44 43 41 40 39 37 35 33 32 31 30 30 30 30 30 29 27 27 27 26 26 25 24 22 21 20 19 17 16 16 16 15 14 14 13 12 13 12 11 10 10 10 10 10 10
11 17 30 36 38 39 41 41 41 43 44 44 45 45 46 46 46 46 45 44 42 41 40 39 36 34 32 31 31 31 30 30 30 30 28 27 27 26 26 26 25 24 22 21 19 18 17 17 17 16 15 15 14 13 13 13 12 11 11 11 11 10 10
23 14 20 33 39 40 40 40 41 42 45 46 46 46 46 46 46 46 45 44 43 42 41 40 38 35 33 33 32 32 31 30 30 30 29 27 27 27 27 27 27 25 24 22 21 19 18 18 18 17 17 16 15 14 14 14 13 12 12 12 12 11 10
28 20 13 26 36 40 40 41 42 43 44 45 46 46 46 46 45 45 45 45 43 42 41 39 38 36 35 34 33 32 32 31 30 30 29 28 27 28 28 27 27 27 25 23 22 21 20 19 19 18 18 17 16 16 15 15 14 13 13 13 13 12 11
32 29 17 14 28 36 38 39 41 42 43 44 44 45 45 45 45 46 46 45 44 43 41 40 39 38 36 35 34 33 33 32 31 30 30 29 29 29 29 28 27 27 26 25 24 22 21 21 21 20 18 18 17 17 17 16 15 15 14 14 14 13 12
34 36 28 11 12 25 31 34 35 36 38 40 41 42 43 44 45 45 45 45 45 44 43 42 41 40 38 37 35 35 34 33 32 31 31 30 30 31 30 29 28 27 27 27 26 24 23 22 22 21 20 18 18 18 17 17 16 15 15 15 15 14 13
37 38 36 25 9 7 18 24 28 30 32 34 36 38 40 42 44 45 45 46 45 45 44 43 42 41 39 38 37 36 35 33 33 32 32 32 32 32 32 31 30 28 28 28 27 26 24 23 23 23 21 20 19 19 18 17 16 15 14 14 14 14 14
40 41 39 34 24 13 6 10 16 21 25 29 33 34 37 39 42 43 45 45 45 45 45 44 42 41 40 39 38 37 36 35 34 33 34 34 34 34 34 33 31 30 29 28 28 27 25 24 23 23 22 21 21 20 19 18 17 16 15 14 14 14 14
39 41 40 38 33 25 18 12 10 11 16 23 28 31 33 36 38 40 42 43 44 45 45 44 43 42 41 40 39 38 37 36 35 35 35 35 35 35 35 35 34 32 31 29 29 29 27 25 24 24 23 23 22 22 21 20 19 18 17 16 16 15 15
36 40 41 41 38 33 27 20 14 10 9 14 21 25 28 31 34 37 39 39 41 43 43 43 43 42 42 41 40 40 39 38 37 37 36 36 36 36 36 36 36 35 34 32 31 30 29 28 27 26 26 25 24 23 23 22 21 20 19 18 17 17 17
33 38 40 41 41 38 35 31 25 19 12 8 12 18 21 25 29 33 36 38 38 40 41 42 43 42 42 42 41 41 41 40 39 39 38 36 35 35 35 36 37 37 36 35 34 32 31 31 30 29 29 28 27 26 25 24 23 22 21 20 19 19 19
29 35 37 39 40 39 38 36 32 27 21 13 8 10 14 18 22 26 31 36 38 40 41 41 42 42 43 42 42 42 42 41 40 39 38 37 35 34 35 36 37 38 38 37 36 35 34 33 32 31 31 31 30 30 29 28 27 25 24 23 22 22 21
29 35 36 36 37 36 37 37 35 33 28 21 14 8 7 11 16 21 25 30 34 37 39 40 41 42 43 43 43 43 42 41 41 40 39 38 36 35 34 35 36 37 37 38 38 38 37 36 34 33 33 33 33 33 32 32 31 30 28 27 26 25 24
28 33 34 34 34 34 34 34 34 34 31 27 21 14 8 5 9 16 21 24 28 32 35 38 40 41 42 43 43 43 42 41 40 40 39 38 37 36 35 35 35 35 36 37 38 38 38 38 37 36 36 35 35 35 35 35 35 34 33 31 29 28 27
26 29 31 31 32 32 31 30 30 31 31 29 26 21 16 11 5 5 13 19 23 27 30 34 38 40 41 42 43 42 41 41 41 40 40 39 38 37 36 35 34 34 35 35 36 37 38 38 38 38 38 37 37 37 37 38 37 36 35 34 33 31 30
24 27 30 30 30 30 29 28 27 27 28 28 28 26 21 16 12 7 2 11 18 23 27 30 34 38 41 41 42 42 41 41 41 40 40 39 38 37 36 35 35 34 34 34 34 35 36 37 38 39 38 38 38 38 39 39 38 37 36 35 34 34 32
22 25 28 29 29 29 28 27 26 26 25 25 25 26 24 20 16 12 7 3 10 17 23 28 31 35 39 41 40 40 41 40 40 40 40 39 38 37 36 36 36 35 35 34 33 33 34 35 36 37 37 38 38 39 39 39 38 38 37 36 35 35 34
21 23 25 26 27 27 27 26 25 24 23 22 22 22 22 22 19 16 13 9 6 10 17 23 28 32 37 39 40 40 40 39 40 40 39 39 38 37 36 36 36 35 35 34 34 33 34 33 34 34 35 36 37 38 38 38 38 38 37 37 36 35 35
22 22 22 23 24 25 25 24 23 21 19 20 20 19 18 19 19 18 16 14 10 8 12 18 23 27 32 37 39 40 39 39 39 39 38 37 37 37 36 35 35 34 34 33 34 34 34 33 33 34 34 34 35 35 36 37 37 37 37 36 35 35 35
22 21 21 22 22 23 22 22 22 20 18 17 18 18 17 17 17 17 18 18 15 11 10 13 16 20 24 30 36 38 39 39 38 38 38 37 36 37 36 36 34 33 33 33 33 33 32 32 33 33 33 34 34 35 36 36 36 36 36 36 35 34 34
24 22 21 20 21 22 22 21 20 20 19 16 16 17 17 16 16 16 17 20 19 14 10 10 12 14 17 22 29 34 37 38 38 38 37 36 37 37 37 36 35 33 32 32 33 32 32 33 33 33 33 33 34 35 36 35 35 35 35 35 34 33 33
24 23 22 21 20 20 21 20 19 18 18 16 14 16 17 16 16 15 15 19 21 16 9 7 8 11 14 16 21 28 33 36 37 38 38 37 38 38 37 36 35 34 33 33 32 32 32 32 32 32 32 32 33 34 34 33 32 33 34 34 33 33 33
25 24 24 23 23 22 21 21 21 19 18 16 14 14 15 16 16 15 14 17 19 17 12 9 8 8 12 15 17 22 28 32 35 37 38 38 39 38 37 37 35 34 34 33 32 32 31 32 32 33 33 33 33 33 33 32 30 29 31 31 32 33 33
27 26 26 25 25 25 23 23 23 21 19 16 14 14 15 16 16 15 14 15 16 16 14 12 10 9 10 14 17 19 23 28 32 34 36 37 38 38 38 37 36 36 35 34 33 32 32 33 34 34 34 34 33 33 33 32 30 28 29 29 30 32 32
29 29 28 27 26 27 25 24 24 25 22 18 16 15 15 15 16 16 15 14 13 13 14 14 12 11 11 13 16 19 21 24 28 31 33 34 35 35 35 36 36 36 36 36 35 34 34 34 35 35 35 34 34 33 33 32 30 28 28 27 28 29 31
29 30 30 29 28 28 28 26 24 25 25 22 18 16 16 16 15 16 17 15 14 13 13 14 14 13 13 13 15 17 20 22 25 28 30 32 33 33 33 33 34 35 36 36 36 36 36 35 36 36 36 35 35 35 34 32 30 28 27 27 27 28 29
31 32 32 31 29 27 29 29 27 26 27 25 21 17 17 17 17 16 17 16 16 15 14 14 16 16 14 13 15 18 19 20 20 22 25 28 31 32 33 33 34 34 35 35 36 37 37 36 36 37 37 37 37 37 35 33 31 29 28 28 27 27 28
31 33 34 33 31 29 29 30 30 29 28 27 25 20 17 18 19 17 17 16 15 16 16 15 16 18 17 13 13 17 18 18 19 21 22 24 27 30 32 33 35 35 36 36 37 38 38 38 38 38 39 39 39 38 37 35 32 31 29 29 28 28 28
32 33 34 34 34 32 31 31 31 30 30 29 27 24 20 19 20 20 18 16 15 16 17 16 17 20 19 15 13 13 13 14 19 24 25 24 24 26 28 30 33 35 37 37 38 39 40 40 39 40 40 40 39 39 37 36 34 32 30 29 29 28 28
33 33 33 34 35 33 32 32 31 31 31 30 28 27 23 20 20 20 19 17 16 16 17 17 20 22 21 16 14 14 13 12 16 22 26 26 26 26 27 27 29 31 34 36 38 39 40 40 39 40 41 40 40 38 37 36 35 33 31 29 29 29 28
35 34 34 34 35 34 33 33 32 32 32 31 29 28 26 22 20 20 19 17 17 17 18 18 20 23 22 18 14 13 13 13 14 18 23 27 28 29 29 28 28 29 31 33 35 37 38 39 39 40 41 41 39 38 36 35 35 35 33 31 30 30 29
35 35 34 34 34 34 33 33 33 32 32 32 31 29 27 25 23 20 18 17 17 18 19 19 19 21 22 20 17 13 12 13 13 15 20 26 30 31 32 31 31 30 30 31 33 34 36 37 39 41 42 41 39 37 35 34 34 35 35 34 33 31 29
35 34 34 34 33 33 32 32 33 33 33 33 33 31 29 27 25 21 19 18 17 18 20 21 20 21 22 21 19 16 13 12 13 14 17 23 28 32 34 34 34 34 34 33 33 33 34 36 37 38 38 37 36 36 35 33 32 32 34 35 33 30 28
34 33 34 34 33 32 31 31 31 32 33 33 34 33 31 28 26 24 20 18 17 18 20 22 21 22 23 22 21 18 15 13 13 15 17 20 24 29 33 35 36 37 37 37 36 35 35 35 35 35 34 33 34 35 36 34 31 28 27 28 28 27 26
35 35 34 33 32 32 31 30 30 31 33 33 34 34 32 29 28 26 23 20 18 18 20 22 22 24 25 25 23 20 18 15 14 14 16 19 22 26 30 33 35 37 39 40 40 39 38 38 38 36 34 34 34 34 33 32 29 25 23 24 26 27 26
36 36 35 33 32 32 31 30 29 30 32 32 33 33 32 30 28 27 24 21 18 18 20 21 23 25 27 27 24 21 19 17 15 15 17 19 21 24 27 29 32 35 37 39 40 39 39 39 39 39 37 36 36 36 35 33 30 28 27 27 28 28 27
36 36 35 33 32 32 32 30 30 31 32 31 32 33 32 30 29 28 25 21 19 19 20 21 22 25 28 27 25 22 20 19 17 16 16 18 20 23 25 28 29 31 33 35 37 37 38 39 40 39 39 38 38 39 39 36 33 31 31 30 29 29 29

ECMWFFLT1_850_spd_069.txt.gz
Wind_Speed
2 9 17 23 27 31 35 37 38 37 38 39 39 38 38 38 38 37 36 34 32 30 28 27 27 27 26 25 24 24 26 26 25 24 23 21 21 21 20 20 19 19 19 18 16 14 12 10 10 10 10 10 9 9 9 9 8 7 7 7 7 7 7
12 6 6 14 22 29 34 37 37 38 39 39 39 40 40 40 39 38 37 35 33 31 29 28 27 27 27 26 25 23 24 26 26 25 24 22 21 21 20 20 19 19 19 19 17 15 13 11 11 11 11 10 10 10 10 10 10 9 8 7 7 7 7
19 14 7 8 15 21 29 35 38 38 39 40 41 41 41 41 39 38 37 36 35 33 32 30 28 27 27 27 26 24 24 25 25 25 25 24 22 21 21 20 19 19 20 19 18 17 15 13 12 11 11 11 11 11 11 11 11 10 9 8 7 7 7
21 20 13 7 13 17 21 29 36 38 38 39 40 41 41 41 39 38 37 36 36 35 34 32 30 28 28 28 27 26 24 24 24 25 25 24 23 22 22 21 20 20 20 20 19 17 16 15 13 12 12 12 12 12 11 11 11 11 11 10 8 7 7
22 23 20 12 7 12 17 22 29 34 35 35 39 40 39 40 39 39 39 38 37 36 34 32 30 30 29 28 28 27 25 24 24 24 24 24 24 23 23 22 21 21 20 20 19 18 17 16 14 13 13 13 13 13 13 12 12 12 12 11 10 9 7
23 24 24 22 13 3 9 15 22 28 31 32 36 38 38 38 39 39 39 39 38 37 36 34 33 32 30 28 28 28 26 25 23 23 23 22 23 24 24 23 22 21 21 20 20 19 18 17 16 15 14 14 14 14 14 14 13 13 13 12 11 10 9
24 25 26 26 23 14 5 9 15 21 26 28 31 35 37 37 37 38 39 40 40 39 37 36 35 34 32 30 29 28 27 25 24 23 22 22 23 23 24 23 23 22 21 21 20 19 19 18 17 17 16 15 15 15 15 15 14 14 14 13 12 11 10
24 25 26 27 27 23 15 9 10 12 17 20 23 30 35 36 35 36 37 38 38 39 39 37 36 35 33 31 30 29 27 26 25 24 23 23 23 23 24 24 23 23 22 22 21 20 20 19 19 18 18 18 17 16 16 16 15 15 15 15 13 12 11
25 28 28 29 30 29 24 16 10 10 12 14 16 20 27 33 36 35 34 33 33 34 35 35 35 35 34 32 30 29 28 28 27 25 24 24 24 23 24 24 24 24 23 23 22 21 20 20 20 20 19 20 20 19 18 17 17 16 16 16 14 13 12
26 32 33 33 34 33 29 23 15 10 8 9 11 12 16 24 32 34 33 32 31 30 31 32 33 35 36 35 32 30 30 30 29 28 26 26 25 24 24 24 25 25 24 24 24 23 21 21 21 20 20 21 22 21 20 19 18 18 18 16 15 14 13
24 31 36 37 37 35 32 28 24 19 14 9 7 9 12 17 24 30 32 32 31 30 29 30 31 32 35 35 34 34 33 32 31 30 29 28 26 25 24 24 25 25 25 26 26 25 23 22 22 21 21 22 23 22 22 21 20 20 19 18 16 15 14
22 27 32 36 36 36 35 33 30 25 21 16 11 8 8 13 18 24 28 29 29 30 29 29 29 29 31 32 34 35 35 34 32 31 30 29 27 26 25 25 25 25 25 27 27 27 26 25 24 23 23 23 23 23 23 22 22 22 21 20 18 17 17
21 24 27 32 34 34 34 34 32 29 25 21 17 12 8 8 12 18 22 25 27 29 30 30 30 30 31 32 34 35 35 34 33 32 31 29 27 26 26 26 25 25 25 26 28 29 29 28 27 26 24 24 24 24 24 24 23 23 23 22 21 20 19
21 24 27 31 32 32 32 32 31 30 28 25 21 16 12 9 6 10 16 21 25 27 29 31 31 31 33 34 34 36 35 34 33 33 32 30 29 27 27 27 27 26 26 26 27 29 30 30 30 28 28 27 27 26 26 26 26 26 25 24 24 23 22
21 24 28 30 30 30 30 29 28 28 27 27 24 20 15 12 8 6 9 14 19 23 26 27 27 30 33 34 34 35 35 34 33 33 32 31 31 30 29 29 29 28 27 27 26 27 29 31 31 31 31 31 30 29 29 29 29 29 28 27 27 26 25
20 22 24 26 28 28 27 27 26 25 24 25 25 23 19 16 12 7 4 8 13 18 22 24 25 27 31 33 34 33 33 33 33 32 32 32 31 31 30 30 29 29 28 28 27 27 28 29 31 32 33 33 33 32 32 32 32 31 30 30 29 29 28
20 20 21 23 25 26 25 24 24 23 22 22 22 22 21 18 16 13 8 2 7 13 18 22 25 27 28 30 32 33 32 32 32 32 32 31 31 30 30 30 30 29 28 28 28 27 27 27 29 31 33 34 34 34 34 34 34 33 32 31 30 30 30
20 20 20 21 23 24 24 24 24 23 22 21 20 19 18 18 17 15 13 8 0 7 13 17 22 26 28 29 31 32 32 31 32 33 33 32 31 30 30 30 30 30 29 29 28 27 27 27 27 28 30 32 33 34 35 35 34 33 32 32 32 31 31
18 19 20 21 22 23 23 23 22 22 21 20 20 18 17 16 15 15 16 15 8 1 7 12 16 20 24 27 30 32 32 31 32 33 32 32 32 31 31 31 31 30 29 29 29 28 28 27 27 27 27 28 31 32 33 34 34 33 33 33 32 32 32
17 18 19 20 21 22 22 22 21 20 20 19 19 18 16 14 12 12 13 15 13 7 2 6 11 15 18 22 27 30 31 31 32 33 32 32 32 32 32 32 31 30 30 29 30 29 28 28 28 27 27 27 28 29 30 31 33 33 33 33 33 33 33
16 18 19 20 21 22 23 23 21 20 19 19 19 18 16 14 11 9 9 12 13 11 7 4 6 10 14 17 22 26 28 30 31 33 33 32 32 33 33 33 31 30 30 31 31 29 28 29 29 29 27 27 27 28 29 30 30 31 31 31 32 31 31
17 18 19 20 22 23 24 24 23 21 19 19 19 19 17 16 13 10 8 7 9 10 9 6 4 7 10 13 17 20 25 27 28 29 31 33 34 34 34 34 33 31 30 31 31 30 30 30 30 30 29 28 28 29 29 29 29 29 29 29 29 29 29
17 18 20 21 23 23 23 23 23 22 20 19 19 19 18 17 16 12 9 6 6 7 7 6 4 5 7 10 12 15 20 25 27 28 28 30 33 35 35 34 34 33 32 32 32 31 31 30 30 30 29 29 28 28 29 29 28 27 27 28 27 27 29
18 19 21 23 24 24 24 23 23 23 23 21 19 18 18 18 17 15 11 8 7 7 6 6 4 4 5 7 9 12 16 20 25 29 29 28 29 32 34 36 35 34 34 34 33 32 32 31 31 30 30 30 29 28 28 28 27 26 26 26 26 26 28
20 21 23 23 24 25 26 25 24 23 24 23 20 18 18 18 17 17 15 12 9 8 7 7 7 5 4 5 7 10 13 16 20 25 29 30 29 28 29 33 36 36 36 35 34 34 33 33 34 33 31 31 30 29 29 29 28 27 26 26 26 26 27
22 24 25 25 25 25 26 27 26 25 24 25 23 20 18 19 18 17 17 16 14 11 10 9 9 8 6 5 6 9 11 14 17 20 24 28 31 30 27 27 29 33 36 36 34 34 35 35 35 35 33 32 32 31 31 30 30 29 27 26 26 26 27
25 25 26 27 27 27 27 27 28 27 26 25 26 24 21 20 19 18 18 17 16 15 14 12 12 12 10 8 7 9 11 13 16 19 21 25 29 32 32 28 24 25 31 35 34 34 34 34 34 35 34 33 33 33 32 31 31 29 27 26 26 27 27
26 27 27 28 28 29 29 29 28 29 28 27 27 26 24 22 21 20 19 18 17 18 17 15 14 15 15 12 9 8 10 13 16 18 20 23 25 28 30 30 27 24 26 30 33 33 34 33 33 33 34 34 34 34 33 32 30 29 28 27 27 27 28
27 28 29 29 29 29 30 31 30 29 29 29 28 27 26 24 23 22 21 19 18 19 20 18 17 17 18 17 13 10 10 12 16 18 20 21 22 24 26 27 28 28 28 28 30 32 33 34 34 33 34 34 34 35 34 33 31 30 29 29 28 28 29
27 28 29 30 31 30 30 32 32 31 30 29 29 29 28 27 25 25 24 22 19 19 21 21 19 19 19 19 18 15 12 12 15 17 20 21 23 25 26 26 27 28 29 29 30 30 32 35 35 35 36 36 36 36 35 34 33 31 30 30 30 29 29
27 28 29 30 31 31 31 31 32 33 32 31 30 30 30 28 27 26 26 24 21 20 21 22 21 21 21 21 20 18 15 15 15 17 19 21 22 25 26 25 26 27 27 29 29 29 31 33 32 32 35 36 37 38 37 36 34 32 30 30 30 30 30
29 29 30 30 30 30 30 31 32 33 33 32 31 31 31 30 29 28 27 25 24 21 21 23 23 23 22 22 22 21 19 18 17 17 18 19 20 22 25 25 26 28 28 27 28 29 31 31 29 28 30 31 33 35 36 37 36 34 31 31 30 30 30
31 31 31 31 31 30 30 30 32 33 33 33 32 32 32 31 30 29 28 26 25 24 22 23 24 24 24 24 24 23 22 21 19 19 20 21 20 21 23 24 25 29 31 30 28 29 30 30 30 31 32 32 34 35 34 35 36 35 33 32 32 31 30
34 34 34 33 32 30 30 30 31 32 33 34 32 32 34 33 32 30 29 27 26 24 24 24 25 25 26 26 25 24 23 23 22 20 22 24 24 22 21 21 23 29 34 35 34 31 30 29 30 35 37 37 38 37 35 35 35 34 33 33 32 31 29
36 36 35 33 29 27 27 29 31 32 33 34 33 32 34 34 33 31 29 28 26 24 25 25 25 26 26 27 26 24 23 24 24 22 23 25 27 26 23 21 22 26 32 36 38 37 35 32 31 33 36 38 40 40 40 38 34 29 29 29 29 29 28
37 33 29 26 25 24 24 26 28 31 34 35 33 33 33 34 35 33 31 29 26 24 24 25 26 27 27 28 28 26 24 24 25 24 24 26 28 28 27 25 23 25 29 34 38 41 41 40 38 35 34 34 37 39 41 40 34 28 27 28 27 27 27
34 29 24 23 23 23 23 24 25 27 31 34 34 33 33 34 35 35 34 31 28 25 24 25 26 28 28 28 28 27 25 25 26 26 25 26 28 29 28 27 26 26 28 32 37 41 44 45 46 45 42 40 40 39 40 41 37 32 31 31 29 29 28
28 26 24 23 23 23 24 25 24 25 28 31 33 34 33 34 36 37 36 33 29 26 24 25 27 28 29 28 27 27 26 26 27 26 25 26 29 29 28 27 26 26 26 28 32 37 41 44 47 48 48 48 47 46 45 44 40 36 35 33 32 32 30

ECMWFFLT1_850_spd_072.txt.gz
Wind_Speed
5 1 10 16 20 21 22 24 25 26 26 25 25 26 26 25 24 24 24 24 23 22 22 22 21 21 20 19 18 18 18 20 22 21 20 19 18 18 17 17 17 16 14 12 12 12 12 11 10 10 9 9 9 8 8 7 7 7 6 6 6 6 6
10 9 4 4 11 17 20 22 23 24 26 26 25 25 25 25 25 26 26 25 23 23 22 22 22 22 20 19 19 19 17 18 20 22 22 21 19 18 18 17 17 17 16 14 13 13 13 13 11 10 10 9 10 10 9 9 8 8 7 6 6 6 7
14 12 10 7 4 6 13 19 22 22 23 24 24 23 23 24 25 26 27 25 23 23 23 23 22 22 21 20 20 19 18 17 18 20 22 22 20 19 18 18 17 17 17 17 16 14 13 13 13 11 10 10 10 11 11 10 9 9 8 7 7 7 7
16 15 13 11 8 5 6 11 17 19 20 22 22 23 24 24 25 25 26 25 23 23 23 24 23 23 22 21 21 20 19 19 18 18 19 21 21 19 19 19 18 18 18 17 17 16 14 14 15 13 11 11 11 11 11 11 10 10 9 8 8 7 8
17 16 15 13 10 6 5 8 13 16 18 19 20 21 23 24 25 25 25 24 23 22 23 23 23 23 23 22 21 21 21 20 18 17 18 19 21 21 20 19 18 18 18 18 18 18 19 18 16 14 13 12 12 12 12 12 11 11 10 10 9 8 8
16 16 16 14 12 11 7 2 7 11 14 15 16 19 19 21 24 23 23 23 21 20 22 23 23 24 25 24 23 22 21 21 20 19 18 18 20 21 21 20 19 18 18 18 18 19 20 20 18 16 14 13 12 12 13 13 12 12 11 11 10 9 9
16 17 17 16 14 14 15 13 7 5 11 11 12 16 17 18 21 21 22 22 19 20 21 21 21 22 23 25 25 24 23 21 21 20 19 18 19 19 20 20 20 19 19 19 19 19 20 20 20 19 17 14 13 13 13 14 14 13 13 12 12 11 10
17 17 17 18 18 17 17 17 14 9 11 10 7 11 15 17 17 18 20 20 19 22 22 19 20 22 22 23 25 25 24 23 21 21 21 20 20 19 19 20 20 20 20 20 20 20 20 21 20 19 18 17 16 16 15 15 14 14 14 14 13 12 11
17 19 19 20 20 21 20 17 15 12 9 9 6 7 11 13 14 16 18 21 22 23 21 20 21 22 22 23 24 25 25 25 23 22 22 22 21 20 19 20 20 21 21 21 21 21 21 22 21 20 20 19 18 19 18 17 16 15 16 16 15 14 13
17 19 22 23 24 24 22 18 15 13 11 9 7 9 9 9 12 16 19 23 24 21 18 18 19 19 20 20 21 22 24 25 25 24 23 23 23 21 20 19 19 20 21 21 21 21 22 22 22 22 22 21 20 21 20 20 19 18 17 18 17 16 15
16 19 22 25 28 28 26 23 19 16 14 11 9 10 11 9 7 12 18 22 23 21 19 18 17 17 18 18 18 19 21 23 24 24 24 24 23 22 21 20 20 20 20 21 21 21 22 23 23 23 23 22 22 22 22 22 21 20 19 19 19 18 16
16 19 22 24 27 30 30 28 25 22 19 15 11 10 11 11 8 3 10 18 21 20 20 21 18 17 18 17 16 17 19 21 22 22 24 24 23 22 22 21 20 20 21 20 21 22 23 23 24 24 24 23 23 23 23 23 23 22 22 20 20 19 18
17 19 21 22 25 28 29 29 27 26 23 20 15 11 9 10 10 6 1 8 16 19 19 18 17 17 17 17 17 17 18 19 20 21 22 23 23 23 22 22 21 21 21 20 20 22 23 24 24 24 24 24 23 24 24 24 24 24 23 23 22 22 21
17 19 20 22 24 26 27 27 26 25 24 22 19 15 10 7 8 8 7 3 4 11 16 15 15 17 18 18 18 18 18 18 18 20 21 22 24 24 23 22 22 22 23 22 22 21 22 23 24 25 25 25 25 25 25 25 25 25 25 25 24 25 24
17 18 20 21 23 24 24 24 24 23 22 21 20 18 15 11 6 6 7 5 2 4 12 16 16 17 18 19 20 20 20 19 19 20 21 22 24 25 25 24 24 24 24 25 25 23 22 23 23 25 26 27 27 27 27 27 27 27 27 27 26 26 26
17 18 19 20 20 21 22 22 22 21 20 19 19 18 17 15 11 7 4 6 7 7 10 15 18 17 16 18 20 20 19 20 21 22 23 23 24 24 24 25 26 26 27 27 27 26 25 24 24 25 26 28 29 29 29 30 30 30 29 29 28 28 27
16 17 18 18 19 19 20 21 20 19 19 18 18 17 16 15 14 12 8 2 6 9 11 14 17 17 14 14 17 18 18 19 21 22 22 24 25 24 24 25 26 27 28 28 28 27 26 26 26 26 26 27 29 31 32 32 33 33 32 31 30 29 29
15 16 17 17 18 18 19 19 20 19 18 17 16 16 14 13 12 12 10 7 2 5 9 12 15 14 14 15 16 16 18 20 20 20 20 21 23 23 23 24 25 27 27 28 28 28 27 27 27 27 27 27 28 30 32 33 35 35 34 33 32 32 31
14 14 15 16 16 17 18 18 19 20 19 17 16 15 14 12 11 11 10 8 5 1 4 9 12 12 13 17 19 18 18 20 20 19 18 18 20 22 24 24 24 25 26 26 27 27 28 27 27 27 27 28 29 30 31 33 36 37 36 35 34 34 33
12 13 13 14 15 16 17 17 18 20 19 18 16 14 13 12 11 10 11 9 7 5 1 4 9 10 11 16 21 23 21 20 19 18 18 19 20 21 23 24 24 23 24 25 26 27 28 27 27 27 27 28 29 30 31 33 36 37 36 35 35 34 34
11 12 12 13 14 15 16 17 18 19 19 18 17 16 14 12 11 10 11 10 9 7 4 1 3 7 10 13 18 22 24 23 21 18 18 19 21 21 22 24 25 24 24 24 24 25 26 26 26 27 27 27 28 29 31 32 34 36 36 35 34 34 35
10 11 11 12 13 14 14 15 16 18 19 18 18 17 17 15 13 11 11 11 10 9 6 4 1 3 7 10 14 18 21 23 24 23 21 19 20 21 22 22 24 25 25 25 24 24 24 25 26 26 27 27 28 29 31 32 32 33 34 34 34 33 34
9 10 11 12 12 13 13 14 16 18 19 18 17 18 18 17 16 15 14 12 11 10 9 7 5 4 4 7 10 13 17 20 22 25 25 23 21 21 21 21 22 23 25 26 25 24 24 24 25 25 26 26 27 28 30 32 32 32 32 32 32 31 32
8 11 12 13 14 14 13 15 18 20 19 17 17 18 18 17 16 17 17 15 13 12 11 11 10 7 5 5 7 10 13 16 19 21 24 24 23 23 22 22 22 22 22 23 24 24 23 23 23 23 24 26 27 28 29 30 31 32 32 31 30 30 30
8 10 11 13 16 15 16 19 22 21 18 17 17 19 20 19 17 17 18 18 16 14 13 14 14 11 8 7 7 7 9 12 16 19 21 23 24 23 22 23 24 24 21 20 21 21 22 23 23 23 24 25 26 27 29 30 31 31 32 32 31 30 31
10 10 10 12 14 17 21 23 22 19 17 17 20 22 22 22 21 19 18 18 18 17 16 16 16 14 12 11 9 8 8 10 13 15 17 20 22 24 23 23 24 25 23 20 20 21 22 22 22 23 24 25 25 26 28 30 31 32 32 32 31 31 31
12 12 12 12 13 17 21 22 22 21 19 19 22 23 23 23 24 23 20 19 19 19 19 19 19 18 16 14 12 11 10 11 12 14 15 17 19 22 22 19 18 20 23 23 23 23 23 23 23 24 24 25 25 26 27 29 31 32 32 32 31 31 31
14 14 14 14 15 16 17 18 21 24 23 22 21 21 21 24 26 26 24 22 20 19 20 21 21 21 21 19 16 14 13 12 13 14 15 16 17 19 19 18 17 19 22 24 26 26 25 26 26 26 26 26 26 26 27 29 31 33 34 33 33 32 31
14 15 16 16 16 15 15 17 21 24 25 25 24 23 23 26 28 28 28 26 23 21 21 22 22 22 23 23 21 18 17 15 15 15 16 17 18 19 19 20 22 22 22 24 28 30 29 29 28 27 27 27 27 27 28 29 32 35 36 36 35 34 33
15 16 18 18 18 17 17 17 19 23 25 25 25 26 27 28 30 31 31 29 27 25 24 23 23 23 24 24 24 23 21 19 18 18 18 17 18 19 19 19 21 24 23 24 27 30 31 30 29 29 29 28 28 28 29 29 31 35 37 37 36 35 35
16 17 18 19 20 20 19 19 19 21 24 25 25 26 28 28 30 33 33 31 29 28 27 26 26 25 25 24 25 25 24 22 21 20 20 20 18 18 18 18 19 22 24 24 25 28 29 28 29 31 31 31 30 29 27 27 28 31 35 38 37 36 35
16 17 18 20 21 21 22 22 22 22 23 24 24 24 26 28 29 32 33 34 32 30 29 29 29 28 27 26 26 26 26 26 25 23 22 22 21 20 20 19 18 20 22 23 24 27 29 28 27 29 31 32 33 30 26 26 27 27 30 33 35 36 36
15 16 18 19 21 22 23 24 24 23 23 24 23 23 24 27 29 31 33 34 34 33 31 30 31 31 30 28 28 27 26 26 27 27 26 24 23 23 22 21 20 19 21 22 23 26 28 29 28 29 30 31 31 29 25 24 26 27 27 28 30 32 34
16 17 19 20 21 22 22 22 23 23 23 24 24 23 24 26 29 30 31 33 34 34 33 31 31 31 31 30 28 28 27 27 27 27 28 26 23 22 21 20 19 19 20 21 23 25 26 26 28 29 28 27 28 27 25 24 25 27 27 27 27 28 29
18 19 20 20 20 20 20 21 22 23 24 25 25 25 26 27 28 29 30 31 33 34 34 33 32 31 31 31 29 27 27 27 26 26 27 28 27 25 23 21 20 21 22 23 24 25 27 29 30 29 26 25 26 27 27 29 29 28 27 28 29 29 29
21 21 21 20 20 20 21 22 23 24 25 26 26 26 27 27 28 28 28 29 30 32 33 33 32 32 32 32 31 28 25 25 26 26 27 30 32 32 30 28 26 26 27 27 26 27 29 32 34 34 31 31 32 30 31 33 33 30 28 28 27 26 27
22 22 21 21 22 22 22 22 23 24 26 26 26 26 27 27 27 28 27 27 28 30 32 31 31 33 32 31 31 31 29 28 29 29 29 31 32 33 34 33 30 29 29 29 29 28 29 31 34 36 36 38 39 38 38 38 35 32 30 29 27 26 26
23 24 24 23 23 23 23 23 23 24 25 25 25 26 26 27 27 28 28 27 26 27 30 31 31 33 33 31 29 31 33 32 31 30 29 29 31 32 34 34 34 32 31 31 31 31 31 31 32 33 34 38 42 44 43 42 39 36 34 32 32 32 31

ECMWFFLT1_850_spd_075.txt.gz
Wind_Speed
9 14 16 15 15 17 18 19 20 20 22 24 23 22 23 24 25 25 24 24 24 24 23 22 21 21 20 20 19 18 18 18 18 18 17 16 15 14 14 14 15 14 13 11 11 11 11 10 10 10 9 9 8 8 8 8 7 6 6 7 7 6 7
6 10 13 13 13 15 17 19 20 22 23 23 22 23 22 22 24 25 24 24 24 24 24 22 21 21 20 20 19 18 17 17 17 18 18 17 16 16 15 15 15 15 14 12 11 11 12 12 12 11 10 9 9 9 9 9 8 8 7 7 7 7 7
5 6 9 9 11 15 17 18 21 23 23 22 23 24 22 22 25 25 24 25 25 24 24 23 22 22 21 20 19 18 17 17 17 18 18 17 17 15 15 15 15 15 15 13 12 11 12 12 12 12 11 10 10 10 10 9 9 9 9 8 7 7 7
5 4 5 6 8 11 12 15 19 21 22 23 23 22 20 23 26 24 22 23 24 24 24 23 23 23 22 22 20 19 17 17 16 17 17 17 17 16 16 16 16 15 15 15 14 12 12 12 13 13 13 12 12 11 11 11 10 10 9 9 8 7 7
8 7 5 5 7 7 3 8 14 18 21 22 22 20 19 20 24 25 23 22 23 25 24 23 23 23 23 23 22 20 18 17 17 17 17 17 17 17 17 16 16 16 16 15 15 14 14 13 13 14 14 14 13 13 12 12 12 11 10 10 9 8 7
12 13 10 7 7 9 9 3 6 13 20 22 22 21 19 18 21 24 23 22 24 24 22 23 23 23 23 23 21 20 19 19 18 17 17 18 18 18 18 18 17 17 17 16 15 15 16 16 15 14 14 14 13 13 13 13 12 12 11 11 10 9 8
14 14 14 12 9 9 11 10 7 4 14 19 20 20 22 22 22 22 22 22 23 23 23 23 22 22 22 21 19 20 20 20 19 19 18 18 19 19 19 19 19 18 17 18 17 16 16 17 18 16 15 14 14 13 13 14 13 13 12 12 11 11 10
15 14 14 12 10 8 10 11 12 11 6 6 8 15 22 24 22 21 24 24 21 22 23 21 19 18 19 18 17 18 19 19 19 20 20 19 19 19 19 20 20 20 19 18 19 18 17 17 18 18 17 16 15 15 14 15 15 14 13 13 13 12 11
15 15 14 13 10 9 9 10 13 14 14 12 10 12 18 20 19 20 24 23 20 20 19 18 17 17 18 18 17 18 19 19 19 19 20 20 20 20 20 20 20 21 21 20 19 19 19 18 18 18 19 19 17 17 16 16 17 16 14 14 14 14 13
15 16 16 15 14 12 12 13 14 14 15 16 14 13 13 11 13 17 20 20 19 19 18 17 16 16 18 18 17 19 20 19 18 19 20 21 21 20 20 20 20 21 21 21 20 20 20 20 19 19 20 21 20 19 18 18 18 17 16 16 15 15 15
14 15 17 17 17 17 17 17 16 16 15 16 16 16 16 13 7 6 12 18 19 17 17 17 14 14 16 16 16 18 20 20 19 19 21 22 21 21 21 21 20 21 21 21 21 20 20 21 21 21 22 23 23 22 22 21 20 19 18 16 16 16 16
14 16 17 18 19 20 21 19 18 17 15 13 14 16 16 14 11 9 9 14 16 14 13 14 13 13 14 14 15 17 18 18 19 19 21 23 22 22 21 22 21 21 21 21 21 22 21 21 22 23 24 25 24 24 24 23 22 22 21 18 17 16 16
15 16 16 17 18 20 21 21 20 19 17 14 12 11 11 11 11 11 10 10 12 11 10 9 10 13 13 13 15 16 17 18 19 20 21 22 23 22 22 22 22 22 22 21 21 22 22 22 22 23 25 27 26 25 24 25 25 24 24 22 20 18 17
15 16 17 17 18 19 20 20 20 19 18 17 13 9 8 8 9 10 10 9 10 11 11 10 10 11 12 15 16 16 17 18 19 20 21 22 22 22 22 22 22 22 22 22 22 22 22 23 23 23 24 26 27 26 25 25 26 25 26 25 23 21 19
15 15 16 17 18 18 18 18 19 18 17 17 15 13 9 6 6 5 6 8 9 10 12 14 14 12 11 13 16 17 17 17 17 18 19 21 22 22 22 23 23 23 23 23 23 23 23 23 23 23 24 24 25 26 26 25 26 26 27 27 26 24 22
14 15 16 16 16 16 16 17 17 17 17 16 16 15 13 10 7 4 2 2 5 8 10 12 14 14 13 12 13 16 17 17 18 18 18 18 20 23 23 23 23 24 25 24 24 24 23 23 23 23 23 23 24 25 25 25 25 27 28 28 27 26 24
14 14 14 15 15 15 15 16 17 17 17 16 16 15 14 13 11 8 5 2 2 5 7 8 8 8 11 13 13 14 15 17 19 19 18 18 18 20 23 23 23 24 26 26 26 25 25 25 24 24 23 23 24 24 25 25 25 27 29 30 29 28 26
13 13 13 14 14 15 15 15 17 17 17 17 16 15 14 14 12 10 9 6 2 2 5 7 5 3 5 9 12 14 15 17 19 20 20 20 20 20 22 22 21 23 24 26 26 26 26 26 26 26 25 24 24 24 25 26 26 27 30 31 32 30 28
11 12 12 12 13 14 14 15 15 16 17 17 16 16 15 14 13 12 12 10 8 4 2 4 7 7 5 5 10 14 15 15 15 17 20 22 22 22 22 22 22 23 23 24 25 26 27 27 27 27 27 26 26 25 25 25 26 28 30 33 34 33 31
10 10 11 11 12 13 13 13 14 15 15 15 15 15 15 14 14 13 12 12 12 10 6 2 5 7 7 8 10 12 15 15 14 15 16 19 21 21 21 22 24 25 24 23 22 23 25 26 26 27 28 28 28 28 27 26 26 28 30 33 35 35 34
9 9 9 10 11 11 12 12 13 15 15 15 15 15 14 14 14 14 13 12 12 12 9 6 4 4 7 9 8 8 11 14 16 16 14 15 17 19 20 21 22 24 25 24 21 20 23 25 25 25 26 27 28 29 29 29 29 30 31 32 34 36 36
8 8 8 9 10 10 10 10 12 14 14 14 15 15 15 15 14 14 14 13 13 12 11 11 10 9 8 7 7 8 10 12 14 16 16 15 16 17 17 19 20 20 21 23 23 22 22 22 22 22 23 25 26 28 29 30 30 32 33 34 35 36 36
6 6 7 8 8 9 9 9 11 13 13 13 13 13 15 16 16 16 15 15 14 14 13 12 12 12 12 9 8 9 11 11 11 13 15 17 18 18 16 16 18 19 20 22 24 25 24 22 21 21 22 23 26 28 29 30 30 32 34 36 36 36 36
5 5 6 7 8 8 8 9 13 14 12 12 11 12 15 17 17 17 16 16 16 16 15 13 12 13 14 12 11 13 13 11 11 11 11 14 16 16 16 17 17 19 20 21 23 25 26 25 25 25 24 25 27 28 29 30 31 32 35 36 36 36 36
4 5 6 6 7 8 8 12 14 13 12 11 12 13 15 16 17 16 16 17 17 16 15 13 13 15 15 14 13 13 13 13 13 14 12 11 11 11 14 17 17 17 18 19 21 24 25 24 25 27 27 27 27 27 28 29 30 31 33 35 35 35 35
7 7 8 8 9 9 10 12 12 11 11 12 13 15 16 15 15 17 18 19 18 16 14 14 16 19 18 17 15 14 12 12 14 16 14 11 10 10 10 13 15 17 19 21 23 25 26 24 25 28 30 31 29 28 28 29 29 30 31 33 35 34 33
6 8 9 11 13 15 14 13 11 11 12 13 14 15 15 14 14 16 19 22 22 20 18 18 20 22 22 20 19 17 16 15 15 14 12 9 8 8 8 9 11 15 19 22 23 26 28 28 27 27 29 31 32 31 30 29 29 29 30 32 33 34 33
5 6 8 10 12 14 15 15 15 15 14 14 14 14 14 14 15 17 20 24 25 24 23 23 23 23 23 23 22 21 20 19 17 16 14 12 11 11 10 8 9 12 16 19 21 25 28 30 31 29 27 29 31 32 32 31 30 29 29 30 31 31 31
5 6 8 9 10 11 12 14 16 18 18 16 16 16 16 16 18 21 23 25 27 28 29 28 27 25 25 25 24 23 23 21 20 19 17 15 15 15 15 14 13 14 16 16 18 22 27 30 33 32 29 27 28 31 32 32 31 30 29 29 30 30 31
5 6 8 9 10 11 12 13 15 17 18 18 17 18 18 19 21 24 27 27 28 29 30 31 31 30 28 27 26 25 24 23 23 22 21 19 18 18 19 19 18 17 17 18 19 20 24 27 31 33 32 29 27 29 30 29 29 29 29 29 29 30 31
8 8 8 8 9 10 12 13 15 17 18 19 19 18 19 20 21 24 26 27 28 29 31 33 34 34 33 31 30 28 27 25 25 24 23 22 21 20 21 22 22 21 20 21 21 20 22 23 25 29 32 31 30 29 27 25 25 24 24 27 28 27 28
10 9 9 9 9 10 12 13 15 16 18 19 19 18 18 19 20 22 25 28 30 31 32 33 34 35 36 35 34 32 31 29 28 26 25 24 24 24 25 25 25 24 23 22 21 21 22 23 22 23 25 29 32 31 27 23 22 22 23 27 29 29 28
11 12 12 12 12 12 12 13 14 15 17 18 19 18 18 19 20 22 25 27 28 30 31 32 34 35 37 37 36 33 30 28 27 26 26 25 25 24 23 21 20 20 20 19 19 20 20 21 21 21 22 25 30 32 29 24 22 23 25 26 28 30 31
12 13 15 15 16 16 15 14 14 14 16 18 19 20 20 21 21 22 23 25 26 27 29 32 34 36 37 37 35 32 27 24 22 22 23 23 22 21 19 18 17 17 17 16 16 17 17 18 19 20 21 22 26 29 30 28 25 25 26 26 26 28 29
13 14 16 17 18 18 17 17 17 17 17 18 18 20 21 22 22 21 22 24 25 25 26 28 30 34 36 36 35 32 28 24 22 20 20 21 20 19 19 20 22 23 24 24 23 22 22 23 23 23 22 21 23 26 29 31 29 27 28 28 28 27 25
14 15 16 17 18 19 19 20 20 19 19 19 18 19 20 22 23 22 22 23 23 24 24 24 25 28 32 34 34 31 26 23 22 21 20 20 19 20 23 27 30 32 33 34 33 32 31 30 30 29 27 26 26 26 28 31 31 30 30 30 29 28 25
14 16 17 18 19 20 21 21 22 22 22 21 20 20 20 20 21 21 21 22 22 23 24 24 25 26 27 29 30 29 27 26 25 25 25 24 24 25 29 33 35 37 38 38 38 36 35 33 32 31 30 29 29 27 28 29 31 33 35 33 31 29 27
16 17 18 19 19 20 21 22 22 23 23 22 21 21 21 21 21 20 20 21 21 22 24 25 26 27 26 26 26 27 27 27 26 25 26 27 26 26 27 30 34 37 37 37 36 37 36 35 34 33 32 32 31 30 28 27 28 31 35 38 38 35 33

ECMWFFLT1_850_spd_078.txt.gz
Wind_Speed
12 14 16 17 22 26 26 27 23 19 23 24 22 22 22 24 27 27 26 25 24 25 25 25 24 22 21 21 20 19 19 18 18 19 18 16 15 15 15 15 15 14 12 10 11 11 9 9 10 9 8 9 8 8 7 6 7 7 7 7 7 7 8
10 13 14 16 21 23 22 23 22 21 22 23 21 20 21 22 25 28 28 26 23 23 24 23 23 22 21 21 21 20 19 19 19 19 19 18 17 17 16 15 15 15 13 11 10 11 11 11 11 10 9 9 9 9 8 7 7 7 7 7 6 6 8
8 11 12 15 19 19 20 24 24 23 22 22 22 22 23 21 19 23 27 27 24 23 23 21 21 21 21 21 21 20 19 19 19 19 20 20 19 18 18 17 16 16 16 16 13 11 12 12 13 12 11 9 9 9 8 8 8 8 7 7 7 6 6
4 10 12 11 14 16 19 23 23 21 20 20 20 23 25 24 21 22 24 26 24 22 22 21 20 20 20 21 21 20 20 20 19 20 20 19 19 18 18 18 18 17 16 17 16 13 12 13 13 14 12 10 10 10 9 9 9 8 8 7 7 7 6
8 11 16 10 12 14 15 18 19 19 20 19 19 21 23 24 25 24 25 26 23 21 23 21 19 19 20 20 20 20 20 19 20 20 20 19 19 19 18 18 19 18 17 17 16 15 14 14 14 14 14 13 13 12 10 10 10 9 9 9 8 8 7
9 11 15 13 14 12 10 14 18 20 22 21 20 20 20 21 23 23 24 27 24 21 23 22 20 20 20 20 21 20 20 20 20 20 20 20 20 19 19 18 18 18 18 18 17 17 17 16 15 14 14 14 14 13 12 11 11 11 10 10 9 9 8
8 10 14 14 15 14 8 5 12 20 24 21 18 18 18 19 22 22 23 25 24 22 21 21 21 21 20 21 23 22 22 22 22 21 20 21 21 21 20 20 19 18 18 18 17 17 18 18 17 14 14 14 14 13 13 12 12 11 11 11 11 10 9
5 8 13 14 14 16 16 13 8 11 17 18 14 13 15 18 20 22 22 22 22 21 20 19 20 22 22 23 23 23 23 23 23 23 22 21 21 22 21 21 21 20 19 19 18 18 18 19 19 17 16 15 14 14 14 14 13 12 12 12 12 12 11
6 8 11 13 13 14 14 14 14 12 8 10 10 9 13 16 18 19 20 22 22 21 19 18 20 24 25 24 22 22 24 24 24 24 24 22 21 21 21 21 21 22 21 20 19 19 19 18 18 19 19 17 16 15 15 15 15 14 14 13 13 13 12
10 10 13 13 14 14 13 12 12 14 15 12 9 10 13 15 17 18 19 21 21 20 19 19 21 23 25 24 22 22 24 25 25 24 24 24 22 21 20 20 20 21 22 20 19 19 20 19 18 18 19 19 18 18 17 16 16 16 16 15 15 14 14
14 13 12 12 13 13 14 16 15 14 17 17 13 12 14 15 17 18 17 19 20 19 18 18 19 21 23 22 21 22 23 23 24 25 26 26 23 21 20 20 20 20 21 21 19 19 19 20 19 18 19 20 20 21 20 19 18 18 17 17 17 17 16
15 15 14 14 14 15 16 18 19 18 16 17 16 14 14 14 15 16 15 17 19 17 14 14 15 17 18 19 20 21 24 24 24 26 27 25 24 22 20 19 19 19 20 20 20 19 19 19 20 20 20 20 20 21 22 21 21 21 20 18 17 17 17
14 15 16 16 16 17 18 19 21 21 18 16 15 15 15 14 14 15 15 16 17 17 15 14 15 15 16 18 19 22 25 27 26 26 25 23 22 22 21 20 19 19 20 20 20 20 19 19 20 20 21 21 22 22 21 22 22 22 22 20 18 17 17
14 15 16 17 18 18 19 19 20 20 19 18 15 12 12 12 12 14 16 16 17 17 16 16 16 14 13 15 18 22 26 25 23 22 22 21 21 21 22 21 20 19 20 20 20 20 20 20 19 20 20 21 23 23 22 22 23 23 23 23 21 19 18
15 16 16 17 18 19 19 19 19 19 19 19 16 13 11 10 10 11 13 14 14 14 13 14 15 14 13 13 13 16 20 18 15 15 16 18 20 19 20 23 23 21 21 21 20 20 20 20 19 19 20 20 21 22 22 22 23 24 24 24 24 23 21
15 16 16 17 18 18 18 18 19 20 20 19 17 14 12 10 8 7 9 9 9 11 11 12 14 13 12 12 11 11 11 11 11 12 14 15 16 17 18 23 25 23 23 21 20 20 20 19 20 20 20 20 20 21 22 22 23 24 25 25 25 25 24
14 15 15 16 17 17 18 18 18 19 19 19 19 16 14 13 9 5 6 6 7 9 11 11 12 11 9 9 10 11 11 10 10 12 13 12 14 16 17 20 22 23 23 20 18 21 21 20 20 21 20 20 21 21 22 22 22 23 25 26 25 25 25
13 14 15 15 16 16 16 17 17 17 17 17 17 17 16 15 13 10 5 3 4 6 9 9 7 8 9 8 7 8 10 12 12 12 12 9 10 14 16 18 20 22 23 20 18 20 23 23 23 24 23 22 21 21 22 23 22 23 25 26 26 26 26
12 13 14 14 15 15 15 16 16 16 16 16 15 16 15 14 13 13 11 7 4 1 4 6 5 6 8 8 6 5 7 9 11 12 12 10 10 14 15 16 18 19 21 21 20 22 25 25 26 27 28 27 25 23 23 24 24 24 25 26 27 27 27
11 12 13 13 14 14 15 15 15 15 15 14 13 13 14 14 13 12 12 10 9 9 6 3 1 2 4 5 5 6 6 7 8 10 11 12 12 13 13 13 14 15 16 19 21 24 26 26 27 28 29 30 31 29 27 25 24 25 26 27 28 29 29
10 10 11 12 12 12 13 14 15 15 14 13 12 11 12 14 12 11 11 10 11 13 13 11 10 7 5 4 5 5 5 5 6 6 7 11 12 13 14 14 15 16 17 18 21 23 24 26 27 28 28 29 31 32 31 30 27 26 26 26 28 29 30
8 9 10 11 11 11 11 12 13 13 13 12 10 9 12 13 11 10 10 10 12 15 14 11 10 11 12 8 5 4 4 3 4 4 4 9 10 12 13 14 15 16 18 19 21 23 24 24 26 27 27 27 28 31 33 32 31 30 29 28 27 28 28
7 8 9 9 9 10 10 10 12 12 11 11 8 9 12 13 11 10 9 9 11 13 12 10 7 10 14 13 10 9 9 7 7 7 5 6 9 11 13 14 14 14 15 17 19 22 23 24 25 26 27 27 27 29 31 32 32 32 32 31 31 30 30
7 8 8 8 8 9 9 10 11 10 10 9 8 10 12 12 11 9 8 8 9 10 10 8 7 11 14 15 14 13 11 8 8 9 9 7 4 7 11 14 14 14 14 15 18 20 22 24 26 27 27 27 27 27 29 31 31 31 31 31 31 33 34
6 7 7 8 8 8 9 11 10 9 9 8 8 11 12 10 9 9 7 9 9 9 8 7 9 13 14 15 15 14 12 10 8 8 10 10 6 5 9 11 13 15 16 16 17 19 20 22 24 26 27 28 27 27 28 30 31 31 30 30 31 31 33
5 5 6 7 8 8 9 10 9 8 9 10 10 11 10 8 8 8 9 12 11 9 7 7 9 14 16 16 15 15 13 13 11 9 9 9 9 7 7 8 11 14 17 17 18 19 20 21 23 25 26 26 26 26 26 27 29 29 29 30 30 30 31
4 5 5 6 9 9 8 7 8 8 9 10 11 11 9 9 9 9 11 12 11 9 10 12 15 17 18 18 17 15 15 15 14 12 10 9 9 9 9 8 9 11 13 15 18 19 20 21 22 24 26 25 25 25 23 23 25 25 25 26 27 27 29
4 4 5 7 8 8 7 7 8 8 9 10 10 10 9 10 10 12 14 13 12 11 12 14 18 20 21 21 20 18 17 17 16 16 15 13 12 12 12 11 11 11 11 13 16 17 19 20 22 23 25 26 26 25 23 23 23 23 24 26 26 26 28
4 5 6 7 8 8 9 9 9 10 10 10 11 10 10 11 11 13 14 13 12 12 12 14 18 21 23 24 23 21 20 19 18 18 17 17 16 16 16 15 15 14 15 16 17 18 19 20 20 22 23 24 24 23 23 24 24 22 25 28 29 29 30
5 6 7 7 8 9 10 10 11 12 12 11 12 12 12 12 12 12 12 11 13 15 16 18 19 20 22 23 23 24 24 23 21 19 19 19 19 18 18 18 18 19 19 19 20 20 20 20 20 20 20 21 19 18 21 25 26 24 24 25 27 29 30
4 5 6 7 8 9 10 12 13 14 13 13 13 13 13 13 13 13 13 14 16 18 19 19 19 19 21 23 24 25 26 26 25 23 22 21 20 19 19 20 21 21 21 22 22 21 19 19 19 18 18 18 16 14 16 19 21 24 25 24 24 26 28
4 5 6 7 8 10 11 12 13 14 14 14 13 13 13 13 14 15 16 17 18 19 19 20 20 21 21 22 23 25 26 26 25 24 23 22 22 23 22 21 22 22 21 20 20 20 18 17 17 16 15 15 16 16 17 17 16 20 25 25 25 25 26
4 6 7 8 9 10 12 13 13 14 15 16 16 16 15 15 16 16 17 18 19 19 20 20 21 21 21 20 21 22 22 21 20 19 19 20 21 22 21 18 18 19 19 18 18 18 17 15 15 14 15 16 18 19 19 18 17 18 21 24 26 26 26
4 6 7 8 10 11 12 12 13 15 16 17 18 19 18 18 18 18 18 18 19 19 21 21 21 21 21 19 18 18 17 17 16 16 16 17 17 17 17 17 16 17 18 17 15 15 14 12 12 13 15 19 22 24 24 20 18 17 17 20 24 25 25
5 6 7 9 10 10 11 12 13 15 16 17 18 19 19 19 20 20 19 19 18 19 20 21 21 22 22 21 18 17 16 15 15 15 15 14 15 16 17 17 16 18 19 19 19 20 20 20 20 21 23 26 29 31 31 29 25 21 18 17 19 21 23
6 7 8 8 9 10 11 12 14 15 16 17 17 18 18 19 19 19 19 18 18 19 19 20 21 22 23 21 19 17 16 16 16 16 17 17 19 21 22 23 22 23 25 27 28 28 29 30 32 32 31 32 32 32 31 31 31 28 26 23 21 20 21
7 8 9 10 10 11 12 13 14 15 16 16 17 17 17 17 17 18 18 18 18 19 20 20 21 22 22 22 20 20 20 20 19 20 20 21 22 23 25 27 29 29 30 32 34 36 35 34 33 31 30 31 33 32 31 31 30 29 29 29 28 26 26
9 10 11 12 12 13 14 14 14 15 15 16 16 17 17 18 18 18 18 18 19 20 20 21 22 23 23 23 23 23 23 23 22 22 22 22 23 24 24 27 30 33 34 34 34 34 30 26 24 26 29 32 33 33 32 31 29 28 28 28 28 29 30

ECMWFFLT1_850_spd_081.txt.gz
Wind_Speed
21 21 21 22 25 25 24 24 24 25 28 29 27 28 30 27 25 27 28 26 25 23 23 24 24 22 21 21 20 20 19 20 20 20 20 18 17 16 15 17 17 15 13 13 12 10 8 8 8 10 10 8 9 9 8 8 8 8 9 8 8 7 8
18 20 21 23 27 27 24 21 19 22 29 30 26 25 27 28 29 29 28 26 25 22 22 24 25 23 22 21 20 20 20 20 20 19 19 18 17 16 14 15 16 16 13 12 12 11 10 10 10 9 10 9 9 9 9 8 8 8 8 8 8 8 8
14 16 19 21 24 25 24 23 18 18 26 31 27 25 26 29 31 30 29 28 26 22 21 23 25 24 22 21 21 20 20 20 20 20 19 18 17 17 15 15 16 16 15 13 12 10 10 11 12 10 10 10 10 10 9 9 9 9 8 8 9 8 8
12 14 17 18 19 22 23 27 25 19 22 27 26 24 25 28 31 31 30 29 27 24 22 23 25 24 22 21 22 22 21 20 21 20 20 19 18 17 17 16 16 16 15 14 13 10 9 11 12 12 11 10 10 10 10 10 10 9 9 8 8 8 9
11 12 14 15 16 19 20 24 24 17 14 19 21 22 24 26 29 30 29 28 27 24 21 21 23 23 21 21 21 22 21 20 20 20 19 20 19 19 18 18 17 17 16 15 15 14 12 11 11 12 12 11 11 10 9 9 10 10 9 9 8 8 9
12 11 10 9 10 12 13 14 15 12 11 15 20 23 24 25 27 28 28 26 25 24 23 22 23 23 22 21 21 21 21 20 20 19 19 19 19 19 19 19 18 18 18 17 17 17 15 13 12 12 12 12 12 12 11 10 10 10 10 10 9 9 9
15 18 16 12 9 5 4 6 11 14 16 19 22 22 22 24 25 27 27 26 25 25 24 23 23 23 23 22 21 21 21 20 19 19 19 18 18 18 18 18 18 18 18 17 17 17 17 16 14 13 12 12 13 13 13 12 10 10 11 10 10 10 10
15 18 17 15 14 13 12 8 7 16 20 21 22 21 21 23 23 25 25 24 25 26 25 24 24 24 23 22 22 23 22 21 19 19 19 18 18 18 19 19 18 18 18 17 17 17 17 18 17 15 13 11 12 13 14 13 11 10 11 11 11 11 11
13 15 16 16 17 17 18 16 8 11 17 17 19 21 21 21 20 22 23 22 23 26 26 26 25 25 24 23 24 25 25 23 20 19 19 18 18 18 19 20 18 18 18 18 18 17 17 18 18 18 16 13 12 13 13 13 12 11 11 11 12 12 12
11 15 17 19 20 18 18 18 13 10 13 14 16 19 19 19 19 20 21 20 21 24 25 25 25 24 24 25 26 26 25 25 23 21 20 20 19 19 17 18 18 19 19 17 18 18 17 17 18 18 18 17 15 14 13 14 14 13 13 12 12 12 12
8 11 14 17 20 20 20 20 17 13 14 14 14 16 16 17 19 20 20 20 21 22 24 24 23 22 23 26 27 24 21 21 21 22 21 20 20 19 17 17 17 17 19 19 19 20 19 18 19 19 18 18 19 17 15 15 15 15 15 14 14 14 13
9 9 9 13 19 21 21 20 20 18 14 12 12 15 16 16 17 18 18 18 19 20 21 21 19 19 21 23 25 24 22 18 17 18 20 19 19 19 19 19 18 16 18 20 20 21 21 20 20 20 19 18 18 18 18 19 18 17 16 16 16 16 15
12 11 10 12 17 20 20 18 18 20 18 13 11 12 11 12 14 15 15 15 16 16 16 16 16 16 17 18 20 23 23 20 19 19 20 19 20 21 21 22 21 18 17 20 22 20 21 22 21 20 20 19 18 18 18 20 20 20 19 19 18 17 16
15 15 14 14 16 17 18 17 14 16 18 16 13 13 12 11 13 14 13 13 13 11 10 10 11 10 10 10 14 17 18 18 19 20 19 18 19 20 22 22 22 20 17 18 23 22 19 21 23 21 20 19 19 19 19 19 20 21 22 22 21 19 18
17 16 16 16 16 16 16 17 14 13 14 14 13 14 15 14 14 14 13 12 11 9 7 4 5 8 8 8 9 10 12 14 16 16 17 19 19 20 21 22 22 22 18 15 21 25 21 19 22 22 21 20 19 19 19 19 19 20 21 22 22 21 20
17 16 16 16 16 16 16 17 16 14 12 12 11 11 12 12 13 13 12 11 11 9 9 6 3 5 8 9 8 6 8 11 13 13 13 14 15 17 21 21 20 23 23 16 18 26 26 22 23 23 22 22 21 20 19 19 19 19 20 21 21 21 20
18 17 16 16 16 15 16 16 16 16 15 15 14 11 9 8 8 9 9 8 9 8 8 7 4 4 6 7 6 5 5 7 9 9 8 8 9 12 17 20 20 22 26 23 19 23 27 25 24 24 24 23 23 22 22 20 19 19 19 20 21 21 21
19 17 16 17 16 15 15 15 15 16 17 17 17 16 13 10 8 8 8 7 7 8 9 8 5 4 5 5 5 5 6 7 8 7 7 8 9 9 12 18 21 22 25 26 23 22 24 25 24 25 25 22 21 22 24 24 22 20 19 18 19 20 22
19 17 17 16 16 15 14 15 15 15 15 15 17 17 17 16 15 13 12 12 11 10 8 6 3 3 4 5 7 8 9 10 10 10 10 11 10 10 11 15 20 23 25 26 26 24 24 25 24 25 26 24 22 21 23 23 23 23 22 21 20 19 20
19 18 17 16 16 16 16 16 16 14 12 13 15 16 16 15 15 14 15 16 15 11 10 8 5 2 2 3 5 8 10 12 12 11 11 11 11 12 13 14 18 22 24 26 27 26 26 26 26 25 26 27 26 25 24 22 21 19 19 21 22 23 23
19 18 18 17 16 16 16 16 15 12 11 12 13 14 16 15 14 13 15 18 17 12 11 12 12 9 5 2 1 3 6 9 12 12 10 9 12 14 15 16 17 19 21 23 25 26 27 28 28 28 27 27 28 29 29 28 25 22 20 19 20 22 25
17 16 16 16 15 15 16 16 15 11 9 11 12 13 13 13 13 12 14 16 14 10 9 11 15 15 12 8 4 2 1 2 6 9 9 10 13 15 16 17 17 18 20 21 22 23 25 26 28 29 29 29 29 30 31 31 31 29 28 26 24 22 22
16 16 16 15 13 13 16 17 15 12 7 8 12 13 11 10 10 11 13 14 12 9 8 9 12 15 15 13 10 6 4 3 1 3 7 9 10 12 16 16 16 18 19 20 21 22 22 23 25 27 28 29 30 30 31 31 30 31 32 32 32 30 27
15 15 16 15 11 11 15 16 13 10 5 7 12 11 8 7 6 6 10 13 12 9 8 8 10 11 12 12 11 10 8 6 5 3 1 4 4 6 11 14 15 16 16 17 18 20 21 21 22 24 25 27 28 29 29 28 29 29 30 31 33 35 36
15 12 11 10 9 11 13 13 12 8 6 8 11 9 4 4 3 3 7 9 9 6 4 5 8 9 9 9 9 8 8 7 6 5 4 4 4 4 6 8 11 13 14 15 15 17 19 20 20 21 21 22 23 24 25 27 28 28 28 28 29 32 35
14 12 10 8 9 10 9 9 8 6 7 8 8 5 2 1 1 4 6 6 5 4 1 3 6 8 8 8 7 6 6 7 6 6 6 6 6 6 6 6 6 9 11 12 13 13 15 17 19 19 19 19 18 19 23 28 30 29 27 25 26 28 31
12 11 11 9 8 8 6 4 4 4 6 7 4 2 1 2 4 5 6 5 3 2 2 3 5 7 9 10 9 7 6 6 7 8 8 7 8 8 7 6 6 6 7 8 10 11 12 13 15 16 17 17 17 18 22 26 27 26 25 24 25 26 28
12 11 11 8 6 6 4 2 2 4 5 4 1 1 2 3 5 5 5 3 3 3 4 6 7 8 10 11 10 9 8 7 7 8 9 9 10 11 10 9 9 8 8 8 9 9 10 11 12 14 15 15 15 16 20 22 21 21 22 23 25 27 27
10 10 9 6 4 3 2 1 2 4 4 2 2 2 3 3 3 3 2 3 5 7 7 8 9 10 11 12 12 11 11 10 10 9 9 10 10 12 12 12 12 12 11 11 11 12 12 11 12 13 13 12 11 12 15 16 15 15 16 19 23 26 26
9 9 8 5 2 1 0 2 3 4 3 2 2 3 3 2 1 1 3 5 6 8 9 9 10 10 11 12 12 12 12 12 11 11 11 10 10 11 12 12 13 13 13 12 13 13 13 13 12 11 10 9 7 7 8 9 10 10 12 16 20 23 25
9 8 7 5 2 1 1 2 3 4 3 3 3 3 2 2 2 2 4 6 7 7 8 9 10 11 11 11 12 13 13 13 12 12 12 12 12 12 12 12 12 12 11 10 10 11 13 13 12 10 10 9 8 7 7 8 9 10 13 15 18 21 24
8 7 5 3 1 2 3 3 3 3 3 4 4 4 4 5 5 5 7 8 8 8 8 9 10 10 11 11 12 12 13 13 12 12 12 12 12 12 12 12 12 11 10 9 10 12 13 15 15 15 13 12 10 11 11 11 11 12 13 15 17 18 20
6 4 2 0 3 4 4 5 5 5 5 6 7 7 7 7 7 8 9 10 9 8 8 9 9 10 11 11 12 12 11 11 11 12 12 12 11 11 11 11 11 12 11 11 13 13 11 11 12 13 12 12 12 13 14 15 15 15 16 19 21 20 20
5 3 2 2 3 3 4 5 6 8 9 10 9 9 9 8 8 8 9 9 9 9 9 9 10 11 11 11 11 10 9 9 9 9 9 10 10 11 11 11 12 13 13 12 14 15 14 12 13 13 14 14 16 17 19 20 22 23 24 25 24 23 22
2 1 2 2 1 2 4 7 9 11 11 10 10 10 9 9 9 8 7 7 7 8 9 10 11 12 12 12 11 11 10 10 10 11 12 13 14 15 15 15 15 16 17 16 16 17 19 20 20 20 20 21 22 23 27 30 30 28 26 25 24 24 24
3 2 1 1 0 3 6 9 10 10 9 9 10 11 10 9 9 9 8 8 8 9 10 11 12 13 14 13 12 12 12 13 14 14 15 17 18 19 20 20 19 20 21 22 21 21 22 24 26 27 28 29 31 32 33 34 31 27 24 24 24 24 24
4 3 3 3 3 5 8 8 8 8 8 10 11 11 11 10 10 10 10 10 10 11 12 13 13 14 15 14 14 14 14 15 16 16 17 18 19 21 23 24 24 23 23 23 24 24 23 24 26 27 28 30 32 32 31 29 27 26 24 23 22 23 23
5 4 3 3 3 5 6 6 7 9 10 12 12 13 14 14 14 14 13 11 11 12 13 14 14 15 16 17 17 17 17 17 18 19 19 20 21 22 23 26 28 28 27 26 25 24 24 23 24 24 24 24 26 27 28 28 27 25 22 21 22 23 24

ECMWFFLT1_850_spd_084.txt.gz
Wind_Speed
29 26 27 25 23 29 36 38 40 40 38 36 35 32 32 31 28 27 28 27 26 24 23 25 27 27 26 24 23 22 22 23 23 21 20 18 18 19 19 18 18 17 15 13 11 9 8 9 8 9 10 9 8 9 9 9 8 8 8 8 8 8 8
27 24 24 23 24 26 26 29 34 37 38 36 35 34 34 34 31 29 29 28 26 25 22 23 25 26 25 24 24 24 23 23 23 21 21 19 17 18 19 19 18 17 15 13 11 9 9 9 8 8 10 9 8 8 8 8 8 8 9 9 8 9 9
23 23 20 19 25 24 16 19 26 31 37 37 36 36 35 34 33 30 31 30 28 26 24 23 23 24 25 24 24 24 24 24 23 22 22 20 19 18 18 18 18 17 16 14 12 11 9 9 8 8 10 9 8 8 8 8 8 8 9 9 10 9 9
16 15 12 12 22 18 11 15 24 28 36 40 37 37 36 34 32 31 31 31 30 29 27 24 22 23 25 24 24 24 23 23 23 23 22 20 19 18 17 17 16 17 17 15 13 12 10 9 10 9 10 10 9 9 9 8 8 8 8 9 10 10 9
11 11 10 11 14 16 12 18 26 28 35 39 36 35 34 34 33 32 32 31 31 30 28 25 22 22 25 25 24 23 22 22 22 22 22 20 19 18 17 16 15 15 16 16 14 13 11 10 10 10 10 10 10 10 10 10 9 9 9 9 9 9 9
9 9 11 11 11 19 23 23 24 26 31 35 35 33 32 34 33 32 33 31 30 31 28 26 24 22 23 24 23 21 20 21 21 21 21 20 20 20 18 16 15 14 14 15 14 14 13 11 10 11 10 10 11 11 11 11 11 10 10 10 9 10 10
14 12 12 10 10 17 22 21 20 21 24 30 34 32 30 33 33 33 33 31 30 31 30 27 25 23 23 23 21 20 20 20 20 20 19 19 20 20 20 19 17 15 14 14 14 14 15 14 12 11 11 10 12 12 11 11 12 11 11 11 10 10 10
20 20 18 13 9 11 14 16 17 18 20 26 32 32 30 32 33 32 32 32 32 33 31 28 26 25 25 24 21 19 20 21 22 21 20 19 19 19 19 19 18 15 14 15 15 15 16 17 15 14 13 13 13 13 13 12 11 11 12 12 12 11 11
23 23 22 19 15 12 11 13 17 19 20 24 28 29 30 30 30 30 31 31 32 31 30 29 28 24 22 20 19 19 21 22 22 22 22 21 20 19 19 19 17 15 14 15 16 16 17 17 17 17 16 15 14 13 13 14 13 12 12 12 12 12 12
22 22 21 19 17 14 13 14 17 18 19 22 24 24 25 26 26 27 28 27 27 26 28 30 27 24 21 20 19 20 21 21 22 22 21 22 22 20 19 19 18 17 15 15 16 17 17 17 18 18 19 19 18 15 14 14 14 14 14 13 12 12 13
18 19 19 18 17 15 14 15 16 16 17 19 20 19 18 19 20 22 23 23 23 24 27 29 28 24 23 22 21 22 22 21 22 22 20 21 21 21 20 20 20 19 18 17 17 17 18 18 18 18 19 19 19 18 16 15 15 15 15 14 13 13 13
16 17 18 18 17 15 15 15 15 15 15 14 15 16 15 15 17 20 22 23 21 21 24 26 26 25 23 22 22 23 23 23 23 22 21 21 21 22 22 22 21 21 21 20 19 18 19 20 20 19 19 18 18 18 18 18 17 16 16 15 15 14 14
18 18 18 17 17 16 16 16 15 14 14 13 12 12 11 12 13 14 17 20 20 20 19 19 21 23 23 22 22 23 23 23 23 22 20 20 22 22 22 23 24 23 22 22 20 20 20 21 22 22 21 19 18 17 16 17 18 18 18 18 17 17 17
20 19 17 17 16 15 15 17 15 13 12 12 12 12 11 11 11 9 8 11 18 19 15 14 17 19 19 18 18 20 22 22 22 21 19 19 22 23 22 23 25 24 24 23 22 21 21 21 22 24 23 21 19 17 15 15 16 18 19 20 20 20 20
21 20 18 17 16 13 13 14 15 14 13 11 12 12 12 12 12 13 14 11 13 14 11 11 13 14 14 14 14 15 17 18 20 21 21 20 21 22 23 23 24 24 24 24 23 23 23 22 22 24 25 23 21 19 17 16 16 15 16 18 20 22 23
21 20 20 19 17 14 12 11 12 13 12 11 11 11 12 12 12 15 19 19 13 9 8 8 9 10 11 11 9 9 11 13 15 17 20 21 21 22 23 23 23 23 24 24 22 22 24 24 23 24 26 25 24 22 20 19 17 15 15 15 15 17 20
22 21 20 19 18 16 14 14 14 12 11 9 8 7 8 10 12 13 14 15 14 11 9 7 7 9 10 9 9 9 10 11 13 15 17 19 21 22 23 23 23 23 24 24 22 21 21 22 23 24 25 26 25 23 22 22 20 18 16 15 15 15 16
22 22 20 19 18 16 16 17 17 16 16 14 11 9 8 9 11 12 12 11 12 11 9 8 8 8 9 10 10 10 10 11 12 13 14 16 17 18 20 20 20 21 22 24 24 24 21 18 20 24 25 26 26 24 24 24 24 23 22 21 19 18 17
24 23 21 19 18 17 16 15 16 17 17 17 17 15 13 14 16 15 15 13 11 9 8 7 7 8 8 10 10 11 11 10 11 11 11 12 13 14 15 16 17 19 20 21 23 26 24 19 19 23 26 27 27 26 25 24 25 25 25 24 23 22 21
24 22 20 19 18 16 15 14 15 17 17 17 16 14 14 16 17 17 17 16 13 11 10 8 7 7 6 6 8 9 9 8 8 10 11 11 12 13 14 15 15 16 18 19 22 25 25 22 21 23 26 28 27 26 26 25 24 24 24 25 24 24 24
23 22 21 21 18 16 15 15 14 15 17 18 16 15 17 17 16 15 16 16 15 14 12 11 10 10 8 7 6 5 6 6 7 9 11 11 12 14 15 16 16 16 17 18 20 23 24 23 23 24 26 28 28 27 26 25 25 24 24 24 23 23 24
24 23 23 22 19 16 14 14 14 14 15 16 16 16 17 16 14 13 13 14 14 14 14 14 13 13 12 11 10 8 6 5 6 7 9 9 11 12 14 15 16 16 17 17 18 20 22 22 22 24 27 28 29 29 29 28 27 26 25 24 23 22 22
22 23 23 20 17 16 16 14 14 13 12 13 14 15 15 14 12 12 11 11 10 9 11 14 14 13 11 10 9 8 7 6 5 4 5 5 6 7 9 11 13 14 16 17 17 18 20 21 21 22 25 28 30 31 31 31 31 29 28 27 26 26 27
20 21 21 19 17 18 18 15 13 11 10 11 11 12 14 14 12 11 10 8 7 5 6 9 10 10 10 9 8 7 6 6 4 3 3 2 2 2 3 5 8 10 13 15 17 17 18 20 21 20 22 26 29 31 32 33 33 31 31 31 31 32 34
20 20 19 17 17 19 18 14 13 12 10 10 9 8 9 11 10 9 8 6 4 2 2 3 5 6 6 5 5 5 4 4 4 3 3 2 1 1 1 1 3 6 9 12 14 15 15 16 18 19 19 21 25 28 30 31 32 32 33 33 33 34 35
21 20 19 17 16 15 14 12 11 12 11 10 9 7 6 6 5 5 6 6 5 3 1 0 0 2 2 2 2 1 1 1 1 1 0 0 1 2 2 2 1 3 5 8 11 13 13 15 17 18 18 18 21 23 24 25 26 27 29 31 32 32 33
19 18 18 18 15 13 12 9 8 9 9 8 8 7 6 5 4 4 5 6 6 4 2 2 2 2 1 1 2 3 3 3 3 3 3 3 3 2 2 2 3 2 2 4 6 8 9 11 13 14 15 15 17 18 19 20 21 21 23 25 27 28 29
18 17 17 16 13 11 10 8 6 7 8 7 6 6 5 4 4 5 5 6 5 3 2 2 2 3 2 3 3 4 5 5 5 5 5 5 6 5 4 3 3 3 2 2 2 4 5 6 8 9 10 11 13 14 15 15 15 16 18 19 21 23 25
18 16 15 14 11 10 8 7 7 7 7 6 5 5 5 5 5 5 5 4 3 2 2 3 2 3 3 3 4 4 4 5 5 6 6 5 5 5 5 4 3 3 4 4 4 4 3 4 5 5 6 7 8 9 10 9 10 12 13 15 16 18 20
16 14 14 12 10 8 6 5 6 7 6 5 5 4 6 6 5 4 4 3 2 2 2 2 2 3 3 3 4 4 4 5 5 4 4 3 4 4 5 5 4 3 2 2 3 4 4 4 5 5 5 5 5 6 6 6 7 8 9 9 10 12 14
14 13 11 9 8 6 5 5 6 5 5 5 4 4 4 4 4 3 3 2 1 2 2 3 3 3 3 4 4 4 5 5 5 5 5 4 4 4 4 5 5 5 5 4 4 5 6 6 7 7 6 7 7 7 7 7 8 9 8 7 9 11 12
14 12 10 8 7 5 4 4 5 5 4 4 3 3 3 3 2 2 2 1 1 2 3 4 5 6 6 5 5 5 6 7 7 8 8 7 7 6 5 6 6 7 7 7 8 8 8 8 8 8 8 9 9 10 11 12 12 12 11 11 12 14 15
14 11 9 8 7 5 4 4 3 3 2 2 2 2 2 2 1 1 1 1 3 4 6 6 7 8 8 8 8 8 8 9 10 10 10 10 10 9 8 8 8 9 9 9 10 11 11 11 11 10 10 10 11 13 15 16 16 16 15 15 17 18 19
14 12 9 7 5 4 4 3 2 1 1 1 1 1 1 1 2 2 3 3 5 6 7 8 9 9 10 10 10 10 10 11 12 12 12 12 13 13 12 12 12 12 12 11 12 14 15 15 15 14 14 15 15 17 18 19 19 19 19 20 21 22 25
13 9 7 6 5 5 4 1 1 1 0 0 1 2 3 3 3 4 5 6 7 8 8 10 11 11 12 12 11 12 12 13 13 14 15 15 15 15 15 15 15 16 16 14 15 16 19 20 20 19 19 20 20 21 22 23 23 23 23 24 25 27 29
10 8 8 8 7 6 3 1 1 1 1 2 4 6 7 7 7 7 8 8 10 10 10 11 12 13 13 14 14 14 14 15 15 16 16 16 17 18 18 17 17 18 18 18 17 17 19 22 23 24 25 25 26 25 26 28 28 28 28 28 29 30 31
9 8 10 10 9 6 3 3 4 4 4 4 6 8 10 11 12 11 10 9 10 11 12 12 13 14 14 15 15 15 15 16 16 17 17 17 18 19 20 20 20 19 19 20 20 19 19 20 22 23 24 26 27 27 27 28 29 27 26 26 27 28 28
9 10 11 11 9 7 6 6 7 6 6 6 7 9 11 12 12 11 9 7 8 10 11 12 13 14 15 15 16 16 16 16 16 17 18 18 19 20 21 23 24 23 22 21 21 22 22 21 21 22 21 22 23 25 25 26 25 25 24 24 24 24 23

ECMWFFLT1_850_spd_087.txt.gz
Wind_Speed
24 22 21 22 19 21 30 38 40 41 40 38 36 34 32 30 28 26 25 25 25 23 21 22 24 25 26 26 25 25 25 23 22 21 20 19 18 16 15 14 13 12 11 10 9 7 6 6 7 8 8 8 8 7 7 8 8 8 8 8 8 8 8
19 13 11 13 15 17 28 36 38 40 41 39 37 35 33 31 29 27 25 23 24 23 22 22 23 25 25 25 25 25 25 24 23 23 23 21 20 18 17 17 16 14 13 11 10 9 8 7 8 8 9 8 8 8 8 7 8 8 8 8 7 7 8
13 10 10 16 20 21 26 35 38 40 41 40 38 36 34 32 29 27 24 23 23 23 22 21 21 22 24 24 25 24 24 24 23 23 22 21 20 18 17 18 18 16 14 13 12 11 10 9 9 9 9 9 8 9 8 7 8 8 7 7 7 7 7
14 14 15 20 24 25 25 31 37 39 40 40 40 38 35 32 29 27 25 23 22 22 22 21 19 20 22 24 25 24 24 23 22 22 21 20 19 18 17 17 17 17 17 16 14 13 11 11 10 9 9 9 9 10 9 8 9 8 7 6 6 7 7
17 18 20 21 22 24 26 29 34 38 40 40 40 39 36 34 31 29 28 26 24 22 20 20 19 19 20 22 23 23 23 22 22 22 21 20 19 19 18 17 16 16 17 17 16 15 13 12 11 10 10 10 10 10 10 10 9 9 8 7 7 7 7
20 21 24 24 22 22 25 28 31 35 38 39 39 38 37 36 34 33 31 30 28 26 25 24 24 24 23 22 22 22 22 22 22 22 21 20 20 20 19 18 17 17 16 16 16 16 15 14 12 11 10 10 10 11 11 11 10 10 10 9 8 7 7
21 22 24 25 24 23 24 25 27 31 35 36 35 35 36 36 36 36 35 34 32 30 29 28 27 26 25 22 21 21 21 22 22 22 22 21 21 21 20 19 18 17 16 15 16 15 16 16 14 12 11 10 10 10 11 11 11 12 11 11 10 9 9
18 19 20 20 20 20 22 23 23 26 31 34 33 31 32 34 35 35 35 35 33 30 29 28 25 25 25 22 20 21 21 22 22 23 23 23 23 22 21 20 19 18 17 16 15 14 16 17 16 14 13 11 10 10 10 11 12 13 13 12 11 10 10
18 16 15 15 13 13 15 17 19 21 23 27 30 29 29 32 34 33 32 32 33 31 28 27 25 25 25 23 21 20 21 22 23 23 23 23 23 23 22 21 21 20 20 18 16 15 15 17 16 15 15 14 13 11 11 12 12 13 14 13 12 11 11
20 18 15 13 12 12 13 15 19 21 20 20 23 26 27 30 33 33 32 30 31 31 28 26 26 26 26 25 22 21 21 22 23 23 23 23 23 22 22 22 21 21 21 20 17 15 15 16 17 16 16 16 15 14 13 13 12 13 13 13 13 12 11
19 18 17 15 13 13 15 17 17 19 21 18 17 22 26 28 31 33 32 29 28 28 27 26 26 26 27 27 24 22 21 21 22 22 22 22 22 22 21 21 21 21 21 20 18 15 15 16 17 17 17 17 17 17 16 15 14 13 13 13 13 13 12
18 17 17 16 15 14 15 16 14 14 17 16 16 21 25 27 27 27 28 27 25 26 26 27 27 27 29 30 27 24 22 21 22 22 21 21 21 21 21 20 20 20 20 20 19 17 16 16 17 18 18 17 17 17 17 16 15 14 14 14 14 14 14
17 16 16 15 15 14 14 13 11 9 8 9 12 17 22 24 25 24 26 27 26 27 27 27 27 29 30 32 29 26 23 22 22 21 21 21 20 20 20 20 20 20 20 20 19 19 18 18 18 19 19 18 17 17 16 16 15 15 15 15 14 14 14
18 17 16 15 15 14 14 12 9 8 8 8 11 15 18 20 22 22 24 26 26 27 28 28 28 30 31 31 29 26 25 23 22 22 21 21 21 20 20 20 21 21 21 22 21 21 20 20 20 20 20 20 19 18 17 16 16 15 15 15 15 15 15
18 17 17 17 16 15 14 13 11 11 12 12 12 12 12 14 16 18 20 22 21 21 25 26 26 28 29 28 26 24 23 22 22 22 21 21 21 20 20 21 21 22 23 24 24 23 22 22 22 22 21 21 20 19 19 18 17 16 15 15 14 14 14
17 17 17 17 17 17 16 15 14 14 15 14 13 13 14 15 16 16 17 19 17 16 18 19 20 22 24 25 25 24 22 20 20 21 22 22 22 21 21 21 21 22 23 24 25 24 24 24 24 24 23 22 21 21 20 20 19 17 16 15 14 14 14
17 16 16 16 16 16 15 15 14 14 15 16 17 16 16 16 15 14 14 14 14 13 13 14 15 14 14 16 19 20 19 17 18 20 21 21 22 22 22 21 20 21 22 23 24 24 25 25 25 25 25 24 23 22 21 21 20 19 18 17 17 17 17
19 17 16 15 15 15 15 14 13 13 13 15 16 16 16 15 14 12 11 11 10 9 9 11 10 8 8 11 14 16 15 14 15 16 16 17 18 19 21 20 19 19 20 22 24 24 24 25 25 26 26 26 25 23 22 21 20 20 20 20 20 20 21
20 19 18 18 17 16 16 16 16 15 14 13 13 14 15 15 15 13 11 10 9 7 8 10 9 9 12 14 14 13 12 12 13 13 11 12 13 15 17 18 18 18 19 21 23 24 24 25 25 25 25 25 25 25 23 22 21 21 21 21 20 21 22
20 20 19 18 18 18 16 16 17 16 15 16 15 16 17 17 17 16 14 13 12 10 10 12 12 13 14 13 10 8 8 9 9 9 9 9 11 12 13 15 16 16 17 18 21 24 25 26 26 26 25 23 23 24 23 22 22 22 22 22 21 21 22
22 22 20 19 19 20 18 17 18 18 18 19 19 19 19 18 18 17 16 15 15 14 13 14 14 13 12 10 8 7 6 7 7 7 8 8 10 11 12 12 14 14 14 15 18 21 23 25 27 27 26 23 22 22 22 22 22 22 23 24 24 24 24
22 22 21 21 21 21 20 18 18 19 20 20 19 19 20 19 18 18 16 15 15 15 14 14 14 12 10 10 10 9 8 9 9 9 8 8 9 10 12 12 13 14 14 15 17 19 21 22 23 25 26 25 23 22 22 22 22 22 22 22 23 25 25
23 22 21 22 21 21 20 18 17 18 18 18 17 16 17 17 17 16 16 16 15 15 14 13 12 11 9 8 8 8 8 8 8 8 8 8 8 8 10 12 12 13 15 16 16 17 18 19 21 23 24 24 24 24 24 23 23 23 22 21 20 22 25
22 22 23 22 21 20 19 18 18 18 17 16 15 14 13 13 12 13 14 14 13 13 13 13 12 10 8 7 6 5 5 5 5 5 6 6 6 6 8 9 10 11 13 14 14 13 14 17 20 22 22 22 22 23 23 24 25 25 26 24 21 20 23
22 22 22 21 20 20 18 17 17 17 16 15 15 13 12 10 9 9 9 9 9 10 10 10 10 9 8 7 6 5 5 4 4 4 4 4 4 4 5 7 8 10 10 10 10 10 10 12 15 18 19 20 20 21 21 23 24 26 27 27 26 24 23
23 23 22 20 19 18 17 15 14 14 15 15 14 12 10 9 7 6 5 5 5 6 6 6 7 7 6 6 6 5 4 4 3 4 4 4 4 4 4 5 6 8 8 8 9 8 8 10 11 13 14 15 17 18 18 19 20 22 24 24 26 27 25
23 22 20 20 18 17 16 13 11 11 12 12 12 11 10 8 7 6 5 5 5 4 4 3 4 5 5 6 6 6 5 5 5 5 5 5 5 5 6 6 6 7 8 8 7 7 7 8 9 10 10 10 11 12 13 13 14 17 19 18 18 19 20
23 21 19 18 16 15 14 12 10 8 8 9 9 10 9 9 8 7 7 7 7 6 5 4 4 5 5 5 6 6 6 7 7 7 7 7 7 7 7 7 7 8 8 7 7 7 7 7 7 8 7 6 6 6 5 5 7 11 13 13 14 16 16
22 20 18 16 14 13 11 9 8 7 8 8 7 7 8 7 7 7 7 7 7 6 6 5 5 4 4 4 5 5 6 7 7 8 8 8 8 9 9 9 9 9 8 8 7 7 7 7 7 7 6 4 4 3 3 3 4 6 7 7 8 11 13
21 19 18 15 13 12 9 8 7 7 8 9 8 8 7 7 7 7 7 8 8 7 6 6 5 4 4 4 4 4 5 6 7 7 8 9 9 9 9 10 10 10 9 9 9 8 8 8 8 8 7 6 5 5 5 6 7 7 7 6 6 7 9
21 18 17 15 13 12 10 8 7 7 8 8 8 8 8 7 8 8 8 8 8 8 8 7 6 6 5 5 5 5 5 6 6 7 7 8 9 9 9 10 10 10 10 10 9 9 9 9 9 9 9 8 8 8 8 8 9 9 9 9 9 10 11
20 18 17 15 13 11 8 6 6 6 7 7 7 8 8 8 8 8 8 8 8 8 9 9 8 7 7 7 7 7 7 7 7 7 7 8 8 9 9 10 10 10 10 10 10 10 11 11 11 11 11 11 11 11 11 11 11 11 11 12 13 14 15
20 18 16 13 11 8 6 5 5 6 6 6 6 6 7 8 8 8 8 8 8 8 9 10 10 10 9 9 9 9 9 9 10 10 9 9 9 9 9 10 10 11 11 12 12 13 13 13 13 13 14 14 14 14 14 13 13 13 14 15 17 18 18
19 17 14 12 9 7 6 5 5 5 6 6 5 4 5 5 6 7 8 8 8 9 10 10 11 12 12 12 11 11 11 12 12 13 12 12 12 12 11 11 12 11 11 12 14 15 15 15 15 16 17 17 17 17 17 16 15 15 17 18 19 20 21
16 15 13 11 8 7 6 7 7 6 6 5 5 4 3 3 3 5 7 8 10 11 11 12 13 13 14 14 14 14 13 14 14 15 15 15 15 15 14 14 14 14 13 12 13 15 16 17 17 17 18 19 20 20 21 21 20 19 20 21 22 23 24
16 15 13 11 9 8 8 8 8 7 6 5 4 4 3 4 5 6 7 9 11 12 12 13 14 14 15 15 15 15 15 15 15 15 16 16 17 17 16 15 15 15 15 15 14 14 15 16 17 17 18 19 20 20 22 23 24 23 24 24 24 25 27
15 14 12 11 10 10 10 9 8 6 5 5 5 5 6 8 9 10 10 9 9 10 11 12 13 14 14 15 15 15 15 15 15 16 16 17 17 18 18 18 16 16 16 16 16 15 15 15 16 16 17 18 19 19 20 22 23 24 24 24 25 25 26
14 13 11 10 10 10 11 9 7 6 6 6 7 8 10 11 12 13 13 12 11 11 11 11 12 13 13 14 14 14 15 15 15 16 16 17 17 17 18 19 19 18 17 17 17 17 17 17 17 17 17 18 19 20 21 22 22 23 23 23 23 23 24

ECMWFFLT1_850_spd_093.txt.gz
Wind_Speed
24 27 30 32 33 32 31 32 32 32 31 30 29 27 27 27 25 24 22 21 20 20 19 19 19 17 17 17 17 16 16 15 15 15 16 15 13 10 9 8 8 8 7 6 4 3 2 2 2 2 3 4 5 5 5 5 6 6 6 5 5 4 4
22 24 28 31 32 32 32 31 31 32 31 30 30 28 28 28 26 25 23 22 20 20 19 19 19 18 18 18 17 17 17 16 16 16 16 17 15 12 10 9 8 7 7 7 6 5 4 4 3 3 3 4 5 5 6 6 6 6 6 6 5 5 5
21 21 25 29 31 31 32 31 30 31 31 31 30 29 28 27 26 25 23 22 21 21 20 19 18 18 18 18 18 18 18 17 17 17 16 16 16 14 12 10 9 8 8 8 7 6 5 5 4 3 3 4 4 5 6 6 6 6 6 6 6 6 5
24 23 25 26 27 29 29 30 29 29 30 31 30 28 27 27 26 26 25 23 22 21 21 20 19 18 18 19 19 19 18 18 17 17 17 16 15 15 13 12 11 9 8 8 8 7 6 5 5 4 4 4 5 5 6 6 6 6 6 6 6 6 6
26 25 24 23 23 25 26 27 27 28 29 30 31 29 28 28 28 28 27 25 23 22 21 20 19 19 18 18 19 19 18 18 18 18 17 16 16 16 15 13 12 11 10 9 9 9 8 7 7 5 5 5 5 5 5 6 6 6 6 6 6 6 6
28 25 25 23 21 21 21 24 25 26 28 29 31 31 30 30 30 29 28 26 24 22 21 20 20 19 18 18 18 18 18 18 18 18 18 17 17 16 16 14 13 13 12 11 10 10 9 9 8 7 6 6 6 6 6 6 6 6 6 6 6 6 6
29 27 28 28 24 21 19 20 22 22 25 27 28 29 30 30 30 29 28 27 25 24 22 21 20 19 18 18 18 17 17 18 18 18 18 17 17 17 16 15 14 14 13 12 12 11 11 10 9 8 8 7 8 8 7 7 6 6 7 7 7 6 6
28 28 29 30 29 27 23 22 22 21 21 23 24 25 26 27 28 28 27 27 27 26 24 22 20 18 17 17 17 17 17 17 17 18 18 18 18 17 16 16 15 15 14 14 13 12 12 10 9 9 9 9 9 8 8 7 7 7 7 7 7 6 7
24 26 27 27 28 28 27 26 25 24 22 21 22 23 24 25 25 25 26 27 28 27 25 22 20 19 19 18 17 17 17 17 17 17 17 18 19 18 17 17 16 16 15 15 14 14 12 11 10 9 9 9 10 9 9 8 7 7 7 6 6 6 7
19 21 22 24 25 25 26 26 26 26 26 23 22 23 24 26 26 26 26 27 29 28 26 23 22 21 20 19 19 20 19 19 18 17 16 17 18 18 18 18 18 17 16 16 15 15 13 12 11 10 10 10 10 11 10 9 9 8 7 6 6 6 6
15 16 17 19 21 22 23 25 25 26 27 25 22 22 24 26 27 27 26 27 29 29 28 26 24 24 23 21 21 21 21 21 20 20 18 17 17 17 18 18 19 18 17 17 17 15 14 13 13 12 11 10 11 11 12 11 10 10 9 8 7 6 6
14 15 16 17 19 20 21 23 24 24 25 26 25 25 25 26 27 28 27 28 29 29 28 27 26 25 24 23 22 22 21 20 20 21 20 19 18 17 18 18 18 18 18 18 17 16 15 14 14 14 13 13 12 13 13 12 12 12 11 9 8 8 7
14 16 17 18 18 19 19 18 19 19 20 22 24 25 25 26 27 28 28 28 29 28 28 28 27 26 26 24 23 22 22 20 19 20 21 20 19 18 18 19 19 19 19 19 18 17 17 16 16 15 15 14 14 14 14 13 13 13 12 11 10 9 8
15 16 16 16 17 17 15 14 15 18 19 20 22 23 24 24 24 25 26 27 27 26 26 26 26 26 27 26 24 23 24 23 21 20 21 21 19 18 18 19 19 19 19 19 18 17 17 16 15 15 15 15 14 13 14 14 14 13 12 12 11 11 10
14 15 15 15 14 13 12 12 14 16 16 17 19 21 23 23 22 22 23 23 23 23 23 23 23 24 25 24 23 22 23 25 23 22 22 22 21 19 18 18 19 19 20 20 19 18 17 16 15 14 14 15 14 14 13 14 14 14 13 13 12 12 12
13 13 15 14 13 11 12 12 11 11 12 13 14 15 17 19 19 19 19 19 19 19 21 22 22 22 23 23 23 22 23 24 24 24 24 24 22 19 18 19 20 20 20 20 20 19 17 17 15 15 14 15 15 15 14 14 14 14 14 14 14 14 14
15 15 14 14 14 14 13 12 10 9 9 11 12 12 13 14 15 15 16 17 18 18 19 20 20 21 22 21 21 21 21 22 23 25 26 25 24 21 20 20 21 21 21 20 19 18 17 16 16 15 15 15 16 16 16 16 16 15 14 15 15 16 16
16 16 15 15 15 13 11 9 9 8 8 8 9 10 11 12 11 12 13 15 16 16 17 18 19 20 20 19 19 19 20 22 23 25 24 24 25 23 21 21 22 22 21 20 19 18 17 17 17 16 16 16 16 17 17 18 17 16 15 15 15 16 17
16 16 16 16 15 13 10 9 9 8 8 7 6 6 7 7 7 7 8 10 12 13 15 17 18 19 20 19 18 18 19 19 21 22 22 21 23 23 22 22 22 22 21 20 20 19 18 18 17 17 16 16 17 18 19 19 18 17 17 16 16 16 17
16 17 17 16 15 13 11 10 10 10 10 9 8 8 7 5 5 8 8 8 9 9 11 12 14 15 17 16 15 14 14 13 13 15 17 19 22 22 23 23 23 22 21 20 20 19 19 18 18 17 16 16 17 18 20 20 19 19 19 17 16 17 17
16 17 17 18 16 14 12 10 9 10 11 11 10 9 7 6 7 10 11 10 9 10 11 13 14 15 15 15 15 15 16 16 16 17 18 19 19 19 20 20 20 19 18 18 18 17 17 17 18 18 17 17 17 17 19 21 20 20 19 17 16 16 17
15 15 16 17 16 14 12 10 9 9 9 9 9 8 8 8 10 12 13 13 13 13 15 16 17 17 16 15 14 14 14 13 14 16 17 16 15 15 15 14 14 14 14 14 14 13 13 14 16 16 16 16 17 17 18 19 19 19 19 18 17 17 17
15 14 14 15 14 13 12 10 9 10 9 9 8 7 8 9 10 13 15 16 16 16 16 15 14 13 12 11 10 9 7 6 6 7 8 8 9 11 11 10 10 10 10 10 10 10 10 11 12 13 13 14 15 15 15 16 17 18 19 19 19 19 18
13 13 13 14 14 13 13 12 11 11 11 11 10 10 9 8 8 9 11 13 13 13 13 14 13 11 10 9 8 6 4 4 4 3 4 5 6 7 8 8 8 8 8 8 9 9 9 9 10 11 12 13 14 14 14 16 17 19 20 20 20 20 20
13 13 13 13 14 14 15 15 14 13 12 13 13 13 11 8 7 7 8 9 9 8 7 9 11 10 8 7 7 6 6 5 5 4 4 5 5 5 5 5 6 6 6 7 7 8 9 9 10 10 12 14 15 14 15 17 18 19 20 20 21 21 21
14 14 14 13 14 15 16 16 15 14 13 14 14 13 10 7 6 7 8 8 7 7 6 5 6 7 7 5 4 3 4 5 5 5 4 4 4 4 4 4 4 4 5 5 5 6 7 7 7 8 10 11 12 12 13 14 15 16 16 17 19 19 20
14 14 13 14 15 16 15 15 14 13 13 13 13 11 8 5 4 5 6 5 4 4 4 5 5 5 5 5 4 3 2 2 3 3 2 3 3 2 2 2 2 2 2 2 3 3 4 4 4 5 6 7 7 8 9 9 10 9 10 10 12 15 17
15 14 13 13 14 15 15 14 13 12 11 11 10 8 5 3 2 2 3 3 2 1 1 2 2 3 3 3 1 2 4 2 0 0 1 1 1 1 1 1 2 2 2 2 2 2 2 2 4 4 5 5 5 5 5 6 5 5 6 6 8 9 11
16 15 14 14 13 13 12 13 13 12 10 10 8 6 3 1 1 2 3 4 2 1 1 0 2 2 2 1 2 3 4 3 2 2 2 2 2 2 2 3 3 3 3 3 2 2 2 3 5 6 5 5 4 4 4 4 3 4 6 7 7 7 7
17 16 16 15 14 13 11 10 10 9 8 8 6 4 3 3 3 3 3 3 2 2 2 2 2 2 1 0 1 2 3 3 3 3 3 3 3 3 4 4 5 5 5 5 4 4 5 5 5 6 6 5 5 4 4 4 4 5 6 8 8 8 7
19 19 18 16 15 13 10 8 7 6 6 6 5 4 4 4 4 4 3 3 2 2 3 2 2 2 1 1 1 1 1 2 2 3 3 3 4 4 5 5 6 7 7 7 7 7 6 7 7 7 7 7 7 6 6 6 7 7 8 10 11 11 10
22 21 19 18 15 13 10 8 5 4 4 3 3 3 3 4 4 3 3 2 3 3 3 4 4 4 3 3 3 3 2 2 2 2 3 3 4 4 5 5 6 7 7 8 9 9 9 9 9 9 9 9 9 9 9 9 10 11 12 13 14 14 14
23 22 20 18 16 14 12 9 6 4 3 2 2 3 4 5 4 3 2 2 2 3 3 4 5 5 6 6 6 6 6 6 5 5 5 5 5 5 5 6 6 6 6 7 8 9 10 10 10 10 11 11 11 11 11 12 13 14 15 16 16 17 17
25 24 21 19 17 14 11 8 5 3 2 2 3 3 4 5 5 5 4 4 4 4 5 5 6 7 8 8 9 9 9 9 8 8 7 7 7 7 7 7 7 7 7 7 8 8 9 10 10 10 10 11 12 12 12 13 14 16 16 17 18 19 19
26 25 23 20 16 12 8 6 4 3 4 4 3 4 5 6 6 6 6 6 6 7 7 8 8 9 10 10 10 10 10 10 10 9 9 8 8 8 8 8 8 8 8 8 9 9 9 10 10 10 10 10 11 11 11 12 13 14 15 16 17 18 19
26 25 22 19 16 12 9 6 5 6 6 4 3 4 5 5 5 5 6 6 7 8 8 9 9 9 10 10 10 11 11 10 10 10 9 9 8 7 7 7 7 8 8 8 9 9 10 10 11 11 11 11 11 11 12 12 13 13 14 15 16 16 17
27 26 24 21 18 14 11 8 8 8 7 4 4 5 5 4 5 5 6 6 6 7 8 9 9 9 9 9 10 10 10 10 9 9 9 8 8 7 6 6 6 7 7 8 9 9 9 10 11 11 11 11 11 12 12 13 13 14 15 15 16 16 17
27 26 23 20 17 15 12 10 10 9 7 6 6 6 5 5 5 5 4 4 4 5 6 7 8 8 9 9 9 9 9 9 9 9 8 8 8 7 6 5 5 6 6 8 8 9 9 10 10 11 11 11 11 12 13 13 14 14 14 15 15 16 16

ECMWFFLT1_850_spd_096.txt.gz
Wind_Speed
22 22 21 22 23 23 23 22 22 21 20 19 19 19 18 18 18 18 18 18 19 19 19 18 18 16 15 15 15 15 15 14 14 14 13 12 10 9 8 7 6 6 6 5 4 5 5 4 4 4 4 3 3 4 4 4 5 4 4 5 5 5 4
23 22 21 21 22 23 23 23 22 21 20 20 20 19 18 19 20 21 21 20 18 18 18 18 18 17 16 15 15 16 16 15 15 15 14 13 13 12 9 8 7 7 7 6 6 6 5 5 4 4 3 3 3 4 4 4 5 5 4 5 5 4 4
26 22 21 21 21 22 24 23 22 22 21 20 20 19 19 20 21 22 22 21 20 19 18 17 18 18 17 16 15 16 16 16 15 15 14 12 12 11 9 9 9 7 7 7 7 6 5 5 5 4 3 3 4 4 3 4 4 4 5 5 4 4 5
30 25 21 20 19 21 23 22 22 21 20 20 19 18 19 20 21 22 22 21 21 20 19 18 18 17 17 16 15 15 16 16 15 14 13 12 12 11 10 10 9 8 8 7 7 7 6 6 5 5 4 4 4 4 4 4 5 5 5 4 4 5 5
26 24 21 20 20 20 21 21 21 21 20 20 20 19 19 21 21 23 23 22 22 21 20 18 17 17 18 17 16 15 16 16 16 15 14 13 12 12 11 10 9 9 9 7 7 8 8 7 5 5 5 4 4 4 4 4 4 5 4 4 4 4 3
23 22 21 20 20 21 21 21 20 19 20 22 22 20 20 21 22 22 23 23 22 21 21 19 18 18 18 17 16 16 16 16 15 15 14 14 14 13 11 10 9 9 9 8 8 8 8 7 7 7 6 5 5 5 5 5 4 5 5 4 4 3 4
23 23 22 20 18 18 19 20 18 18 21 23 22 21 21 23 23 22 22 23 22 21 21 20 19 19 18 17 16 16 16 16 14 14 14 14 14 14 12 11 10 10 9 9 9 8 8 8 8 8 7 7 7 7 6 7 6 6 6 5 5 5 5
23 24 23 22 20 17 16 18 17 15 18 21 20 21 24 24 23 22 23 23 21 21 21 21 20 20 18 17 17 16 15 15 14 14 14 13 14 14 13 12 11 11 10 9 9 9 9 9 8 9 9 8 8 9 8 8 7 6 6 6 6 5 5
22 24 24 23 22 18 17 19 19 16 15 15 16 19 22 22 21 21 22 22 21 20 20 21 21 20 19 18 17 16 15 15 15 15 14 13 13 13 13 13 12 12 12 11 10 10 10 10 9 10 11 10 10 11 10 9 8 7 7 7 7 6 5
19 22 24 23 21 19 19 21 22 21 17 14 15 17 18 18 19 19 20 20 20 19 20 21 21 21 20 19 18 17 16 15 15 15 14 14 14 14 13 13 12 12 12 12 11 10 11 11 10 11 12 10 10 11 11 10 9 8 8 7 7 7 6
17 18 21 22 21 21 23 23 23 24 23 20 18 17 14 13 14 16 18 19 18 18 19 20 21 21 21 20 20 19 18 16 15 15 15 15 15 15 14 13 13 13 13 12 12 12 12 12 12 13 13 11 10 10 11 11 11 10 9 8 8 8 7
16 15 16 18 18 19 21 22 21 22 22 22 22 20 18 16 15 16 17 17 17 17 18 18 19 20 21 21 20 19 18 17 16 16 16 16 16 16 16 15 14 13 13 13 13 13 13 12 12 12 13 12 11 10 11 12 12 13 12 10 9 9 9
14 14 15 16 15 15 16 17 19 19 20 21 22 21 22 23 22 20 18 18 19 20 20 19 18 19 21 21 21 21 20 19 18 17 18 19 18 18 18 17 16 14 13 13 13 14 14 14 13 13 13 13 13 12 12 13 13 14 15 13 11 10 11
12 13 14 14 13 13 14 15 17 19 20 21 21 21 22 23 23 23 22 22 22 22 23 22 20 21 22 22 23 24 24 23 22 21 21 21 20 19 19 19 18 17 16 15 14 14 14 14 14 14 13 13 13 13 12 13 13 14 15 15 13 12 12
12 13 13 14 14 13 13 15 17 17 17 18 19 20 21 22 23 23 23 24 24 23 22 23 23 24 25 26 26 27 26 25 24 24 23 22 21 21 20 20 20 20 19 18 16 14 14 14 14 14 13 13 13 13 12 12 12 13 14 14 13 12 11
12 13 13 14 15 14 11 13 15 14 14 15 15 15 17 19 20 21 21 21 21 20 19 20 20 22 24 26 26 27 27 26 26 26 25 24 24 23 23 23 22 21 21 20 18 16 16 16 16 14 13 13 13 13 13 12 12 14 16 15 14 13 12
12 12 11 11 13 11 9 8 9 9 10 10 9 12 16 17 17 18 19 20 20 19 19 19 19 21 23 24 25 26 26 27 27 28 27 26 26 25 25 25 24 23 23 22 21 19 18 18 17 16 14 13 13 13 12 13 15 18 17 15 15 16 16
12 12 10 9 9 10 9 7 6 6 5 6 7 10 12 12 12 14 17 19 19 19 19 20 20 21 21 22 22 22 24 25 26 27 26 26 27 26 26 25 25 24 23 23 22 20 20 18 17 18 16 14 14 14 12 15 19 19 16 14 15 16 17
13 13 12 11 10 9 9 8 7 6 6 6 8 9 9 9 10 10 13 15 16 17 18 19 20 20 19 19 19 19 19 21 22 22 23 24 24 24 25 25 25 25 23 23 23 21 21 19 18 18 17 14 14 13 12 17 21 18 16 16 16 15 16
11 13 12 11 9 7 7 7 7 7 7 6 5 7 8 8 8 9 11 13 14 16 17 17 18 18 19 19 19 18 18 18 18 17 19 21 22 22 22 23 25 25 22 22 22 21 21 20 18 18 16 15 15 13 14 19 21 17 17 17 16 16 16
10 11 11 10 9 8 7 7 7 6 5 5 6 7 7 7 8 9 11 12 13 14 15 16 18 18 18 18 18 18 18 17 17 18 20 22 21 20 20 20 23 24 23 22 20 19 19 18 18 19 17 15 14 13 16 21 21 18 17 17 15 16 15
9 11 10 10 9 9 8 7 6 5 4 5 6 6 7 7 9 12 13 14 13 13 14 15 16 16 17 16 16 15 14 14 15 16 18 18 18 19 19 20 22 22 22 20 19 18 17 16 16 17 16 13 12 12 16 20 19 18 17 16 16 15 14
9 10 10 10 9 9 9 8 6 4 5 7 8 7 6 5 7 10 13 14 13 14 14 14 13 13 13 13 11 9 8 8 9 10 11 13 16 18 20 22 22 21 19 18 18 19 18 15 15 15 15 13 12 13 17 20 18 16 16 16 16 15 14
10 10 11 10 10 10 9 8 6 4 4 8 11 11 10 8 6 8 11 12 12 12 12 14 14 13 12 12 11 10 7 6 6 6 7 11 14 15 17 20 22 21 20 18 17 16 14 12 13 13 13 13 13 15 18 19 17 15 14 14 15 14 15
11 11 11 10 10 11 11 10 9 8 9 11 13 13 11 9 8 8 10 11 10 9 9 10 12 11 10 10 11 11 10 8 7 7 8 9 9 9 9 11 14 16 17 16 14 13 11 9 8 9 10 12 14 16 17 16 15 15 14 14 14 14 14
13 11 11 10 10 12 13 12 12 12 13 14 14 12 11 9 8 8 10 11 10 9 8 9 10 10 9 10 10 9 8 7 6 7 7 7 6 4 4 4 5 8 11 10 8 8 10 9 8 9 10 10 12 14 14 13 12 13 14 14 15 14 14
12 13 12 12 13 13 12 12 12 12 13 14 13 11 9 7 7 8 10 11 10 10 10 10 11 11 11 11 10 9 8 6 6 7 7 6 5 5 4 5 5 5 7 7 5 5 8 10 9 7 7 6 6 7 10 11 11 12 12 12 12 13 14
12 12 13 13 14 14 11 10 10 11 11 12 11 8 6 5 5 7 8 7 8 9 9 9 10 10 9 8 6 7 8 6 5 7 6 5 5 6 5 5 5 4 5 5 4 5 7 8 8 5 4 4 3 4 6 7 8 9 9 9 8 8 9
11 11 12 13 14 14 12 11 10 10 10 9 7 6 5 4 4 6 6 7 8 9 8 8 8 8 6 4 3 3 4 4 4 3 3 3 2 3 4 5 5 4 5 6 6 6 7 7 7 5 4 3 2 3 4 4 5 5 5 5 5 5 5
11 11 12 12 13 13 12 10 10 9 8 7 5 4 3 3 4 5 5 6 8 8 8 8 7 7 6 4 2 1 2 3 3 1 1 1 1 1 1 2 3 4 5 5 6 6 6 6 7 6 5 4 3 4 4 3 4 4 5 5 5 5 5
11 12 13 13 13 13 12 10 8 6 4 3 2 1 1 3 4 4 4 5 7 7 7 7 7 6 5 4 3 3 2 2 2 2 2 2 3 3 2 2 2 1 2 4 5 5 5 5 5 5 4 5 5 6 5 5 6 7 8 8 8 8 9
13 13 14 13 12 11 11 9 7 4 3 2 1 0 1 3 4 3 4 5 5 6 6 6 5 5 4 4 3 3 2 1 1 0 1 1 2 3 4 4 4 4 3 4 4 5 5 5 5 4 4 6 7 7 7 7 8 9 11 12 12 12 12
15 15 14 13 13 11 11 9 6 3 1 1 1 1 2 3 3 4 4 5 5 5 5 5 4 4 3 3 3 2 1 1 1 1 1 1 1 2 3 4 4 4 4 4 4 5 6 6 6 6 7 8 9 10 9 8 10 13 14 14 14 15 15
17 16 15 15 15 13 11 9 5 2 1 1 1 2 2 2 2 3 3 4 3 3 4 4 3 3 3 4 3 2 2 2 2 1 2 3 3 4 5 5 4 4 6 7 6 6 6 7 8 10 11 10 11 11 8 6 12 17 17 16 16 17 17
19 18 17 16 15 13 10 8 5 2 0 1 2 2 2 2 3 3 3 2 2 3 4 4 3 3 3 2 1 1 1 2 2 2 2 3 4 5 7 7 7 8 9 10 9 8 8 9 10 11 11 10 12 12 10 10 15 18 17 16 17 17 17
19 20 19 18 16 14 12 10 7 3 1 1 2 3 3 3 3 3 2 3 4 5 5 5 4 4 3 1 0 2 2 1 3 4 3 2 3 5 6 7 7 9 10 10 9 10 10 11 11 11 11 11 13 13 13 15 17 16 15 16 17 16 16
20 21 21 20 19 17 15 12 9 6 3 1 2 3 2 2 2 2 2 4 6 6 6 5 4 3 3 2 3 4 3 3 4 5 4 4 4 4 4 5 6 8 9 9 9 10 10 11 11 11 11 12 13 14 15 16 16 15 15 16 16 16 16
20 19 21 22 21 19 17 13 10 8 7 4 3 2 1 1 3 3 3 4 5 4 5 5 3 2 1 2 5 6 4 3 4 4 3 4 4 3 4 4 4 5 7 8 9 9 10 10 10 10 10 11 12 14 15 15 14 15 15 15 15 15 15

ECMWFFLT1_850_spd_102.txt.gz
Wind_Speed
25 27 28 28 28 29 29 29 28 27 27 26 24 24 23 23 24 24 23 24 23 22 21 18 17 17 17 16 15 13 13 13 13 12 11 10 9 8 9 8 8 8 7 6 8 9 6 5 7 6 5 5 5 5 7 6 6 6 6 8 9 7 7
25 27 28 28 29 29 29 29 28 28 28 27 25 25 24 24 24 24 23 24 23 23 21 19 18 17 16 16 15 14 13 12 11 11 11 11 10 9 9 9 9 9 8 8 8 8 6 6 7 7 5 5 5 4 5 5 6 6 5 6 7 6 6
26 27 29 27 29 30 30 30 28 28 29 27 26 25 25 25 25 25 24 23 23 23 22 20 19 18 17 16 16 15 14 13 12 12 12 13 13 12 11 10 9 8 9 9 7 7 8 8 8 8 6 6 6 4 4 5 6 7 6 5 6 5 4
27 26 28 28 29 29 29 30 29 28 29 28 27 26 25 26 26 25 23 23 23 23 23 22 20 19 18 17 17 16 15 15 14 13 12 13 14 13 13 11 10 9 10 9 7 6 7 7 8 8 6 7 8 6 5 6 6 7 7 6 6 5 4
26 23 22 24 28 28 28 30 30 29 29 28 27 26 26 25 26 25 23 23 23 22 23 22 20 19 18 18 17 16 16 16 16 14 12 12 11 12 13 12 10 10 9 8 8 8 7 7 7 6 6 7 7 7 6 6 6 7 6 6 6 6 5
25 24 21 22 27 30 29 29 29 29 29 28 27 26 27 26 24 24 22 21 22 22 21 21 20 19 18 17 17 16 16 17 17 16 14 12 11 11 12 10 9 9 8 8 8 8 8 8 7 6 7 6 6 7 6 6 5 5 5 6 6 7 6
25 25 26 26 29 30 30 29 29 29 28 28 28 26 27 26 23 23 22 21 21 21 20 20 19 19 18 16 16 16 15 15 16 17 16 15 13 12 11 10 10 10 10 10 9 9 9 9 8 8 8 6 7 8 6 6 6 7 6 5 6 7 7
24 26 28 30 27 25 27 25 24 28 27 26 26 25 26 26 24 23 21 21 21 19 19 20 19 18 18 16 15 15 15 15 15 15 15 15 14 12 11 11 12 12 11 11 11 10 10 10 9 10 10 8 8 9 7 7 8 8 8 7 7 7 7
24 23 19 20 18 19 24 20 19 26 26 21 23 25 25 22 22 25 23 21 22 20 19 19 19 18 18 18 16 16 16 15 15 15 14 14 14 13 12 12 12 12 12 11 11 11 11 10 9 10 11 9 9 10 9 8 9 9 9 9 9 7 7
25 19 13 14 14 18 22 17 16 23 24 22 22 24 24 19 18 23 24 22 22 21 20 19 19 19 18 18 18 17 17 16 15 15 15 14 14 13 13 13 12 12 12 11 11 11 12 12 11 11 12 12 12 12 12 11 11 10 9 10 10 9 8
25 17 15 17 16 18 21 18 18 22 24 25 23 21 21 18 16 19 21 21 21 20 20 19 19 20 19 19 18 16 16 16 15 15 14 14 15 14 13 13 13 13 13 13 12 12 13 13 12 12 14 15 14 13 13 13 13 11 10 10 10 10 9
23 18 18 19 20 21 21 20 21 21 21 25 25 22 19 19 19 19 19 19 19 16 17 19 19 20 20 20 19 17 16 15 15 15 15 15 16 16 14 13 13 14 14 14 13 13 13 13 13 13 15 16 15 14 14 14 14 13 12 11 11 11 10
26 24 21 20 23 24 22 21 22 20 19 22 24 22 20 21 22 22 19 18 17 15 16 19 19 19 20 19 18 18 18 17 16 15 14 15 17 17 17 15 14 14 14 14 14 14 13 13 14 15 15 16 15 14 14 14 14 14 13 12 12 12 12
27 27 25 23 25 26 23 22 22 21 21 22 21 19 19 20 21 20 17 16 17 17 18 18 19 18 19 18 17 18 18 17 16 16 16 16 17 18 19 19 18 15 13 13 14 14 14 14 14 15 15 16 15 14 14 14 15 14 14 14 13 12 13
25 25 25 26 27 27 26 26 26 24 21 19 20 20 18 18 17 16 15 14 15 17 16 16 17 17 17 18 18 19 18 18 17 17 18 17 17 18 18 19 21 20 16 14 14 14 14 14 15 15 15 16 16 16 14 14 16 15 14 14 14 13 12
21 23 23 23 24 25 25 24 23 23 18 16 20 20 17 16 17 17 18 16 14 14 13 14 15 16 17 16 16 17 18 19 19 19 20 20 20 20 18 18 19 21 21 20 18 17 16 15 16 16 15 15 16 17 15 14 15 16 14 13 14 13 11
14 16 18 19 20 19 19 17 15 15 13 12 15 17 16 16 18 19 20 20 17 16 17 16 14 14 16 17 16 16 17 18 20 21 22 22 22 22 21 20 19 20 21 22 21 21 20 19 19 18 15 14 14 16 17 17 16 16 15 14 15 15 14
15 14 14 15 16 16 15 14 12 11 11 9 9 11 11 12 14 15 15 16 17 16 17 17 16 15 15 16 15 14 15 15 17 19 21 22 23 23 23 22 22 21 22 22 22 22 22 22 21 19 17 15 15 15 14 16 17 17 17 17 17 18 17
15 14 14 15 15 15 15 14 13 12 11 10 9 9 11 11 12 12 11 11 12 13 15 17 19 19 19 19 16 15 15 15 16 17 20 21 22 22 23 23 23 23 23 23 23 23 23 23 22 22 20 20 21 19 15 14 16 17 18 18 19 19 18
12 13 14 16 16 15 15 14 12 12 11 10 7 7 11 13 12 11 11 10 10 11 12 13 15 17 18 20 18 17 17 17 16 16 17 20 23 23 24 24 24 25 25 26 26 26 26 25 24 24 23 22 23 24 20 16 15 16 17 19 19 19 18
14 16 15 15 15 14 13 11 10 9 8 8 6 5 7 9 9 8 9 9 9 10 10 11 12 13 14 15 16 16 16 17 17 15 14 15 18 21 23 25 26 27 27 27 28 28 29 29 28 28 26 24 23 24 23 20 18 18 17 18 20 20 19
17 17 16 15 15 15 14 11 8 6 7 7 5 4 4 5 4 5 5 6 7 8 9 10 11 12 13 14 14 15 17 18 18 17 16 16 17 18 20 22 24 25 26 26 26 27 29 30 30 30 29 28 26 24 24 23 22 20 19 18 20 20 20
20 19 17 16 16 16 16 14 12 10 9 9 8 7 7 7 4 3 4 4 4 4 5 5 6 8 9 12 14 14 16 16 16 17 18 19 19 19 20 21 22 22 22 23 23 24 26 27 28 30 29 29 28 28 27 24 21 20 19 19 21 20 19
18 18 17 15 14 13 14 15 15 13 12 13 13 12 12 11 10 8 6 4 3 2 1 1 2 3 5 9 10 10 11 11 13 14 15 17 18 17 16 18 20 20 20 20 21 23 24 24 26 28 28 28 29 29 28 26 23 22 21 21 21 20 19
17 17 17 15 13 13 14 16 16 14 12 11 11 12 12 12 11 10 10 10 8 7 7 6 5 5 6 7 7 7 7 7 8 9 9 9 10 9 8 9 13 16 17 19 21 22 22 23 27 29 28 29 30 29 28 27 25 24 22 21 21 20 18
16 17 16 15 14 14 15 16 16 14 12 9 9 10 10 10 9 10 11 10 9 9 9 8 7 6 6 6 6 7 8 8 8 6 4 2 2 1 1 1 3 7 9 13 17 18 18 19 22 26 26 26 26 27 27 26 24 22 20 19 18 16 16
13 14 15 17 17 16 15 15 14 14 14 13 12 11 10 10 11 11 12 12 10 10 9 8 7 7 6 5 5 5 6 6 6 6 5 4 5 6 7 7 4 2 4 6 8 10 8 6 10 16 18 19 19 18 19 20 19 17 16 15 15 15 15
13 13 14 16 17 15 13 14 13 13 14 13 12 10 9 9 10 11 12 13 13 12 11 9 8 8 7 6 5 4 3 3 4 7 8 9 11 10 8 8 6 3 2 2 3 5 5 5 7 8 7 8 7 6 9 12 13 14 13 12 13 13 12
10 11 13 13 14 13 13 14 13 13 12 11 10 10 10 10 10 10 11 11 11 11 11 10 10 10 9 8 8 8 7 6 6 6 6 7 10 10 9 8 7 4 4 4 3 3 3 4 6 7 6 4 3 2 3 6 8 10 10 9 9 8 7
12 11 12 12 12 12 12 12 12 12 11 8 8 10 10 10 10 10 10 10 10 10 11 10 10 9 9 8 9 9 9 8 7 7 6 6 7 7 6 6 6 5 6 7 6 7 8 8 7 6 5 4 4 4 3 3 5 5 6 6 8 8 7
14 13 12 12 13 13 12 11 11 11 9 8 8 10 10 10 10 10 10 10 9 9 10 10 10 10 9 8 9 9 10 9 8 7 7 8 8 6 4 4 3 5 7 8 8 9 10 8 6 6 5 4 3 3 3 1 2 4 6 7 7 7 6
13 14 14 13 12 11 10 10 10 10 9 9 9 9 10 10 9 10 11 10 9 9 9 9 9 9 9 9 8 9 8 6 7 9 10 10 11 9 6 5 4 2 5 7 7 8 10 8 5 5 7 5 2 0 0 1 2 3 5 6 3 2 3
12 13 14 13 11 10 9 10 10 10 10 10 9 7 8 8 9 10 11 10 8 8 9 10 9 9 10 10 8 8 8 6 7 10 9 7 9 8 6 7 7 2 3 6 5 5 6 6 4 4 6 5 1 4 5 6 7 7 6 4 4 4 3
10 11 12 13 12 10 10 11 11 10 10 10 8 6 6 7 8 10 10 7 6 7 9 9 8 7 8 8 6 6 7 7 7 8 5 3 2 2 2 5 5 1 3 3 4 5 5 6 5 5 7 6 3 2 7 8 9 10 11 10 8 7 6
9 10 11 12 11 10 10 11 10 9 8 7 6 6 6 6 6 8 8 7 6 7 8 9 9 8 6 5 4 5 6 4 1 3 5 4 2 4 5 4 4 5 4 3 2 5 7 8 8 7 9 9 6 5 9 12 11 12 13 12 10 10 10
8 8 9 10 11 10 11 11 9 7 6 6 5 6 6 6 6 6 6 5 6 7 6 8 10 8 5 6 6 5 5 3 3 4 5 5 3 5 7 8 10 11 10 8 7 7 8 10 10 10 10 10 8 8 12 15 14 14 14 14 13 12 10
7 8 9 10 11 11 11 11 10 8 6 5 4 4 4 5 7 6 3 2 4 5 5 7 9 6 2 5 5 4 4 4 3 2 3 5 6 6 7 6 6 8 9 9 9 9 9 11 12 12 12 12 11 13 15 16 15 14 14 13 12 11 9
7 7 9 9 10 11 11 11 10 8 6 5 4 2 3 6 7 7 4 1 2 3 4 7 9 5 2 2 2 2 3 2 3 1 1 3 4 4 5 3 2 5 7 7 8 8 8 9 10 11 13 14 15 15 15 15 14 13 12 11 11 10 8

ECMWFFLT1_850_spd_105.txt.gz
Wind_Speed
29 26 24 29 33 31 30 32 32 31 29 28 29 30 30 29 27 25 23 24 25 24 23 21 20 20 19 18 17 16 16 16 14 12 12 13 12 12 12 11 9 8 8 8 7 8 7 5 6 6 5 5 4 4 6 6 6 7 7 7 8 6 5
28 27 25 28 32 31 31 31 31 31 31 29 28 30 30 29 27 25 24 23 24 25 23 21 21 20 19 18 17 16 16 15 14 13 12 13 12 12 11 9 9 8 8 7 8 9 7 6 5 5 5 5 4 4 5 6 6 7 7 7 8 7 6
29 28 27 29 31 31 32 32 30 30 32 31 29 29 29 30 28 26 24 23 24 25 24 21 20 20 19 18 17 16 15 15 14 14 14 13 12 11 11 9 8 8 8 7 7 8 7 6 5 6 6 5 5 6 6 6 6 6 7 7 7 7 6
31 30 28 30 33 32 32 32 31 31 31 32 31 29 28 29 28 27 24 22 23 25 25 22 20 20 20 19 18 16 16 15 15 14 14 13 12 11 10 9 8 8 8 8 6 6 7 7 6 6 6 6 6 7 6 6 6 6 6 6 6 7 6
32 30 27 29 32 32 31 32 32 32 32 32 31 29 29 27 26 26 25 22 23 24 23 22 20 19 19 19 18 17 15 15 15 14 14 13 13 13 12 11 10 10 8 8 7 7 7 7 6 6 6 6 6 6 6 6 6 6 6 6 6 6 6
32 30 26 27 28 26 29 31 29 30 33 32 30 29 29 27 25 25 25 22 21 23 23 22 21 19 19 19 18 17 16 15 15 14 14 13 13 13 13 13 12 10 8 7 7 7 7 6 6 6 6 6 6 7 6 6 6 6 6 6 7 6 6
29 23 18 24 27 23 26 29 26 27 31 30 30 29 28 28 27 25 25 22 20 22 23 23 22 20 19 19 18 17 16 16 16 15 14 13 11 11 12 12 11 9 8 7 5 5 6 6 6 6 5 4 5 6 5 5 6 6 6 6 6 6 7
22 18 16 24 30 27 26 26 25 27 30 28 29 30 28 29 28 25 25 22 19 21 23 23 22 21 19 18 18 17 15 15 16 16 15 13 12 10 11 13 12 10 9 8 7 7 6 6 6 6 6 4 5 5 4 5 6 6 5 5 6 6 7
24 27 28 26 27 29 29 25 23 27 29 27 28 29 28 29 28 25 23 21 19 20 22 22 21 20 18 17 18 18 17 16 16 17 18 17 15 13 12 12 11 10 10 10 9 8 7 7 6 6 7 7 7 7 6 6 7 7 5 5 6 7 7
27 29 28 25 25 29 33 29 25 28 29 28 28 28 29 30 29 26 23 21 22 22 21 21 22 21 19 16 16 18 18 17 15 16 18 19 17 15 13 12 10 10 11 11 11 9 9 9 8 8 9 9 9 9 8 9 9 8 7 7 8 7 7
22 24 24 24 26 28 31 31 29 29 30 31 31 30 30 30 28 27 27 24 24 24 22 23 23 23 21 18 16 17 18 17 16 16 17 17 17 15 13 12 11 11 11 11 11 11 11 12 10 9 10 11 11 11 12 12 11 10 10 9 8 7 7
13 21 24 24 26 28 30 31 30 29 30 32 32 30 30 30 28 28 29 26 25 26 25 25 23 22 21 20 19 19 18 18 18 18 18 18 18 17 14 13 12 11 11 10 10 10 11 13 12 11 11 12 12 12 12 13 13 12 12 10 9 8 8
9 15 22 24 25 28 32 32 28 27 29 30 30 29 28 29 29 29 28 26 25 26 27 26 24 22 21 21 21 21 21 20 20 20 19 19 20 19 18 17 15 14 13 12 12 11 11 13 13 13 13 12 12 11 12 12 13 13 12 11 10 10 10
7 8 16 21 23 26 31 31 28 28 30 29 28 28 27 28 28 28 28 27 25 25 27 28 27 25 24 22 22 23 22 19 18 17 17 17 18 19 19 20 20 18 15 14 13 13 13 13 13 12 13 13 13 12 11 11 13 13 13 12 11 12 12
9 6 10 14 15 17 22 25 25 27 30 28 28 28 27 27 26 25 26 26 24 23 22 24 26 26 25 24 22 22 21 19 17 16 15 15 16 17 19 20 20 21 19 16 15 15 14 15 14 12 10 12 14 13 12 11 12 13 14 12 11 11 12
13 10 8 10 13 16 18 20 19 21 24 25 25 26 25 26 26 25 25 24 22 20 19 21 24 25 25 24 21 20 20 21 21 20 18 17 17 17 18 19 19 21 23 20 17 16 16 15 16 15 13 11 12 14 14 15 14 14 13 11 9 9 10
15 16 14 14 16 18 20 21 19 17 17 17 17 18 21 24 25 24 24 22 20 20 20 21 22 22 23 22 20 19 21 21 22 22 21 20 20 19 19 19 19 19 21 23 21 20 19 17 16 17 18 17 15 14 14 15 16 15 14 11 9 10 10
14 18 18 18 20 19 19 20 19 17 15 13 14 16 17 19 20 20 20 20 18 18 19 20 21 21 20 19 19 20 21 19 19 20 21 21 22 21 21 21 21 19 18 21 22 22 22 21 19 19 20 21 21 19 16 15 16 16 15 12 11 11 12
13 15 18 21 22 21 19 18 17 16 16 15 15 15 15 15 15 15 17 18 16 15 15 14 15 16 16 15 17 18 17 16 16 19 21 22 23 23 23 23 23 22 20 20 22 23 23 24 24 24 23 23 24 24 22 19 16 15 15 14 12 11 13
12 14 16 18 20 20 20 20 17 16 16 15 14 14 15 15 15 14 14 15 15 15 14 14 14 13 13 14 16 17 17 16 16 17 19 20 21 22 22 23 24 25 24 23 24 24 24 24 25 26 26 25 24 25 25 23 20 17 16 16 14 14 15
16 17 18 19 21 22 22 21 18 15 14 13 12 11 11 12 12 11 11 12 12 13 14 14 15 15 16 18 19 19 19 18 18 18 18 19 19 20 22 24 26 26 26 26 26 26 26 26 25 26 27 26 24 25 25 25 25 23 20 18 17 15 16
19 19 19 19 19 19 18 16 12 9 8 8 9 9 8 9 9 9 9 9 10 12 13 12 12 13 15 16 17 18 19 20 20 20 20 20 20 21 22 24 25 27 27 28 28 28 28 28 28 29 30 30 29 29 27 26 26 26 24 22 19 17 16
17 17 17 16 15 14 13 11 8 7 6 7 7 7 8 8 9 10 11 12 13 14 14 13 11 11 12 13 14 15 17 18 19 20 20 20 20 21 21 21 21 22 22 23 25 26 28 29 28 28 28 28 29 32 31 29 28 27 26 25 22 19 19
14 14 15 14 14 15 14 12 11 11 10 10 10 9 9 10 11 12 12 12 12 12 11 10 9 9 10 11 13 14 15 16 18 18 19 19 19 19 19 18 18 19 20 21 22 23 24 25 24 24 25 25 25 29 31 31 30 29 27 26 23 21 19
15 13 11 12 15 17 18 17 16 15 14 14 14 13 12 12 12 12 11 10 8 7 7 6 7 7 8 9 9 10 11 12 13 14 14 14 14 14 14 14 15 17 19 20 21 21 21 21 21 22 23 24 24 25 29 31 31 30 28 26 24 21 19
14 12 11 14 17 18 19 18 16 15 15 14 13 13 12 12 12 12 11 11 9 8 7 7 6 6 6 6 6 5 6 7 8 9 9 7 6 7 10 11 11 12 12 12 13 15 15 16 17 17 18 20 22 24 27 28 29 29 28 26 23 22 20
14 14 14 15 16 16 15 15 15 15 14 13 11 10 10 10 11 11 11 11 10 10 9 8 7 6 6 6 5 4 4 4 4 4 5 5 7 7 8 6 5 5 4 4 4 4 4 4 3 3 3 7 11 17 21 22 21 22 23 21 19 18 18
15 16 15 14 13 14 15 15 15 15 13 11 10 9 10 11 12 12 12 12 11 11 10 9 7 6 6 6 6 6 6 6 6 6 7 8 9 8 7 5 2 2 3 3 2 2 3 4 5 8 7 6 5 7 12 13 13 14 15 15 14 13 14
15 16 15 13 13 14 16 16 15 14 12 11 10 11 11 11 12 13 13 13 12 12 11 10 10 9 8 8 8 8 9 9 9 8 7 7 6 5 4 2 1 4 7 9 8 8 7 7 7 9 9 9 8 6 5 6 7 8 9 10 10 10 11
14 16 16 15 14 14 14 14 12 10 9 9 10 10 9 9 10 11 12 13 12 11 10 10 10 10 11 11 11 11 11 10 10 10 9 9 8 5 3 3 4 4 6 9 12 12 10 8 8 7 7 7 6 5 4 4 4 4 5 6 6 7 7
12 16 18 16 15 13 12 10 8 8 8 9 9 9 9 8 8 9 10 10 10 10 10 10 9 8 9 10 11 13 13 12 11 10 9 8 8 7 6 5 4 4 5 7 10 11 10 9 8 6 5 5 5 5 6 6 5 3 4 6 6 6 5
12 15 16 14 13 12 10 7 7 9 11 10 9 9 9 9 8 8 9 9 9 10 11 11 10 9 9 10 10 12 13 13 11 9 7 6 7 6 5 4 3 3 4 5 8 9 8 9 9 9 9 7 5 4 5 5 3 3 6 7 7 6 4
14 14 14 12 11 11 10 8 6 8 10 9 9 9 9 9 9 8 9 9 9 11 12 12 11 10 10 10 11 11 12 11 9 7 5 4 4 4 2 1 1 4 4 4 6 7 7 7 8 8 8 6 3 1 2 1 1 1 4 5 3 2 1
16 14 12 10 9 10 9 7 5 7 8 7 7 7 8 9 9 8 9 9 8 9 11 13 12 10 8 9 10 10 8 7 4 4 3 2 2 2 1 1 1 3 3 4 5 6 5 6 7 7 5 4 2 1 2 2 3 2 2 2 1 1 2
16 14 12 10 9 10 10 6 4 6 5 5 6 6 6 7 8 8 8 8 7 7 9 11 11 7 4 6 7 5 4 4 4 4 3 2 2 2 2 2 1 1 1 0 2 4 5 6 8 8 7 6 5 5 4 4 5 5 3 1 1 2 4
13 14 12 11 10 11 10 7 5 6 5 5 6 6 6 6 7 7 7 6 6 6 8 9 10 8 6 6 6 5 4 3 3 5 5 4 3 3 4 5 5 5 4 4 4 5 6 7 8 9 9 9 9 9 8 8 8 7 6 5 4 3 5
10 11 11 10 9 10 10 8 7 7 6 5 4 4 5 4 4 4 5 4 4 4 5 6 7 6 6 7 6 5 5 4 4 6 7 7 6 4 4 4 4 3 4 4 4 4 5 7 8 10 10 10 11 11 11 11 10 8 7 8 7 6 7
8 8 8 9 9 10 10 10 9 8 6 5 5 4 4 4 3 2 3 3 2 2 4 6 5 3 4 6 7 7 7 6 4 5 7 7 7 6 4 3 3 1 2 3 4 4 3 2 4 6 8 8 9 9 9 10 10 9 9 8 8 8 8

ECMWFFLT1_850_spd_108.txt.gz
Wind_Speed
28 27 29 32 34 38 41 42 41 39 36 33 31 30 30 30 29 29 28 26 23 23 25 25 24 23 22 21 21 20 19 19 18 17 17 16 15 14 13 13 12 10 10 10 9 9 10 9 9 11 9 8 8 7 7 9 9 8 8 8 7 7 6
30 30 28 29 33 37 41 42 41 40 37 34 33 32 32 32 31 29 28 27 23 23 24 25 25 24 23 22 21 21 20 19 17 16 16 17 16 14 13 12 12 11 10 10 10 10 10 9 9 10 8 7 7 7 8 8 9 8 8 9 8 8 7
32 32 31 29 31 36 40 42 42 40 37 35 36 35 34 34 32 29 28 27 24 22 24 25 24 24 24 23 22 21 21 19 18 16 16 16 15 14 13 13 12 11 11 11 10 10 10 9 8 8 8 8 8 8 8 8 8 8 8 8 8 8 8
36 35 33 30 30 34 39 41 43 41 38 36 36 37 36 35 32 28 27 26 24 22 24 24 24 24 24 23 22 21 20 20 19 18 16 15 15 14 14 14 13 12 12 10 10 10 10 9 8 8 8 8 8 8 8 8 8 8 8 8 8 9 9
36 35 34 31 30 33 38 40 42 41 38 36 36 37 37 35 32 30 28 26 22 22 24 24 24 24 24 22 21 20 20 19 19 18 17 16 15 16 16 15 14 13 12 10 10 10 9 8 8 8 8 8 8 8 9 8 8 8 8 8 8 8 8
33 32 32 32 31 32 36 39 41 42 39 36 35 35 37 36 33 31 29 26 21 21 23 24 24 24 24 22 21 21 20 19 19 19 19 18 17 17 16 14 14 13 11 11 11 9 8 7 8 9 9 8 7 8 8 7 7 8 7 8 8 8 8
30 31 32 33 31 31 35 38 40 42 40 37 35 35 37 37 35 32 29 26 23 22 23 25 25 24 24 23 22 21 20 19 19 19 19 19 18 18 16 14 13 12 11 11 10 8 7 7 8 8 8 8 7 7 7 6 6 7 7 7 8 8 8
19 22 28 33 30 30 33 36 40 42 42 40 38 36 38 38 36 33 31 28 25 23 23 25 25 25 24 23 22 22 21 20 19 19 19 19 19 18 16 14 13 12 12 12 9 7 6 6 7 7 7 7 7 7 7 5 5 6 7 7 7 7 7
19 19 22 28 30 31 33 35 37 40 43 43 40 38 38 38 36 33 31 29 26 24 23 24 25 25 24 24 23 22 22 21 20 20 20 19 18 17 14 13 13 13 12 12 10 8 7 7 7 6 6 7 6 6 6 5 5 6 7 7 7 8 8
28 29 26 26 27 28 30 32 34 37 41 43 42 41 40 37 35 33 31 30 28 25 23 23 25 26 25 24 24 23 22 21 20 20 20 20 18 16 14 12 13 14 13 12 11 10 9 8 8 7 7 7 6 6 6 6 6 7 8 8 8 8 8
27 29 28 27 26 22 20 23 28 34 39 41 41 41 40 38 36 35 33 31 29 27 24 23 26 27 26 24 23 22 22 20 19 19 20 20 19 17 14 13 13 14 14 13 12 12 11 10 10 9 9 8 8 8 8 8 9 10 10 10 9 8 8
23 24 23 24 27 27 21 19 22 26 33 39 40 38 37 37 37 36 34 32 30 27 24 23 25 27 25 22 20 20 20 19 18 17 18 19 20 18 16 14 14 13 13 14 13 13 13 13 12 12 11 9 9 10 9 10 11 11 11 11 11 10 10
23 25 25 24 27 32 30 27 23 20 21 27 32 34 35 36 36 34 32 31 29 27 24 23 25 26 24 21 19 18 17 18 17 16 16 17 19 20 17 14 14 14 15 16 15 14 14 14 14 14 12 11 11 11 11 11 11 11 12 12 12 12 12
21 24 26 26 26 29 32 33 30 26 23 21 21 24 27 29 30 30 32 33 31 28 27 28 27 27 25 23 22 20 18 18 18 17 16 16 17 19 18 16 17 18 18 20 20 19 17 15 15 15 15 14 14 14 13 13 12 12 12 13 13 13 13
19 21 23 25 25 25 28 32 34 34 33 30 25 22 21 21 19 18 22 28 26 22 24 26 26 25 27 28 27 23 21 21 21 19 18 18 18 19 20 21 21 21 20 20 19 20 21 20 18 18 17 17 16 16 16 16 15 13 12 12 13 14 14
15 17 20 22 23 24 26 29 32 33 33 33 32 29 26 24 20 15 17 22 22 18 17 20 21 21 25 28 28 25 23 23 23 21 20 20 19 20 22 24 24 23 23 21 18 17 19 21 21 20 19 18 17 17 18 19 18 15 13 13 13 14 14
15 16 17 19 20 23 25 26 28 29 30 29 30 30 28 28 27 24 20 21 23 21 19 20 19 18 20 24 26 26 25 23 23 22 21 21 20 19 21 24 25 26 26 25 23 19 17 18 20 22 21 20 20 19 19 20 19 18 16 15 15 15 15
15 15 16 18 19 20 23 25 25 25 25 26 26 26 26 26 27 26 24 24 24 23 21 22 22 21 21 22 24 25 25 23 23 24 23 22 22 21 22 23 24 25 26 26 27 25 22 19 19 20 20 20 20 20 20 20 20 18 17 16 15 15 15
15 15 16 18 19 20 21 22 24 24 24 24 24 24 25 26 26 25 24 24 24 22 20 20 21 22 24 26 25 24 23 23 24 25 25 25 24 24 24 24 25 25 25 25 25 27 27 26 24 22 21 21 20 20 20 20 20 19 18 17 15 15 17
15 15 15 15 16 18 19 19 20 21 22 22 22 21 22 23 24 24 21 21 21 21 21 20 21 21 23 25 25 23 22 23 25 25 25 26 27 26 26 26 26 27 26 25 24 24 25 26 26 25 24 24 23 23 23 23 23 21 19 17 16 16 17
17 17 16 15 13 14 14 15 14 13 13 14 14 14 15 15 16 17 16 15 15 16 17 18 19 19 18 20 22 21 21 23 24 24 25 26 27 28 27 27 27 27 27 27 26 25 25 24 25 25 26 26 26 26 26 25 24 21 20 19 18 17 17
20 20 19 16 14 13 14 13 12 10 8 7 6 7 8 8 7 8 11 11 13 14 14 15 17 17 18 19 21 22 23 25 25 24 24 24 24 25 26 26 26 26 26 26 26 26 26 26 27 27 28 28 28 27 27 26 25 24 23 22 20 18 19
21 21 19 17 15 15 15 13 11 11 8 7 6 6 6 6 7 8 10 11 12 13 14 16 16 17 19 20 21 23 24 24 24 23 23 23 23 24 25 25 24 25 25 25 26 27 28 29 29 30 30 30 31 30 30 30 30 30 29 27 23 21 21
16 16 15 14 11 11 12 11 10 10 9 9 9 8 7 7 7 8 9 10 10 10 11 12 13 14 15 16 17 19 20 21 22 22 23 24 24 25 25 25 24 25 25 25 25 26 27 28 28 28 29 30 32 32 32 33 33 33 34 34 30 27 26
15 12 12 11 9 8 9 9 9 10 8 8 8 8 7 7 6 6 7 8 8 7 7 8 9 10 11 12 13 14 15 16 17 18 19 21 21 22 22 23 23 24 24 24 24 24 25 25 25 24 25 27 30 31 31 31 31 30 32 34 34 33 31
14 13 11 12 11 9 9 9 9 9 8 7 7 6 5 4 3 4 5 5 5 5 6 6 7 7 7 7 6 6 6 8 9 11 12 14 16 17 18 19 20 21 21 21 20 18 18 17 15 16 19 23 27 28 28 29 29 28 29 30 31 32 32
13 13 13 14 13 11 11 10 9 9 8 7 7 7 6 5 4 5 5 6 6 6 7 7 6 5 4 4 3 3 3 3 4 5 7 8 10 12 13 13 13 14 13 12 10 8 8 7 4 7 13 17 21 23 24 25 25 24 26 28 28 30 31
15 14 13 13 12 10 10 10 10 10 9 8 8 7 7 6 6 7 8 8 8 8 8 8 7 6 6 5 5 4 4 4 4 5 6 6 5 6 7 6 5 6 6 5 3 1 1 0 2 5 9 11 13 15 16 18 18 18 20 24 26 28 29
16 16 14 14 13 11 10 10 11 11 10 10 9 8 7 6 7 8 9 9 10 9 9 8 8 7 7 6 6 6 6 6 4 4 5 4 3 3 2 1 1 3 5 7 7 6 6 5 4 3 4 4 5 5 6 7 8 9 11 15 18 19 20
17 18 17 16 14 12 11 11 10 9 9 8 8 7 7 6 7 9 10 11 11 10 10 10 10 9 9 9 9 9 9 8 7 5 4 4 3 2 1 2 3 4 6 8 9 9 8 6 4 3 5 6 5 4 2 1 2 3 5 7 8 8 8
17 17 16 14 13 11 9 9 8 8 8 8 7 8 7 6 6 8 9 10 10 10 10 11 11 11 11 11 11 11 11 11 10 8 6 5 5 4 3 3 4 4 5 6 7 7 7 5 4 3 4 5 6 6 5 3 3 3 5 5 4 3 4
18 16 14 13 11 8 6 6 7 8 9 9 9 8 8 7 6 7 8 10 10 11 11 11 11 11 12 12 12 12 12 11 10 8 6 6 5 5 4 4 4 4 4 4 4 4 4 5 5 4 4 5 5 5 6 4 3 4 5 4 3 3 3
19 16 13 11 9 7 6 6 8 9 9 9 8 8 7 7 6 6 8 10 11 12 13 12 11 11 13 14 13 11 10 9 8 7 6 4 3 3 3 3 4 4 4 4 4 3 3 4 5 4 3 3 2 2 3 2 1 4 6 5 3 3 2
19 16 12 8 7 7 7 6 7 8 8 7 7 6 6 6 6 6 7 8 10 11 12 12 11 11 11 12 10 8 6 5 4 4 4 3 3 3 2 3 4 4 4 5 5 5 4 4 5 5 4 3 1 1 1 1 2 4 6 7 7 6 5
18 14 11 8 6 5 6 6 6 7 8 6 5 5 4 4 5 6 7 7 7 8 8 7 8 8 8 8 6 3 2 2 1 1 1 1 1 1 2 2 3 3 3 4 5 5 5 5 5 6 6 5 4 3 3 4 5 6 7 8 9 8 6
15 12 11 10 8 5 2 3 3 4 5 5 5 5 4 5 6 7 6 6 6 7 6 4 4 5 5 4 3 1 0 1 3 3 4 4 3 4 4 5 5 5 4 4 5 6 6 7 7 8 8 7 7 7 7 9 10 11 11 11 12 11 9
11 10 10 10 8 6 3 1 1 3 4 5 5 5 5 4 5 6 5 5 5 6 6 3 2 2 2 2 3 4 4 5 6 7 7 7 7 6 6 6 6 5 4 4 4 5 6 7 9 10 11 11 11 12 13 13 14 14 13 12 11 11 10
8 8 7 6 5 5 4 3 2 2 4 4 3 4 3 2 1 2 3 3 3 4 5 4 4 4 5 6 7 7 7 8 9 10 10 9 8 8 8 8 7 6 4 3 2 2 2 4 6 8 10 12 12 13 13 13 13 12 11 9 8 8 8

ECMWFFLT1_850_spd_111.txt.gz
Wind_Speed
28 29 34 39 42 43 43 43 42 40 39 37 34 32 31 30 28 27 27 26 26 26 25 26 26 25 24 23 22 22 20 19 19 19 18 18 17 15 14 13 12 12 12 11 10 10 10 10 11 11 11 10 10 10 9 9 9 9 9 8 7 7 7
29 29 33 38 42 43 44 44 43 41 40 38 35 34 33 31 29 28 27 27 26 25 24 24 25 25 24 23 22 22 21 20 19 19 18 17 17 16 14 13 13 12 11 10 10 9 10 11 10 10 11 11 10 10 9 9 9 9 9 9 8 8 8
30 31 33 37 42 44 44 44 44 43 41 38 37 35 33 31 29 27 26 26 26 24 22 23 24 25 24 23 23 22 22 21 20 19 18 17 16 16 15 14 14 13 12 11 11 11 11 11 10 10 11 11 10 10 9 9 9 9 9 9 9 9 9
31 32 33 36 39 42 44 44 44 43 42 39 37 35 33 30 28 27 25 25 25 25 23 23 24 25 24 24 23 23 22 22 21 20 18 16 16 16 15 15 15 14 13 12 12 12 11 11 10 10 11 11 10 9 9 9 9 9 9 9 9 9 9
31 32 32 33 35 37 41 43 44 44 43 41 37 35 33 30 28 28 25 24 25 24 22 21 23 25 25 24 24 23 22 21 20 20 18 16 16 16 17 16 15 15 14 12 12 11 11 11 10 10 10 10 10 9 9 9 9 9 9 9 9 8 8
29 32 32 31 32 33 37 41 44 45 44 42 39 36 33 31 30 29 26 24 25 24 23 22 22 25 25 25 24 23 22 21 20 20 19 17 16 17 17 16 16 15 14 13 12 11 11 10 9 10 10 10 9 9 9 9 9 9 8 8 9 9 8
26 28 30 31 32 32 33 37 42 45 44 42 40 37 35 33 32 30 28 26 26 26 25 24 23 24 26 25 25 24 22 21 20 20 20 19 17 17 17 16 16 15 14 13 13 12 11 10 9 9 9 9 9 9 9 9 9 8 8 8 8 9 9
27 27 28 29 31 30 30 33 38 42 44 43 42 39 37 35 34 33 31 28 27 27 27 25 24 24 26 26 25 24 23 21 20 20 20 19 19 18 17 16 16 15 14 14 13 12 11 9 8 8 8 9 9 9 9 9 8 7 8 8 8 8 9
27 27 27 27 29 30 31 33 34 36 38 40 42 41 39 37 35 35 34 30 28 28 27 24 23 23 25 25 25 24 23 22 21 19 19 20 20 19 18 17 16 16 15 13 12 11 10 8 7 7 8 8 9 9 8 8 8 7 7 7 7 7 8
26 25 26 27 29 31 32 33 33 34 34 35 37 37 37 38 38 37 35 32 30 29 27 23 21 22 24 24 24 23 22 22 21 20 20 20 21 20 19 18 16 15 14 13 12 12 10 9 8 8 8 9 9 9 8 8 8 8 7 7 7 8 8
26 24 26 29 31 31 32 32 33 36 36 36 36 35 32 33 37 39 38 35 31 29 27 24 21 21 23 24 23 23 22 22 22 21 20 21 21 20 19 18 16 15 14 13 14 14 12 10 10 10 10 9 9 9 8 8 8 9 8 7 8 9 9
27 26 27 30 33 34 34 35 34 35 37 40 41 40 35 29 29 33 36 36 35 33 31 28 23 21 22 24 24 23 22 23 23 22 21 21 21 20 19 18 17 15 14 14 15 14 13 12 12 12 12 11 10 9 9 8 9 9 9 8 9 10 10
26 26 26 28 30 32 35 38 39 37 38 43 44 44 42 36 30 30 31 34 37 36 33 30 27 24 23 24 24 23 23 23 23 22 21 21 20 20 20 19 17 16 15 14 15 15 15 15 15 15 14 13 12 11 10 9 9 9 10 10 11 12 12
21 22 23 24 26 28 31 36 39 39 39 42 45 45 44 41 38 36 35 35 35 34 31 27 26 26 25 25 25 24 22 21 21 21 20 18 18 19 21 21 18 16 16 16 17 17 16 16 16 16 16 15 14 13 12 12 12 12 11 11 12 13 14
17 17 18 19 21 24 27 31 34 36 37 37 39 42 41 40 40 40 40 39 35 33 31 27 25 25 25 24 24 23 21 19 19 20 19 17 16 17 19 21 19 17 17 18 19 19 19 18 18 17 17 17 17 16 16 16 15 14 14 14 13 13 14
12 12 13 14 17 19 23 26 28 30 32 33 34 37 38 38 39 39 40 39 37 34 32 28 26 25 24 24 23 22 21 19 18 19 18 17 17 16 17 19 20 20 20 20 20 20 20 20 20 20 20 20 19 19 20 20 18 16 16 16 15 14 14
8 9 10 11 13 15 18 21 23 26 28 28 29 32 33 34 36 37 36 36 36 35 31 28 27 26 25 24 24 24 23 21 20 19 19 19 19 18 18 19 21 22 23 23 23 22 21 20 20 21 22 23 23 22 22 21 19 18 18 18 18 17 16
7 8 9 10 11 12 13 16 19 23 24 24 25 27 28 29 30 31 32 33 33 32 31 29 28 27 26 25 25 25 25 24 22 21 22 22 21 21 21 21 22 23 25 26 25 25 24 23 21 20 21 22 23 23 23 21 20 20 20 20 20 20 19
8 8 8 9 10 11 13 15 18 21 22 22 22 24 25 24 24 25 26 28 30 30 30 29 28 27 26 24 23 25 25 25 24 24 25 25 24 23 23 23 24 25 26 27 27 27 27 27 26 25 23 22 22 22 22 21 21 21 21 22 22 21 21
10 11 12 13 13 14 16 15 16 19 21 21 22 22 24 23 23 24 24 24 26 27 25 24 24 25 24 22 22 24 24 24 25 26 26 26 26 26 26 26 26 26 27 27 28 29 29 29 29 28 27 25 24 23 22 21 20 20 21 22 22 22 20
11 11 13 15 15 16 16 14 13 13 14 16 18 19 20 19 19 22 23 21 22 23 21 20 22 24 23 22 22 23 24 24 25 26 26 27 27 27 27 27 27 27 28 29 29 30 30 29 29 27 26 26 26 25 24 23 22 21 21 22 22 23 23
11 11 13 15 15 15 15 14 13 11 10 11 12 13 14 14 14 18 21 22 23 24 22 22 22 24 24 23 23 24 25 25 25 26 26 27 28 28 28 28 28 28 29 29 29 30 29 28 26 24 23 23 24 24 24 24 24 24 24 23 23 24 26
12 11 13 15 15 14 15 14 13 12 11 13 14 13 12 13 13 15 19 22 23 23 23 22 22 22 22 21 22 23 24 25 25 26 26 26 26 27 27 28 29 29 30 30 29 28 28 27 27 26 25 24 24 24 24 26 26 26 26 26 26 27 27
14 13 13 14 13 12 13 12 12 12 11 12 13 12 12 12 12 13 17 19 19 19 19 19 18 17 18 18 19 21 22 22 23 24 24 23 23 22 23 24 25 26 27 27 27 27 28 28 29 28 28 28 27 27 28 30 30 29 29 30 30 31 31
13 12 12 11 11 10 10 9 9 9 8 9 10 10 10 10 10 11 13 15 15 15 14 14 13 13 14 15 15 16 18 19 20 20 20 20 20 20 21 22 23 24 24 24 24 25 26 27 26 26 27 28 29 31 32 32 33 33 32 33 33 33 34
10 10 10 11 12 13 12 11 10 9 8 8 9 10 9 9 9 9 10 11 11 11 11 11 10 10 11 11 11 12 13 14 15 16 17 16 16 18 19 20 21 22 23 22 21 21 21 22 24 25 25 27 28 30 31 31 31 32 31 32 32 33 35
9 11 12 13 14 15 15 14 12 12 12 12 12 11 10 9 9 9 9 9 9 9 9 8 8 8 8 8 8 8 8 9 9 11 11 9 9 11 13 13 13 15 14 12 11 12 11 12 15 18 20 21 22 23 24 25 26 27 27 28 28 30 32
11 13 14 14 15 15 14 14 13 13 13 13 12 11 10 8 8 9 9 9 9 8 7 6 5 4 3 3 3 3 4 5 5 6 6 4 3 5 6 6 7 8 8 6 4 5 5 6 9 12 13 13 13 13 14 16 18 19 20 22 23 24 25
12 13 13 13 14 13 14 15 15 15 15 14 13 11 9 7 8 10 10 10 11 10 9 8 7 6 5 4 3 3 3 3 3 3 3 2 2 3 3 4 4 5 5 3 1 1 2 3 5 5 6 7 7 7 7 8 9 11 12 13 15 16 17
12 13 13 14 14 13 13 14 15 16 16 14 13 12 9 8 9 10 11 11 12 11 9 9 8 7 7 6 5 5 4 3 3 2 1 1 1 1 2 2 1 2 1 1 2 2 2 2 2 3 4 5 6 6 7 7 6 7 7 7 7 8 9
13 13 13 14 15 14 13 14 14 14 15 13 13 12 11 10 10 10 12 13 13 11 10 10 9 8 8 8 7 6 4 3 3 2 1 1 1 1 1 1 1 1 0 2 2 2 3 3 4 4 4 4 4 5 6 7 6 5 4 5 6 7 8
13 13 13 13 14 13 12 12 12 12 13 13 13 12 12 11 10 10 11 12 11 10 10 9 8 8 8 8 7 6 4 3 2 1 1 1 2 2 1 2 1 1 1 1 2 3 3 4 4 3 3 3 3 4 5 6 6 5 6 7 8 10 11
13 13 13 13 13 12 11 11 11 11 11 11 11 10 10 10 10 10 11 12 11 10 9 8 7 7 7 7 7 6 4 3 1 1 1 1 1 2 2 2 2 2 2 2 3 3 4 4 3 3 3 4 4 5 5 5 5 6 7 8 10 10 12
11 12 13 13 13 12 10 9 9 9 8 9 9 9 9 9 9 9 10 10 10 9 8 7 6 6 6 6 5 4 3 1 0 0 1 2 2 2 3 3 3 3 3 4 4 5 5 6 5 4 4 6 6 7 6 7 7 7 8 9 10 10 11
10 10 11 12 13 12 11 9 8 8 8 9 9 9 8 8 8 8 8 8 7 7 6 5 5 4 3 3 3 2 1 1 2 2 3 3 3 3 4 4 4 3 4 5 6 6 7 7 7 7 8 9 9 9 9 9 10 11 11 12 13 13 12
9 8 8 9 10 10 10 9 8 8 9 9 9 9 8 7 8 7 7 5 4 4 4 4 4 3 2 2 2 3 3 4 5 6 6 6 6 7 7 6 6 5 5 6 7 7 8 9 9 10 10 11 11 12 12 13 14 14 15 16 17 16 15
9 7 7 6 6 7 8 9 8 7 8 9 9 9 8 7 7 6 5 3 2 2 2 2 3 2 3 3 4 5 6 7 8 9 10 10 10 10 9 9 8 8 7 6 7 8 9 10 11 12 12 13 13 15 16 17 17 17 17 17 17 16 14
7 6 6 5 4 4 6 7 7 6 6 6 6 7 6 6 5 4 3 2 1 1 2 3 4 5 5 6 7 8 9 10 11 12 12 12 11 10 10 10 10 9 8 7 6 6 7 8 9 9 10 11 13 14 15 16 16 16 15 14 13 13 11

ECMWFFLT1_850_spd_114.txt.gz
Wind_Speed
30 31 34 36 37 37 38 37 35 34 33 32 30 28 26 26 25 24 23 22 22 22 21 20 21 22 22 22 21 21 20 19 18 17 16 15 15 14 14 14 14 14 13 11 10 9 9 10 10 10 10 9 10 9 9 9 9 9 9 10 10 9 9
30 31 33 36 37 37 38 38 36 36 34 33 32 29 28 27 26 25 24 23 22 22 21 22 22 22 22 21 21 20 19 19 18 17 16 16 15 14 14 14 13 13 12 11 9 9 9 9 10 11 10 10 10 10 10 10 9 9 10 10 10 10 10
30 33 34 36 38 39 39 38 38 37 36 34 33 32 30 28 25 24 25 24 23 23 22 23 23 23 22 21 21 21 20 19 18 17 16 15 15 14 14 15 14 12 11 10 10 9 9 9 10 10 10 10 10 10 10 11 11 10 10 11 10 10 10
32 34 36 37 38 39 40 39 39 39 37 35 34 32 30 28 26 24 24 25 24 24 24 24 24 23 22 22 21 21 20 19 19 18 17 15 15 15 15 15 15 13 12 11 11 11 10 10 10 10 10 10 10 11 11 11 11 10 10 10 10 10 9
32 34 35 36 37 38 40 40 40 40 39 37 35 34 31 29 27 26 24 24 24 24 24 24 25 24 23 22 22 21 21 20 19 19 18 16 15 16 16 15 15 13 12 12 12 12 12 12 12 11 10 10 11 11 11 11 11 10 10 10 10 10 9
32 33 34 35 36 37 39 41 42 41 40 39 37 35 33 32 30 28 25 24 24 24 24 24 24 23 22 22 22 22 21 20 20 19 18 17 16 16 15 15 15 14 13 13 13 12 12 12 12 11 10 10 10 11 11 11 10 9 9 9 10 10 10
32 33 34 34 35 36 38 40 41 42 41 40 38 37 35 34 32 30 27 25 23 23 24 24 24 23 21 21 21 21 21 21 20 19 18 17 16 16 15 14 14 14 14 14 13 12 12 11 11 10 10 10 10 10 11 11 10 9 9 9 9 9 9
33 33 34 34 34 35 36 38 40 41 42 41 40 39 38 37 34 32 29 26 23 23 23 23 23 21 20 20 20 21 21 21 20 19 18 17 17 17 16 15 14 14 14 14 14 13 13 12 10 9 9 10 10 10 10 10 10 10 10 10 9 9 8
31 33 34 34 34 34 35 37 39 41 42 42 42 41 39 38 37 35 31 28 25 24 23 22 21 21 19 19 20 20 20 20 20 19 19 18 18 18 17 16 15 15 15 15 14 14 13 12 11 10 10 10 10 10 10 10 10 10 10 10 9 8 8
27 30 32 34 35 35 35 36 39 41 43 43 42 41 41 40 38 37 34 31 29 26 23 22 21 21 21 20 20 20 21 21 20 20 20 19 19 19 18 17 16 16 16 15 14 14 13 13 11 11 11 10 10 9 9 9 9 10 10 9 8 8 8
25 27 30 32 34 35 35 36 38 40 42 42 42 42 41 41 40 39 37 35 33 30 27 25 23 22 21 20 20 21 22 21 21 21 21 20 19 19 19 18 17 17 16 15 14 14 13 13 13 12 11 11 10 10 10 9 9 10 10 9 8 8 8
23 26 28 30 32 34 35 36 37 39 40 41 41 41 41 42 41 40 39 37 35 33 32 30 27 25 23 22 21 21 22 22 22 22 22 21 20 19 19 19 18 18 17 16 15 15 15 15 14 13 12 12 11 11 10 10 10 10 10 10 9 9 9
16 20 23 25 27 30 32 33 35 37 38 39 40 40 41 41 42 42 41 39 37 34 33 32 31 29 25 23 22 22 23 22 22 22 22 22 20 20 19 19 19 19 18 17 16 16 16 16 16 15 13 13 13 12 12 11 11 11 11 11 11 11 11
8 12 16 19 21 25 27 29 32 34 36 38 39 40 40 41 42 43 42 41 38 35 33 31 31 31 28 24 22 22 23 22 21 21 22 22 21 20 20 19 19 19 19 18 17 17 17 17 17 16 15 15 15 14 14 14 13 13 13 13 12 13 13
6 7 11 15 19 22 24 26 29 31 33 36 37 38 39 40 41 42 43 42 40 38 34 31 31 31 29 26 24 22 22 22 21 21 22 22 22 21 20 20 19 19 20 19 18 18 17 17 17 17 17 16 16 15 15 16 15 15 15 15 15 14 14
10 7 9 13 17 20 22 23 25 28 31 33 34 35 36 37 38 40 41 42 41 39 36 33 33 31 29 28 24 22 22 23 22 22 22 22 21 21 20 20 19 20 21 21 20 19 18 17 18 18 18 18 17 17 17 17 17 16 17 17 18 18 17
10 9 9 10 12 16 19 21 23 26 29 31 32 32 33 34 35 35 36 38 39 39 37 35 34 33 32 30 25 23 23 23 23 22 21 21 21 20 20 19 18 19 21 22 21 20 19 19 19 19 19 19 18 18 19 19 19 19 19 19 20 20 20
9 8 8 7 8 11 14 17 20 22 24 27 28 29 30 31 32 33 34 35 35 35 35 33 33 34 33 30 25 23 23 23 23 23 21 20 20 20 19 18 17 17 18 20 21 21 20 20 20 20 19 19 19 19 19 20 21 22 22 21 21 20 21
8 7 5 5 5 7 10 12 15 17 18 20 22 24 26 28 29 31 34 36 36 36 34 32 33 34 31 26 23 22 22 22 23 23 22 21 20 20 20 19 19 18 18 20 22 22 22 22 21 21 22 22 22 22 21 21 21 22 23 23 22 22 22
4 4 5 6 7 7 7 8 9 11 14 17 19 21 23 26 28 30 31 33 35 36 35 34 34 31 27 25 24 23 22 21 22 23 23 22 22 22 22 21 22 22 23 24 24 23 23 22 22 23 23 23 24 24 24 24 23 23 23 24 24 23 23
4 5 7 8 7 6 5 4 4 6 10 14 17 19 21 23 25 27 30 31 32 34 34 34 33 29 26 25 24 23 22 22 22 23 23 24 24 24 23 23 23 23 24 25 24 23 22 22 22 23 23 23 23 22 22 22 23 23 24 24 25 24 24
6 6 7 6 5 5 5 4 3 3 7 10 13 16 19 20 20 22 25 27 29 31 31 32 32 28 26 24 22 21 22 22 22 23 23 24 24 24 24 24 22 20 19 20 21 21 20 20 20 20 22 24 25 24 23 23 23 23 24 24 25 25 25
8 7 8 6 5 6 7 6 4 4 6 10 12 13 16 19 20 19 18 19 22 25 27 29 29 27 23 21 20 19 20 21 22 22 21 20 22 23 24 23 21 18 18 19 21 21 21 21 21 22 23 25 26 27 26 26 26 26 26 26 26 27 26
12 11 11 9 8 9 10 9 9 9 8 9 10 11 13 16 18 18 17 16 17 19 21 23 24 23 21 19 19 19 20 20 21 20 20 20 21 21 19 18 17 17 17 17 17 18 20 22 23 24 25 27 27 28 28 28 28 28 29 29 28 28 27
13 12 12 11 10 11 12 12 12 11 11 11 10 10 9 10 13 16 18 18 17 18 19 20 22 22 21 20 19 19 20 18 16 16 16 18 18 17 16 15 15 16 16 16 17 17 19 21 22 24 25 25 25 27 28 28 28 28 28 29 29 29 29
14 14 14 14 13 13 13 12 10 10 11 12 12 11 8 8 10 13 15 16 16 16 16 16 16 16 17 16 15 15 15 14 12 10 10 12 14 15 15 14 14 14 14 14 16 18 19 19 21 22 22 21 22 23 24 25 25 26 27 27 28 29 29
15 15 16 16 15 14 14 14 12 11 13 13 12 11 8 6 7 11 14 15 14 14 13 11 10 10 11 9 8 8 8 8 7 7 6 7 8 9 10 9 8 8 7 7 9 10 10 11 13 14 14 15 15 15 15 16 16 17 18 19 20 21 23
15 15 15 16 15 15 16 17 16 16 16 15 13 12 9 6 7 11 13 13 14 14 11 9 7 8 8 7 6 6 5 3 2 1 1 1 2 3 3 4 4 4 3 2 4 4 3 3 5 5 5 5 6 6 7 7 8 10 10 11 12 13 14
16 16 15 15 15 15 16 18 19 19 18 17 15 13 11 10 11 12 12 13 14 14 11 10 8 8 8 7 7 7 6 6 6 5 5 5 4 4 4 4 4 3 3 1 1 2 3 3 4 4 4 4 5 5 6 7 7 8 9 9 10 11 11
18 18 17 17 16 15 15 17 19 20 19 18 17 15 13 13 14 15 14 15 14 12 10 10 9 7 8 9 9 10 9 9 9 8 7 6 6 6 6 6 6 5 5 3 2 2 4 4 5 6 5 6 6 7 8 8 8 8 8 9 9 10 11
19 19 19 18 18 16 16 17 18 19 20 19 18 17 16 15 15 16 17 16 14 11 10 10 8 8 9 10 10 11 10 9 8 7 7 7 7 7 7 7 7 6 5 4 3 3 4 5 6 6 6 5 6 7 8 8 9 9 8 8 9 10 11
18 18 19 19 18 17 16 17 17 18 19 19 17 16 15 14 14 17 17 16 14 12 11 10 9 9 10 10 11 11 10 9 8 8 8 8 7 7 7 7 6 6 5 4 3 4 4 5 6 6 5 5 5 6 7 8 9 9 8 9 9 10 11
17 17 18 18 18 17 16 16 17 17 18 18 17 15 14 13 14 15 15 14 13 12 11 11 10 10 10 10 11 11 10 9 9 8 8 8 8 8 7 7 7 6 5 5 5 5 5 5 4 4 4 5 7 7 8 9 9 9 10 10 11 11 12
17 18 19 19 18 18 17 17 17 17 18 18 17 16 15 14 15 15 14 14 13 13 12 11 11 11 11 10 10 10 10 9 9 9 9 8 8 8 8 7 7 7 6 6 6 6 6 6 6 5 5 7 9 11 11 11 11 11 12 13 14 15 15
19 20 21 20 19 18 18 18 18 17 18 18 17 16 15 15 15 15 14 14 14 13 13 12 12 11 10 10 9 9 9 9 9 9 9 9 8 8 7 7 7 7 7 8 8 8 7 8 8 8 8 9 11 12 13 13 13 14 15 17 17 17 17
19 20 20 19 18 17 17 18 18 18 18 19 18 16 15 14 14 13 12 12 12 12 12 12 11 10 10 10 10 10 10 10 10 10 10 10 10 9 8 7 7 7 7 8 8 9 9 9 9 10 11 11 12 13 14 15 16 16 17 17 16 16 15
17 18 18 17 16 15 15 16 16 16 17 17 17 16 15 13 13 12 11 11 10 10 10 9 9 9 10 10 11 11 11 12 12 12 12 11 10 10 9 9 8 8 8 8 7 8 9 9 9 10 10 11 11 13 14 15 15 15 15 14 13 12 12
13 14 15 15 15 15 15 14 14 14 14 14 14 14 13 12 12 11 10 10 9 9 9 9 9 9 9 10 11 11 11 12 12 12 12 12 11 11 10 9 9 8 8 8 7 7 8 9 9 9 9 10 10 11 12 12 13 13 13 12 11 10 10

ECMWFFLT1_850_spd_117.txt.gz
Wind_Speed
32 33 33 35 36 37 37 36 33 32 31 29 27 26 24 24 23 22 22 22 21 21 20 19 19 18 18 18 18 18 18 18 17 16 15 14 13 12 11 10 9 9 9 9 9 8 7 7 8 8 9 9 9 9 8 8 8 9 9 9 9 10 9
30 33 34 36 37 37 37 36 34 33 31 30 28 27 26 24 23 23 23 23 22 21 21 20 19 18 17 17 18 18 18 18 17 16 15 15 13 12 11 10 9 9 9 9 9 8 7 7 8 9 9 10 9 9 9 9 9 9 9 9 10 10 11
31 34 35 36 37 38 38 37 36 34 31 31 30 28 26 24 23 22 22 23 22 22 21 21 20 18 17 17 17 18 18 18 17 16 15 14 12 12 11 10 9 9 9 9 9 8 8 8 8 9 10 10 10 9 9 9 9 9 10 10 11 11 11
32 36 36 37 37 37 37 37 36 35 33 31 30 28 25 23 22 21 21 22 22 22 22 21 20 19 18 17 17 18 18 17 16 15 15 13 12 11 12 11 10 10 10 10 10 9 9 9 9 10 10 10 9 9 9 9 9 10 11 11 11 11 11
30 34 35 36 37 37 37 38 37 35 33 32 30 29 26 23 22 22 22 22 22 22 22 21 20 19 18 18 18 18 18 17 17 16 15 14 12 12 13 12 11 11 11 11 11 11 11 10 11 11 10 9 9 9 9 9 10 10 11 11 11 10 10
24 31 35 36 37 37 38 37 37 36 34 33 31 29 28 26 24 23 22 22 22 22 22 21 21 20 19 19 19 19 18 17 17 16 16 15 15 14 13 12 12 12 12 12 12 12 11 11 11 11 10 9 9 9 9 10 10 10 10 10 10 9 9
23 29 34 36 37 38 37 37 36 36 35 34 32 30 30 28 26 25 24 23 22 22 22 22 22 21 20 20 20 19 18 18 17 17 17 16 16 16 14 13 13 12 13 13 12 12 12 11 10 10 10 10 10 10 10 10 10 10 10 10 10 9 9
26 29 32 35 37 38 37 37 36 36 35 35 34 33 32 31 29 28 26 24 23 22 22 23 23 22 21 21 21 20 19 18 17 17 17 17 17 17 16 14 13 12 13 13 13 12 11 11 10 9 9 9 10 10 10 10 10 10 10 10 10 9 9
28 30 31 33 35 37 38 37 36 36 35 35 35 35 34 33 32 30 28 26 25 23 22 22 22 22 21 22 21 20 19 19 18 18 17 17 17 17 17 16 14 13 12 12 12 11 11 11 10 10 9 9 9 10 10 10 10 10 10 10 10 10 9
24 28 30 33 34 35 36 36 36 36 36 36 36 35 35 35 33 32 30 29 27 25 22 21 21 21 22 22 21 20 20 20 19 19 19 18 18 17 17 17 16 14 13 12 12 12 11 11 11 11 11 10 9 9 9 9 9 9 10 10 10 9 9
21 25 28 31 33 35 35 35 36 36 36 36 36 35 35 35 34 33 32 31 29 26 24 22 21 21 22 23 22 21 20 20 20 21 20 19 19 18 17 17 17 16 14 13 13 13 12 12 12 12 12 11 10 9 8 8 8 9 9 10 9 9 8
17 21 25 28 30 32 34 35 35 36 36 36 35 35 35 35 35 35 34 32 30 28 26 23 22 22 23 23 23 22 21 20 20 21 21 20 20 19 18 17 17 16 16 15 14 13 13 13 13 13 13 12 10 10 9 9 9 9 9 9 10 9 9
13 16 20 23 25 27 29 32 33 35 36 36 35 35 35 35 35 35 35 34 32 30 28 25 24 23 23 24 23 23 21 20 20 21 21 20 20 19 18 17 17 17 16 16 15 14 14 13 13 13 13 13 12 11 10 10 10 10 10 10 10 10 10
8 11 14 17 20 23 25 27 30 32 34 35 35 35 36 36 36 36 35 34 33 33 31 28 26 25 25 24 24 23 21 21 20 20 20 20 19 19 19 18 17 16 16 16 16 16 15 14 14 13 14 14 14 12 12 12 12 12 11 11 11 12 12
7 8 10 12 15 18 21 23 26 28 30 32 34 35 36 37 37 37 37 36 35 34 33 31 30 28 27 26 25 23 21 20 20 20 20 20 19 20 19 18 17 17 16 16 16 16 16 15 14 14 14 14 14 13 13 13 13 13 13 13 14 14 14
7 7 8 9 11 13 16 18 20 23 26 28 30 32 34 36 37 38 38 38 37 36 34 33 32 31 30 28 27 24 22 20 20 19 20 21 20 20 20 19 18 17 17 16 16 16 16 15 15 14 14 14 14 14 14 14 14 14 14 15 16 16 16
7 6 6 7 9 11 12 14 17 19 21 24 26 29 32 34 35 36 36 36 36 35 34 33 32 33 33 31 29 27 26 24 21 20 20 21 20 20 20 20 19 18 17 16 16 16 17 17 16 16 15 15 14 14 14 14 14 15 15 16 17 18 19
4 5 4 5 6 8 9 12 14 16 18 21 23 25 28 30 31 33 33 33 33 32 33 33 32 32 33 32 31 29 28 25 23 22 20 20 20 19 19 19 18 18 17 17 17 18 18 18 18 17 16 16 16 16 16 16 16 15 16 17 17 18 20
3 4 4 4 4 4 6 7 9 12 14 16 18 20 22 24 25 27 28 29 29 30 31 31 31 31 31 31 31 30 28 27 24 22 20 20 19 19 18 19 20 20 19 18 18 19 19 19 18 19 18 18 18 18 19 19 19 19 19 20 20 20 20
3 4 5 4 4 3 2 3 4 7 8 9 11 14 16 18 20 22 24 26 28 29 29 29 29 30 30 30 30 29 27 28 26 22 20 21 20 18 19 21 21 21 20 18 18 18 17 16 17 19 19 19 19 20 21 22 22 22 22 23 23 23 23
4 5 6 5 6 6 5 3 1 3 5 6 7 9 11 13 16 18 20 22 24 26 28 28 29 30 30 31 30 26 23 25 26 23 21 22 21 18 17 17 17 18 19 17 16 16 16 15 16 18 19 19 19 20 22 23 23 23 24 24 24 24 24
6 7 7 6 5 6 7 6 4 3 3 4 6 8 9 9 11 13 15 18 21 23 26 28 29 30 31 32 31 27 23 23 24 23 21 19 19 17 15 14 14 16 17 16 16 15 15 14 16 17 18 18 18 20 21 22 23 23 24 24 24 24 24
6 8 8 6 5 6 6 5 3 3 4 5 6 8 9 9 10 10 12 14 18 21 25 28 28 29 30 30 31 29 25 24 23 22 20 16 15 15 14 13 13 14 15 16 15 14 13 13 15 17 18 19 19 20 21 23 24 25 25 25 25 25 25
8 10 9 6 5 5 5 4 3 3 5 5 4 3 5 8 7 7 8 10 13 18 23 26 27 28 29 28 27 26 24 22 20 17 15 13 12 13 14 14 12 11 12 13 14 14 14 14 16 17 18 20 20 21 22 23 24 25 26 26 26 26 26
10 12 12 9 7 7 6 5 4 5 7 7 6 5 2 3 5 6 7 8 11 13 16 17 18 20 21 21 20 19 16 14 13 13 13 13 12 12 13 12 10 9 9 11 13 14 14 14 15 16 18 19 19 20 20 21 22 23 24 24 25 25 25
11 12 12 11 11 10 9 9 8 9 10 11 10 8 6 3 4 5 6 9 10 9 9 10 11 13 14 14 14 13 12 11 10 10 10 8 7 7 8 8 8 7 7 8 10 11 12 14 15 16 18 18 17 16 16 16 17 18 18 18 18 18 18
15 14 13 12 11 10 9 12 14 16 17 17 16 14 10 8 10 11 11 12 12 12 13 13 12 11 12 13 14 14 14 13 11 9 8 8 7 8 7 5 4 4 4 5 7 8 9 9 9 10 10 10 9 8 8 8 8 8 8 8 8 9 9
18 17 16 15 14 12 13 16 19 21 21 20 19 17 13 12 16 18 18 17 18 18 17 15 15 15 15 15 16 16 16 15 12 10 9 8 7 8 8 7 7 6 5 4 3 3 3 2 2 2 2 1 1 1 1 2 2 3 4 5 5 5 6
21 20 19 18 17 16 17 20 22 22 21 19 18 17 15 15 18 20 19 20 20 19 17 16 17 19 19 19 19 19 18 17 16 14 14 14 12 11 10 11 10 9 9 8 7 6 5 5 4 5 5 5 4 4 4 4 5 5 5 6 7 7 7
22 22 21 20 20 20 20 23 24 24 22 20 18 18 16 16 19 21 21 21 20 18 18 18 19 20 21 21 21 19 17 16 15 15 15 15 15 13 13 12 11 10 10 9 8 7 6 5 6 6 6 6 6 6 6 6 7 7 7 7 8 8 9
22 22 22 22 22 23 24 25 26 25 24 22 20 20 19 19 21 23 24 22 20 19 20 19 20 21 22 22 21 20 18 17 17 16 16 15 14 13 12 12 11 10 9 8 7 7 6 5 5 5 4 4 5 5 6 7 7 8 8 8 8 9 9
23 23 23 23 22 23 23 24 25 25 25 23 21 21 21 22 24 24 23 22 21 21 21 21 22 23 23 22 22 20 19 19 18 17 16 15 13 13 12 11 10 9 9 8 7 6 6 5 4 3 1 2 3 5 6 7 8 8 9 10 10 11 11
24 23 23 22 22 22 22 23 24 24 24 23 22 22 22 23 24 23 21 20 20 20 20 21 22 22 21 21 20 19 19 18 17 16 15 14 13 12 11 11 10 9 8 7 6 5 4 4 3 2 3 4 6 7 8 8 9 10 11 12 12 13 12
26 25 24 23 22 22 22 24 24 24 24 24 23 22 23 24 23 22 21 20 18 18 19 20 20 20 20 19 18 18 18 17 16 15 14 13 12 11 11 10 10 9 8 7 6 5 4 4 3 4 4 6 8 9 9 10 11 12 12 12 12 12 12
28 27 27 26 25 24 25 25 25 25 25 24 22 22 22 22 21 21 21 20 18 17 18 18 18 19 19 18 18 18 18 17 17 16 15 15 14 13 12 11 11 10 9 8 8 7 6 6 6 6 6 7 8 9 10 10 11 12 12 12 12 12 12
29 29 29 28 27 27 27 26 26 26 25 23 21 21 21 21 20 20 19 18 17 16 16 16 16 17 18 17 17 17 17 16 16 16 15 15 14 13 13 12 12 11 10 10 9 8 8 8 8 8 8 8 9 10 10 11 11 11 11 11 11 12 11
29 29 29 28 28 28 27 26 26 26 25 23 22 21 20 20 20 19 18 17 16 15 14 14 14 15 16 16 16 16 15 15 15 14 14 13 13 13 12 12 12 11 11 10 9 9 8 8 8 9 9 9 10 10 10 10 10 10 10 10 10 10 10
28 28 28 27 26 25 25 24 24 23 23 22 20 19 18 18 17 17 16 15 14 14 13 13 13 13 14 14 14 13 13 13 13 12 12 12 12 12 12 11 11 10 10 10 9 9 9 9 9 9 9 10 10 10 10 10 10 10 9 9 8 8 8

ECMWFFLT1_850_spd_120.txt.gz
Wind_Speed
27 26 25 25 24 23 23 22 21 22 21 21 20 20 18 19 19 19 19 20 21 21 20 21 20 19 18 16 16 16 16 15 14 12 11 10 9 9 8 7 7 7 6 6 5 5 6 7 7 7 7 7 6 7 7 6 6 6 6 7 7 7 7
27 27 26 25 24 23 23 23 22 22 22 21 21 21 20 19 20 20 20 20 21 21 21 21 21 20 19 17 16 16 15 15 15 14 12 12 11 10 9 8 8 8 7 7 6 6 6 6 7 8 7 6 6 7 7 7 7 7 7 8 7 8 9
26 27 26 25 25 24 24 23 23 23 23 22 21 21 21 21 21 22 21 21 21 21 21 20 20 20 19 18 17 16 16 16 15 15 13 12 11 9 9 10 10 8 8 8 7 6 6 6 7 8 8 7 6 7 7 7 7 7 7 9 7 7 9
24 26 26 25 24 23 23 23 23 23 23 23 22 21 22 23 23 22 21 21 22 22 21 20 20 19 18 17 17 17 16 16 16 15 13 12 11 10 10 10 10 9 9 8 8 7 8 7 7 8 9 8 8 8 8 7 7 7 8 8 7 8 9
23 26 26 24 23 23 24 23 23 24 24 24 23 22 23 23 23 22 21 21 21 21 21 20 19 19 19 18 17 16 16 16 17 16 14 13 12 11 10 10 10 10 10 9 8 9 10 9 7 7 8 8 8 7 8 7 7 7 8 8 7 7 7
23 26 24 24 26 27 27 25 23 25 26 26 26 25 23 23 23 22 21 21 21 21 21 21 20 19 20 19 17 17 16 17 17 17 16 15 14 12 11 11 11 10 10 10 9 9 10 9 9 8 8 7 7 7 7 7 7 7 8 8 7 7 6
21 22 21 25 30 30 29 27 24 24 27 28 27 26 24 24 23 22 20 21 21 21 21 21 20 20 20 19 19 18 17 17 17 17 16 15 15 14 12 12 12 11 10 10 10 10 10 10 10 10 9 8 8 8 8 9 9 8 8 9 9 8 7
21 20 21 26 31 29 26 26 24 23 26 27 26 26 26 25 24 23 22 21 21 21 21 21 21 22 22 20 19 19 18 18 17 17 16 16 15 15 14 14 13 12 12 11 11 11 10 10 9 10 9 8 9 9 9 10 10 8 8 9 9 8 7
22 21 24 29 30 27 23 24 24 24 25 27 26 26 27 26 25 25 24 24 23 22 22 21 21 22 23 21 21 20 19 18 17 17 17 16 16 15 14 14 13 13 13 11 11 11 11 10 9 10 10 10 10 11 9 10 9 8 8 9 9 9 8
18 18 23 28 27 24 21 22 23 24 26 28 28 28 28 27 27 27 27 26 26 24 22 22 22 22 22 21 21 20 19 19 18 17 17 16 16 15 15 14 13 13 13 12 11 10 11 11 10 11 11 10 10 10 9 9 9 8 8 9 9 9 9
16 15 18 21 21 20 20 20 22 25 28 30 31 30 29 28 28 28 27 27 26 25 24 23 22 21 20 19 20 20 19 19 19 18 17 17 16 15 14 14 13 13 12 12 11 10 10 10 10 11 11 10 9 9 9 9 8 8 8 8 9 9 9
14 15 16 17 17 17 18 19 21 25 29 31 32 31 30 29 28 28 27 27 26 26 26 24 22 21 19 18 19 21 21 20 19 18 18 18 17 16 14 13 13 13 12 11 11 11 10 10 10 10 10 10 9 9 9 9 8 9 9 8 9 9 9
10 13 13 14 15 15 17 20 21 23 26 29 31 31 30 30 29 29 28 27 27 28 27 25 24 22 20 19 19 21 22 21 20 18 17 17 18 18 16 14 13 12 12 11 11 11 11 10 10 10 10 10 10 10 10 10 10 10 10 9 9 10 10
9 10 11 12 14 15 17 21 24 25 27 29 29 29 29 29 30 30 30 29 29 29 29 28 26 24 21 20 20 22 23 22 21 19 18 18 18 18 18 16 14 12 12 12 12 12 11 11 11 10 10 10 10 10 11 11 11 11 11 10 10 10 11
7 8 9 11 13 14 16 19 22 25 27 29 29 29 28 28 29 31 31 30 30 30 30 29 28 26 24 22 22 22 22 22 22 21 20 19 18 18 18 17 16 14 13 12 12 11 11 12 11 11 11 10 10 11 11 11 12 13 12 11 11 11 13
6 5 6 8 9 11 12 14 16 20 23 25 28 28 28 28 29 30 30 30 30 30 30 30 29 28 27 26 25 24 23 22 22 22 21 20 18 17 17 17 16 14 13 13 12 12 13 13 12 12 11 10 11 11 10 12 15 14 12 12 13 13 14
4 4 3 4 6 7 8 9 10 12 15 18 20 22 24 25 27 28 28 28 29 29 28 28 27 27 26 27 27 26 24 23 22 22 22 20 17 15 15 16 16 15 15 15 13 14 15 15 13 13 11 10 10 10 11 14 16 14 12 12 13 13 14
3 2 2 3 4 5 6 7 8 8 9 11 12 14 18 21 23 25 26 28 28 27 23 22 24 26 26 26 27 27 26 24 22 21 20 18 17 15 14 15 15 17 17 16 14 15 16 15 15 15 13 10 10 9 11 15 15 14 14 15 15 15 15
5 5 2 3 4 4 5 6 7 7 7 7 8 9 12 15 18 20 23 25 25 24 22 20 23 26 26 26 27 26 26 25 24 22 20 18 16 16 17 17 17 17 17 15 13 15 16 16 16 16 14 12 10 10 13 17 17 17 18 18 18 18 17
8 10 8 5 4 4 5 6 6 6 5 5 6 7 8 9 11 13 16 17 18 19 20 20 21 22 23 23 23 24 24 23 24 24 24 21 19 17 19 20 19 18 16 15 15 16 16 15 16 17 17 16 13 13 17 21 20 20 21 20 21 21 19
7 12 10 7 7 5 5 6 6 6 6 5 5 6 6 7 8 8 9 9 10 13 15 16 17 18 19 20 21 23 23 21 22 24 24 23 23 20 19 20 19 19 18 17 17 17 16 15 15 17 18 17 15 14 19 22 21 21 22 21 21 21 20
10 14 13 8 4 5 5 5 4 4 4 5 5 5 5 7 7 6 6 7 7 10 12 14 17 18 19 21 23 24 24 22 22 23 21 22 24 23 21 20 19 18 18 18 18 19 17 15 16 17 16 16 14 15 19 21 20 20 20 20 20 20 19
11 16 15 10 4 3 4 5 6 5 4 3 3 3 3 4 5 5 6 7 8 10 13 14 16 17 19 22 24 25 25 25 26 24 20 18 20 21 21 20 18 17 17 15 15 15 14 13 15 16 14 14 14 15 18 19 19 19 19 20 21 21 21
11 15 14 9 6 4 5 5 7 7 7 6 4 3 3 3 4 4 5 5 6 8 11 13 15 18 20 22 24 25 25 25 26 24 21 18 18 18 17 17 16 15 14 13 12 12 12 13 15 15 14 14 14 16 19 20 19 20 21 22 22 22 22
13 17 15 12 10 9 8 7 7 8 9 9 7 5 4 4 3 3 4 3 3 5 7 11 15 19 21 23 24 24 24 23 23 23 21 19 18 17 16 17 16 14 13 13 12 11 11 13 16 16 15 15 16 17 19 19 20 20 20 20 21 20 20
13 18 18 16 15 14 12 11 11 13 14 14 12 10 7 5 5 6 6 5 4 3 1 4 9 13 16 20 22 22 20 20 21 20 19 18 16 15 16 17 15 12 11 11 11 11 12 14 16 15 15 16 16 17 18 18 17 17 16 15 14 13 13
13 19 20 18 17 17 17 16 17 20 21 20 17 15 13 12 13 14 14 13 13 13 13 10 6 3 7 14 17 16 15 15 14 14 14 13 12 13 13 13 13 12 10 10 10 10 11 13 14 14 14 14 13 12 11 9 8 7 7 6 5 5 6
14 20 23 21 19 19 20 20 21 23 25 24 23 22 20 20 23 25 23 22 22 21 19 17 17 17 18 21 22 21 20 18 15 14 13 11 11 12 12 12 12 10 9 8 9 8 8 9 9 8 7 5 3 1 1 1 0 1 2 2 2 2 3
14 18 23 25 23 22 23 24 24 24 25 25 25 25 23 23 26 27 27 27 26 23 21 20 21 22 23 23 24 24 23 21 19 18 16 14 13 12 12 12 11 9 8 7 6 6 6 6 5 5 4 5 5 4 4 4 4 4 3 3 4 4 5
15 17 21 25 25 24 25 26 25 24 24 24 25 27 26 26 28 30 29 28 25 22 22 22 22 23 24 24 24 23 22 22 21 20 18 16 14 13 13 12 12 11 10 9 9 8 7 8 7 7 7 7 5 4 3 3 3 3 4 5 5 6 7
17 18 21 24 26 26 26 27 27 26 26 26 26 28 29 29 30 32 30 27 24 23 22 22 23 24 26 25 25 24 22 22 22 20 18 17 15 14 14 13 12 12 11 9 8 7 6 5 4 4 6 6 3 1 2 2 3 4 5 6 7 8 8
20 20 21 23 25 26 27 28 28 28 28 28 29 30 32 31 31 33 31 28 26 25 25 25 25 26 26 26 25 24 23 23 23 21 19 17 14 12 11 10 10 11 10 8 6 5 5 4 3 2 4 4 2 1 2 3 4 6 8 9 9 9 9
21 21 21 22 23 23 24 26 27 27 28 29 28 28 29 29 29 28 27 25 24 25 26 26 26 25 25 24 23 22 22 22 21 20 19 18 16 13 11 11 10 10 10 9 6 5 4 3 2 2 2 2 1 2 3 4 5 7 9 9 9 9 9
23 22 21 21 22 23 25 27 28 29 30 30 28 25 25 26 25 23 22 22 22 23 25 25 25 24 24 24 23 22 21 20 20 19 18 17 16 15 14 13 11 10 10 9 8 6 5 3 2 3 2 1 2 3 3 3 5 7 8 8 8 8 8
22 24 23 23 24 25 26 27 28 29 30 29 28 27 26 25 23 22 21 21 22 23 24 24 24 23 21 21 22 22 21 20 20 19 18 17 16 15 15 13 12 11 10 9 8 7 6 4 4 3 3 2 3 3 4 4 5 7 8 8 8 8 8
20 23 25 25 26 26 27 27 28 29 29 27 26 26 26 24 22 20 18 18 19 21 22 22 22 21 20 19 19 20 20 19 18 18 17 17 16 15 15 14 13 12 11 9 8 8 6 5 5 4 4 4 4 5 5 5 6 7 7 8 8 8 8
24 25 26 27 28 28 28 27 27 27 27 26 25 25 24 23 22 20 19 18 18 19 20 20 19 18 18 18 18 18 18 17 17 17 16 15 15 14 13 13 12 11 10 9 8 7 6 6 6 6 6 6 6 6 6 6 6 6 6 7 7 7 7
29 28 26 27 28 29 28 26 25 24 24 23 23 22 22 21 20 19 18 17 16 16 17 18 17 16 15 15 15 16 15 14 14 14 14 13 13 13 12 11 10 9 9 8 7 7 7 7 7 7 6 6 6 7 7 7 6 6 6 6 6 6 5

ECMWFFLT1_850_spd_123.txt.gz
Wind_Speed
28 27 26 26 25 25 24 24 23 23 22 21 21 20 20 21 21 21 21 22 22 22 22 21 20 19 19 18 17 17 16 15 14 14 13 12 10 10 9 9 9 9 8 7 7 8 8 9 9 8 8 8 7 7 7 6 6 5 5 7 6 6 6
24 26 25 26 26 25 24 24 24 23 23 22 21 21 20 21 22 21 20 21 22 22 22 22 22 20 19 19 18 18 18 16 15 14 13 13 12 12 11 10 9 10 9 8 8 8 8 9 9 9 9 8 7 7 7 7 7 6 6 8 7 7 7
24 24 24 26 26 26 26 25 24 23 23 23 21 21 21 20 21 21 20 21 21 22 21 21 22 21 20 19 18 18 18 18 16 16 14 13 13 12 12 11 10 10 9 9 9 8 8 8 9 9 9 8 7 7 7 6 7 6 7 9 7 7 8
29 26 25 26 26 27 27 25 25 24 23 23 22 21 21 20 20 20 19 20 21 22 22 22 22 21 20 19 19 18 18 18 17 16 15 14 13 12 12 12 11 10 10 10 10 9 8 8 9 9 9 9 9 9 8 8 7 7 8 9 7 7 9
26 26 25 26 26 26 27 26 25 25 23 22 22 21 21 20 19 20 20 19 20 21 21 21 21 21 20 20 19 18 18 19 18 16 16 14 13 13 12 12 12 11 11 10 10 10 10 10 9 9 9 9 9 9 9 8 8 9 10 9 7 7 8
21 23 23 24 26 26 26 27 26 25 24 23 22 21 20 21 20 20 20 19 19 20 21 21 20 20 21 20 18 18 18 18 18 17 16 15 15 14 13 13 12 12 12 11 11 11 11 11 10 9 9 8 7 8 8 8 7 8 9 9 9 8 7
18 23 24 22 25 27 26 27 26 25 24 23 22 22 21 21 21 20 19 20 20 20 20 21 21 20 20 19 18 18 17 17 17 18 17 16 15 15 14 13 13 12 12 12 11 11 11 11 11 10 10 9 9 8 8 9 10 9 9 11 11 9 8
16 21 26 23 23 26 26 26 27 25 24 24 23 22 22 21 21 20 20 20 20 20 20 20 20 20 20 19 19 18 17 17 17 17 17 16 16 16 14 14 13 13 12 12 12 12 11 11 10 10 11 10 10 10 8 9 11 11 10 11 11 10 9
18 15 22 24 21 24 26 25 25 24 24 25 23 23 23 21 21 21 20 20 20 20 20 20 20 20 20 19 19 18 18 17 16 16 16 16 16 16 15 14 13 13 13 12 12 11 11 11 11 10 11 10 10 11 11 10 11 11 10 11 11 11 10
20 15 20 25 21 22 25 25 25 24 23 24 24 23 23 22 21 21 20 20 19 19 20 20 19 20 20 20 18 18 18 17 16 16 16 16 16 15 15 14 13 13 13 12 12 11 11 11 11 10 11 11 11 13 13 11 10 10 10 11 12 12 11
19 18 21 23 20 21 24 25 26 26 24 23 23 23 23 23 22 21 21 20 19 19 19 19 19 19 20 21 19 17 17 17 17 16 16 16 16 15 15 14 14 13 13 12 12 12 12 12 11 11 12 12 12 13 13 11 11 11 11 12 10 10 11
14 18 20 19 18 20 22 24 24 25 26 25 23 23 23 23 22 21 22 22 21 20 20 20 20 19 20 21 19 18 18 18 17 17 17 17 16 15 14 14 14 13 13 13 12 12 12 12 12 12 12 12 12 12 12 12 11 11 11 11 10 11 12
10 15 18 18 18 20 21 23 24 24 25 24 23 23 23 23 23 23 24 24 23 22 22 22 21 21 22 21 19 18 19 18 18 17 17 17 16 16 15 14 14 14 14 13 13 13 13 13 13 13 13 13 12 12 13 13 11 11 12 11 10 12 13
8 12 16 18 20 21 21 22 22 23 23 22 22 23 23 23 24 23 23 23 22 22 22 22 22 23 23 21 18 19 19 18 18 17 17 16 16 16 16 14 13 13 13 13 13 14 14 14 14 14 13 13 13 13 13 12 12 13 14 12 11 13 13
6 7 12 17 19 21 21 20 20 22 22 21 20 21 20 20 21 22 21 21 20 21 22 21 22 22 22 21 20 19 18 18 17 16 16 16 16 16 15 15 14 13 12 13 14 13 14 14 14 14 14 15 15 14 14 14 15 16 15 13 12 12 11
3 3 8 14 17 18 19 19 18 20 20 20 19 19 19 19 19 19 20 20 20 21 21 21 21 21 21 21 21 19 18 19 19 17 17 19 19 19 18 17 16 14 12 13 13 13 13 13 14 14 14 15 14 12 13 15 16 16 14 12 12 12 12
3 1 4 11 16 17 19 20 18 18 19 19 19 19 19 19 19 19 19 20 20 20 20 21 21 20 20 20 19 19 20 21 21 21 22 23 24 23 21 20 19 17 16 15 14 14 13 13 14 14 13 14 13 10 10 14 15 15 13 12 12 13 12
7 4 1 6 10 12 15 17 17 16 17 17 18 18 18 18 18 18 18 18 18 19 19 19 19 19 20 20 19 20 22 23 22 22 23 23 23 22 21 21 21 20 20 20 17 14 14 13 14 13 12 15 16 12 10 11 12 13 13 12 13 14 13
12 11 5 3 4 7 9 10 11 13 14 14 14 14 15 16 15 15 16 16 17 17 17 16 16 17 18 19 20 21 22 23 22 21 21 21 22 22 21 20 22 22 22 22 19 16 15 15 14 13 14 16 17 15 12 10 9 11 13 14 15 16 16
11 14 11 6 6 7 8 6 3 5 8 10 10 10 11 12 12 12 13 14 14 14 14 13 14 15 15 18 20 21 21 22 22 21 21 21 21 20 19 18 20 21 22 22 20 17 17 16 13 14 17 17 15 16 16 13 11 13 15 16 18 18 18
4 9 13 12 10 10 10 7 5 6 8 9 10 10 11 11 11 10 10 12 12 13 13 13 14 14 14 16 18 19 20 21 22 21 21 21 20 20 19 19 20 21 23 23 20 18 20 19 15 14 15 15 15 18 18 16 15 17 19 20 20 20 19
1 2 11 15 12 11 11 11 10 11 12 11 10 10 12 12 11 10 9 10 12 12 12 13 14 13 13 15 17 19 21 22 20 19 20 20 20 19 19 21 22 23 23 22 20 20 21 20 17 16 15 12 12 14 15 16 18 19 19 19 19 18 18
1 2 8 13 12 11 13 13 12 12 12 10 9 9 11 12 12 11 11 12 13 13 13 15 16 16 15 16 17 19 20 20 20 20 18 17 17 16 17 20 23 21 19 20 22 21 20 18 18 19 18 15 14 15 14 16 17 18 17 17 17 17 17
3 4 7 11 12 12 13 13 12 11 10 10 9 9 10 12 13 12 12 12 13 14 15 16 17 17 17 16 16 17 19 20 21 21 18 17 17 16 17 20 22 21 19 20 21 19 18 19 20 20 18 17 16 16 15 15 16 16 17 17 17 18 18
4 5 6 9 12 13 13 12 12 11 10 10 10 9 9 10 11 11 11 11 11 12 13 13 13 15 16 15 14 16 16 17 17 15 16 20 21 18 17 17 18 20 22 22 19 17 17 19 21 20 18 16 15 15 14 14 15 16 17 18 18 17 17
6 6 6 9 13 15 13 11 11 12 12 12 12 12 11 10 11 11 11 9 8 8 8 9 11 13 15 16 16 16 14 14 13 12 15 20 19 17 18 17 18 20 22 22 20 19 18 18 18 16 14 12 13 13 13 13 14 14 14 14 13 13 12
8 7 8 11 17 19 18 16 15 15 14 14 14 14 14 13 12 12 11 9 9 8 6 5 6 8 10 13 15 14 12 12 10 10 13 15 14 14 16 17 19 20 20 20 18 17 16 14 13 13 10 7 7 8 8 8 8 8 8 7 7 7 7
11 10 10 13 17 20 22 24 23 21 18 17 17 16 15 14 15 14 13 14 14 12 11 9 7 6 6 6 7 8 7 6 6 6 8 7 6 8 9 10 12 13 12 10 9 9 9 8 8 8 6 2 2 2 2 2 1 1 2 3 4 5 6
12 12 12 13 15 17 21 25 26 24 22 22 23 21 17 17 20 20 19 20 19 16 15 15 14 13 14 14 13 14 14 12 10 9 7 5 5 5 5 5 6 6 5 4 4 5 6 6 5 4 3 4 4 5 4 3 2 0 2 3 5 6 7
15 14 15 16 17 18 22 24 25 25 25 25 26 25 23 22 24 24 24 24 22 20 19 19 18 18 18 19 18 18 17 17 16 13 11 11 9 8 8 9 9 9 9 10 10 10 11 11 10 8 8 8 7 6 4 2 2 3 4 5 7 8 9
17 17 17 18 19 22 26 28 28 28 28 28 28 28 27 26 26 27 26 24 23 22 21 21 21 21 21 21 19 17 17 17 17 16 15 14 14 14 14 14 13 13 12 12 12 10 9 8 7 6 7 7 5 6 7 6 5 5 5 5 7 9 9
18 19 19 19 21 24 30 33 33 33 32 30 29 29 28 27 26 26 25 23 22 22 22 22 22 23 23 23 21 19 18 18 17 16 14 13 13 12 11 10 11 12 12 10 9 7 6 6 6 5 5 5 3 4 5 5 4 3 5 6 7 8 8
18 19 20 21 22 23 27 30 32 32 31 29 27 27 27 27 27 27 27 25 24 24 24 24 25 25 24 23 22 21 20 19 18 16 14 13 12 10 8 9 11 12 12 10 9 8 7 7 7 5 4 3 1 2 2 1 2 6 7 6 6 6 6
18 19 20 21 21 22 23 25 27 27 27 25 23 22 22 24 24 24 25 24 23 24 25 26 27 26 24 23 22 22 21 19 18 17 15 14 13 11 11 11 11 10 10 9 9 8 7 6 6 6 5 3 3 5 5 5 6 6 4 4 4 5 6
19 20 21 21 22 23 23 23 24 25 25 24 22 21 21 21 21 21 21 20 20 20 21 22 23 22 20 20 20 20 19 18 17 17 15 15 13 12 12 12 11 10 9 8 8 7 6 6 6 6 5 4 3 4 5 5 4 3 3 4 4 5 6
18 20 21 22 24 24 23 22 24 26 25 24 23 22 21 20 19 19 18 18 18 18 18 18 18 17 16 16 16 15 15 15 16 16 15 14 13 13 12 11 10 10 9 8 7 6 5 5 5 4 3 2 2 1 1 2 3 4 4 5 6 6 6
15 19 21 23 24 24 23 22 23 24 24 22 21 20 20 19 18 17 17 17 16 16 17 16 16 16 15 15 15 15 15 16 16 16 15 14 13 13 13 12 11 9 9 8 7 6 6 5 5 4 3 3 3 3 3 4 4 5 6 6 6 6 6
15 19 22 23 23 23 23 22 22 22 22 21 21 20 20 19 18 17 17 17 15 15 15 14 14 15 14 14 15 15 14 14 14 13 13 12 12 11 10 9 9 9 9 8 7 7 7 6 6 6 5 5 5 5 5 5 6 6 6 6 6 6 6